# Wetter Temperatur Luftdruck Luftfeuchtigkeit Sichtweite Windgeschwindigkeit Windrichtung Zeit
1 Clouds 14 1017 84 10000 2.03 58 05:18 02.10.2022
2 Rain 16 1022 82 10000 2.57 60 00:56 02.10.2022
3 Rain 16 1022 82 10000 2.57 60 00:36 02.10.2022
4 Rain 17 1023 77 10000 5.14 60 23:24 01.10.2022
5 Clouds 19 1023 59 10000 7.72 90 21:38 01.10.2022
6 Clouds 21 1021 54 10000 2.57 180 18:54 01.10.2022
7 Clouds 21 1020 52 10000 3.6 120 17:26 01.10.2022
8 Clouds 27 1019 35 10000 10.29 150 14:44 01.10.2022
9 Clouds 28 1020 31 10000 6.17 150 13:44 01.10.2022
10 Clouds 27 1021 33 10000 5.14 90 12:34 01.10.2022
11 Clouds 25 1023 44 10000 2.57 80 11:22 01.10.2022
12 Clouds 23 1023 51 10000 2.06 150 10:44 01.10.2022
13 Clouds 22 1024 56 10000 2.06 0 10:25 01.10.2022
14 Clouds 20 1024 60 10000 2.06 10 09:18 01.10.2022
15 Clouds 18 1024 68 10000 2.06 0 08:19 01.10.2022
16 Clouds 15 1022 88 10000 4.63 60 03:39 01.10.2022
17 Clouds 16 1022 82 10000 4.12 50 01:31 01.10.2022
18 Clouds 17 1017 70 10000 3.58 86 23:20 30.09.2022
19 Clouds 19 1022 66 10000 3.09 90 21:56 30.09.2022
20 Clouds 20 1021 58 10000 5.14 100 20:45 30.09.2022
21 Rain 19 1016 65 10000 4.47 73 20:20 30.09.2022
22 Clouds 24 1019 46 10000 6.17 70 17:59 30.09.2022
23 Clouds 24 1018 44 10000 6.69 80 16:31 30.09.2022
24 Clouds 25 1019 40 10000 6.17 60 14:22 30.09.2022
25 Clouds 22 1022 53 10000 2.06 0 12:29 30.09.2022
26 Clouds 22 1021 55 10000 3.09 110 11:54 30.09.2022
27 Clouds 17 1023 76 10000 2.06 120 08:51 30.09.2022
28 Clouds 15 1021 91 10000 1.03 40 06:38 30.09.2022
29 Clouds 16 1022 85 10000 3.6 70 02:51 30.09.2022
30 Clouds 17 1023 77 10000 0 0 00:53 30.09.2022
31 Clouds 19 1021 65 10000 7.2 80 21:39 29.09.2022
32 Clouds 20 1016 60 10000 6.19 99 21:19 29.09.2022
33 Clouds 24 1019 43 10000 7.72 100 18:54 29.09.2022
34 Clouds 24 1018 39 10000 7.72 90 17:48 29.09.2022
35 Clouds 26 1018 34 10000 5.14 90 16:29 29.09.2022
36 Clouds 26 1018 36 10000 7.2 140 15:36 29.09.2022
37 Clouds 26 1018 34 10000 5.14 120 14:59 29.09.2022
38 Clouds 24 1021 39 10000 2.57 0 11:54 29.09.2022
39 Clouds 16 1022 70 10000 2.57 230 07:39 29.09.2022
40 Clouds 15 1021 88 10000 1.03 240 04:22 29.09.2022
41 Clear 15 1022 78 10000 1.54 10 01:47 29.09.2022
42 Clouds 17 1016 58 10000 4.23 76 23:20 28.09.2022
43 Clouds 19 1021 50 10000 3.09 90 21:31 28.09.2022
44 Clouds 20 1020 49 10000 4.63 100 20:49 28.09.2022
45 Clouds 22 1020 43 10000 6.17 100 19:48 28.09.2022
46 Clouds 23 1011 29 10000 5.19 124 16:35 28.09.2022
47 Clouds 26 1021 31 10000 3.09 0 13:28 28.09.2022
48 Clouds 26 1021 31 10000 3.09 0 13:28 28.09.2022
49 Clouds 24 1023 38 10000 3.09 130 11:45 28.09.2022
50 Clouds 19 1024 57 10000 3.09 60 09:36 28.09.2022
51 Clouds 15 1024 80 10000 2.57 220 07:43 28.09.2022
52 Clear 10 1023 90 10000 2.57 230 05:37 28.09.2022
53 Clear 14 1022 77 10000 2.06 10 01:44 28.09.2022
54 Clear 14 1022 77 10000 2.57 10 00:36 28.09.2022
55 Clear 18 1024 55 10000 1.54 150 22:40 27.09.2022
56 Clear 19 1022 55 10000 4.63 90 21:20 27.09.2022
57 Clouds 20 1022 47 10000 5.14 90 20:31 27.09.2022
58 Clouds 21 1021 43 10000 5.14 90 19:40 27.09.2022
59 Clouds 24 1020 33 10000 6.69 90 17:47 27.09.2022
60 Clouds 25 1020 28 10000 5.14 130 16:56 27.09.2022
61 Clouds 26 1020 27 10000 2.06 0 15:18 27.09.2022
62 Clear 27 1011 24 10000 4.45 114 13:53 27.09.2022
63 Clouds 24 1023 35 10000 4.12 150 12:39 27.09.2022
64 Clouds 22 1024 46 10000 7.2 150 10:35 27.09.2022
65 Clouds 19 1024 63 10000 7.72 110 08:36 27.09.2022
66 Clouds 16 1018 76 10000 3.57 71 05:22 27.09.2022
67 Clouds 16 1022 77 10000 2.57 50 01:40 27.09.2022
68 Clouds 17 1022 72 10000 2.57 70 00:28 27.09.2022
69 Clouds 16 1023 67 10000 2.57 50 23:24 26.09.2022
70 Clouds 19 1023 59 10000 5.14 100 21:37 26.09.2022
71 Clouds 18 1016 50 10000 5.73 100 20:18 26.09.2022
72 Clouds 22 1021 46 10000 5.66 90 19:19 26.09.2022
73 Clouds 24 1020 42 10000 6.69 90 17:27 26.09.2022
74 Clouds 25 1020 36 10000 3.09 90 15:44 26.09.2022
75 Clouds 23 1022 40 10000 3.6 30 12:42 26.09.2022
76 Clouds 22 1023 46 10000 4.63 80 11:28 26.09.2022
77 Clouds 21 1025 52 10000 3.6 120 10:36 26.09.2022
78 Clouds 22 1018 52 10000 3.14 87 10:18 26.09.2022
79 Clouds 20 1025 52 10000 5.14 130 09:52 26.09.2022
80 Clouds 20 1025 52 10000 5.14 130 09:21 26.09.2022
81 Clouds 15 1023 82 10000 3.09 150 05:30 26.09.2022
82 Clouds 14 1022 85 10000 1.03 0 02:35 26.09.2022
83 Clouds 18 1023 68 10000 1.54 0 23:25 25.09.2022
84 Clouds 18 1022 72 10000 2.06 160 21:48 25.09.2022
85 Rain 19 1022 63 10000 3.6 130 21:25 25.09.2022
86 Clouds 20 1022 62 10000 6.17 150 20:36 25.09.2022
87 Clouds 23 1020 43 10000 7.2 100 18:57 25.09.2022
88 Clouds 23 1019 40 10000 6.17 100 18:26 25.09.2022
89 Clouds 24 1019 43 10000 2.57 120 17:29 25.09.2022
90 Clouds 22 1019 56 10000 5.66 170 16:21 25.09.2022
91 Clouds 24 1019 42 10000 10.29 150 14:55 25.09.2022
92 Clouds 25 1020 38 10000 2.57 0 14:19 25.09.2022
93 Clouds 23 1023 44 10000 6.17 110 11:34 25.09.2022
94 Clouds 20 1024 56 10000 4.12 150 09:48 25.09.2022
95 Clouds 17 1023 67 10000 5.14 150 07:43 25.09.2022
96 Clouds 14 1021 82 10000 4.63 190 05:27 25.09.2022
97 Clouds 18 1022 77 10000 4.63 150 23:37 24.09.2022
98 Clouds 18 1022 77 10000 4.63 150 23:37 24.09.2022
99 Clouds 20 1021 64 10000 5.66 90 21:25 24.09.2022
100 Clouds 20 1021 62 10000 6.17 100 20:34 24.09.2022
101 Clouds 23 1020 46 10000 7.72 100 19:20 24.09.2022
102 Clouds 26 1018 32 10000 6.69 90 16:57 24.09.2022
103 Clouds 27 1018 29 10000 4.12 70 15:29 24.09.2022
104 Clouds 27 1019 29 10000 5.14 90 14:47 24.09.2022
105 Clouds 26 1021 31 10000 2.57 140 13:22 24.09.2022
106 Clouds 25 1022 36 10000 4.12 150 12:25 24.09.2022
107 Clouds 20 1024 52 10000 3.6 80 09:59 24.09.2022
108 Clouds 19 1024 63 10000 2.06 360 09:21 24.09.2022
109 Clouds 18 1024 63 10000 2.06 0 08:40 24.09.2022
110 Clouds 15 1022 72 10000 3.09 40 04:55 24.09.2022
111 Clear 13 1023 82 10000 3.09 40 04:27 24.09.2022
112 Clouds 16 1023 67 10000 1.03 0 23:25 23.09.2022
113 Clouds 19 1023 55 10000 3.6 80 21:41 23.09.2022
114 Clouds 19 1023 55 10000 3.6 80 21:22 23.09.2022
115 Clouds 20 1022 48 10000 7.72 120 20:54 23.09.2022
116 Clouds 22 1020 43 10000 7.2 80 19:20 23.09.2022
117 Clouds 24 1019 33 10000 7.2 90 17:42 23.09.2022
118 Clouds 25 1020 37 10000 5.14 150 13:40 23.09.2022
119 Clouds 20 1024 60 10000 2.06 110 10:22 23.09.2022
120 Clouds 16 1023 74 10000 3.09 180 07:30 23.09.2022
121 Clouds 17 1021 72 10000 1.03 0 02:32 23.09.2022
122 Clouds 17 1023 70 10000 3.09 70 23:29 22.09.2022
123 Clouds 19 1022 63 10000 5.66 70 22:28 22.09.2022
124 Clouds 19 1022 62 10000 4.63 80 21:35 22.09.2022
125 Clouds 18 1015 54 10000 5.29 98 20:23 22.09.2022
126 Clouds 22 1020 51 10000 8.23 100 18:57 22.09.2022
127 Clouds 22 1009 28 10000 4.16 87 15:23 22.09.2022
128 Clouds 22 1023 53 10000 3.09 140 10:51 22.09.2022
129 Clouds 21 1023 56 10000 2.06 0 10:19 22.09.2022
130 Clouds 16 1023 77 10000 4.12 180 07:55 22.09.2022
131 Clouds 15 1021 85 10000 0 0 04:56 22.09.2022
132 Clear 16 1021 67 10000 3.6 30 01:19 22.09.2022
133 Clear 19 1021 55 10000 5.14 70 22:29 21.09.2022
134 Clouds 20 1021 52 10000 5.14 80 21:18 21.09.2022
135 Clouds 23 1019 37 10000 6.17 90 18:51 21.09.2022
136 Clouds 25 1018 34 10000 8.75 90 17:44 21.09.2022
137 Clouds 27 1018 33 10000 5.14 90 15:35 21.09.2022
138 Clouds 25 1020 37 10000 3.09 90 13:54 21.09.2022
139 Clouds 23 1021 49 10000 5.14 60 11:43 21.09.2022
140 Clouds 20 1023 60 10000 5.14 90 10:59 21.09.2022
141 Clouds 19 1023 63 10000 5.14 90 09:40 21.09.2022
142 Clouds 18 1023 68 10000 0 0 08:43 21.09.2022
143 Clouds 16 1020 82 10000 4.63 80 03:56 21.09.2022
144 Clouds 16 1020 82 10000 5.14 50 02:38 21.09.2022
145 Clouds 16 1021 88 10000 4.63 50 01:58 21.09.2022
146 Clouds 17 1022 77 10000 4.12 50 00:20 21.09.2022
147 Clouds 18 1022 72 10000 5.66 80 21:53 20.09.2022
148 Clouds 19 1022 65 10000 7.2 90 20:33 20.09.2022
149 Clouds 22 1020 51 10000 8.23 80 18:51 20.09.2022
150 Clouds 27 1019 35 10000 5.14 60 15:51 20.09.2022
151 Clouds 26 1019 36 10000 5.14 30 14:29 20.09.2022
152 Clouds 25 1021 41 10000 5.14 60 12:32 20.09.2022
153 Clouds 18 1024 75 10000 0 0 08:50 20.09.2022
154 Clouds 18 1024 75 10000 0 0 08:24 20.09.2022
155 Clouds 16 1022 88 10000 1.54 10 04:40 20.09.2022
156 Clouds 16 1022 88 10000 2.06 70 02:34 20.09.2022
157 Clouds 18 1024 72 10000 5.66 60 22:46 19.09.2022
158 Clouds 19 1023 63 10000 5.14 70 21:36 19.09.2022
159 Clouds 20 1023 58 10000 4.12 80 20:40 19.09.2022
160 Clouds 22 1021 53 10000 8.23 100 19:20 19.09.2022
161 Clouds 24 1020 40 10000 7.2 80 17:37 19.09.2022
162 Clouds 27 1021 32 10000 3.09 0 13:53 19.09.2022
163 Clouds 25 1021 36 10000 4.12 110 12:33 19.09.2022
164 Clouds 22 1024 49 10000 4.12 210 10:31 19.09.2022
165 Clouds 19 1025 70 10000 2.57 90 08:42 19.09.2022
166 Clouds 15 1022 88 10000 1.54 20 04:39 19.09.2022
167 Clouds 16 1022 82 10000 2.06 350 01:18 19.09.2022
168 Clouds 17 1017 74 10000 3.96 86 23:22 18.09.2022
169 Clouds 17 1023 72 10000 5.66 80 21:32 18.09.2022
170 Clouds 19 1021 55 10000 4.63 90 19:58 18.09.2022
171 Clouds 23 1020 44 10000 6.17 90 17:53 18.09.2022
172 Clouds 23 1020 46 10000 6.17 80 17:19 18.09.2022
173 Clouds 23 1020 44 10000 6.17 110 15:34 18.09.2022
174 Clouds 21 1021 54 10000 4.12 50 13:47 18.09.2022
175 Clouds 20 1022 60 10000 1.54 0 12:33 18.09.2022
176 Clouds 18 1024 68 10000 1.54 340 10:44 18.09.2022
177 Clouds 14 1020 82 10000 2.57 60 03:40 18.09.2022
178 Clouds 16 1016 82 10000 2.37 82 01:24 18.09.2022
179 Clouds 17 1022 67 10000 5.14 60 00:21 18.09.2022
180 Clouds 19 1022 57 10000 5.66 80 21:36 17.09.2022
181 Clouds 20 1021 56 10000 5.14 70 19:42 17.09.2022
182 Clouds 21 1020 54 10000 7.2 90 18:46 17.09.2022
183 Clouds 24 1019 46 10000 7.72 90 15:58 17.09.2022
184 Clouds 24 1020 42 10000 3.6 60 13:56 17.09.2022
185 Clouds 19 1024 63 10000 2.06 0 10:56 17.09.2022
186 Clouds 17 1024 83 10000 2.06 70 08:55 17.09.2022
187 Clouds 15 1022 88 10000 3.6 70 06:24 17.09.2022
188 Clouds 15 1023 82 10000 1.54 10 23:59 16.09.2022
189 Clouds 16 1023 71 10000 2.06 60 22:52 16.09.2022
190 Clouds 19 1022 55 10000 3.09 120 20:59 16.09.2022
191 Clouds 21 1022 46 10000 5.66 100 19:50 16.09.2022
192 Clouds 24 1020 35 10000 7.2 150 16:38 16.09.2022
193 Clouds 24 1021 36 10000 5.14 120 14:58 16.09.2022
194 Clouds 23 1022 40 10000 3.6 160 13:56 16.09.2022
195 Clouds 21 1024 46 10000 5.66 140 11:31 16.09.2022
196 Clouds 16 1025 77 10000 4.12 150 08:19 16.09.2022
197 Clouds 16 1021 76 10000 3.44 121 07:18 16.09.2022
198 Clouds 16 1024 77 10000 3.09 150 06:35 16.09.2022
199 Clouds 15 1023 82 10000 1.54 90 02:40 16.09.2022
200 Clouds 17 1025 72 10000 4.63 150 22:52 15.09.2022
201 Clouds 19 1023 61 10000 4.63 140 20:57 15.09.2022
202 Clouds 19 1022 60 10000 6.17 120 19:49 15.09.2022
203 Clouds 21 1022 52 10000 5.66 120 18:29 15.09.2022
204 Clouds 21 1022 52 10000 4.63 130 17:32 15.09.2022
205 Clouds 22 1021 48 10000 5.14 120 16:43 15.09.2022
206 Clouds 22 1021 50 10000 5.14 160 14:30 15.09.2022
207 Clouds 18 1025 68 10000 4.12 140 12:21 15.09.2022
208 Clouds 17 1026 72 10000 2.57 130 09:54 15.09.2022
209 Clouds 15 1026 79 10000 4.12 180 07:50 15.09.2022
210 Clouds 14 1023 88 10000 2.57 20 03:53 15.09.2022
211 Clouds 15 1023 77 10000 1.03 0 01:20 15.09.2022
212 Clouds 18 1024 59 10000 3.6 90 21:39 14.09.2022
213 Clouds 20 1023 56 10000 4.12 70 19:34 14.09.2022
214 Clouds 20 1022 56 10000 4.12 60 18:32 14.09.2022
215 Clouds 21 1022 54 10000 3.6 80 16:46 14.09.2022
216 Clouds 21 1022 54 10000 3.6 100 15:38 14.09.2022
217 Clouds 21 1023 54 10000 3.09 120 13:54 14.09.2022
218 Clouds 21 1025 56 10000 1.54 0 11:30 14.09.2022
219 Clouds 18 1026 63 10000 3.09 160 09:48 14.09.2022
220 Clouds 15 1024 72 10000 3.09 210 07:29 14.09.2022
221 Clouds 15 1024 74 10000 3.09 190 06:46 14.09.2022
222 Clouds 15 1022 72 10000 2.57 200 04:24 14.09.2022
223 Clouds 17 1016 81 10000 1.49 51 01:47 14.09.2022
224 Clouds 17 1017 80 10000 2.08 77 01:27 14.09.2022
225 Clouds 17 1017 80 10000 2.09 77 00:42 14.09.2022
226 Clouds 17 1024 72 10000 4.12 70 23:54 13.09.2022
227 Clouds 17 1024 72 10000 4.12 70 23:36 13.09.2022
228 Clouds 18 1024 68 10000 5.14 80 23:18 13.09.2022
229 Clouds 19 1023 59 10000 7.2 80 21:45 13.09.2022
230 Clouds 20 1022 58 10000 5.66 80 19:45 13.09.2022
231 Clouds 22 1020 54 10000 7.2 80 17:44 13.09.2022
232 Clouds 25 1019 44 10000 6.17 180 15:55 13.09.2022
233 Clouds 24 1020 46 10000 8.23 150 14:36 13.09.2022
234 Clouds 24 1021 48 10000 5.66 150 12:32 13.09.2022
235 Clouds 17 1023 77 10000 3.09 200 08:50 13.09.2022
236 Clouds 13 1021 88 10000 1.54 200 05:45 13.09.2022
237 Clouds 18 1015 77 10000 2.88 76 00:19 13.09.2022
238 Clouds 19 1021 63 10000 3.6 70 22:50 12.09.2022
239 Clouds 19 1021 62 10000 3.09 50 21:37 12.09.2022
240 Clouds 20 1020 64 10000 4.63 90 20:25 12.09.2022
241 Clouds 21 1019 58 10000 6.17 90 18:44 12.09.2022
242 Clouds 24 1018 46 10000 7.72 90 16:38 12.09.2022
243 Clouds 26 1018 38 10000 4.12 150 14:36 12.09.2022
244 Clouds 23 1021 51 10000 3.09 0 11:29 12.09.2022
245 Clouds 20 1023 60 10000 2.06 90 09:56 12.09.2022
246 Clouds 15 1021 88 10000 5.14 90 04:51 12.09.2022
247 Clouds 15 1021 88 10000 5.14 90 04:24 12.09.2022
248 Clouds 18 1022 74 10000 2.57 20 23:34 11.09.2022
249 Clouds 18 1022 68 10000 4.63 80 22:18 11.09.2022
250 Clouds 21 1021 64 10000 5.14 90 20:48 11.09.2022
251 Clouds 21 1020 60 10000 5.66 90 19:56 11.09.2022
252 Clouds 19 1014 55 10000 5.12 69 19:23 11.09.2022
253 Clouds 23 1019 49 10000 7.72 90 18:21 11.09.2022
254 Clouds 26 1018 41 10000 7.72 90 16:46 11.09.2022
255 Clouds 26 1019 41 10000 4.12 170 14:39 11.09.2022
256 Clouds 24 1021 48 10000 2.57 180 12:50 11.09.2022
257 Clouds 19 1024 63 10000 1.03 120 09:25 11.09.2022
258 Clouds 19 1024 63 10000 1.03 120 09:25 11.09.2022
259 Clouds 15 1023 88 10000 2.06 230 07:19 11.09.2022
260 Clear 15 1023 76 10000 2.57 350 00:54 11.09.2022
261 Clear 17 1024 67 10000 2.06 30 22:56 10.09.2022
262 Clear 18 1024 63 10000 3.09 70 21:33 10.09.2022
263 Clouds 21 1022 47 10000 6.69 100 19:48 10.09.2022
264 Clouds 21 1022 47 10000 6.69 100 19:29 10.09.2022
265 Clouds 22 1021 44 10000 5.66 80 18:55 10.09.2022
266 Clouds 24 1020 39 10000 5.14 70 16:51 10.09.2022
267 Clouds 23 1021 44 10000 6.17 120 14:43 10.09.2022
268 Clouds 21 1023 52 10000 3.6 140 12:53 10.09.2022
269 Clouds 20 1025 56 10000 3.09 90 11:35 10.09.2022
270 Clouds 17 1026 67 10000 3.09 60 09:51 10.09.2022
271 Clouds 16 1026 72 10000 0 0 08:37 10.09.2022
272 Clouds 14 1024 82 10000 1.03 90 07:49 10.09.2022
273 Clouds 15 1023 77 10000 1.54 230 00:51 10.09.2022
274 Clouds 17 1024 67 10000 2.57 70 23:33 09.09.2022
275 Clouds 18 1023 63 10000 3.6 80 22:20 09.09.2022
276 Clouds 18 1023 63 10000 4.12 50 20:48 09.09.2022
277 Clouds 19 1022 63 10000 2.57 20 19:25 09.09.2022
278 Clouds 19 1021 61 10000 3.09 60 18:53 09.09.2022
279 Clouds 20 1020 64 10000 3.09 110 16:33 09.09.2022
280 Clouds 19 1021 59 10000 5.14 120 13:51 09.09.2022
281 Clouds 19 1023 61 10000 4.12 100 12:47 09.09.2022
282 Clouds 17 1024 67 10000 2.06 70 09:57 09.09.2022
283 Clouds 13 1023 79 10000 1.54 270 06:45 09.09.2022
284 Clouds 14 1021 88 10000 3.09 200 03:23 09.09.2022
285 Clouds 17 1023 77 10000 1.54 350 21:57 08.09.2022
286 Clouds 17 1023 77 10000 1.54 30 21:36 08.09.2022
287 Clouds 17 1022 77 10000 1.54 330 20:38 08.09.2022
288 Clouds 18 1022 68 10000 2.06 50 20:19 08.09.2022
289 Clouds 18 1021 70 10000 2.57 30 18:26 08.09.2022
290 Clouds 19 1020 65 10000 2.57 90 16:27 08.09.2022
291 Clouds 17 1021 73 10000 4.12 60 14:41 08.09.2022
292 Clouds 16 1022 82 10000 4.12 90 13:27 08.09.2022
293 Clouds 16 1023 79 10000 4.12 90 12:33 08.09.2022
294 Clouds 17 1025 74 10000 2.57 40 10:58 08.09.2022
295 Clouds 17 1025 74 10000 2.57 40 10:58 08.09.2022
296 Clouds 15 1024 88 10000 2.06 350 08:55 08.09.2022
297 Clouds 13 1022 93 10000 1.54 30 06:43 08.09.2022
298 Clouds 15 1021 82 10000 3.09 40 02:37 08.09.2022
299 Clouds 15 1021 82 10000 3.09 50 02:19 08.09.2022
300 Clouds 15 1022 82 10000 3.6 50 01:38 08.09.2022
301 Clouds 15 1023 91 10000 2.06 330 22:55 07.09.2022
302 Clouds 16 1023 88 10000 2.06 330 21:43 07.09.2022
303 Clouds 16 1023 88 10000 2.06 340 20:56 07.09.2022
304 Clouds 16 1022 91 10000 2.57 40 19:53 07.09.2022
305 Clouds 16 1022 88 10000 4.12 40 18:37 07.09.2022
306 Clouds 18 1021 80 10000 4.12 90 14:45 07.09.2022
307 Clouds 16 1024 85 10000 4.63 190 10:50 07.09.2022
308 Clouds 15 1025 94 10000 4.12 180 09:52 07.09.2022
309 Drizzle 15 1023 94 7000 4.63 170 07:35 07.09.2022
310 Clouds 15 1021 100 10000 1.54 80 03:34 07.09.2022
311 Clouds 16 1023 91 10000 1.54 40 23:48 06.09.2022
312 Rain 17 1023 91 10000 2.57 60 21:43 06.09.2022
313 Rain 17 1023 94 10000 3.09 50 21:24 06.09.2022
314 Clouds 18 1021 82 10000 2.57 80 18:53 06.09.2022
315 Rain 18 1021 88 10000 3.6 90 18:23 06.09.2022
316 Rain 19 1020 77 10000 4.63 50 17:23 06.09.2022
317 Clouds 19 1020 82 10000 5.14 60 16:38 06.09.2022
318 Rain 25 1020 44 10000 3.09 40 15:23 06.09.2022
319 Clouds 25 1021 44 10000 3.09 50 13:45 06.09.2022
320 Clouds 25 1021 44 10000 3.09 50 13:25 06.09.2022
321 Clouds 24 1022 48 10000 4.12 120 12:31 06.09.2022
322 Clouds 20 1025 64 10000 1.03 0 10:45 06.09.2022
323 Clouds 16 1025 82 10000 2.06 200 08:50 06.09.2022
324 Clouds 15 1024 82 10000 3.09 180 07:49 06.09.2022
325 Clouds 15 1022 88 10000 1.03 0 03:41 06.09.2022
326 Clouds 16 1024 85 10000 3.6 30 23:28 05.09.2022
327 Rain 18 1024 72 10000 3.6 360 22:29 05.09.2022
328 Clouds 19 1023 66 10000 5.14 60 20:43 05.09.2022
329 Clouds 19 1023 66 10000 6.17 30 19:26 05.09.2022
330 Clouds 21 1022 60 10000 5.14 30 18:46 05.09.2022
331 Clouds 21 1022 60 10000 5.14 30 18:21 05.09.2022
332 Clouds 25 1020 44 10000 5.66 80 16:53 05.09.2022
333 Clouds 26 1020 38 10000 5.14 60 15:50 05.09.2022
334 Clouds 23 1022 47 10000 3.6 40 13:26 05.09.2022
335 Clouds 24 1024 46 10000 4.12 50 12:28 05.09.2022
336 Clouds 21 1025 56 10000 2.57 110 10:24 05.09.2022
337 Clouds 14 1024 82 10000 1.03 40 06:46 05.09.2022
338 Clouds 15 1023 79 10000 3.6 50 02:42 05.09.2022
339 Clouds 17 1024 63 10000 3.09 80 23:26 04.09.2022
340 Clouds 18 1018 62 10000 3.35 75 22:27 04.09.2022
341 Clouds 19 1024 59 10000 5.14 80 21:34 04.09.2022
342 Clouds 20 1023 56 10000 5.14 60 19:38 04.09.2022
343 Clouds 22 1021 49 10000 7.2 80 18:20 04.09.2022
344 Clouds 24 1020 42 10000 5.66 90 16:56 04.09.2022
345 Clouds 26 1021 34 10000 3.09 0 14:33 04.09.2022
346 Clouds 25 1021 41 10000 5.14 150 13:52 04.09.2022
347 Clouds 23 1014 37 10000 2.66 150 12:18 04.09.2022
348 Clouds 18 1025 63 10000 5.14 90 10:47 04.09.2022
349 Clouds 17 1019 64 10000 1.16 100 08:21 04.09.2022
350 Clouds 13 1023 94 10000 2.57 210 05:36 04.09.2022
351 Clouds 16 1023 77 10000 1.54 20 00:53 04.09.2022
352 Clouds 18 1024 59 10000 4.12 50 22:26 03.09.2022
353 Clouds 17 1024 67 10000 2.57 50 21:23 03.09.2022
354 Clouds 19 1022 64 10000 3.6 60 19:56 03.09.2022
355 Clouds 22 1020 51 10000 4.63 60 17:29 03.09.2022
356 Clouds 23 1020 51 10000 6.17 120 16:33 03.09.2022
357 Clouds 22 1021 49 10000 5.14 130 14:47 03.09.2022
358 Clouds 22 1021 48 10000 5.14 130 14:26 03.09.2022
359 Clouds 22 1015 44 10000 3.61 143 13:21 03.09.2022
360 Clouds 18 1025 63 10000 2.06 130 10:55 03.09.2022
361 Clouds 16 1026 74 10000 4.12 180 08:41 03.09.2022
362 Clouds 14 1024 85 10000 3.6 200 06:59 03.09.2022
363 Clouds 14 1022 82 10000 3.09 220 04:40 03.09.2022
364 Clouds 15 1023 70 10000 2.57 180 00:41 03.09.2022
365 Clouds 16 1023 67 10000 1.54 210 23:20 02.09.2022
366 Clouds 17 1023 63 10000 2.06 200 21:33 02.09.2022
367 Clouds 17 1023 67 10000 1.54 40 20:39 02.09.2022
368 Clouds 18 1023 63 10000 3.09 70 19:35 02.09.2022
369 Clouds 18 1021 66 10000 2.57 150 18:43 02.09.2022
370 Clouds 18 1021 68 10000 1.54 130 18:24 02.09.2022
371 Clouds 18 1021 68 10000 2.57 120 16:50 02.09.2022
372 Clouds 17 1021 70 10000 5.14 130 15:40 02.09.2022
373 Clouds 19 1023 59 10000 3.6 30 12:49 02.09.2022
374 Clouds 17 1024 72 10000 1.54 110 10:25 02.09.2022
375 Clouds 17 1024 72 10000 1.54 110 10:25 02.09.2022
376 Clouds 16 1024 77 10000 3.09 130 09:41 02.09.2022
377 Clouds 15 1024 82 10000 2.06 50 07:54 02.09.2022
378 Clouds 14 1022 88 10000 1.54 80 06:42 02.09.2022
379 Clouds 14 1021 88 10000 2.06 240 03:53 02.09.2022
380 Clouds 18 1022 60 10000 3.6 80 22:54 01.09.2022
381 Clouds 20 1021 52 10000 2.57 90 21:45 01.09.2022
382 Clouds 18 1015 58 10000 4.63 100 21:25 01.09.2022
383 Clouds 20 1020 51 10000 3.6 90 20:48 01.09.2022
384 Clouds 21 1019 45 10000 5.66 100 19:23 01.09.2022
385 Clouds 24 1018 40 10000 5.14 70 17:48 01.09.2022
386 Clouds 24 1019 38 10000 3.6 90 16:29 01.09.2022
387 Clouds 23 1019 41 10000 4.63 40 14:33 01.09.2022
388 Clouds 23 1021 42 10000 2.57 60 12:59 01.09.2022
389 Clouds 20 1023 52 10000 2.57 0 11:55 01.09.2022
390 Clouds 20 1023 52 10000 2.57 0 11:36 01.09.2022
391 Clouds 19 1023 57 10000 3.09 180 10:45 01.09.2022
392 Clouds 16 1024 72 10000 1.03 0 08:31 01.09.2022
393 Clouds 14 1022 89 10000 2.57 190 06:23 01.09.2022
394 Clouds 14 1022 84 10000 3.09 240 01:34 01.09.2022
395 Clouds 14 1023 77 10000 2.57 250 00:18 01.09.2022
396 Clouds 17 1022 71 10000 1.03 40 21:45 31.08.2022
397 Clouds 18 1021 59 10000 3.09 110 19:59 31.08.2022
398 Clouds 20 1021 52 10000 4.12 110 18:19 31.08.2022
399 Clouds 21 1020 56 10000 4.12 120 16:31 31.08.2022
400 Clouds 21 1021 53 10000 4.12 130 14:36 31.08.2022
401 Clouds 21 1022 54 10000 5.14 150 12:24 31.08.2022
402 Clouds 19 1023 60 10000 3.6 170 11:29 31.08.2022
403 Clouds 16 1024 77 10000 2.57 170 09:20 31.08.2022
404 Clouds 14 1018 80 10000 1.3 88 06:18 31.08.2022
405 Clouds 17 1024 63 10000 2.06 330 23:21 30.08.2022
406 Clouds 20 1022 52 10000 2.06 50 21:43 30.08.2022
407 Clouds 21 1021 49 10000 5.66 90 20:58 30.08.2022
408 Clouds 23 1020 40 10000 7.2 90 18:49 30.08.2022
409 Clouds 26 1019 34 10000 5.14 120 15:29 30.08.2022
410 Clouds 23 1022 47 10000 3.09 0 13:25 30.08.2022
411 Clouds 20 1024 60 10000 2.06 0 11:22 30.08.2022
412 Clouds 19 1025 59 10000 2.06 0 10:57 30.08.2022
413 Clouds 15 1023 77 10000 3.09 210 07:46 30.08.2022
414 Clear 15 1021 77 10000 1.54 70 02:34 30.08.2022
415 Clouds 17 1022 67 10000 4.63 80 23:22 29.08.2022
416 Clouds 18 1022 72 10000 1.03 0 22:32 29.08.2022
417 Clouds 18 1022 72 10000 1.54 290 21:27 29.08.2022
418 Clouds 19 1020 68 10000 5.14 160 20:19 29.08.2022
419 Clouds 24 1018 44 10000 7.2 70 17:58 29.08.2022
420 Clouds 24 1018 44 10000 7.2 70 17:25 29.08.2022
421 Clouds 25 1018 41 10000 7.2 90 16:40 29.08.2022
422 Clouds 21 1011 49 10000 4.26 105 15:18 29.08.2022
423 Clouds 25 1021 44 10000 1.03 0 13:23 29.08.2022
424 Clouds 23 1023 49 10000 3.09 150 11:20 29.08.2022
425 Clouds 21 1024 56 10000 2.57 170 10:19 29.08.2022
426 Clouds 17 1024 65 10000 1.54 170 08:38 29.08.2022
427 Clouds 13 1022 85 10000 2.57 170 05:52 29.08.2022
428 Clouds 17 1017 81 10000 1.66 101 01:24 29.08.2022
429 Clouds 17 1021 61 10000 2.06 60 22:50 28.08.2022
430 Clouds 18 1021 59 10000 2.57 70 21:44 28.08.2022
431 Clouds 18 1021 59 10000 3.09 50 20:56 28.08.2022
432 Clouds 18 1020 59 10000 4.63 80 19:29 28.08.2022
433 Clouds 19 1020 59 10000 5.66 80 18:21 28.08.2022
434 Clouds 20 1019 56 10000 6.17 100 17:25 28.08.2022
435 Clouds 21 1019 52 10000 5.14 50 16:28 28.08.2022
436 Clouds 21 1020 54 10000 5.66 40 14:44 28.08.2022
437 Clouds 20 1021 60 10000 4.12 10 12:48 28.08.2022
438 Clouds 17 1023 67 10000 3.6 30 10:51 28.08.2022
439 Clouds 16 1023 75 10000 4.12 40 09:56 28.08.2022
440 Clouds 16 1023 77 10000 2.06 0 08:38 28.08.2022
441 Clouds 15 1022 79 10000 2.57 140 07:45 28.08.2022
442 Clouds 15 1021 77 10000 1.54 60 02:59 28.08.2022
443 Clouds 16 1022 77 10000 2.06 360 00:29 28.08.2022
444 Clouds 16 1023 77 10000 2.57 40 22:38 27.08.2022
445 Clouds 16 1023 79 10000 2.57 20 21:40 27.08.2022
446 Clouds 16 1021 79 10000 3.09 20 19:57 27.08.2022
447 Clouds 17 1021 72 10000 2.57 30 18:41 27.08.2022
448 Clouds 18 1021 68 10000 3.6 90 15:53 27.08.2022
449 Clouds 18 1021 68 10000 4.12 90 15:25 27.08.2022
450 Clouds 17 1023 72 10000 3.6 180 12:31 27.08.2022
451 Clouds 16 1023 75 10000 4.63 170 11:47 27.08.2022
452 Clouds 15 1024 85 10000 3.6 180 09:50 27.08.2022
453 Clouds 15 1023 82 10000 4.63 150 08:45 27.08.2022
454 Clouds 15 1020 82 10000 3.09 190 03:58 27.08.2022
455 Clouds 16 1022 77 10000 1.03 0 00:20 27.08.2022
456 Clouds 16 1022 75 10000 2.57 180 23:23 26.08.2022
457 Clouds 18 1022 68 10000 3.6 70 21:39 26.08.2022
458 Clouds 18 1020 72 10000 4.63 80 19:24 26.08.2022
459 Clouds 21 1019 56 10000 4.63 100 17:29 26.08.2022
460 Clouds 23 1018 46 10000 4.63 160 15:35 26.08.2022
461 Clouds 23 1019 46 10000 4.63 140 14:44 26.08.2022
462 Clouds 20 1022 56 10000 2.57 140 12:54 26.08.2022
463 Clouds 18 1023 68 10000 4.63 190 11:42 26.08.2022
464 Clouds 18 1023 63 10000 2.57 150 11:21 26.08.2022
465 Clouds 15 1023 80 10000 2.57 180 07:37 26.08.2022
466 Clouds 15 1021 76 10000 2.06 50 02:43 26.08.2022
467 Clouds 16 1016 76 10000 1.61 104 23:45 25.08.2022
468 Clear 17 1023 63 10000 2.06 140 21:46 25.08.2022
469 Clouds 18 1022 63 10000 2.57 120 20:51 25.08.2022
470 Clouds 19 1021 55 10000 3.09 140 19:25 25.08.2022
471 Clouds 19 1021 55 10000 4.63 130 18:28 25.08.2022
472 Clouds 19 1020 55 10000 6.17 140 17:31 25.08.2022
473 Clouds 20 1020 49 10000 2.06 150 16:27 25.08.2022
474 Clouds 20 1020 52 10000 3.09 100 15:28 25.08.2022
475 Clouds 19 1023 52 10000 5.14 150 12:56 25.08.2022
476 Clouds 16 1025 67 10000 3.09 130 10:49 25.08.2022
477 Clouds 15 1026 77 10000 1.54 0 09:44 25.08.2022
478 Clouds 13 1024 85 10000 1.03 0 06:45 25.08.2022
479 Clouds 14 1023 88 10000 1.54 350 02:29 25.08.2022
480 Clouds 14 1025 69 10000 0.51 0 23:29 24.08.2022
481 Clouds 15 1025 61 10000 2.06 40 22:46 24.08.2022
482 Clouds 16 1024 59 10000 2.06 60 21:37 24.08.2022
483 Clouds 18 1024 52 10000 2.57 100 21:19 24.08.2022
484 Clouds 19 1023 47 10000 5.66 90 19:34 24.08.2022
485 Clouds 21 1021 42 10000 5.66 130 16:50 24.08.2022
486 Clouds 22 1021 37 10000 6.69 140 15:52 24.08.2022
487 Clouds 21 1023 40 10000 3.09 60 13:49 24.08.2022
488 Clouds 20 1025 45 10000 3.6 100 12:24 24.08.2022
489 Clouds 20 1026 49 10000 3.6 160 11:18 24.08.2022
490 Clouds 16 1026 61 10000 4.12 150 08:28 24.08.2022
491 Clouds 13 1024 76 10000 3.09 240 03:44 24.08.2022
492 Clouds 16 1025 65 10000 3.09 150 23:47 23.08.2022
493 Clouds 17 1024 55 10000 4.12 140 22:33 23.08.2022
494 Clouds 19 1025 48 10000 3.6 140 21:46 23.08.2022
495 Clouds 19 1024 52 10000 4.63 140 20:33 23.08.2022
496 Clouds 19 1023 54 10000 5.14 90 18:53 23.08.2022
497 Clouds 20 1023 52 10000 5.14 90 17:51 23.08.2022
498 Clouds 20 1023 52 10000 4.63 120 17:18 23.08.2022
499 Clouds 20 1023 52 10000 4.63 120 17:18 23.08.2022
500 Clouds 20 1023 49 10000 4.12 160 15:49 23.08.2022
501 Clouds 18 1024 59 10000 4.12 140 13:50 23.08.2022
502 Clouds 17 1025 63 10000 4.63 140 12:45 23.08.2022
503 Clouds 16 1024 72 10000 3.6 170 10:53 23.08.2022
504 Clouds 16 1024 72 10000 3.6 170 10:32 23.08.2022
505 Clouds 16 1024 72 10000 3.6 170 10:32 23.08.2022
506 Clouds 15 1024 77 10000 3.09 160 08:55 23.08.2022
507 Clouds 15 1024 72 10000 3.6 170 08:22 23.08.2022
508 Clouds 14 1023 81 10000 3.6 170 07:48 23.08.2022
509 Clouds 14 1024 77 10000 2.57 180 07:22 23.08.2022
510 Clouds 12 1019 79 10000 0.94 100 06:19 23.08.2022
511 Clouds 15 1022 77 10000 3.6 260 01:42 23.08.2022
512 Clouds 15 1023 83 10000 2.57 250 00:26 23.08.2022
513 Clouds 16 1023 71 10000 2.57 200 23:30 22.08.2022
514 Clouds 16 1017 54 10000 4.77 92 22:19 22.08.2022
515 Clouds 20 1020 51 10000 6.17 110 19:56 22.08.2022
516 Clouds 21 1021 43 10000 6.69 100 19:36 22.08.2022
517 Clouds 22 1020 45 10000 6.17 90 18:36 22.08.2022
518 Clouds 24 1019 41 10000 5.14 140 15:45 22.08.2022
519 Clouds 23 1020 45 10000 5.14 120 14:48 22.08.2022
520 Clouds 21 1024 49 10000 1.54 0 11:20 22.08.2022
521 Clouds 17 1025 61 10000 1.54 290 09:24 22.08.2022
522 Clear 13 1023 81 10000 0.51 0 05:44 22.08.2022
523 Clear 14 1024 71 10000 2.57 150 00:56 22.08.2022
524 Clear 14 1024 69 10000 2.57 150 00:36 22.08.2022
525 Clear 16 1024 65 10000 4.12 140 23:21 21.08.2022
526 Clouds 19 1023 50 10000 4.63 90 21:55 21.08.2022
527 Clouds 18 1017 49 10000 6.02 94 21:18 21.08.2022
528 Clouds 22 1021 44 10000 8.23 90 19:42 21.08.2022
529 Clouds 23 1021 39 10000 8.23 80 18:35 21.08.2022
530 Clouds 25 1020 34 10000 4.12 180 16:48 21.08.2022
531 Clouds 26 1019 29 10000 8.75 150 15:52 21.08.2022
532 Clouds 27 1020 28 10000 6.17 130 14:41 21.08.2022
533 Clouds 27 1021 25 10000 4.63 110 13:48 21.08.2022
534 Clouds 27 1021 28 10000 5.14 180 12:55 21.08.2022
535 Clouds 25 1023 38 10000 2.57 160 10:40 21.08.2022
536 Clouds 20 1023 56 10000 2.06 200 08:57 21.08.2022
537 Clouds 19 1023 58 10000 2.57 200 08:39 21.08.2022
538 Clear 17 1024 63 10000 3.09 200 08:18 21.08.2022
539 Clouds 11 1023 82 10000 1.54 240 06:33 21.08.2022
540 Clouds 15 1023 67 10000 1.54 330 01:47 21.08.2022
541 Clouds 19 1023 68 10000 4.12 50 23:34 20.08.2022
542 Clouds 20 1023 52 10000 7.2 90 21:55 20.08.2022
543 Clouds 22 1023 46 10000 8.23 80 20:51 20.08.2022
544 Clouds 23 1021 40 10000 7.72 80 19:44 20.08.2022
545 Clouds 24 1019 40 10000 6.69 100 18:48 20.08.2022
546 Clouds 25 1020 36 10000 7.72 80 18:26 20.08.2022
547 Clouds 26 1019 34 10000 5.66 110 17:21 20.08.2022
548 Clouds 27 1018 28 10000 5.66 90 15:57 20.08.2022
549 Clouds 28 1019 27 10000 4.12 180 14:26 20.08.2022
550 Clouds 26 1022 31 10000 1.54 0 11:58 20.08.2022
551 Clear 26 1022 34 10000 2.57 130 11:37 20.08.2022
552 Clear 22 1017 39 10000 1.41 120 09:20 20.08.2022
553 Clear 16 1023 72 10000 2.06 290 07:30 20.08.2022
554 Clear 14 1022 72 10000 1.54 280 04:50 20.08.2022
555 Clear 16 1024 67 10000 3.6 30 00:58 20.08.2022
556 Clear 17 1024 61 10000 5.14 40 23:45 19.08.2022
557 Clear 17 1024 63 10000 5.14 50 22:45 19.08.2022
558 Clouds 19 1022 48 10000 4.12 90 21:20 19.08.2022
559 Clouds 23 1021 35 10000 6.17 90 18:59 19.08.2022
560 Clouds 23 1021 35 10000 6.17 90 18:59 19.08.2022
561 Clear 24 1011 23 10000 4.19 126 16:23 19.08.2022
562 Clouds 26 1021 30 10000 3.09 0 13:44 19.08.2022
563 Clouds 23 1022 36 10000 5.14 90 11:51 19.08.2022
564 Clouds 22 1023 49 10000 1.54 0 10:33 19.08.2022
565 Clouds 16 1023 72 10000 1.54 0 08:43 19.08.2022
566 Clear 11 1021 82 10000 1.54 340 04:39 19.08.2022
567 Clear 14 1022 72 10000 1.54 320 00:42 19.08.2022
568 Clear 15 1022 67 10000 2.57 310 00:19 19.08.2022
569 Clear 16 1022 59 10000 2.06 280 22:57 18.08.2022
570 Clear 17 1022 55 10000 1.54 30 22:23 18.08.2022
571 Clear 17 1022 48 10000 1.54 60 21:49 18.08.2022
572 Clouds 18 1021 46 10000 3.6 90 20:55 18.08.2022
573 Clouds 20 1021 40 10000 5.14 90 19:39 18.08.2022
574 Clouds 21 1021 40 10000 6.17 100 19:20 18.08.2022
575 Clouds 24 1020 27 10000 5.14 150 17:32 18.08.2022
576 Clouds 25 1020 27 10000 3.6 140 15:53 18.08.2022
577 Clouds 24 1021 31 10000 5.14 170 14:21 18.08.2022
578 Clouds 23 1021 35 10000 4.12 180 13:44 18.08.2022
579 Clouds 21 1023 49 10000 4.63 140 12:28 18.08.2022
580 Clouds 19 1024 55 10000 2.57 180 11:20 18.08.2022
581 Clouds 18 1024 61 10000 5.14 160 09:43 18.08.2022
582 Clear 13 1023 80 10000 2.06 190 07:27 18.08.2022
583 Clear 10 1022 90 10000 3.09 310 06:30 18.08.2022
584 Clear 13 1021 76 10000 2.57 10 01:44 18.08.2022
585 Clear 14 1023 70 10000 1.03 0 22:45 17.08.2022
586 Clouds 17 1021 53 10000 4.63 150 20:21 17.08.2022
587 Clouds 19 1021 53 10000 3.6 120 19:58 17.08.2022
588 Clouds 20 1021 48 10000 4.63 120 18:33 17.08.2022
589 Clouds 21 1020 45 10000 6.17 120 16:52 17.08.2022
590 Clouds 20 1020 53 10000 3.6 150 15:46 17.08.2022
591 Clouds 20 1021 60 10000 5.14 120 14:40 17.08.2022
592 Clouds 17 1023 73 10000 2.57 120 12:29 17.08.2022
593 Clouds 15 1024 88 10000 4.12 170 11:23 17.08.2022
594 Clouds 15 1024 88 10000 4.12 150 09:19 17.08.2022
595 Clouds 14 1022 88 10000 0 0 06:34 17.08.2022
596 Clouds 16 1016 83 10000 3.05 61 01:22 17.08.2022
597 Clouds 18 1022 68 10000 3.09 90 23:27 16.08.2022
598 Clouds 18 1017 81 10000 1.53 102 21:32 16.08.2022
599 Clouds 21 1021 56 10000 5.14 90 20:20 16.08.2022
600 Rain 20 1021 67 10000 6.69 90 19:27 16.08.2022
601 Clouds 22 1019 54 10000 10.29 90 17:56 16.08.2022
602 Clouds 24 1019 49 10000 7.72 100 16:48 16.08.2022
603 Clouds 25 1019 48 10000 5.14 120 15:45 16.08.2022
604 Clouds 25 1019 50 10000 4.12 140 14:54 16.08.2022
605 Clouds 25 1019 44 10000 4.12 140 14:36 16.08.2022
606 Clouds 23 1020 60 10000 2.57 170 12:33 16.08.2022
607 Clouds 19 1023 68 10000 2.06 190 10:23 16.08.2022
608 Clouds 17 1023 77 10000 3.09 190 08:55 16.08.2022
609 Clouds 18 1018 81 10000 2.14 77 08:26 16.08.2022
610 Clouds 16 1022 82 10000 2.57 210 06:48 16.08.2022
611 Clouds 17 1021 77 10000 3.6 70 00:32 16.08.2022
612 Clouds 18 1022 68 10000 4.63 60 22:26 15.08.2022
613 Clouds 19 1021 63 10000 4.63 70 21:51 15.08.2022
614 Clouds 19 1021 68 10000 4.12 70 20:35 15.08.2022
615 Clouds 19 1021 68 10000 6.17 90 19:59 15.08.2022
616 Clouds 21 1019 60 10000 6.17 90 18:00 15.08.2022
617 Clouds 22 1018 60 10000 7.72 90 16:25 15.08.2022
618 Clouds 23 1019 60 10000 2.57 50 15:54 15.08.2022
619 Clouds 23 1020 60 10000 3.09 120 13:54 15.08.2022
620 Clouds 20 1022 66 10000 4.12 150 11:25 15.08.2022
621 Clouds 19 1023 70 10000 1.54 20 09:42 15.08.2022
622 Clouds 16 1022 87 9000 1.54 310 07:49 15.08.2022
623 Clouds 15 1020 91 10000 2.57 30 04:35 15.08.2022
624 Clouds 15 1021 84 10000 1.03 20 00:54 15.08.2022
625 Clouds 16 1022 74 10000 2.57 50 22:38 14.08.2022
626 Clouds 16 1022 74 10000 3.09 90 21:37 14.08.2022
627 Clouds 17 1021 73 10000 5.14 50 19:54 14.08.2022
628 Clouds 18 1020 68 10000 5.14 70 18:58 14.08.2022
629 Clouds 17 1013 61 10000 4.41 83 18:19 14.08.2022
630 Clouds 19 1019 64 10000 6.17 80 16:53 14.08.2022
631 Clouds 20 1019 58 10000 5.14 100 15:48 14.08.2022
632 Clouds 21 1019 52 10000 4.12 120 14:33 14.08.2022
633 Clouds 21 1020 52 10000 3.09 130 13:50 14.08.2022
634 Clouds 25 1012 44 10000 3.51 143 13:20 14.08.2022
635 Clouds 20 1021 56 10000 3.09 150 12:28 14.08.2022
636 Clouds 17 1023 72 10000 2.57 180 10:50 14.08.2022
637 Clouds 15 1021 82 10000 2.57 180 08:51 14.08.2022
638 Clouds 13 1021 91 10000 1.54 200 06:22 14.08.2022
639 Clouds 14 1022 89 10000 0.51 0 02:49 14.08.2022
640 Clouds 16 1022 77 10000 4.12 70 00:19 14.08.2022
641 Clouds 17 1022 75 10000 3.6 50 22:56 13.08.2022
642 Clouds 17 1022 72 10000 3.6 20 21:19 13.08.2022
643 Clouds 18 1021 70 10000 2.57 70 20:43 13.08.2022
644 Clouds 18 1020 68 10000 3.6 70 19:44 13.08.2022
645 Clouds 20 1019 58 10000 4.63 70 17:59 13.08.2022
646 Clouds 21 1019 56 10000 3.6 110 15:32 13.08.2022
647 Clouds 20 1019 60 10000 2.57 150 14:28 13.08.2022
648 Clouds 20 1020 60 10000 4.12 150 13:40 13.08.2022
649 Clouds 18 1022 63 10000 5.14 210 11:53 13.08.2022
650 Clouds 15 1023 88 10000 3.6 210 10:31 13.08.2022
651 Clouds 17 1019 78 10000 2.15 144 09:18 13.08.2022
652 Drizzle 14 1021 88 7000 3.6 170 05:57 13.08.2022
653 Clouds 16 1022 77 10000 0 0 00:29 13.08.2022
654 Clouds 16 1018 76 10000 3.24 90 22:23 12.08.2022
655 Clouds 18 1022 59 10000 3.6 150 20:58 12.08.2022
656 Clouds 18 1021 55 10000 5.14 150 19:43 12.08.2022
657 Clouds 19 1021 52 10000 4.12 130 18:52 12.08.2022
658 Clouds 20 1020 49 10000 5.14 120 17:36 12.08.2022
659 Clouds 19 1012 43 10000 3.05 114 16:24 12.08.2022
660 Clouds 21 1021 46 10000 5.66 160 14:47 12.08.2022
661 Clouds 19 1023 48 10000 4.12 210 12:57 12.08.2022
662 Clouds 19 1017 51 10000 2.75 158 11:19 12.08.2022
663 Clouds 14 1024 67 10000 5.14 160 08:47 12.08.2022
664 Clouds 13 1023 71 10000 4.12 180 07:26 12.08.2022
665 Clouds 16 1017 85 10000 2.57 118 03:35 12.08.2022
666 Clouds 15 1023 88 10000 5.14 150 00:31 12.08.2022
667 Clouds 16 1017 83 10000 2.51 101 23:40 11.08.2022
668 Clouds 15 1017 82 10000 2.66 103 22:35 11.08.2022
669 Clouds 17 1017 73 10000 3.35 102 21:43 11.08.2022
670 Clouds 17 1017 65 10000 3.97 111 21:22 11.08.2022
671 Clouds 18 1023 68 10000 5.66 70 20:29 11.08.2022
672 Clouds 19 1022 57 10000 5.66 90 19:33 11.08.2022
673 Clouds 19 1021 57 10000 5.14 80 18:39 11.08.2022
674 Clouds 18 1014 51 10000 3.39 134 16:38 11.08.2022
675 Clouds 21 1020 50 10000 4.12 150 15:37 11.08.2022
676 Clouds 21 1022 52 10000 5.14 120 13:51 11.08.2022
677 Clouds 18 1023 61 10000 5.14 210 11:26 11.08.2022
678 Clouds 13 1024 89 10000 4.63 170 07:56 11.08.2022
679 Rain 13 1023 97 10000 4.12 120 04:44 11.08.2022
680 Rain 16 1022 77 10000 3.6 140 01:55 11.08.2022
681 Clouds 18 1023 68 10000 3.09 180 22:54 10.08.2022
682 Clouds 18 1022 68 10000 3.6 160 21:44 10.08.2022
683 Clouds 18 1022 68 10000 5.14 150 20:56 10.08.2022
684 Clouds 19 1021 61 10000 5.66 140 19:58 10.08.2022
685 Clouds 21 1020 54 10000 5.66 80 18:45 10.08.2022
686 Clouds 24 1019 46 10000 4.12 110 17:20 10.08.2022
687 Clouds 24 1021 43 10000 3.09 200 13:49 10.08.2022
688 Clouds 22 1022 49 10000 2.57 190 12:50 10.08.2022
689 Clouds 18 1024 59 10000 2.57 100 10:21 10.08.2022
690 Clouds 15 1025 70 10000 2.57 170 08:37 10.08.2022
691 Clouds 14 1023 77 10000 2.57 200 07:21 10.08.2022
692 Clouds 14 1022 77 10000 3.09 190 04:50 10.08.2022
693 Clouds 16 1023 67 10000 2.57 150 00:50 10.08.2022
694 Clouds 18 1023 59 10000 3.09 70 23:27 09.08.2022
695 Clouds 18 1023 59 10000 2.06 70 21:38 09.08.2022
696 Clouds 19 1022 57 10000 3.09 60 20:56 09.08.2022
697 Clouds 20 1021 50 10000 5.14 70 18:56 09.08.2022
698 Clouds 22 1020 47 10000 3.09 140 17:31 09.08.2022
699 Clouds 22 1020 47 10000 3.09 140 17:31 09.08.2022
700 Clouds 22 1020 46 10000 2.57 120 16:46 09.08.2022
701 Clouds 23 1019 47 10000 4.63 50 15:59 09.08.2022
702 Clouds 23 1020 47 10000 3.6 180 14:43 09.08.2022
703 Clouds 17 1024 65 10000 2.57 180 10:53 09.08.2022
704 Clouds 15 1024 77 10000 3.09 190 08:52 09.08.2022
705 Clouds 14 1024 82 10000 1.54 220 07:57 09.08.2022
706 Clouds 13 1022 82 10000 1.03 0 04:49 09.08.2022
707 Clouds 13 1023 71 10000 2.57 240 00:36 09.08.2022
708 Clouds 13 1023 71 10000 2.57 300 23:24 08.08.2022
709 Clouds 15 1023 63 10000 2.57 220 22:40 08.08.2022
710 Clouds 18 1023 55 10000 1.54 170 21:44 08.08.2022
711 Clouds 17 1022 59 10000 2.57 120 20:39 08.08.2022
712 Clouds 18 1021 54 10000 4.63 150 19:35 08.08.2022
713 Clouds 20 1021 49 10000 4.12 160 18:18 08.08.2022
714 Clouds 21 1020 46 10000 4.12 180 15:48 08.08.2022
715 Clouds 21 1020 46 10000 4.12 180 15:28 08.08.2022
716 Clouds 20 1023 50 10000 5.14 130 12:30 08.08.2022
717 Clouds 17 1024 61 10000 3.09 0 10:33 08.08.2022
718 Clouds 14 1023 77 10000 2.57 190 07:59 08.08.2022
719 Clouds 14 1020 77 10000 3.6 200 03:45 08.08.2022
720 Clouds 16 1022 72 10000 2.06 350 23:28 07.08.2022
721 Clouds 17 1022 63 10000 0.51 0 21:41 07.08.2022
722 Clouds 17 1022 63 10000 2.57 140 21:19 07.08.2022
723 Clouds 18 1021 59 10000 3.6 140 20:23 07.08.2022
724 Clouds 18 1021 59 10000 5.14 120 19:52 07.08.2022
725 Clouds 19 1021 55 10000 4.63 160 19:22 07.08.2022
726 Clouds 21 1020 49 10000 5.14 90 17:31 07.08.2022
727 Clouds 21 1020 49 10000 6.17 120 16:52 07.08.2022
728 Clouds 22 1020 46 10000 7.72 160 15:39 07.08.2022
729 Clouds 20 1021 52 10000 3.09 130 13:58 07.08.2022
730 Clouds 18 1023 59 10000 2.57 150 12:40 07.08.2022
731 Clouds 14 1024 77 10000 2.57 180 10:50 07.08.2022
732 Clouds 15 1024 72 10000 2.06 190 10:20 07.08.2022
733 Clear 9 1021 93 10000 2.57 250 04:37 07.08.2022
734 Clear 10 1021 87 10000 4.12 230 02:18 07.08.2022
735 Clouds 16 1022 75 10000 4.12 50 22:39 06.08.2022
736 Clouds 16 1022 77 10000 2.57 20 22:18 06.08.2022
737 Clouds 18 1021 64 10000 4.63 70 19:46 06.08.2022
738 Clouds 20 1021 58 10000 5.14 80 18:49 06.08.2022
739 Clouds 22 1020 49 10000 5.14 60 17:45 06.08.2022
740 Clouds 23 1019 50 10000 5.14 90 16:29 06.08.2022
741 Clouds 22 1021 46 10000 1.03 120 13:51 06.08.2022
742 Clouds 21 1023 52 10000 2.57 140 12:38 06.08.2022
743 Clouds 19 1024 59 10000 2.57 200 11:21 06.08.2022
744 Clouds 17 1025 63 10000 3.09 180 09:41 06.08.2022
745 Clouds 13 1024 80 10000 2.06 240 07:28 06.08.2022
746 Clouds 13 1022 76 10000 4.63 200 01:47 06.08.2022
747 Clouds 16 1023 72 10000 3.6 210 22:37 05.08.2022
748 Clouds 16 1023 72 10000 1.54 90 21:34 05.08.2022
749 Clouds 17 1022 77 10000 3.09 350 19:20 05.08.2022
750 Clouds 17 1023 72 10000 3.09 350 18:44 05.08.2022
751 Clouds 19 1022 59 10000 4.12 30 16:55 05.08.2022
752 Clouds 19 1022 59 10000 4.12 30 16:37 05.08.2022
753 Clouds 17 1023 72 10000 3.6 40 15:19 05.08.2022
754 Clouds 16 1024 77 10000 3.6 100 13:39 05.08.2022
755 Clouds 16 1024 82 10000 2.57 20 13:20 05.08.2022
756 Clouds 15 1025 88 10000 2.57 360 12:23 05.08.2022
757 Clouds 15 1025 82 10000 2.06 80 10:30 05.08.2022
758 Clouds 14 1024 85 10000 2.57 160 07:58 05.08.2022
759 Clouds 14 1024 85 10000 2.57 160 07:58 05.08.2022
760 Clouds 13 1023 91 10000 2.57 180 05:25 05.08.2022
761 Drizzle 14 1024 91 10000 2.06 70 23:51 04.08.2022
762 Drizzle 15 1024 85 10000 3.09 90 21:58 04.08.2022
763 Drizzle 16 1024 82 10000 3.09 90 21:25 04.08.2022
764 Clouds 16 1023 79 10000 3.6 70 20:41 04.08.2022
765 Clouds 16 1023 82 10000 2.06 360 19:23 04.08.2022
766 Clouds 16 1023 82 10000 2.57 20 18:35 04.08.2022
767 Clouds 17 1022 77 10000 3.09 10 17:31 04.08.2022
768 Clouds 17 1023 72 10000 3.6 160 13:44 04.08.2022
769 Clouds 17 1024 72 10000 4.12 150 11:47 04.08.2022
770 Clouds 15 1025 82 10000 3.6 150 10:50 04.08.2022
771 Drizzle 14 1023 91 10000 3.09 150 07:52 04.08.2022
772 Clouds 14 1022 89 10000 2.57 170 04:30 04.08.2022
773 Clouds 14 1022 91 10000 1.54 30 02:27 04.08.2022
774 Clouds 15 1023 83 10000 3.09 70 23:44 03.08.2022
775 Clouds 17 1024 72 10000 2.06 90 22:29 03.08.2022
776 Clouds 16 1022 82 10000 2.06 70 20:45 03.08.2022
777 Clouds 17 1022 75 10000 2.06 330 19:29 03.08.2022
778 Clouds 17 1021 72 10000 3.6 360 18:23 03.08.2022
779 Clouds 20 1022 56 10000 1.54 0 16:24 03.08.2022
780 Clouds 19 1021 63 10000 3.6 160 14:45 03.08.2022
781 Clouds 17 1023 72 10000 4.12 170 12:30 03.08.2022
782 Clouds 16 1023 80 10000 2.06 200 08:26 03.08.2022
783 Clouds 15 1022 88 10000 2.06 40 04:47 03.08.2022
784 Clouds 14 1022 85 10000 2.57 50 03:30 03.08.2022
785 Clouds 15 1022 87 10000 2.57 40 01:35 03.08.2022
786 Clouds 15 1024 88 10000 1.54 20 23:23 02.08.2022
787 Clouds 15 1023 85 10000 2.57 20 21:55 02.08.2022
788 Clouds 15 1023 85 10000 2.57 20 21:30 02.08.2022
789 Clouds 17 1022 75 10000 2.57 150 19:00 02.08.2022
790 Clouds 17 1022 73 10000 2.06 160 16:38 02.08.2022
791 Drizzle 16 1023 82 10000 3.6 0 12:55 02.08.2022
792 Clouds 14 1025 91 9000 1.54 270 09:42 02.08.2022
793 Drizzle 14 1025 85 8000 1.03 0 08:26 02.08.2022
794 Drizzle 14 1024 91 9000 1.54 70 07:50 02.08.2022
795 Clouds 14 1023 91 10000 2.06 140 04:55 02.08.2022
796 Clouds 15 1023 88 10000 3.09 140 01:26 02.08.2022
797 Clouds 16 1024 77 10000 4.12 160 22:57 01.08.2022
798 Clouds 17 1023 72 10000 2.06 160 20:57 01.08.2022
799 Clouds 17 1023 72 10000 2.57 150 19:41 01.08.2022
800 Clouds 17 1022 70 10000 4.12 150 18:53 01.08.2022
801 Clouds 18 1022 70 10000 4.63 140 16:54 01.08.2022
802 Clouds 18 1022 70 10000 4.63 140 16:29 01.08.2022
803 Clouds 18 1022 70 10000 4.12 170 15:33 01.08.2022
804 Clouds 18 1023 70 10000 5.66 170 14:43 01.08.2022
805 Clouds 18 1023 70 10000 5.66 170 14:43 01.08.2022
806 Clouds 18 1024 72 10000 4.12 130 12:52 01.08.2022
807 Clouds 17 1025 75 10000 3.6 150 10:30 01.08.2022
808 Clouds 16 1025 82 10000 2.57 130 08:41 01.08.2022
809 Clouds 15 1023 88 10000 1.54 240 06:50 01.08.2022
810 Clouds 16 1023 82 10000 3.09 220 04:29 01.08.2022
811 Clouds 16 1023 77 10000 3.09 190 00:56 01.08.2022
812 Clouds 18 1023 72 10000 3.6 180 22:42 31.07.2022
813 Clouds 17 1023 70 10000 4.12 150 21:46 31.07.2022
814 Clouds 20 1022 60 10000 4.63 130 20:18 31.07.2022
815 Clouds 21 1021 54 10000 5.14 120 18:38 31.07.2022
816 Clouds 24 1020 50 10000 4.63 140 16:22 31.07.2022
817 Clouds 23 1022 51 10000 4.63 150 13:59 31.07.2022
818 Clouds 21 1023 58 10000 3.09 210 12:43 31.07.2022
819 Clouds 18 1024 72 10000 3.6 160 10:22 31.07.2022
820 Clouds 16 1023 82 10000 3.6 190 08:19 31.07.2022
821 Clouds 15 1022 88 10000 2.06 280 04:46 31.07.2022
822 Clouds 15 1023 82 10000 3.09 210 00:56 31.07.2022
823 Clouds 16 1023 82 10000 2.57 200 22:20 30.07.2022
824 Clouds 16 1023 77 10000 3.09 200 21:50 30.07.2022
825 Clouds 16 1023 77 10000 3.09 200 21:24 30.07.2022
826 Clouds 17 1023 77 10000 3.09 140 20:24 30.07.2022
827 Clouds 17 1022 74 10000 4.63 90 19:27 30.07.2022
828 Clouds 20 1021 60 10000 5.66 130 17:48 30.07.2022
829 Clouds 21 1021 58 10000 5.14 120 16:37 30.07.2022
830 Clouds 22 1021 56 10000 6.17 150 15:29 30.07.2022
831 Clouds 21 1022 58 10000 4.63 150 13:22 30.07.2022
832 Clouds 19 1024 68 10000 1.54 170 12:21 30.07.2022
833 Clouds 17 1024 77 10000 12.35 102 10:44 30.07.2022
834 Clouds 16 1023 85 10000 3.09 160 09:59 30.07.2022
835 Clouds 15 1023 94 10000 4.12 160 08:49 30.07.2022
836 Clouds 15 1022 91 10000 1.54 170 06:55 30.07.2022
837 Clouds 16 1022 88 10000 1.54 120 02:33 30.07.2022
838 Clouds 17 1023 84 10000 5.14 90 23:30 29.07.2022
839 Rain 18 1023 72 10000 3.6 190 21:36 29.07.2022
840 Clouds 18 1021 72 10000 5.14 90 20:50 29.07.2022
841 Clouds 19 1021 64 10000 6.17 100 19:45 29.07.2022
842 Clouds 22 1020 56 10000 7.2 70 16:59 29.07.2022
843 Clouds 23 1020 51 10000 4.63 80 14:38 29.07.2022
844 Clouds 20 1022 62 10000 2.57 100 12:42 29.07.2022
845 Drizzle 15 1023 88 10000 2.57 160 08:52 29.07.2022
846 Clouds 15 1024 82 10000 2.57 70 08:23 29.07.2022
847 Clouds 15 1022 82 10000 2.06 20 05:19 29.07.2022
848 Clouds 17 1023 75 10000 2.57 360 23:59 28.07.2022
849 Clouds 17 1022 68 10000 3.09 150 21:39 28.07.2022
850 Clouds 19 1021 63 10000 3.6 70 20:52 28.07.2022
851 Rain 18 1016 70 10000 3.7 76 20:18 28.07.2022
852 Clouds 18 1016 70 10000 3.69 76 19:40 28.07.2022
853 Clouds 21 1020 56 10000 6.17 80 18:19 28.07.2022
854 Clouds 22 1019 49 10000 6.17 80 17:36 28.07.2022
855 Clouds 23 1019 51 10000 6.17 90 16:41 28.07.2022
856 Clouds 24 1020 50 10000 4.12 160 14:28 28.07.2022
857 Clouds 21 1021 58 10000 3.09 90 12:41 28.07.2022
858 Clouds 16 1024 77 10000 2.06 160 09:21 28.07.2022
859 Clouds 15 1021 82 10000 2.06 200 05:45 28.07.2022
860 Clouds 13 1016 84 10000 1.72 94 05:21 28.07.2022
861 Clouds 15 1021 79 10000 3.09 90 00:28 28.07.2022
862 Clouds 18 1021 61 10000 5.14 60 21:58 27.07.2022
863 Clouds 20 1020 52 10000 5.14 90 20:20 27.07.2022
864 Clouds 20 1020 54 10000 5.66 80 19:30 27.07.2022
865 Clouds 23 1019 42 10000 5.14 120 16:33 27.07.2022
866 Clouds 24 1019 40 10000 7.72 90 15:51 27.07.2022
867 Clouds 23 1019 42 10000 4.12 150 14:42 27.07.2022
868 Clouds 22 1020 44 10000 3.09 150 13:57 27.07.2022
869 Clouds 19 1023 55 10000 3.09 90 11:49 27.07.2022
870 Clouds 14 1023 82 10000 2.57 150 07:53 27.07.2022
871 Clouds 14 1021 77 10000 0 0 05:23 27.07.2022
872 Clouds 17 1022 70 10000 2.57 190 23:41 26.07.2022
873 Clouds 18 1022 59 10000 3.09 90 22:24 26.07.2022
874 Clouds 17 1016 56 10000 3.14 104 21:19 26.07.2022
875 Clouds 20 1020 55 10000 5.14 120 19:39 26.07.2022
876 Clouds 21 1020 53 10000 4.12 130 18:41 26.07.2022
877 Clouds 22 1019 50 10000 5.14 90 17:55 26.07.2022
878 Clouds 22 1020 44 10000 5.14 90 15:47 26.07.2022
879 Clouds 21 1020 49 10000 3.09 60 14:44 26.07.2022
880 Clouds 19 1023 62 10000 2.57 70 12:41 26.07.2022
881 Clouds 18 1024 66 10000 3.09 150 10:57 26.07.2022
882 Clouds 15 1024 83 10000 4.12 160 08:31 26.07.2022
883 Clouds 16 1021 88 10000 2.06 50 03:58 26.07.2022
884 Clouds 13 1019 87 10000 2.23 70 00:24 26.07.2022
885 Clouds 18 1022 72 10000 5.14 80 22:43 25.07.2022
886 Clouds 17 1018 70 10000 3.41 85 22:21 25.07.2022
887 Clouds 19 1022 62 10000 5.14 140 21:38 25.07.2022
888 Clouds 19 1022 61 10000 4.63 120 20:39 25.07.2022
889 Clouds 20 1021 59 10000 6.17 90 19:26 25.07.2022
890 Clouds 19 1015 46 10000 4.31 91 18:18 25.07.2022
891 Clouds 22 1020 49 10000 6.17 90 17:24 25.07.2022
892 Clouds 23 1013 36 10000 4.28 139 14:19 25.07.2022
893 Clouds 21 1023 52 10000 2.57 150 11:39 25.07.2022
894 Clouds 15 1024 77 10000 2.57 190 08:22 25.07.2022
895 Clouds 16 1021 82 10000 1.54 350 01:49 25.07.2022
896 Clouds 17 1022 77 10000 1.54 0 23:49 24.07.2022
897 Clouds 17 1022 77 10000 2.57 220 22:51 24.07.2022
898 Clouds 17 1022 77 10000 2.57 220 22:24 24.07.2022
899 Clouds 17 1017 63 10000 2.5 98 21:18 24.07.2022
900 Clouds 18 1021 62 10000 2.57 140 20:46 24.07.2022
901 Clouds 20 1020 60 10000 4.12 80 19:38 24.07.2022
902 Clouds 21 1020 54 10000 6.69 90 18:30 24.07.2022
903 Clouds 24 1020 42 10000 5.14 150 15:57 24.07.2022
904 Clouds 24 1020 42 10000 5.14 150 15:33 24.07.2022
905 Clouds 24 1021 44 10000 2.57 170 13:54 24.07.2022
906 Clouds 22 1021 47 10000 3.09 140 12:52 24.07.2022
907 Clouds 21 1023 52 10000 4.12 220 11:37 24.07.2022
908 Clouds 19 1024 55 10000 4.63 180 10:59 24.07.2022
909 Clouds 15 1024 77 10000 3.09 200 08:31 24.07.2022
910 Clouds 14 1023 82 10000 3.09 180 07:47 24.07.2022
911 Clouds 14 1022 82 10000 2.06 220 05:44 24.07.2022
912 Clouds 11 1022 93 10000 3.6 240 00:28 24.07.2022
913 Clouds 18 1023 55 10000 1.54 60 21:28 23.07.2022
914 Clouds 19 1022 54 10000 3.09 120 19:59 23.07.2022
915 Clouds 21 1022 46 10000 5.66 90 18:50 23.07.2022
916 Clouds 22 1021 42 10000 5.14 40 17:28 23.07.2022
917 Clouds 22 1021 42 10000 4.12 40 16:33 23.07.2022
918 Clouds 22 1021 43 10000 5.14 110 15:22 23.07.2022
919 Clouds 21 1022 46 10000 5.14 40 14:58 23.07.2022
920 Clouds 20 1023 52 10000 3.6 0 14:27 23.07.2022
921 Clouds 20 1023 50 10000 2.57 90 13:26 23.07.2022
922 Clouds 16 1025 67 10000 4.12 120 10:45 23.07.2022
923 Clouds 17 1025 67 10000 2.06 110 10:21 23.07.2022
924 Clouds 14 1024 80 10000 3.6 160 08:31 23.07.2022
925 Clouds 15 1022 79 10000 2.06 240 03:39 23.07.2022
926 Clouds 17 1022 72 10000 2.57 230 01:27 23.07.2022
927 Clouds 17 1023 72 10000 3.09 70 22:42 22.07.2022
928 Clouds 17 1022 65 10000 5.14 90 20:52 22.07.2022
929 Clouds 19 1021 57 10000 5.66 90 19:41 22.07.2022
930 Clouds 18 1016 58 10000 3.01 94 18:28 22.07.2022
931 Clouds 21 1020 52 10000 2.57 130 16:55 22.07.2022
932 Clouds 19 1021 58 10000 5.14 120 14:54 22.07.2022
933 Clouds 16 1024 79 10000 2.57 150 11:36 22.07.2022
934 Clouds 14 1025 89 10000 4.12 140 09:26 22.07.2022
935 Clouds 14 1025 94 10000 4.12 140 08:37 22.07.2022
936 Clouds 14 1023 85 10000 4.12 150 06:59 22.07.2022
937 Clouds 15 1022 82 10000 2.57 210 03:43 22.07.2022
938 Clouds 16 1023 71 10000 2.57 200 22:45 21.07.2022
939 Clouds 16 1022 67 10000 2.57 160 21:34 21.07.2022
940 Clouds 17 1021 59 10000 2.57 150 19:28 21.07.2022
941 Clouds 21 1021 49 10000 5.14 130 17:45 21.07.2022
942 Clouds 21 1021 52 10000 2.57 110 17:19 21.07.2022
943 Clouds 20 1021 48 10000 2.57 110 15:22 21.07.2022
944 Clouds 20 1021 50 10000 1.54 80 14:39 21.07.2022
945 Clouds 21 1023 49 10000 2.57 150 12:46 21.07.2022
946 Clouds 18 1025 59 10000 3.6 170 11:19 21.07.2022
947 Clouds 16 1025 75 10000 3.6 230 09:41 21.07.2022
948 Clouds 15 1025 82 10000 3.09 200 08:52 21.07.2022
949 Clouds 13 1024 88 10000 3.09 220 07:50 21.07.2022
950 Clouds 13 1023 85 10000 2.57 240 06:25 21.07.2022
951 Clouds 15 1023 88 10000 1.54 110 01:42 21.07.2022
952 Clouds 16 1019 87 10000 2.22 119 22:22 20.07.2022
953 Clouds 14 1024 82 10000 1.54 240 22:22 20.07.2022
954 Clouds 16 1024 74 10000 2.06 180 21:30 20.07.2022
955 Clouds 16 1023 75 10000 3.6 150 20:39 20.07.2022
956 Clouds 17 1023 67 10000 4.63 150 19:43 20.07.2022
957 Clouds 19 1022 59 10000 4.63 90 18:52 20.07.2022
958 Clouds 19 1022 59 10000 4.63 90 18:29 20.07.2022
959 Clouds 22 1021 43 10000 7.2 140 16:46 20.07.2022
960 Clouds 22 1021 43 10000 5.14 100 15:32 20.07.2022
961 Clouds 22 1022 49 10000 4.12 140 14:26 20.07.2022
962 Clouds 19 1024 57 10000 3.6 80 12:34 20.07.2022
963 Clouds 18 1025 61 10000 3.6 180 10:24 20.07.2022
964 Clouds 13 1024 88 10000 1.03 0 05:44 20.07.2022
965 Clear 14 1024 76 10000 1.54 280 00:54 20.07.2022
966 Clear 14 1024 76 10000 2.06 250 00:36 20.07.2022
967 Clear 15 1024 63 10000 2.57 70 22:35 19.07.2022
968 Clear 15 1024 63 10000 2.57 50 21:53 19.07.2022
969 Clear 17 1024 56 10000 2.06 110 20:49 19.07.2022
970 Clouds 18 1023 50 10000 3.09 130 19:22 19.07.2022
971 Clouds 19 1023 48 10000 4.12 150 18:35 19.07.2022
972 Clouds 21 1022 47 10000 5.66 130 17:53 19.07.2022
973 Clouds 21 1022 51 10000 5.14 180 15:26 19.07.2022
974 Clouds 18 1025 63 10000 3.6 150 12:44 19.07.2022
975 Clouds 18 1025 63 10000 3.09 170 11:32 19.07.2022
976 Clouds 15 1026 75 10000 3.6 140 09:51 19.07.2022
977 Clouds 15 1026 82 10000 1.54 0 08:46 19.07.2022
978 Clouds 14 1025 88 10000 2.57 60 07:19 19.07.2022
979 Clouds 14 1024 88 10000 2.06 60 06:27 19.07.2022
980 Clouds 15 1023 82 10000 2.06 130 05:18 19.07.2022
981 Clouds 15 1023 82 10000 3.09 120 02:38 19.07.2022
982 Clouds 16 1024 77 10000 1.54 60 23:54 18.07.2022
983 Clouds 16 1019 79 10000 2.66 96 23:20 18.07.2022
984 Clouds 17 1024 72 10000 4.63 80 22:26 18.07.2022
985 Clouds 18 1024 63 10000 2.06 70 21:24 18.07.2022
986 Clouds 18 1024 59 10000 3.09 130 20:34 18.07.2022
987 Clouds 19 1022 55 10000 5.14 120 18:32 18.07.2022
988 Clouds 18 1015 54 10000 3.29 127 16:34 18.07.2022
989 Clouds 21 1021 49 10000 5.14 120 15:34 18.07.2022
990 Clouds 20 1023 52 10000 5.66 110 13:32 18.07.2022
991 Clouds 19 1024 52 10000 5.14 180 11:44 18.07.2022
992 Clouds 17 1026 62 10000 3.09 140 09:55 18.07.2022
993 Clouds 15 1025 77 10000 3.09 170 08:19 18.07.2022
994 Clouds 14 1024 91 10000 1.54 210 05:35 18.07.2022
995 Clouds 17 1024 72 10000 2.57 10 23:19 17.07.2022
996 Clouds 17 1024 77 10000 3.09 10 22:32 17.07.2022
997 Clouds 17 1024 67 10000 2.06 40 21:40 17.07.2022
998 Clouds 17 1023 67 10000 0 0 20:46 17.07.2022
999 Clouds 16 1018 69 10000 3.1 107 20:18 17.07.2022
1000 Rain 18 1023 68 10000 2.57 60 19:25 17.07.2022
1001 Clouds 18 1023 63 10000 2.06 90 18:22 17.07.2022
1002 Clouds 19 1022 63 10000 2.06 80 17:37 17.07.2022
1003 Clouds 19 1022 63 10000 1.54 140 16:49 17.07.2022
1004 Clouds 19 1015 58 10000 4.5 126 16:24 17.07.2022
1005 Clouds 18 1023 63 10000 4.12 90 13:58 17.07.2022
1006 Clouds 19 1023 61 10000 4.12 160 13:24 17.07.2022
1007 Clouds 18 1025 63 10000 1.54 150 10:34 17.07.2022
1008 Clouds 16 1025 77 10000 3.09 140 08:38 17.07.2022
1009 Clouds 15 1023 82 10000 2.57 10 02:43 17.07.2022
1010 Clouds 15 1023 82 10000 2.57 40 00:41 17.07.2022
1011 Clouds 17 1018 82 10000 2.35 53 23:19 16.07.2022
1012 Clouds 18 1023 63 10000 4.12 80 20:59 16.07.2022
1013 Clouds 20 1022 52 10000 4.12 80 18:59 16.07.2022
1014 Clouds 21 1022 49 10000 4.12 110 17:53 16.07.2022
1015 Clouds 22 1022 47 10000 5.66 130 16:24 16.07.2022
1016 Clouds 21 1023 49 10000 0 0 13:47 16.07.2022
1017 Clouds 17 1025 67 10000 3.09 160 10:40 16.07.2022
1018 Clouds 17 1025 67 10000 3.09 170 09:30 16.07.2022
1019 Clouds 15 1025 82 10000 4.12 170 08:42 16.07.2022
1020 Clouds 15 1024 82 10000 4.63 170 07:51 16.07.2022
1021 Clouds 15 1023 88 10000 1.54 70 03:40 16.07.2022
1022 Clouds 16 1023 82 10000 1.03 0 01:59 16.07.2022
1023 Clouds 16 1024 82 10000 2.06 20 23:28 15.07.2022
1024 Clouds 17 1024 72 10000 2.06 50 22:38 15.07.2022
1025 Clouds 17 1018 75 10000 3.11 109 21:24 15.07.2022
1026 Clouds 20 1022 56 10000 6.17 130 19:59 15.07.2022
1027 Clouds 21 1022 52 10000 4.63 100 18:35 15.07.2022
1028 Clouds 22 1021 49 10000 5.66 140 17:34 15.07.2022
1029 Clouds 22 1022 49 10000 5.66 150 14:48 15.07.2022
1030 Clouds 21 1023 51 10000 3.6 180 12:49 15.07.2022
1031 Clouds 19 1025 63 10000 4.63 190 10:54 15.07.2022
1032 Clouds 17 1025 72 10000 3.6 160 08:49 15.07.2022
1033 Clouds 15 1023 85 10000 4.12 150 05:55 15.07.2022
1034 Clouds 17 1022 77 10000 4.12 150 00:52 15.07.2022
1035 Clouds 17 1023 77 10000 3.09 150 23:36 14.07.2022
1036 Clouds 17 1018 91 10000 2.36 62 22:45 14.07.2022
1037 Clouds 17 1023 75 10000 4.12 140 21:46 14.07.2022
1038 Clouds 17 1023 75 10000 4.12 140 21:28 14.07.2022
1039 Clouds 17 1023 77 10000 3.09 150 20:43 14.07.2022
1040 Clouds 19 1022 68 10000 5.66 90 20:20 14.07.2022
1041 Clouds 21 1021 58 10000 6.69 80 18:52 14.07.2022
1042 Clouds 23 1021 49 10000 4.63 70 16:22 14.07.2022
1043 Clouds 22 1021 49 10000 3.6 150 15:29 14.07.2022
1044 Clouds 24 1022 43 10000 3.6 130 13:53 14.07.2022
1045 Clouds 23 1022 53 10000 3.6 130 13:53 14.07.2022
1046 Clouds 21 1024 52 10000 3.6 110 12:53 14.07.2022
1047 Clouds 21 1025 56 10000 3.6 110 11:47 14.07.2022
1048 Clouds 21 1025 56 10000 3.6 110 11:23 14.07.2022
1049 Clouds 19 1025 63 10000 1.03 0 09:54 14.07.2022
1050 Clouds 16 1024 72 10000 1.03 0 07:47 14.07.2022
1051 Clouds 12 1024 71 10000 2.06 290 01:25 14.07.2022
1052 Clouds 12 1024 71 10000 1.54 230 00:53 14.07.2022
1053 Clouds 16 1025 51 10000 2.06 60 22:33 13.07.2022
1054 Clouds 18 1024 45 10000 3.09 110 21:57 13.07.2022
1055 Clouds 15 1019 51 10000 2.46 107 21:18 13.07.2022
1056 Clouds 19 1023 42 10000 3.6 150 19:34 13.07.2022
1057 Clouds 22 1022 30 10000 5.14 150 17:51 13.07.2022
1058 Clouds 24 1022 27 10000 5.66 150 16:43 13.07.2022
1059 Clouds 23 1013 24 10000 4.62 137 15:24 13.07.2022
1060 Clouds 23 1025 33 10000 4.12 170 12:56 13.07.2022
1061 Clouds 23 1025 33 10000 4.12 170 12:56 13.07.2022
1062 Clouds 20 1027 52 10000 3.6 170 10:46 13.07.2022
1063 Clouds 21 1019 43 10000 3.11 156 10:25 13.07.2022
1064 Clouds 17 1027 67 10000 1.03 0 09:25 13.07.2022
1065 Clouds 14 1026 80 10000 1.54 260 07:52 13.07.2022
1066 Clouds 14 1024 88 10000 0 0 03:19 13.07.2022
1067 Clouds 14 1026 88 10000 1.03 0 23:52 12.07.2022
1068 Clouds 14 1026 94 10000 2.57 40 22:18 12.07.2022
1069 Clouds 14 1026 88 10000 1.54 320 21:35 12.07.2022
1070 Clouds 14 1026 88 10000 2.06 340 20:42 12.07.2022
1071 Clouds 15 1025 85 10000 0 0 19:37 12.07.2022
1072 Clouds 15 1025 85 10000 3.09 10 17:55 12.07.2022
1073 Clouds 17 1024 77 10000 5.14 50 16:20 12.07.2022
1074 Clouds 17 1025 69 10000 5.14 150 14:31 12.07.2022
1075 Clouds 17 1026 72 10000 4.63 170 13:21 12.07.2022
1076 Clouds 15 1027 83 10000 3.09 150 11:46 12.07.2022
1077 Clouds 15 1027 82 10000 3.09 140 10:25 12.07.2022
1078 Clouds 14 1027 94 10000 2.06 80 08:40 12.07.2022
1079 Clouds 14 1026 91 10000 3.09 150 07:47 12.07.2022
1080 Clouds 14 1024 88 10000 3.6 140 05:45 12.07.2022
1081 Clouds 14 1023 94 10000 3.6 160 04:18 12.07.2022
1082 Clouds 16 1019 82 10000 3.25 80 00:20 12.07.2022
1083 Clouds 16 1024 77 10000 4.63 80 22:39 11.07.2022
1084 Clouds 17 1024 72 10000 6.17 70 20:56 11.07.2022
1085 Clouds 18 1023 68 10000 6.17 80 20:32 11.07.2022
1086 Clouds 21 1021 49 10000 6.17 80 18:48 11.07.2022
1087 Clouds 22 1021 46 10000 5.66 80 18:23 11.07.2022
1088 Clouds 22 1021 46 10000 5.66 80 18:23 11.07.2022
1089 Clouds 24 1020 38 10000 3.6 160 16:26 11.07.2022
1090 Clouds 23 1021 40 10000 3.09 100 15:23 11.07.2022
1091 Clouds 21 1024 49 10000 3.09 120 12:42 11.07.2022
1092 Clouds 20 1026 52 10000 3.09 160 11:23 11.07.2022
1093 Clouds 18 1026 59 10000 5.14 180 09:55 11.07.2022
1094 Clouds 18 1026 59 10000 5.66 180 09:25 11.07.2022
1095 Clouds 15 1026 82 10000 5.66 180 08:30 11.07.2022
1096 Clouds 15 1023 77 10000 4.63 150 00:56 11.07.2022
1097 Clouds 15 1019 82 10000 2.75 102 23:54 10.07.2022
1098 Clouds 16 1025 70 10000 3.09 150 22:45 10.07.2022
1099 Clouds 17 1024 63 10000 2.57 130 20:55 10.07.2022
1100 Clouds 17 1024 63 10000 3.6 140 20:34 10.07.2022
1101 Clouds 18 1023 59 10000 4.63 150 19:29 10.07.2022
1102 Clouds 19 1022 55 10000 4.63 130 18:23 10.07.2022
1103 Clouds 20 1022 49 10000 3.09 120 17:33 10.07.2022
1104 Clouds 21 1021 52 10000 4.12 100 16:21 10.07.2022
1105 Clouds 20 1022 52 10000 4.12 150 14:47 10.07.2022
1106 Clouds 23 1014 37 10000 3.63 157 13:30 10.07.2022
1107 Clouds 19 1024 59 10000 3.6 150 11:44 10.07.2022
1108 Clouds 17 1024 77 10000 1.54 0 09:45 10.07.2022
1109 Clouds 15 1025 77 10000 2.57 180 08:44 10.07.2022
1110 Clouds 15 1020 74 10000 1.47 137 07:20 10.07.2022
1111 Clouds 15 1024 85 10000 2.57 110 23:53 09.07.2022
1112 Clouds 15 1024 85 10000 1.03 250 22:26 09.07.2022
1113 Clouds 15 1024 82 10000 1.03 330 21:47 09.07.2022
1114 Clouds 16 1024 82 10000 2.06 350 19:50 09.07.2022
1115 Clouds 17 1024 77 10000 2.57 10 18:32 09.07.2022
1116 Clouds 17 1023 72 10000 2.57 40 17:32 09.07.2022
1117 Clouds 18 1023 68 10000 2.57 30 16:39 09.07.2022
1118 Clouds 17 1022 75 10000 5.14 150 15:39 09.07.2022
1119 Clouds 17 1017 53 10000 3.59 146 14:24 09.07.2022
1120 Clouds 16 1023 76 10000 4.12 160 13:48 09.07.2022
1121 Clouds 16 1024 77 10000 4.12 150 12:29 09.07.2022
1122 Clouds 14 1026 94 10000 2.57 160 10:42 09.07.2022
1123 Clouds 14 1026 94 10000 2.57 160 10:21 09.07.2022
1124 Clouds 14 1025 94 10000 2.57 150 07:45 09.07.2022
1125 Clouds 14 1025 94 10000 2.57 150 07:45 09.07.2022
1126 Clouds 14 1024 94 10000 2.06 60 04:53 09.07.2022
1127 Clouds 16 1019 82 10000 1.35 119 00:59 09.07.2022
1128 Clouds 17 1025 63 10000 1.03 0 22:42 08.07.2022
1129 Clouds 17 1025 63 10000 1.54 180 21:34 08.07.2022
1130 Clouds 16 1025 77 10000 1.54 0 20:40 08.07.2022
1131 Clouds 16 1024 77 10000 2.06 10 19:48 08.07.2022
1132 Clouds 16 1024 77 10000 2.57 20 18:20 08.07.2022
1133 Clouds 17 1023 69 10000 3.09 110 16:39 08.07.2022
1134 Clouds 18 1024 68 10000 2.06 0 14:51 08.07.2022
1135 Clouds 18 1025 63 10000 2.06 150 13:26 08.07.2022
1136 Clouds 16 1025 78 10000 3.6 170 11:28 08.07.2022
1137 Clouds 15 1026 83 10000 1.54 130 10:27 08.07.2022
1138 Clouds 15 1027 82 10000 3.09 170 08:27 08.07.2022
1139 Clouds 15 1025 82 10000 4.63 180 06:49 08.07.2022
1140 Clouds 16 1024 82 10000 1.03 0 01:23 08.07.2022
1141 Clouds 17 1025 72 10000 2.06 220 22:57 07.07.2022
1142 Clouds 17 1025 72 10000 2.06 220 22:29 07.07.2022
1143 Clouds 18 1025 68 10000 3.09 140 20:22 07.07.2022
1144 Clouds 20 1023 56 10000 4.12 150 18:20 07.07.2022
1145 Clouds 21 1022 52 10000 3.6 150 16:51 07.07.2022
1146 Clouds 21 1023 52 10000 2.57 180 14:34 07.07.2022
1147 Clouds 19 1024 59 10000 4.12 170 13:18 07.07.2022
1148 Clouds 19 1024 59 10000 4.12 170 12:24 07.07.2022
1149 Clouds 19 1024 59 10000 4.12 170 12:24 07.07.2022
1150 Clouds 19 1025 59 10000 3.09 170 11:44 07.07.2022
1151 Clouds 18 1026 63 10000 2.06 0 11:24 07.07.2022
1152 Clouds 18 1026 63 10000 2.06 0 10:40 07.07.2022
1153 Clouds 17 1026 63 10000 2.57 180 10:22 07.07.2022
1154 Clouds 13 1025 82 10000 0.51 0 06:48 07.07.2022
1155 Clouds 15 1023 67 10000 0.51 0 01:43 07.07.2022
1156 Clouds 17 1018 69 10000 2.6 64 23:36 06.07.2022
1157 Clouds 17 1019 67 10000 2.57 72 23:18 06.07.2022
1158 Clouds 19 1024 55 10000 1.03 0 22:52 06.07.2022
1159 Clouds 19 1024 55 10000 1.03 0 22:34 06.07.2022
1160 Clouds 21 1023 49 10000 2.57 150 20:33 06.07.2022
1161 Clouds 21 1023 52 10000 3.6 140 19:34 06.07.2022
1162 Clouds 23 1021 43 10000 3.6 160 17:22 06.07.2022
1163 Clouds 23 1021 43 10000 3.6 160 17:22 06.07.2022
1164 Clouds 23 1021 43 10000 5.66 150 15:58 06.07.2022
1165 Clouds 23 1022 40 10000 5.14 200 13:21 06.07.2022
1166 Clouds 25 1022 38 10000 3.6 220 12:30 06.07.2022
1167 Clouds 25 1022 38 10000 3.6 220 12:30 06.07.2022
1168 Clouds 22 1024 47 10000 5.14 200 11:44 06.07.2022
1169 Clouds 20 1025 56 10000 4.12 190 10:18 06.07.2022
1170 Clouds 15 1024 82 10000 3.09 230 07:44 06.07.2022
1171 Clouds 17 1020 79 10000 0.82 178 07:19 06.07.2022
1172 Clouds 17 1017 76 10000 1.13 108 01:20 06.07.2022
1173 Clouds 18 1023 68 10000 2.57 10 22:44 05.07.2022
1174 Clouds 17 1023 72 10000 2.57 30 21:29 05.07.2022
1175 Clouds 17 1023 67 10000 2.57 30 20:35 05.07.2022
1176 Clouds 19 1022 59 10000 3.6 80 19:40 05.07.2022
1177 Clouds 22 1021 46 10000 3.09 140 18:26 05.07.2022
1178 Clouds 22 1021 46 10000 3.6 150 17:41 05.07.2022
1179 Clouds 22 1021 46 10000 1.03 0 16:39 05.07.2022
1180 Clouds 23 1021 46 10000 3.09 140 15:23 05.07.2022
1181 Clouds 21 1023 52 10000 1.54 80 13:36 05.07.2022
1182 Clouds 20 1023 54 10000 4.12 160 12:41 05.07.2022
1183 Clouds 18 1025 59 10000 3.6 230 10:46 05.07.2022
1184 Clouds 18 1025 59 10000 3.6 230 10:25 05.07.2022
1185 Clouds 15 1025 77 10000 1.54 170 08:24 05.07.2022
1186 Clouds 15 1024 77 10000 1.03 0 07:21 05.07.2022
1187 Clouds 14 1023 88 10000 1.03 280 04:46 05.07.2022
1188 Clouds 15 1023 82 10000 1.54 180 02:48 05.07.2022
1189 Clouds 15 1024 82 10000 1.03 0 23:42 04.07.2022
1190 Clouds 16 1024 72 10000 3.09 60 22:59 04.07.2022
1191 Clouds 16 1024 67 10000 2.57 40 22:20 04.07.2022
1192 Clouds 17 1023 59 10000 3.09 60 21:18 04.07.2022
1193 Clouds 19 1023 52 10000 3.09 70 20:50 04.07.2022
1194 Clouds 19 1023 52 10000 3.09 70 20:32 04.07.2022
1195 Clouds 20 1023 49 10000 3.6 80 19:44 04.07.2022
1196 Clouds 20 1023 49 10000 3.6 80 19:25 04.07.2022
1197 Clouds 24 1022 35 10000 4.63 120 17:40 04.07.2022
1198 Clouds 24 1023 34 10000 3.09 120 15:42 04.07.2022
1199 Clouds 23 1023 38 10000 2.06 0 14:39 04.07.2022
1200 Clouds 22 1024 43 10000 2.06 0 13:20 04.07.2022
1201 Clouds 21 1026 45 10000 2.06 0 11:43 04.07.2022
1202 Clouds 19 1026 52 10000 3.09 180 10:33 04.07.2022
1203 Clouds 17 1026 61 10000 2.57 240 09:36 04.07.2022
1204 Clouds 13 1025 88 10000 1.03 210 06:50 04.07.2022
1205 Clear 12 1024 71 10000 1.54 240 03:23 04.07.2022
1206 Clouds 14 1024 58 10000 2.06 200 00:27 04.07.2022
1207 Clouds 15 1024 58 10000 2.57 220 22:55 03.07.2022
1208 Clouds 19 1024 88 10000 4.12 190 20:47 03.07.2022
1209 Clouds 20 1023 42 10000 4.12 190 20:20 03.07.2022
1210 Clouds 19 1024 45 10000 4.63 190 19:25 03.07.2022
1211 Clouds 22 1023 40 10000 4.63 150 18:32 03.07.2022
1212 Clouds 23 1022 38 10000 6.17 150 17:42 03.07.2022
1213 Clouds 26 1022 34 10000 5.14 170 15:28 03.07.2022
1214 Clouds 23 1022 40 10000 4.63 200 14:57 03.07.2022
1215 Clouds 24 1024 41 10000 4.12 220 13:50 03.07.2022
1216 Clouds 22 1025 43 10000 5.14 240 12:51 03.07.2022
1217 Clouds 21 1025 49 10000 5.66 190 12:21 03.07.2022
1218 Clouds 19 1026 55 10000 5.14 180 10:55 03.07.2022
1219 Clouds 19 1026 55 10000 5.14 180 10:36 03.07.2022
1220 Clouds 16 1027 67 10000 5.14 240 08:48 03.07.2022
1221 Clouds 14 1026 82 10000 3.09 200 07:34 03.07.2022
1222 Clouds 14 1025 77 10000 2.06 230 01:32 03.07.2022
1223 Clouds 12 1021 71 10000 0.97 61 23:50 02.07.2022
1224 Clouds 16 1024 55 10000 2.57 170 22:32 02.07.2022
1225 Clouds 18 1024 48 10000 3.6 140 20:37 02.07.2022
1226 Clouds 20 1023 40 10000 3.6 130 19:50 02.07.2022
1227 Clouds 21 1022 37 10000 4.12 140 19:19 02.07.2022
1228 Clouds 24 1022 35 10000 4.12 150 17:40 02.07.2022
1229 Clouds 25 1021 33 10000 4.12 160 16:35 02.07.2022
1230 Clouds 25 1023 36 10000 4.12 130 13:51 02.07.2022
1231 Clouds 22 1025 47 10000 2.57 0 11:52 02.07.2022
1232 Clouds 20 1025 52 10000 3.6 210 10:53 02.07.2022
1233 Clouds 20 1025 52 10000 3.6 210 10:32 02.07.2022
1234 Clouds 15 1026 72 10000 4.12 180 08:54 02.07.2022
1235 Clouds 15 1025 77 10000 4.12 200 08:19 02.07.2022
1236 Clouds 14 1025 79 10000 4.12 210 06:51 02.07.2022
1237 Clouds 16 1024 77 10000 2.57 60 00:55 02.07.2022
1238 Clouds 16 1024 72 10000 1.03 30 23:31 01.07.2022
1239 Clouds 17 1024 67 10000 1.54 50 22:40 01.07.2022
1240 Clouds 17 1024 67 10000 1.54 30 21:40 01.07.2022
1241 Clouds 18 1024 61 10000 2.57 70 20:59 01.07.2022
1242 Clouds 18 1024 61 10000 2.57 70 20:37 01.07.2022
1243 Clouds 18 1024 61 10000 5.14 120 19:41 01.07.2022
1244 Clouds 19 1023 59 10000 3.6 140 17:52 01.07.2022
1245 Clouds 19 1023 59 10000 3.09 70 15:50 01.07.2022
1246 Clouds 18 1024 59 10000 2.57 0 13:54 01.07.2022
1247 Clouds 19 1025 55 10000 2.06 190 11:50 01.07.2022
1248 Clouds 17 1020 67 10000 1.75 134 10:20 01.07.2022
1249 Clouds 17 1025 67 10000 2.57 230 08:50 01.07.2022
1250 Clouds 14 1023 82 10000 2.57 210 03:42 01.07.2022
1251 Clear 15 1024 72 10000 1.03 0 00:26 01.07.2022
1252 Clouds 15 1019 73 10000 2.65 86 22:58 30.06.2022
1253 Clouds 15 1019 73 10000 2.65 86 22:33 30.06.2022
1254 Clouds 19 1024 55 10000 4.63 150 21:59 30.06.2022
1255 Clouds 19 1024 55 10000 4.63 150 21:41 30.06.2022
1256 Clouds 19 1023 54 10000 3.6 130 20:29 30.06.2022
1257 Clouds 21 1023 49 10000 6.69 130 19:54 30.06.2022
1258 Clouds 18 1016 46 10000 3.14 121 19:19 30.06.2022
1259 Clouds 21 1022 46 10000 5.14 160 18:42 30.06.2022
1260 Clouds 23 1022 43 10000 5.66 130 17:43 30.06.2022
1261 Clouds 24 1021 39 10000 5.14 140 16:48 30.06.2022
1262 Clouds 24 1021 39 10000 3.09 170 15:38 30.06.2022
1263 Clouds 24 1023 41 10000 2.57 0 13:34 30.06.2022
1264 Clouds 21 1024 49 10000 2.57 0 12:35 30.06.2022
1265 Clouds 19 1025 55 10000 3.09 0 11:37 30.06.2022
1266 Clouds 16 1026 72 10000 3.6 180 09:55 30.06.2022
1267 Clouds 16 1026 72 10000 3.6 180 09:34 30.06.2022
1268 Clouds 15 1025 82 10000 2.57 180 08:18 30.06.2022
1269 Clear 12 1025 94 10000 1.54 230 07:18 30.06.2022
1270 Clouds 15 1024 77 10000 6.17 160 01:42 30.06.2022
1271 Clouds 14 1024 79 10000 3.09 190 23:34 29.06.2022
1272 Clouds 12 1025 87 10000 3.09 220 22:40 29.06.2022
1273 Clouds 15 1025 82 10000 2.06 190 21:39 29.06.2022
1274 Clouds 15 1023 72 10000 2.57 170 20:34 29.06.2022
1275 Clouds 16 1023 70 10000 3.6 150 19:39 29.06.2022
1276 Clouds 20 1023 54 10000 5.14 140 17:54 29.06.2022
1277 Clouds 21 1023 50 10000 5.14 130 16:43 29.06.2022
1278 Clouds 21 1023 52 10000 3.6 130 15:32 29.06.2022
1279 Clouds 20 1025 50 10000 3.6 160 12:49 29.06.2022
1280 Clouds 20 1025 49 10000 2.57 140 11:47 29.06.2022
1281 Clouds 18 1026 55 10000 3.6 160 09:34 29.06.2022
1282 Clouds 17 1026 63 10000 3.6 170 08:42 29.06.2022
1283 Clouds 10 1024 87 10000 3.09 220 05:42 29.06.2022
1284 Clouds 12 1024 76 10000 2.57 200 02:21 29.06.2022
1285 Clouds 16 1024 67 10000 3.6 170 00:38 29.06.2022
1286 Clouds 17 1024 63 10000 5.14 160 23:26 28.06.2022
1287 Clouds 16 1020 75 10000 1.44 124 22:48 28.06.2022
1288 Clouds 18 1025 59 10000 2.57 140 21:55 28.06.2022
1289 Clouds 18 1024 59 10000 2.57 140 21:33 28.06.2022
1290 Clouds 19 1024 59 10000 3.6 140 20:55 28.06.2022
1291 Clouds 19 1023 55 10000 2.57 130 19:48 28.06.2022
1292 Clouds 19 1023 55 10000 2.57 130 19:24 28.06.2022
1293 Clouds 20 1022 56 10000 3.6 140 17:49 28.06.2022
1294 Clouds 20 1022 52 10000 4.63 120 16:35 28.06.2022
1295 Clouds 20 1022 49 10000 3.09 120 15:54 28.06.2022
1296 Clouds 20 1023 56 10000 2.06 0 14:22 28.06.2022
1297 Clouds 20 1023 56 10000 1.54 0 13:55 28.06.2022
1298 Clouds 20 1023 56 10000 1.54 0 13:32 28.06.2022
1299 Clouds 18 1025 59 10000 3.6 230 11:57 28.06.2022
1300 Clouds 16 1026 72 10000 3.09 200 09:46 28.06.2022
1301 Clouds 15 1025 77 10000 3.09 200 08:46 28.06.2022
1302 Clouds 14 1025 80 10000 2.57 230 07:58 28.06.2022
1303 Clouds 14 1024 82 10000 2.06 220 07:19 28.06.2022
1304 Clouds 12 1019 86 10000 0.85 103 02:25 28.06.2022
1305 Clouds 16 1025 72 10000 3.6 190 23:47 27.06.2022
1306 Clouds 16 1025 67 10000 2.57 160 22:55 27.06.2022
1307 Clouds 18 1025 63 10000 2.57 0 21:39 27.06.2022
1308 Clouds 18 1025 63 10000 4.12 150 21:18 27.06.2022
1309 Clouds 19 1024 59 10000 4.12 140 19:48 27.06.2022
1310 Clouds 19 1023 55 10000 3.6 150 18:40 27.06.2022
1311 Clouds 20 1023 56 10000 4.12 130 17:24 27.06.2022
1312 Clouds 20 1023 56 10000 3.6 150 15:43 27.06.2022
1313 Clouds 20 1025 52 10000 3.09 110 13:51 27.06.2022
1314 Clouds 20 1025 52 10000 4.63 180 12:57 27.06.2022
1315 Clouds 19 1026 58 10000 2.57 240 10:51 27.06.2022
1316 Clouds 17 1026 65 10000 3.09 250 09:43 27.06.2022
1317 Clouds 18 1025 63 10000 1.54 120 08:38 27.06.2022
1318 Clouds 15 1026 77 10000 1.54 190 07:39 27.06.2022
1319 Clouds 15 1024 77 10000 1.03 0 05:19 27.06.2022
1320 Clouds 16 1024 72 10000 2.06 170 01:21 27.06.2022
1321 Clouds 17 1025 67 10000 2.06 0 22:48 26.06.2022
1322 Clouds 18 1025 59 10000 2.57 140 21:37 26.06.2022
1323 Clouds 17 1024 72 10000 1.54 190 20:28 26.06.2022
1324 Clouds 17 1023 72 10000 3.6 150 18:33 26.06.2022
1325 Clouds 20 1022 52 10000 5.66 130 17:38 26.06.2022
1326 Clouds 22 1022 49 10000 2.57 130 15:36 26.06.2022
1327 Clouds 21 1024 52 10000 1.03 0 14:22 26.06.2022
1328 Clouds 20 1024 54 10000 2.57 240 13:23 26.06.2022
1329 Clouds 20 1025 54 10000 3.6 170 11:39 26.06.2022
1330 Clouds 18 1026 59 10000 3.09 180 10:42 26.06.2022
1331 Clouds 17 1026 61 10000 4.63 150 09:58 26.06.2022
1332 Clouds 15 1024 73 10000 3.09 190 07:47 26.06.2022
1333 Clouds 15 1024 73 10000 3.09 190 07:47 26.06.2022
1334 Clouds 16 1023 67 10000 1.54 200 05:26 26.06.2022
1335 Clouds 17 1023 63 10000 2.06 160 00:37 26.06.2022
1336 Clouds 16 1018 80 10000 1.95 116 00:18 26.06.2022
1337 Clouds 18 1023 59 10000 2.06 170 23:29 25.06.2022
1338 Clouds 18 1023 63 10000 1.54 90 22:46 25.06.2022
1339 Clouds 18 1023 63 10000 1.54 90 22:24 25.06.2022
1340 Clouds 19 1023 59 10000 4.12 130 21:21 25.06.2022
1341 Clouds 20 1023 56 10000 4.12 130 20:39 25.06.2022
1342 Clouds 20 1022 56 10000 4.63 170 19:59 25.06.2022
1343 Clouds 21 1021 49 10000 4.63 140 18:23 25.06.2022
1344 Clouds 21 1021 52 10000 5.14 140 17:27 25.06.2022
1345 Rain 22 1021 49 10000 5.14 160 16:27 25.06.2022
1346 Rain 22 1021 49 10000 1.54 0 14:31 25.06.2022
1347 Clouds 21 1023 53 10000 3.09 190 12:46 25.06.2022
1348 Clouds 21 1023 53 10000 3.09 190 12:27 25.06.2022
1349 Clouds 15 1026 85 10000 3.09 180 09:24 25.06.2022
1350 Clouds 15 1026 85 10000 3.09 180 09:24 25.06.2022
1351 Clouds 14 1026 94 10000 1.54 210 08:54 25.06.2022
1352 Clouds 14 1024 94 10000 2.06 270 08:20 25.06.2022
1353 Clouds 15 1024 85 10000 1.03 0 06:35 25.06.2022
1354 Clouds 17 1022 67 10000 2.57 160 00:45 25.06.2022
1355 Clouds 17 1023 67 10000 2.57 180 23:57 24.06.2022
1356 Clouds 18 1023 63 10000 4.63 150 22:28 24.06.2022
1357 Clouds 18 1023 63 10000 3.09 140 21:26 24.06.2022
1358 Rain 18 1022 63 10000 3.09 140 20:23 24.06.2022
1359 Clouds 18 1022 63 10000 3.6 130 19:24 24.06.2022
1360 Clouds 19 1021 59 10000 4.12 140 18:51 24.06.2022
1361 Clouds 19 1021 59 10000 4.12 140 18:31 24.06.2022
1362 Clouds 19 1022 59 10000 4.12 120 17:57 24.06.2022
1363 Clouds 19 1022 61 10000 4.12 130 16:46 24.06.2022
1364 Clouds 20 1022 56 10000 3.6 170 14:32 24.06.2022
1365 Clouds 20 1023 60 10000 2.06 110 13:59 24.06.2022
1366 Clouds 20 1023 60 10000 1.54 0 13:35 24.06.2022
1367 Clouds 18 1025 72 10000 2.57 200 11:41 24.06.2022
1368 Clouds 17 1024 77 10000 2.57 220 10:36 24.06.2022
1369 Clouds 15 1026 91 10000 3.6 150 09:41 24.06.2022
1370 Clouds 14 1026 97 8000 0.51 0 08:53 24.06.2022
1371 Drizzle 14 1025 91 4000 1.54 80 07:56 24.06.2022
1372 Mist 14 1024 87 10000 2.06 50 06:43 24.06.2022
1373 Clouds 16 1019 86 10000 1.57 73 06:20 24.06.2022
1374 Clouds 15 1023 82 10000 2.06 20 04:41 24.06.2022
1375 Clouds 18 1023 63 10000 3.6 180 23:24 23.06.2022
1376 Clouds 18 1023 63 10000 4.12 160 22:42 23.06.2022
1377 Clouds 18 1024 68 10000 5.14 120 20:59 23.06.2022
1378 Clouds 18 1024 68 10000 5.14 120 20:36 23.06.2022
1379 Clouds 20 1021 60 10000 4.63 150 19:40 23.06.2022
1380 Clouds 21 1022 52 10000 6.17 160 17:54 23.06.2022
1381 Clouds 21 1022 54 10000 6.17 160 17:33 23.06.2022
1382 Clouds 22 1021 49 10000 5.14 150 16:23 23.06.2022
1383 Rain 22 1014 61 10000 3.77 154 15:25 23.06.2022
1384 Rain 23 1021 53 10000 3.6 170 13:46 23.06.2022
1385 Clouds 20 1024 60 10000 5.14 190 11:33 23.06.2022
1386 Clouds 18 1025 73 10000 4.12 220 10:40 23.06.2022
1387 Clouds 17 1024 77 10000 2.57 190 09:19 23.06.2022
1388 Clouds 15 1021 82 10000 2.06 220 03:51 23.06.2022
1389 Clouds 16 1021 72 10000 1.03 0 00:27 23.06.2022
1390 Clouds 17 1022 67 10000 3.09 50 23:43 22.06.2022
1391 Clouds 19 1022 59 10000 3.09 80 22:50 22.06.2022
1392 Clouds 19 1022 59 10000 0.51 0 21:27 22.06.2022
1393 Clouds 20 1022 56 10000 3.6 70 20:48 22.06.2022
1394 Clouds 20 1021 56 10000 4.63 80 19:58 22.06.2022
1395 Clouds 21 1022 50 10000 5.66 80 18:51 22.06.2022
1396 Clouds 22 1020 49 10000 2.06 100 17:29 22.06.2022
1397 Clouds 23 1020 46 10000 4.63 140 16:40 22.06.2022
1398 Clouds 23 1020 44 10000 5.14 120 15:28 22.06.2022
1399 Clouds 23 1020 46 10000 3.09 110 14:40 22.06.2022
1400 Clouds 22 1022 47 10000 3.09 150 13:45 22.06.2022
1401 Clouds 22 1021 49 10000 3.09 0 13:23 22.06.2022
1402 Clouds 19 1024 58 10000 5.14 140 11:50 22.06.2022
1403 Clouds 19 1024 59 10000 3.09 130 10:58 22.06.2022
1404 Clouds 17 1024 67 10000 1.03 0 10:26 22.06.2022
1405 Clouds 16 1024 74 10000 1.54 190 08:48 22.06.2022
1406 Clouds 15 1023 79 10000 2.06 150 06:39 22.06.2022
1407 Clouds 12 1021 87 10000 2.57 240 01:52 22.06.2022
1408 Clouds 13 1021 82 10000 3.6 220 00:56 22.06.2022
1409 Clouds 17 1022 59 10000 1.54 70 22:40 21.06.2022
1410 Clouds 20 1021 52 10000 3.09 80 20:40 21.06.2022
1411 Clouds 22 1021 43 10000 5.14 80 19:18 21.06.2022
1412 Clouds 24 1021 36 10000 5.14 160 17:44 21.06.2022
1413 Clouds 24 1020 38 10000 2.06 130 16:34 21.06.2022
1414 Clouds 21 1025 54 10000 4.12 210 11:56 21.06.2022
1415 Clouds 19 1026 63 10000 4.63 230 10:33 21.06.2022
1416 Clouds 15 1026 78 10000 3.09 190 08:54 21.06.2022
1417 Clouds 15 1025 82 10000 3.09 210 07:40 21.06.2022
1418 Clouds 12 1023 94 10000 1.54 240 04:42 21.06.2022
1419 Clouds 16 1024 72 10000 3.6 50 23:45 20.06.2022
1420 Clouds 15 1019 77 10000 2.46 51 22:21 20.06.2022
1421 Clouds 16 1024 72 10000 2.57 10 21:32 20.06.2022
1422 Clouds 17 1024 67 10000 2.57 30 20:27 20.06.2022
1423 Clouds 20 1023 60 10000 5.66 80 19:23 20.06.2022
1424 Clouds 20 1024 54 10000 4.12 80 18:25 20.06.2022
1425 Clouds 22 1024 46 10000 4.12 150 17:45 20.06.2022
1426 Clouds 23 1022 46 10000 4.63 170 16:24 20.06.2022
1427 Clouds 22 1024 51 10000 5.14 100 14:41 20.06.2022
1428 Clouds 19 1026 65 10000 3.09 170 11:47 20.06.2022
1429 Clouds 17 1027 74 10000 4.12 140 09:57 20.06.2022
1430 Clouds 16 1026 80 10000 4.12 150 08:46 20.06.2022
1431 Clouds 15 1026 85 10000 3.09 150 07:36 20.06.2022
1432 Clouds 15 1023 82 10000 2.06 170 05:18 20.06.2022
1433 Clouds 17 1017 84 10000 1.89 70 01:32 20.06.2022
1434 Clouds 18 1023 68 10000 3.09 190 23:49 19.06.2022
1435 Rain 18 1023 68 10000 2.57 200 22:25 19.06.2022
1436 Rain 18 1023 68 10000 2.06 160 21:43 19.06.2022
1437 Clouds 19 1024 63 10000 5.14 150 20:55 19.06.2022
1438 Clouds 20 1023 64 10000 3.6 110 20:25 19.06.2022
1439 Clouds 20 1022 60 10000 3.6 140 19:46 19.06.2022
1440 Clouds 21 1021 56 10000 4.12 150 18:41 19.06.2022
1441 Clouds 21 1022 55 10000 4.12 170 17:48 19.06.2022
1442 Clouds 19 1014 59 10000 3.61 107 17:21 19.06.2022
1443 Clouds 22 1020 53 10000 4.12 180 16:34 19.06.2022
1444 Clouds 22 1020 56 10000 4.63 106 15:37 19.06.2022
1445 Clouds 22 1022 54 10000 5.14 160 14:55 19.06.2022
1446 Clouds 22 1022 55 10000 4.12 180 13:54 19.06.2022
1447 Clouds 22 1022 53 10000 3.09 0 12:56 19.06.2022
1448 Clouds 19 1024 63 10000 4.12 180 10:54 19.06.2022
1449 Clouds 18 1024 72 10000 1.54 160 09:40 19.06.2022
1450 Clouds 17 1025 77 10000 1.54 190 08:47 19.06.2022
1451 Clouds 16 1021 82 10000 0 0 07:48 19.06.2022
1452 Clouds 15 1021 88 10000 2.06 10 04:45 19.06.2022
1453 Clouds 15 1021 82 10000 2.06 360 01:29 19.06.2022
1454 Clouds 16 1022 77 10000 2.06 30 00:24 19.06.2022
1455 Clouds 17 1021 72 10000 2.57 90 23:35 18.06.2022
1456 Clouds 19 1021 59 10000 4.12 70 22:36 18.06.2022
1457 Clouds 20 1022 52 10000 3.6 90 20:56 18.06.2022
1458 Clouds 20 1021 52 10000 3.09 70 20:28 18.06.2022
1459 Clouds 20 1021 50 10000 5.14 90 19:37 18.06.2022
1460 Clouds 21 1020 49 10000 6.69 90 18:45 18.06.2022
1461 Clouds 24 1019 38 10000 3.6 90 17:31 18.06.2022
1462 Clouds 24 1020 35 10000 3.09 90 16:47 18.06.2022
1463 Clouds 24 1020 38 10000 5.14 150 15:31 18.06.2022
1464 Clouds 22 1010 36 10000 2.03 133 14:42 18.06.2022
1465 Clouds 22 1012 40 10000 2.77 165 13:22 18.06.2022
1466 Clouds 21 1012 40 10000 2.77 165 13:22 18.06.2022
1467 Clouds 20 1024 52 10000 5.14 180 11:39 18.06.2022
1468 Clouds 20 1024 60 10000 4.12 210 10:46 18.06.2022
1469 Clouds 18 1018 65 10000 1.92 128 09:22 18.06.2022
1470 Clouds 16 1018 68 10000 1.88 121 08:24 18.06.2022
1471 Clouds 15 1018 71 10000 1.31 124 06:46 18.06.2022
1472 Clouds 15 1016 81 10000 1.12 65 03:30 18.06.2022
1473 Clouds 14 1016 88 10000 1.67 67 01:25 18.06.2022
1474 Clouds 14 1016 88 10000 1.67 67 00:46 18.06.2022
1475 Clouds 14 1016 90 10000 1.75 59 23:52 17.06.2022
1476 Clouds 18 1021 63 10000 3.09 110 23:20 17.06.2022
1477 Clouds 20 1021 52 10000 3.6 100 21:18 17.06.2022
1478 Clouds 20 1021 52 10000 4.63 100 19:59 17.06.2022
1479 Clouds 18 1014 51 10000 3.4 93 18:44 17.06.2022
1480 Clouds 19 1013 46 10000 3.61 93 17:44 17.06.2022
1481 Clouds 21 1012 40 10000 4.47 87 16:43 17.06.2022
1482 Clouds 21 1011 34 10000 4.96 90 15:49 17.06.2022
1483 Clouds 22 1010 33 10000 4.94 98 15:22 17.06.2022
1484 Clouds 23 1011 32 10000 4.68 107 14:20 17.06.2022
1485 Clouds 22 1011 33 10000 4.69 107 14:20 17.06.2022
1486 Clouds 22 1011 32 10000 4.68 107 13:46 17.06.2022
1487 Clouds 25 1012 34 10000 4.46 111 13:24 17.06.2022
1488 Clouds 22 1013 37 10000 3.88 110 11:58 17.06.2022
1489 Clouds 22 1013 37 10000 3.88 110 11:39 17.06.2022
1490 Clouds 22 1015 42 10000 3.4 113 11:21 17.06.2022
1491 Clouds 17 1023 73 10000 4.12 150 08:30 17.06.2022
1492 Clouds 15 1024 80 10000 2.57 130 07:48 17.06.2022
1493 Clouds 15 1021 88 10000 1.03 120 06:22 17.06.2022
1494 Clouds 14 1021 94 10000 1.54 340 03:20 17.06.2022
1495 Clear 13 1022 82 10000 1.03 0 00:43 17.06.2022
1496 Clear 15 1022 77 10000 1.03 290 23:25 16.06.2022
1497 Clear 17 1023 61 10000 3.6 100 22:31 16.06.2022
1498 Clear 18 1022 52 10000 3.6 80 21:19 16.06.2022
1499 Clear 19 1022 45 10000 3.6 90 20:50 16.06.2022
1500 Clear 21 1022 42 10000 5.14 90 19:59 16.06.2022
1501 Clouds 22 1022 40 10000 7.2 90 18:44 16.06.2022
1502 Clouds 24 1020 36 10000 7.2 90 17:44 16.06.2022
1503 Clouds 25 1020 36 10000 6.69 80 17:22 16.06.2022
1504 Clouds 26 1020 29 10000 5.14 120 15:58 16.06.2022
1505 Clouds 26 1020 31 10000 3.6 100 15:21 16.06.2022
1506 Clouds 25 1021 36 10000 5.14 120 13:55 16.06.2022
1507 Clouds 24 1022 41 10000 4.63 140 12:53 16.06.2022
1508 Clouds 24 1022 43 10000 3.6 160 12:34 16.06.2022
1509 Clouds 22 1024 53 10000 2.57 0 11:21 16.06.2022
1510 Clouds 20 1024 58 10000 3.6 120 10:35 16.06.2022
1511 Clouds 20 1024 62 10000 2.57 0 09:39 16.06.2022
1512 Clouds 17 1023 78 10000 2.06 360 08:50 16.06.2022
1513 Clouds 16 1022 82 10000 0 0 07:38 16.06.2022
1514 Clouds 15 1020 88 10000 2.06 200 05:48 16.06.2022
1515 Clouds 16 1022 82 10000 1.54 250 03:56 16.06.2022
1516 Clouds 17 1022 77 10000 2.06 320 01:52 16.06.2022
1517 Clouds 17 1022 77 10000 2.06 320 01:22 16.06.2022
1518 Clouds 17 1022 77 10000 2.06 250 00:22 16.06.2022
1519 Clouds 18 1022 68 10000 3.6 110 22:53 15.06.2022
1520 Clouds 19 1022 66 10000 4.12 90 21:37 15.06.2022
1521 Clouds 20 1021 60 10000 4.12 80 20:59 15.06.2022
1522 Clouds 20 1021 60 10000 4.12 80 20:36 15.06.2022
1523 Clouds 21 1021 58 10000 5.14 90 19:57 15.06.2022
1524 Clouds 22 1020 55 10000 6.69 80 18:41 15.06.2022
1525 Clouds 23 1020 47 10000 5.66 80 17:53 15.06.2022
1526 Clouds 25 1019 42 10000 5.14 90 16:27 15.06.2022
1527 Clear 23 1011 34 10000 4.57 79 15:19 15.06.2022
1528 Clouds 23 1020 53 10000 2.57 170 13:29 15.06.2022
1529 Clouds 22 1021 56 10000 5.14 130 12:47 15.06.2022
1530 Clouds 20 1022 64 10000 2.57 180 11:28 15.06.2022
1531 Clouds 21 1016 53 10000 2.47 112 10:22 15.06.2022
1532 Clouds 18 1022 77 10000 0 0 09:34 15.06.2022
1533 Clouds 16 1021 82 10000 0 0 07:43 15.06.2022
1534 Clouds 16 1021 88 10000 0 0 05:58 15.06.2022
1535 Clouds 17 1021 88 10000 0 0 02:56 15.06.2022
1536 Clouds 17 1022 88 10000 0 0 01:37 15.06.2022
1537 Clouds 18 1022 82 10000 0 0 00:37 15.06.2022
1538 Clouds 18 1022 82 10000 0 0 23:38 14.06.2022
1539 Clouds 19 1022 82 10000 0 0 22:50 14.06.2022
1540 Clouds 20 1022 73 10000 4.12 80 21:47 14.06.2022
1541 Clouds 20 1022 73 10000 4.12 80 21:26 14.06.2022
1542 Clouds 21 1021 68 10000 5.14 60 20:41 14.06.2022
1543 Clouds 21 1020 64 10000 4.12 90 19:58 14.06.2022
1544 Clouds 22 1020 64 10000 5.14 90 18:45 14.06.2022
1545 Clouds 21 1012 51 10000 3.73 118 17:29 14.06.2022
1546 Clouds 26 1018 44 10000 3.6 90 16:43 14.06.2022
1547 Clouds 26 1019 44 10000 2.57 110 15:49 14.06.2022
1548 Clouds 26 1020 44 10000 0 0 14:57 14.06.2022
1549 Clouds 23 1011 35 10000 3.09 98 14:19 14.06.2022
1550 Clouds 24 1021 53 10000 2.57 80 13:32 14.06.2022
1551 Clouds 23 1021 49 10000 2.57 300 12:25 14.06.2022
1552 Clouds 22 1022 53 10000 5.14 170 11:27 14.06.2022
1553 Clouds 23 1015 49 10000 1.97 140 10:33 14.06.2022
1554 Clouds 19 1018 63 10000 1.14 102 09:28 14.06.2022
1555 Clouds 16 1024 82 10000 3.09 190 08:41 14.06.2022
1556 Clouds 15 1023 88 10000 5.14 190 07:26 14.06.2022
1557 Clouds 16 1018 94 10000 1.56 47 04:35 14.06.2022
1558 Clouds 14 1017 90 10000 2.14 50 02:43 14.06.2022
1559 Clouds 17 1017 84 10000 1.83 40 00:27 14.06.2022
1560 Clouds 18 1018 83 10000 1.54 36 23:18 13.06.2022
1561 Rain 18 1018 82 10000 1.36 86 22:25 13.06.2022
1562 Rain 18 1018 82 10000 1.36 86 21:43 13.06.2022
1563 Clouds 18 1016 68 10000 2.91 86 20:19 13.06.2022
1564 Clouds 20 1022 60 10000 2.06 60 19:26 13.06.2022
1565 Clouds 21 1021 56 10000 3.09 150 17:57 13.06.2022
1566 Clouds 21 1021 56 10000 3.09 150 17:35 13.06.2022
1567 Clouds 21 1021 56 10000 3.09 120 16:39 13.06.2022
1568 Clouds 21 1013 52 10000 2.78 75 15:20 13.06.2022
1569 Clouds 21 1021 56 10000 3.09 120 14:41 13.06.2022
1570 Clouds 20 1023 64 10000 2.57 90 13:41 13.06.2022
1571 Clouds 19 1024 72 10000 0 0 12:30 13.06.2022
1572 Clouds 19 1023 68 10000 2.57 130 11:25 13.06.2022
1573 Clouds 18 1024 72 10000 0 0 10:26 13.06.2022
1574 Clouds 17 1024 77 10000 0 0 09:23 13.06.2022
1575 Clouds 15 1023 88 10000 0 0 07:38 13.06.2022
1576 Clouds 15 1022 88 10000 0 0 05:42 13.06.2022
1577 Clouds 17 1016 90 10000 0.73 155 02:50 13.06.2022
1578 Clouds 17 1017 87 10000 1.36 89 01:37 13.06.2022
1579 Clouds 17 1018 88 10000 1.78 80 00:18 13.06.2022
1580 Clouds 17 1018 88 10000 1.71 63 23:25 12.06.2022
1581 Clouds 17 1018 84 10000 1.95 69 22:22 12.06.2022
1582 Clouds 18 1018 83 10000 3.11 78 21:22 12.06.2022
1583 Clouds 19 1023 63 10000 2.57 90 20:29 12.06.2022
1584 Clouds 20 1021 60 10000 3.6 90 19:30 12.06.2022
1585 Clouds 21 1021 52 10000 3.6 150 17:53 12.06.2022
1586 Clouds 23 1020 46 10000 5.14 150 16:24 12.06.2022
1587 Clouds 23 1012 49 10000 4.39 90 15:18 12.06.2022
1588 Clouds 22 1021 49 10000 2.57 130 14:29 12.06.2022
1589 Clouds 22 1021 53 10000 4.12 150 13:55 12.06.2022
1590 Clouds 21 1023 56 10000 3.09 150 12:43 12.06.2022
1591 Clouds 23 1015 50 10000 3.4 93 11:40 12.06.2022
1592 Rain 21 1016 52 10000 3.39 114 10:45 12.06.2022
1593 Clouds 21 1018 67 10000 2.45 130 09:25 12.06.2022
1594 Clouds 17 1024 82 10000 0 0 08:46 12.06.2022
1595 Clouds 16 1023 88 10000 0 0 07:38 12.06.2022
1596 Clouds 16 1021 88 10000 0 0 05:29 12.06.2022
1597 Clouds 17 1017 91 10000 2.08 52 03:29 12.06.2022
1598 Clouds 17 1017 89 10000 1.84 54 01:43 12.06.2022
1599 Clouds 17 1017 88 10000 2.33 58 00:58 12.06.2022
1600 Clouds 17 1018 86 10000 2.37 63 00:25 12.06.2022
1601 Clouds 17 1018 86 10000 2.37 63 23:47 11.06.2022
1602 Clouds 17 1018 86 10000 2.35 63 23:47 11.06.2022
1603 Clouds 18 1018 84 10000 2.59 68 22:39 11.06.2022
1604 Clouds 18 1018 82 10000 2.69 76 22:18 11.06.2022
1605 Clouds 19 1023 72 10000 2.57 140 20:50 11.06.2022
1606 Clouds 19 1023 72 10000 2.57 140 20:21 11.06.2022
1607 Clouds 20 1022 64 10000 2.57 120 19:26 11.06.2022
1608 Clouds 21 1021 60 10000 3.09 130 18:34 11.06.2022
1609 Clouds 22 1021 53 10000 4.12 150 17:51 11.06.2022
1610 Clouds 22 1021 53 10000 4.12 150 17:29 11.06.2022
1611 Clouds 23 1021 49 10000 4.12 130 16:58 11.06.2022
1612 Clouds 23 1021 49 10000 4.12 130 16:30 11.06.2022
1613 Clouds 23 1021 49 10000 4.12 140 15:43 11.06.2022
1614 Clouds 23 1021 49 10000 4.12 140 15:43 11.06.2022
1615 Clouds 22 1022 53 10000 2.57 120 13:53 11.06.2022
1616 Clouds 23 1014 47 10000 2.62 125 13:24 11.06.2022
1617 Clouds 20 1024 64 10000 3.09 170 10:55 11.06.2022
1618 Clouds 21 1018 56 10000 1.92 152 10:19 11.06.2022
1619 Clouds 19 1019 68 10000 1.4 144 09:29 11.06.2022
1620 Clouds 16 1024 82 10000 0 0 07:46 11.06.2022
1621 Clouds 16 1023 82 10000 0 0 06:30 11.06.2022
1622 Clouds 16 1019 95 10000 0.72 59 05:19 11.06.2022
1623 Clouds 16 1017 89 10000 1.01 92 01:53 11.06.2022
1624 Clouds 16 1017 89 10000 1.01 92 01:33 11.06.2022
1625 Clouds 17 1018 86 10000 1.86 76 00:21 11.06.2022
1626 Clouds 18 1018 82 10000 2.73 78 22:32 10.06.2022
1627 Clouds 18 1018 81 10000 2.39 56 21:53 10.06.2022
1628 Clouds 20 1023 60 10000 5.14 90 20:42 10.06.2022
1629 Clouds 20 1023 60 10000 5.14 90 20:22 10.06.2022
1630 Clouds 21 1023 52 10000 3.09 90 19:48 10.06.2022
1631 Rain 19 1017 73 10000 3.28 69 19:18 10.06.2022
1632 Clouds 19 1016 67 10000 3.28 79 18:19 10.06.2022
1633 Clouds 23 1021 43 10000 5.14 90 17:36 10.06.2022
1634 Clouds 23 1020 43 10000 0 0 16:56 10.06.2022
1635 Clouds 24 1020 41 10000 5.14 180 15:48 10.06.2022
1636 Clouds 22 1014 53 10000 2.44 108 15:19 10.06.2022
1637 Clouds 24 1021 43 10000 2.57 140 13:49 10.06.2022
1638 Clouds 21 1015 56 10000 2.66 124 12:35 10.06.2022
1639 Clouds 22 1016 56 10000 2.55 143 11:40 10.06.2022
1640 Clouds 19 1024 72 10000 2.3 157 10:40 10.06.2022
1641 Clouds 19 1025 72 10000 2.57 150 09:44 10.06.2022
1642 Clouds 17 1025 77 10000 1.54 150 08:28 10.06.2022
1643 Clouds 15 1023 88 10000 0 0 06:53 10.06.2022
1644 Clouds 15 1023 88 10000 0 0 06:32 10.06.2022
1645 Clouds 15 1023 88 10000 2.57 200 05:48 10.06.2022
1646 Clouds 14 1018 91 10000 0.29 186 03:41 10.06.2022
1647 Clouds 13 1017 89 10000 0.57 70 01:38 10.06.2022
1648 Clouds 17 1017 84 10000 2.02 49 00:27 10.06.2022
1649 Clouds 17 1017 81 10000 2.14 48 23:28 09.06.2022
1650 Clouds 18 1023 63 10000 3.09 70 21:47 09.06.2022
1651 Clouds 18 1023 63 10000 3.09 70 21:29 09.06.2022
1652 Clouds 20 1023 56 10000 4.12 60 20:54 09.06.2022
1653 Clouds 20 1021 60 10000 3.09 90 19:59 09.06.2022
1654 Clouds 20 1021 60 10000 5.14 60 18:49 09.06.2022
1655 Rain 18 1015 81 10000 2.64 37 18:21 09.06.2022
1656 Clouds 22 1020 49 10000 5.14 60 16:48 09.06.2022
1657 Clouds 23 1020 46 10000 5.14 110 15:48 09.06.2022
1658 Clouds 22 1021 53 10000 2.57 0 14:35 09.06.2022
1659 Clouds 21 1021 56 10000 2.57 120 13:48 09.06.2022
1660 Clouds 21 1021 56 10000 2.57 120 13:27 09.06.2022
1661 Clouds 19 1023 68 10000 2.57 150 11:54 09.06.2022
1662 Clouds 18 1024 68 10000 2.57 140 10:53 09.06.2022
1663 Clouds 17 1024 72 10000 3.6 20 09:43 09.06.2022
1664 Clouds 17 1024 77 10000 3.09 30 09:23 09.06.2022
1665 Clouds 15 1023 88 10000 1.03 0 07:44 09.06.2022
1666 Clouds 15 1022 85 10000 2.06 110 05:48 09.06.2022
1667 Clouds 16 1022 82 10000 4.63 40 02:20 09.06.2022
1668 Clouds 17 1023 67 10000 4.12 60 23:36 08.06.2022
1669 Clouds 18 1023 68 10000 3.09 40 22:58 08.06.2022
1670 Clouds 18 1023 68 10000 2.06 50 22:26 08.06.2022
1671 Clouds 19 1023 59 10000 3.09 80 21:52 08.06.2022
1672 Clouds 19 1023 60 10000 3.6 70 20:59 08.06.2022
1673 Clouds 20 1022 56 10000 5.14 100 19:55 08.06.2022
1674 Clouds 20 1022 60 10000 5.14 100 19:27 08.06.2022
1675 Clouds 21 1021 52 10000 6.69 90 18:42 08.06.2022
1676 Clouds 23 1020 49 10000 3.6 60 16:39 08.06.2022
1677 Clouds 23 1020 49 10000 2.57 140 15:27 08.06.2022
1678 Clouds 23 1021 50 10000 2.57 110 13:37 08.06.2022
1679 Clouds 21 1023 56 10000 1.54 0 11:51 08.06.2022
1680 Clouds 22 1023 56 10000 2.57 110 11:26 08.06.2022
1681 Clouds 19 1023 68 10000 2.57 170 09:48 08.06.2022
1682 Clouds 18 1024 72 10000 1.54 190 09:20 08.06.2022
1683 Clouds 18 1024 72 10000 1.54 190 09:20 08.06.2022
1684 Rain 17 1024 77 10000 1.54 200 08:22 08.06.2022
1685 Clouds 16 1021 85 10000 0 0 05:47 08.06.2022
1686 Clouds 16 1022 82 10000 2.06 330 03:20 08.06.2022
1687 Clouds 16 1022 77 10000 3.6 10 00:29 08.06.2022
1688 Clouds 18 1022 73 10000 2.57 170 23:27 07.06.2022
1689 Clouds 18 1022 73 10000 3.09 150 22:44 07.06.2022
1690 Rain 17 1017 88 10000 2.01 92 22:22 07.06.2022
1691 Rain 17 1017 86 10000 1.85 90 21:28 07.06.2022
1692 Clouds 18 1021 71 10000 4.12 140 20:53 07.06.2022
1693 Clouds 18 1021 71 10000 4.12 140 20:31 07.06.2022
1694 Rain 20 1021 60 10000 6.69 150 19:38 07.06.2022
1695 Rain 18 1015 77 10000 2.37 85 18:22 07.06.2022
1696 Rain 22 1020 53 10000 5.14 170 17:25 07.06.2022
1697 Clouds 23 1019 48 10000 5.14 160 16:42 07.06.2022
1698 Clouds 23 1019 48 10000 5.14 200 15:44 07.06.2022
1699 Clouds 23 1019 48 10000 5.14 200 15:24 07.06.2022
1700 Clouds 23 1019 53 10000 5.66 160 14:47 07.06.2022
1701 Rain 23 1020 53 10000 5.66 160 14:29 07.06.2022
1702 Rain 23 1021 53 10000 3.6 180 13:30 07.06.2022
1703 Clouds 21 1021 60 10000 4.12 180 12:45 07.06.2022
1704 Clouds 21 1022 60 10000 5.66 190 11:37 07.06.2022
1705 Clouds 20 1024 60 10000 4.12 200 10:26 07.06.2022
1706 Clouds 16 1023 82 10000 5.14 200 08:49 07.06.2022
1707 Clouds 16 1023 82 10000 5.14 200 08:49 07.06.2022
1708 Clouds 15 1023 88 10000 3.09 170 07:33 07.06.2022
1709 Clouds 15 1021 92 10000 4.12 190 05:58 07.06.2022
1710 Clouds 16 1021 82 10000 2.06 190 03:31 07.06.2022
1711 Rain 16 1022 82 10000 4.12 190 00:44 07.06.2022
1712 Clouds 15 1021 92 10000 4.63 180 23:41 06.06.2022
1713 Clouds 17 1022 82 10000 3.6 190 22:47 06.06.2022
1714 Clouds 17 1022 79 10000 5.66 180 21:56 06.06.2022
1715 Clouds 18 1021 80 10000 6.17 160 20:35 06.06.2022
1716 Clouds 18 1021 82 10000 7.2 170 19:24 06.06.2022
1717 Clouds 22 1020 56 10000 6.17 150 18:47 06.06.2022
1718 Clouds 23 1020 49 10000 5.14 100 17:55 06.06.2022
1719 Clouds 23 1019 53 10000 4.12 130 16:55 06.06.2022
1720 Clouds 23 1019 52 10000 3.09 200 15:45 06.06.2022
1721 Clouds 22 1019 56 10000 5.14 170 14:59 06.06.2022
1722 Clouds 22 1020 57 10000 5.14 170 13:43 06.06.2022
1723 Rain 22 1021 60 10000 3.6 140 13:19 06.06.2022
1724 Clouds 21 1021 60 10000 5.14 160 12:33 06.06.2022
1725 Clouds 21 1022 61 10000 4.12 170 11:45 06.06.2022
1726 Clouds 18 1023 80 10000 3.6 170 09:53 06.06.2022
1727 Clouds 17 1023 80 10000 4.12 190 08:57 06.06.2022
1728 Clouds 17 1023 80 10000 4.12 190 08:28 06.06.2022
1729 Clouds 16 1018 79 10000 0.76 186 07:19 06.06.2022
1730 Clear 14 1021 94 10000 2.57 250 04:39 06.06.2022
1731 Clouds 17 1022 77 10000 2.57 190 01:57 06.06.2022
1732 Clear 17 1021 82 10000 2.06 360 00:57 06.06.2022
1733 Clear 17 1021 82 10000 2.06 360 00:34 06.06.2022
1734 Clouds 14 1018 86 10000 0.51 119 23:20 05.06.2022
1735 Clouds 17 1018 83 10000 0.75 105 22:21 05.06.2022
1736 Clouds 19 1021 63 10000 3.6 160 20:29 05.06.2022
1737 Clouds 17 1016 72 10000 2.21 139 19:26 05.06.2022
1738 Clouds 18 1015 64 10000 2.66 126 18:20 05.06.2022
1739 Clouds 24 1019 41 10000 5.66 100 17:39 05.06.2022
1740 Clouds 22 1014 57 10000 3.6 136 17:21 05.06.2022
1741 Clouds 24 1019 41 10000 3.6 110 16:47 05.06.2022
1742 Clouds 25 1019 38 10000 2.06 40 15:41 05.06.2022
1743 Clouds 25 1011 33 10000 2.14 89 14:21 05.06.2022
1744 Clouds 23 1021 45 10000 4.12 180 12:23 05.06.2022
1745 Clouds 20 1022 56 10000 2.57 190 10:51 05.06.2022
1746 Clouds 20 1022 56 10000 2.57 190 10:24 05.06.2022
1747 Clouds 19 1023 61 10000 3.6 130 09:44 05.06.2022
1748 Clouds 16 1023 77 10000 1.54 0 08:25 05.06.2022
1749 Clear 11 1022 90 10000 1.54 280 06:47 05.06.2022
1750 Clouds 15 1018 90 10000 1.42 5 05:20 05.06.2022
1751 Clouds 13 1021 84 10000 1.54 250 02:58 05.06.2022
1752 Clear 14 1021 82 10000 1.03 310 01:30 05.06.2022
1753 Clear 16 1022 72 10000 4.12 110 23:43 04.06.2022
1754 Clear 17 1022 60 10000 6.17 90 21:39 04.06.2022
1755 Clear 19 1021 52 10000 5.14 90 19:49 04.06.2022
1756 Clouds 23 1020 41 10000 7.72 70 17:50 04.06.2022
1757 Clouds 24 1019 39 10000 7.72 70 16:22 04.06.2022
1758 Clouds 24 1020 38 10000 5.14 100 15:54 04.06.2022
1759 Clouds 24 1020 38 10000 5.14 90 14:36 04.06.2022
1760 Clouds 21 1023 47 10000 4.12 120 11:48 04.06.2022
1761 Clouds 20 1023 56 10000 2.57 150 10:57 04.06.2022
1762 Clouds 20 1024 52 10000 2.57 100 10:22 04.06.2022
1763 Clouds 18 1023 63 10000 4.12 150 09:41 04.06.2022
1764 Clouds 17 1023 67 10000 5.14 120 08:40 04.06.2022
1765 Clouds 14 1023 82 10000 1.54 60 07:38 04.06.2022
1766 Clear 12 1022 94 10000 2.06 350 04:33 04.06.2022
1767 Clear 12 1022 94 10000 2.06 350 04:33 04.06.2022
1768 Clear 12 1022 94 10000 2.06 350 04:33 04.06.2022
1769 Clear 13 1022 88 10000 2.06 360 00:56 04.06.2022
1770 Clear 15 1023 77 10000 3.6 40 23:35 03.06.2022
1771 Clear 16 1022 69 10000 2.57 40 22:30 03.06.2022
1772 Clear 16 1023 72 10000 2.57 60 21:21 03.06.2022
1773 Clouds 18 1023 65 10000 2.57 80 20:33 03.06.2022
1774 Clouds 22 1021 47 10000 6.17 90 17:58 03.06.2022
1775 Clouds 23 1021 44 10000 5.14 90 16:47 03.06.2022
1776 Clouds 23 1021 46 10000 4.12 120 15:18 03.06.2022
1777 Clouds 21 1023 56 10000 4.63 110 13:20 03.06.2022
1778 Clouds 21 1024 52 10000 3.09 100 11:19 03.06.2022
1779 Clouds 18 1023 68 10000 3.09 160 09:38 03.06.2022
1780 Clouds 16 1024 80 10000 4.12 170 08:45 03.06.2022
1781 Clouds 15 1023 85 10000 3.09 170 07:26 03.06.2022
1782 Clouds 15 1022 85 10000 2.06 150 06:34 03.06.2022
1783 Clouds 14 1021 88 10000 2.57 140 05:35 03.06.2022
1784 Clouds 15 1022 91 10000 1.54 350 00:28 03.06.2022
1785 Clouds 17 1021 74 10000 3.09 90 22:45 02.06.2022
1786 Clouds 17 1021 76 10000 3.6 80 21:40 02.06.2022
1787 Clouds 18 1021 72 10000 5.14 90 20:22 02.06.2022
1788 Clouds 19 1020 65 10000 3.09 80 19:50 02.06.2022
1789 Clouds 19 1020 65 10000 3.09 80 19:31 02.06.2022
1790 Clouds 22 1020 53 10000 6.17 180 17:32 02.06.2022
1791 Clouds 24 1020 41 10000 7.2 80 16:27 02.06.2022
1792 Rain 24 1021 43 10000 4.12 100 14:20 02.06.2022
1793 Clouds 24 1020 46 10000 4.63 110 13:29 02.06.2022
1794 Clouds 21 1022 58 10000 3.09 110 11:36 02.06.2022
1795 Clouds 21 1018 81 10000 2.08 154 10:20 02.06.2022
1796 Clouds 18 1024 70 10000 5.14 170 09:28 02.06.2022
1797 Rain 18 1023 77 10000 4.63 160 08:27 02.06.2022
1798 Clouds 16 1023 82 10000 2.57 150 07:25 02.06.2022
1799 Clouds 16 1021 88 10000 3.6 170 04:54 02.06.2022
1800 Clouds 16 1021 88 10000 2.57 190 02:48 02.06.2022
1801 Clouds 15 1022 82 10000 1.03 0 23:50 01.06.2022
1802 Clouds 16 1022 77 10000 1.03 0 22:51 01.06.2022
1803 Clouds 18 1022 65 10000 2.57 120 21:37 01.06.2022
1804 Clouds 20 1021 60 10000 5.14 120 20:59 01.06.2022
1805 Clouds 20 1021 60 10000 5.14 120 20:37 01.06.2022
1806 Clouds 21 1021 52 10000 6.17 100 19:28 01.06.2022
1807 Clouds 23 1020 40 10000 5.66 70 17:46 01.06.2022
1808 Clouds 25 1019 36 10000 5.14 110 16:38 01.06.2022
1809 Clouds 24 1020 43 10000 5.14 70 14:59 01.06.2022
1810 Clouds 24 1021 45 10000 3.09 90 13:53 01.06.2022
1811 Clouds 24 1022 46 10000 2.06 120 12:26 01.06.2022
1812 Clouds 20 1023 70 10000 2.57 180 09:48 01.06.2022
1813 Clouds 17 1023 85 10000 3.09 180 08:53 01.06.2022
1814 Clouds 16 1022 91 10000 1.03 0 07:24 01.06.2022
1815 Clouds 15 1021 94 10000 1.03 0 06:30 01.06.2022
1816 Clouds 16 1021 85 10000 2.06 270 00:48 01.06.2022
1817 Clouds 17 1021 80 10000 0 0 23:30 31.05.2022
1818 Clouds 17 1021 80 10000 0 0 23:30 31.05.2022
1819 Clouds 17 1021 75 10000 4.12 120 22:37 31.05.2022
1820 Clouds 19 1021 66 10000 2.06 70 21:46 31.05.2022
1821 Clouds 20 1021 64 10000 3.6 110 20:46 31.05.2022
1822 Clouds 20 1021 64 10000 3.6 100 20:23 31.05.2022
1823 Clouds 21 1020 60 10000 4.63 80 18:53 31.05.2022
1824 Clouds 22 1019 56 10000 5.14 90 17:50 31.05.2022
1825 Clouds 19 1013 59 10000 3.28 98 17:18 31.05.2022
1826 Clouds 23 1019 55 10000 7.2 130 15:41 31.05.2022
1827 Clouds 22 1012 50 10000 4.51 108 14:18 31.05.2022
1828 Clouds 22 1023 56 10000 2.06 70 12:21 31.05.2022
1829 Clouds 20 1023 70 10000 2.06 50 10:55 31.05.2022
1830 Clouds 20 1023 70 10000 2.06 50 10:55 31.05.2022
1831 Clouds 18 1024 80 10000 3.09 40 09:31 31.05.2022
1832 Clouds 16 1024 88 10000 1.54 250 07:28 31.05.2022
1833 Clouds 16 1023 88 10000 1.54 30 05:23 31.05.2022
1834 Clouds 17 1022 88 10000 1.54 240 01:35 31.05.2022
1835 Clouds 17 1018 84 10000 2.37 52 23:27 30.05.2022
1836 Clouds 16 1023 88 10000 3.09 270 22:56 30.05.2022
1837 Clouds 17 1024 88 10000 2.57 260 22:21 30.05.2022
1838 Rain 16 1024 88 10000 3.09 260 21:34 30.05.2022
1839 Clouds 18 1018 74 10000 1.66 91 20:20 30.05.2022
1840 Clouds 18 1023 77 10000 6.17 210 18:41 30.05.2022
1841 Clouds 22 1021 60 10000 7.72 220 17:38 30.05.2022
1842 Clouds 22 1021 58 10000 4.63 130 16:44 30.05.2022
1843 Clouds 24 1021 48 10000 3.09 0 14:51 30.05.2022
1844 Clouds 22 1024 56 10000 3.09 160 12:37 30.05.2022
1845 Clouds 21 1025 62 10000 4.12 220 10:47 30.05.2022
1846 Clouds 18 1025 77 10000 1.54 180 09:39 30.05.2022
1847 Clouds 16 1024 91 10000 2.57 160 07:23 30.05.2022
1848 Drizzle 16 1023 91 10000 1.54 0 05:50 30.05.2022
1849 Clouds 17 1021 77 10000 2.57 120 02:33 30.05.2022
1850 Clouds 17 1018 91 10000 3.08 54 23:23 29.05.2022
1851 Clouds 18 1023 70 10000 3.09 60 22:39 29.05.2022
1852 Clouds 19 1023 68 10000 2.57 140 21:19 29.05.2022
1853 Clouds 20 1021 64 10000 5.14 100 19:38 29.05.2022
1854 Rain 20 1021 64 10000 4.63 80 19:18 29.05.2022
1855 Clouds 22 1020 56 10000 4.63 70 17:32 29.05.2022
1856 Clouds 24 1019 46 10000 4.12 70 15:49 29.05.2022
1857 Clouds 24 1019 46 10000 4.12 70 15:23 29.05.2022
1858 Clouds 24 1020 47 10000 5.14 90 14:23 29.05.2022
1859 Clouds 22 1023 57 10000 3.09 130 11:55 29.05.2022
1860 Clouds 20 1023 66 10000 1.54 130 10:42 29.05.2022
1861 Clouds 18 1024 79 10000 3.6 110 09:51 29.05.2022
1862 Clouds 16 1021 91 10000 2.57 150 06:51 29.05.2022
1863 Clouds 16 1021 94 10000 2.06 200 04:49 29.05.2022
1864 Clouds 16 1021 94 10000 2.57 210 04:24 29.05.2022
1865 Clouds 17 1022 88 10000 1.03 0 23:59 28.05.2022
1866 Clouds 17 1022 88 10000 3.6 70 23:39 28.05.2022
1867 Rain 18 1022 82 10000 3.6 70 22:40 28.05.2022
1868 Clouds 19 1021 77 10000 3.09 70 21:40 28.05.2022
1869 Clouds 20 1020 61 10000 3.6 80 19:52 28.05.2022
1870 Rain 20 1020 68 10000 3.6 80 19:18 28.05.2022
1871 Clouds 21 1020 68 10000 5.14 80 17:44 28.05.2022
1872 Clouds 22 1019 57 10000 6.17 100 16:50 28.05.2022
1873 Thunderstorm 24 1018 50 10000 4.63 90 15:44 28.05.2022
1874 Clouds 24 1019 53 10000 3.09 60 14:37 28.05.2022
1875 Rain 22 1021 64 10000 2.06 0 13:21 28.05.2022
1876 Rain 22 1022 64 10000 2.06 0 12:40 28.05.2022
1877 Clouds 21 1022 68 10000 2.57 170 11:26 28.05.2022
1878 Rain 20 1024 73 10000 2.06 190 10:25 28.05.2022
1879 Clouds 18 1023 82 10000 1.54 210 09:30 28.05.2022
1880 Clouds 17 1023 91 9000 1.54 30 07:47 28.05.2022
1881 Clouds 16 1022 94 7000 1.03 0 06:32 28.05.2022
1882 Rain 16 1021 94 10000 2.06 10 03:53 28.05.2022
1883 Clouds 16 1023 94 10000 1.54 360 00:50 28.05.2022
1884 Rain 16 1023 94 10000 2.06 260 23:42 27.05.2022
1885 Rain 19 1023 77 10000 3.6 80 22:24 27.05.2022
1886 Clouds 19 1021 77 10000 2.57 120 20:58 27.05.2022
1887 Rain 20 1021 73 10000 2.57 150 20:31 27.05.2022
1888 Clouds 20 1021 73 10000 2.57 150 19:55 27.05.2022
1889 Clouds 19 1021 73 10000 1.54 180 19:33 27.05.2022
1890 Clouds 20 1020 70 10000 3.09 160 18:37 27.05.2022
1891 Clouds 24 1019 55 10000 8.23 140 16:42 27.05.2022
1892 Clouds 26 1019 47 10000 6.17 110 15:46 27.05.2022
1893 Clouds 25 1019 50 10000 3.09 130 14:45 27.05.2022
1894 Clouds 26 1021 47 10000 3.6 150 13:35 27.05.2022
1895 Clouds 23 1023 60 10000 4.12 170 11:43 27.05.2022
1896 Clouds 23 1023 60 10000 4.12 170 11:25 27.05.2022
1897 Clouds 21 1024 69 10000 3.6 230 10:35 27.05.2022
1898 Clouds 20 1024 71 10000 2.06 190 09:42 27.05.2022
1899 Clouds 19 1024 77 10000 2.57 210 08:48 27.05.2022
1900 Clouds 17 1023 88 10000 1.03 0 06:58 27.05.2022
1901 Clouds 17 1022 88 10000 2.06 360 02:57 27.05.2022
1902 Clouds 17 1023 88 10000 2.06 270 00:54 27.05.2022
1903 Rain 19 1023 80 10000 2.57 40 22:53 26.05.2022
1904 Rain 19 1024 82 10000 2.06 300 21:48 26.05.2022
1905 Clouds 19 1023 85 10000 2.57 270 20:59 26.05.2022
1906 Clouds 17 1022 88 10000 1.03 0 19:30 26.05.2022
1907 Rain 19 1022 82 10000 6.17 180 18:24 26.05.2022
1908 Thunderstorm 23 1021 49 10000 7.2 180 17:34 26.05.2022
1909 Rain 25 1020 49 10000 10.29 150 15:58 26.05.2022
1910 Thunderstorm 27 1021 39 10000 2.06 110 15:18 26.05.2022
1911 Clouds 26 1021 50 10000 3.09 240 13:46 26.05.2022
1912 Clouds 24 1024 51 10000 3.6 240 11:49 26.05.2022
1913 Clouds 22 1025 58 10000 3.09 210 10:39 26.05.2022
1914 Clouds 21 1025 66 10000 2.57 180 09:37 26.05.2022
1915 Clouds 20 1025 73 10000 2.57 210 08:38 26.05.2022
1916 Clouds 17 1023 88 10000 1.54 220 05:26 26.05.2022
1917 Clouds 17 1018 95 10000 1.49 34 02:19 26.05.2022
1918 Clouds 18 1024 75 10000 3.6 230 23:41 25.05.2022
1919 Clouds 18 1025 74 10000 3.6 220 22:51 25.05.2022
1920 Clouds 20 1024 66 10000 2.06 250 21:41 25.05.2022
1921 Clouds 19 1024 70 10000 3.6 270 20:47 25.05.2022
1922 Rain 20 1023 68 10000 4.12 260 19:32 25.05.2022
1923 Clouds 21 1023 71 10000 7.2 240 18:36 25.05.2022
1924 Clouds 25 1020 47 10000 8.23 60 16:53 25.05.2022
1925 Rain 26 1021 41 10000 5.66 60 16:25 25.05.2022
1926 Clouds 26 1020 41 10000 7.2 30 15:36 25.05.2022
1927 Clouds 27 1020 38 10000 3.6 70 14:50 25.05.2022
1928 Clouds 27 1020 38 10000 3.6 70 14:31 25.05.2022
1929 Rain 26 1023 44 10000 2.06 0 13:21 25.05.2022
1930 Rain 23 1015 48 10000 2.91 119 11:49 25.05.2022
1931 Clouds 22 1025 60 10000 1.03 0 10:24 25.05.2022
1932 Clouds 21 1024 66 10000 3.6 110 09:29 25.05.2022
1933 Clouds 18 1019 79 10000 2.35 51 07:26 25.05.2022
1934 Clouds 15 1022 88 10000 1.54 220 05:41 25.05.2022
1935 Clouds 15 1017 84 10000 2.35 51 01:51 25.05.2022
1936 Clouds 19 1023 72 10000 3.09 50 23:48 24.05.2022
1937 Clouds 21 1023 62 10000 5.14 90 22:59 24.05.2022
1938 Clouds 20 1023 62 10000 5.14 90 22:59 24.05.2022
1939 Clouds 21 1023 60 10000 5.14 70 21:57 24.05.2022
1940 Clouds 21 1023 60 10000 5.14 70 21:37 24.05.2022
1941 Clouds 20 1016 62 10000 4.29 82 21:18 24.05.2022
1942 Clouds 22 1021 51 10000 6.17 90 19:23 24.05.2022
1943 Clouds 23 1019 51 10000 7.72 90 18:29 24.05.2022
1944 Clouds 26 1018 34 10000 5.14 120 16:39 24.05.2022
1945 Clouds 27 1018 34 10000 5.14 120 15:45 24.05.2022
1946 Clouds 27 1019 36 10000 5.66 130 14:41 24.05.2022
1947 Clouds 26 1020 39 10000 2.06 0 13:47 24.05.2022
1948 Clouds 25 1022 47 10000 2.57 0 12:24 24.05.2022
1949 Clouds 21 1023 60 10000 2.57 70 09:52 24.05.2022
1950 Clouds 19 1022 66 10000 2.57 90 08:57 24.05.2022
1951 Clouds 19 1022 68 10000 2.57 90 08:38 24.05.2022
1952 Clouds 13 1021 88 10000 1.03 0 06:41 24.05.2022
1953 Clear 17 1019 72 10000 2.06 360 03:41 24.05.2022
1954 Clear 16 1020 77 10000 4.12 360 01:47 24.05.2022
1955 Clouds 18 1021 67 10000 4.63 40 00:53 24.05.2022
1956 Clouds 19 1020 57 10000 5.14 80 22:25 23.05.2022
1957 Clouds 19 1020 61 10000 2.06 230 21:53 23.05.2022
1958 Clouds 21 1019 60 10000 1.54 150 20:53 23.05.2022
1959 Clouds 23 1019 53 10000 3.09 90 19:56 23.05.2022
1960 Clouds 23 1019 53 10000 3.09 90 19:27 23.05.2022
1961 Clouds 25 1018 41 10000 5.14 80 18:41 23.05.2022
1962 Rain 17 1015 87 10000 0.75 32 18:22 23.05.2022
1963 Clouds 27 1017 29 10000 6.17 70 16:46 23.05.2022
1964 Clouds 28 1018 28 10000 3.6 80 14:44 23.05.2022
1965 Clouds 26 1021 43 10000 4.63 200 11:58 23.05.2022
1966 Clouds 26 1021 43 10000 4.63 200 11:25 23.05.2022
1967 Clouds 23 1022 59 10000 4.63 260 09:49 23.05.2022
1968 Clouds 21 1022 68 10000 4.12 270 08:51 23.05.2022
1969 Clouds 19 1021 77 10000 3.09 230 07:46 23.05.2022
1970 Clouds 18 1021 82 10000 3.09 230 06:43 23.05.2022
1971 Clouds 18 1021 77 10000 2.06 260 04:43 23.05.2022
1972 Clouds 19 1015 88 10000 1.39 358 02:19 23.05.2022
1973 Clouds 19 1022 76 10000 2.57 40 01:34 23.05.2022
1974 Clouds 21 1021 64 10000 5.66 70 23:42 22.05.2022
1975 Clouds 22 1021 60 10000 4.12 40 22:35 22.05.2022
1976 Clouds 22 1021 60 10000 4.12 40 21:54 22.05.2022
1977 Clouds 23 1020 53 10000 4.63 70 20:51 22.05.2022
1978 Clouds 22 1020 58 10000 4.63 70 20:25 22.05.2022
1979 Clouds 23 1020 58 10000 3.6 70 19:54 22.05.2022
1980 Clouds 23 1020 58 10000 3.6 70 19:54 22.05.2022
1981 Clouds 25 1019 47 10000 6.17 60 18:53 22.05.2022
1982 Clouds 25 1019 50 10000 6.17 60 18:24 22.05.2022
1983 Clouds 26 1018 44 10000 6.69 50 17:28 22.05.2022
1984 Clouds 27 1018 40 10000 3.6 90 15:59 22.05.2022
1985 Clouds 26 1019 42 10000 4.12 150 14:48 22.05.2022
1986 Clouds 26 1020 44 10000 5.14 150 13:38 22.05.2022
1987 Clouds 24 1021 46 10000 3.6 170 12:50 22.05.2022
1988 Clouds 23 1023 50 10000 2.57 330 11:37 22.05.2022
1989 Clouds 21 1024 67 10000 2.57 80 09:42 22.05.2022
1990 Clouds 19 1023 77 10000 3.09 90 08:34 22.05.2022
1991 Clouds 17 1023 88 10000 3.6 90 07:21 22.05.2022
1992 Clouds 17 1023 88 10000 3.09 80 07:21 22.05.2022
1993 Clouds 16 1021 94 10000 3.6 60 05:31 22.05.2022
1994 Clouds 17 1022 88 10000 2.57 50 01:43 22.05.2022
1995 Clouds 19 1021 72 10000 5.14 60 00:43 22.05.2022
1996 Clouds 19 1021 72 10000 6.17 40 23:54 21.05.2022
1997 Clouds 20 1022 68 10000 4.12 80 22:57 21.05.2022
1998 Clouds 21 1022 60 10000 4.63 70 21:42 21.05.2022
1999 Clouds 19 1023 68 10000 3.6 50 21:23 21.05.2022
2000 Clouds 20 1022 62 10000 3.6 80 20:24 21.05.2022
2001 Clouds 21 1021 60 10000 4.12 80 19:30 21.05.2022
2002 Clouds 24 1020 46 10000 6.17 50 17:51 21.05.2022
2003 Clouds 26 1019 41 10000 5.66 60 16:43 21.05.2022
2004 Clouds 26 1020 36 10000 3.6 0 14:37 21.05.2022
2005 Clouds 26 1020 38 10000 3.09 0 13:52 21.05.2022
2006 Clouds 25 1021 50 10000 4.12 90 12:50 21.05.2022
2007 Clouds 24 1023 46 10000 3.09 0 12:26 21.05.2022
2008 Clouds 22 1023 60 10000 2.57 290 10:34 21.05.2022
2009 Clouds 20 1024 69 10000 3.09 180 09:44 21.05.2022
2010 Clouds 19 1023 75 10000 2.06 210 08:57 21.05.2022
2011 Clouds 18 1023 79 10000 2.57 200 08:33 21.05.2022
2012 Clouds 16 1022 88 10000 1.03 230 04:33 21.05.2022
2013 Clouds 19 1022 72 10000 3.6 30 00:38 21.05.2022
2014 Clouds 18 1017 71 10000 4.47 92 23:22 20.05.2022
2015 Clouds 19 1022 66 10000 5.14 90 22:24 20.05.2022
2016 Clouds 20 1022 64 10000 4.63 70 21:49 20.05.2022
2017 Clouds 21 1021 58 10000 6.17 80 20:58 20.05.2022
2018 Clouds 21 1021 60 10000 6.17 80 20:29 20.05.2022
2019 Clouds 21 1021 58 10000 5.66 80 19:27 20.05.2022
2020 Clouds 22 1020 51 10000 8.23 80 18:47 20.05.2022
2021 Clouds 24 1020 46 10000 6.69 80 17:43 20.05.2022
2022 Clouds 25 1020 44 10000 4.12 70 16:21 20.05.2022
2023 Clouds 26 1019 41 10000 5.14 90 15:53 20.05.2022
2024 Clouds 26 1019 39 10000 4.63 60 14:31 20.05.2022
2025 Clouds 25 1020 44 10000 7.2 50 13:56 20.05.2022
2026 Clouds 23 1021 51 10000 4.63 40 11:49 20.05.2022
2027 Clouds 20 1024 64 10000 1.03 0 10:24 20.05.2022
2028 Clouds 18 1023 78 10000 2.06 200 08:50 20.05.2022
2029 Clouds 17 1023 82 10000 2.06 240 07:25 20.05.2022
2030 Clouds 16 1021 88 10000 2.06 220 06:36 20.05.2022
2031 Clouds 16 1021 88 10000 1.54 70 05:28 20.05.2022
2032 Clouds 19 1022 77 10000 4.63 50 00:54 20.05.2022
2033 Clouds 19 1022 73 10000 4.63 50 23:25 19.05.2022
2034 Clouds 19 1022 73 10000 4.63 100 22:26 19.05.2022
2035 Clouds 19 1021 71 10000 4.12 90 21:49 19.05.2022
2036 Clouds 19 1017 59 10000 4.13 80 21:23 19.05.2022
2037 Clouds 21 1021 64 10000 5.14 100 20:40 19.05.2022
2038 Clouds 21 1021 62 10000 6.17 100 19:53 19.05.2022
2039 Clouds 22 1020 58 10000 5.14 70 18:45 19.05.2022
2040 Clouds 24 1020 50 10000 4.63 80 17:31 19.05.2022
2041 Clouds 25 1020 47 10000 3.6 50 15:33 19.05.2022
2042 Clouds 24 1020 46 10000 3.09 50 14:29 19.05.2022
2043 Clouds 24 1021 46 10000 5.14 140 13:53 19.05.2022
2044 Clouds 22 1023 54 10000 4.12 150 11:46 19.05.2022
2045 Clouds 19 1024 68 10000 4.12 330 09:46 19.05.2022
2046 Clouds 17 1025 77 10000 1.54 70 08:27 19.05.2022
2047 Clouds 15 1023 88 10000 1.54 40 06:31 19.05.2022
2048 Clouds 14 1022 88 10000 3.09 360 02:57 19.05.2022
2049 Clouds 16 1022 77 10000 0 0 00:47 19.05.2022
2050 Clouds 17 1021 74 10000 1.54 20 23:00 18.05.2022
2051 Clouds 17 1021 74 10000 1.54 20 22:40 18.05.2022
2052 Clouds 18 1022 72 10000 1.54 30 21:31 18.05.2022
2053 Clouds 19 1021 74 10000 2.06 150 20:55 18.05.2022
2054 Clouds 18 1021 74 10000 2.06 150 20:55 18.05.2022
2055 Rain 19 1017 83 10000 2.3 66 20:19 18.05.2022
2056 Clouds 22 1021 60 10000 5.14 90 18:46 18.05.2022
2057 Clouds 23 1019 52 10000 6.17 90 17:41 18.05.2022
2058 Clouds 20 1014 66 10000 2.63 122 17:23 18.05.2022
2059 Clouds 23 1019 51 10000 3.6 60 16:36 18.05.2022
2060 Clouds 24 1019 49 10000 4.12 80 15:42 18.05.2022
2061 Clouds 22 1013 59 10000 3.65 137 15:19 18.05.2022
2062 Clouds 23 1021 52 10000 3.09 100 13:48 18.05.2022
2063 Clouds 23 1022 53 10000 2.57 140 12:53 18.05.2022
2064 Clouds 21 1023 62 10000 2.57 150 11:47 18.05.2022
2065 Clouds 21 1023 62 10000 2.57 150 11:29 18.05.2022
2066 Clouds 19 1023 72 10000 2.57 150 09:59 18.05.2022
2067 Clouds 17 1023 82 10000 2.57 170 07:56 18.05.2022
2068 Clouds 16 1021 88 10000 2.57 200 06:52 18.05.2022
2069 Clouds 17 1022 82 10000 2.57 240 02:47 18.05.2022
2070 Clouds 16 1023 88 10000 2.06 230 00:41 18.05.2022
2071 Clouds 17 1023 77 10000 2.06 50 22:59 17.05.2022
2072 Rain 20 1023 68 10000 4.12 90 21:21 17.05.2022
2073 Rain 20 1023 68 10000 4.12 90 21:21 17.05.2022
2074 Clouds 20 1021 68 10000 5.14 90 20:38 17.05.2022
2075 Rain 22 1021 60 10000 5.14 90 19:30 17.05.2022
2076 Clouds 22 1020 56 10000 6.17 90 18:43 17.05.2022
2077 Rain 23 1021 53 10000 4.63 70 17:31 17.05.2022
2078 Clouds 23 1020 47 10000 5.14 100 16:53 17.05.2022
2079 Clouds 22 1013 55 10000 3.31 113 15:49 17.05.2022
2080 Clouds 22 1013 55 10000 3.32 121 14:52 17.05.2022
2081 Clouds 23 1013 54 10000 4.08 130 14:28 17.05.2022
2082 Clouds 22 1023 60 10000 0 0 12:36 17.05.2022
2083 Clouds 19 1025 72 10000 3.09 160 10:23 17.05.2022
2084 Clouds 18 1025 83 10000 3.09 140 08:51 17.05.2022
2085 Clouds 16 1024 85 10000 1.03 0 07:41 17.05.2022
2086 Clouds 16 1023 88 10000 2.57 200 05:58 17.05.2022
2087 Clouds 16 1024 88 10000 3.09 40 00:47 17.05.2022
2088 Clouds 17 1024 82 10000 2.06 50 23:35 16.05.2022
2089 Clouds 18 1023 70 10000 3.09 60 22:33 16.05.2022
2090 Clouds 20 1023 61 10000 4.12 90 20:56 16.05.2022
2091 Clouds 19 1023 61 10000 4.12 90 20:33 16.05.2022
2092 Clouds 21 1022 56 10000 6.17 90 18:46 16.05.2022
2093 Clouds 23 1021 51 10000 4.63 70 16:42 16.05.2022
2094 Clouds 24 1022 50 10000 5.14 110 14:58 16.05.2022
2095 Clouds 22 1023 56 10000 5.14 120 13:45 16.05.2022
2096 Clouds 21 1024 58 10000 3.09 90 12:37 16.05.2022
2097 Clouds 18 1026 70 10000 1.54 60 10:36 16.05.2022
2098 Clouds 15 1025 91 10000 2.57 160 07:48 16.05.2022
2099 Clouds 16 1024 88 10000 2.57 10 05:46 16.05.2022
2100 Clouds 19 1024 72 10000 1.03 0 00:49 16.05.2022
2101 Clouds 21 1023 60 10000 3.6 80 22:44 15.05.2022
2102 Clouds 20 1024 60 10000 4.63 80 21:59 15.05.2022
2103 Clouds 20 1024 60 10000 4.63 80 21:36 15.05.2022
2104 Clouds 21 1024 58 10000 3.6 110 20:43 15.05.2022
2105 Clouds 22 1022 51 10000 5.66 90 18:46 15.05.2022
2106 Clouds 26 1021 40 10000 7.2 80 16:54 15.05.2022
2107 Clouds 25 1021 40 10000 6.17 80 14:34 15.05.2022
2108 Clouds 25 1022 44 10000 5.14 60 13:46 15.05.2022
2109 Clouds 24 1024 46 10000 4.63 60 12:19 15.05.2022
2110 Clouds 23 1024 51 10000 3.09 30 11:27 15.05.2022
2111 Clouds 20 1025 64 10000 2.57 70 09:57 15.05.2022
2112 Clouds 17 1024 79 10000 2.57 90 07:24 15.05.2022
2113 Clouds 16 1023 85 10000 2.57 80 06:56 15.05.2022
2114 Clouds 16 1022 94 10000 4.12 50 03:38 15.05.2022
2115 Clouds 18 1023 77 10000 5.14 90 00:42 15.05.2022
2116 Clouds 18 1023 74 10000 4.12 70 23:37 14.05.2022
2117 Clouds 19 1023 72 10000 6.17 80 22:39 14.05.2022
2118 Clouds 19 1023 72 10000 5.14 90 21:26 14.05.2022
2119 Clouds 19 1022 70 10000 3.6 80 20:28 14.05.2022
2120 Rain 20 1016 80 10000 4.27 96 19:21 14.05.2022
2121 Clouds 23 1021 52 10000 8.23 110 18:59 14.05.2022
2122 Clouds 25 1020 45 10000 7.72 70 17:53 14.05.2022
2123 Clouds 26 1020 44 10000 6.69 70 16:23 14.05.2022
2124 Clouds 27 1020 38 10000 7.2 80 14:40 14.05.2022
2125 Clouds 24 1012 40 10000 4.58 76 14:22 14.05.2022
2126 Clouds 24 1023 53 10000 3.6 100 11:48 14.05.2022
2127 Clouds 23 1023 61 10000 2.06 0 10:45 14.05.2022
2128 Clouds 23 1017 62 10000 3.3 67 10:19 14.05.2022
2129 Clouds 21 1024 66 10000 5.14 90 09:34 14.05.2022
2130 Clouds 18 1023 89 10000 2.06 50 07:43 14.05.2022
2131 Rain 17 1022 88 10000 3.09 50 04:49 14.05.2022
2132 Clouds 17 1022 88 10000 1.54 350 01:42 14.05.2022
2133 Clouds 18 1023 77 10000 2.57 40 23:28 13.05.2022
2134 Clouds 19 1023 72 10000 4.63 70 22:56 13.05.2022
2135 Clouds 19 1017 87 10000 3.22 66 22:22 13.05.2022
2136 Rain 19 1017 84 10000 3.72 83 21:19 13.05.2022
2137 Clouds 20 1022 64 10000 3.6 60 20:40 13.05.2022
2138 Rain 20 1016 82 10000 3.53 93 20:21 13.05.2022
2139 Rain 20 1016 80 10000 2.79 87 19:18 13.05.2022
2140 Clouds 24 1020 51 10000 6.69 70 17:47 13.05.2022
2141 Clouds 24 1020 51 10000 6.69 70 17:23 13.05.2022
2142 Clouds 27 1019 39 10000 5.14 100 15:48 13.05.2022
2143 Clouds 26 1019 38 10000 6.17 60 14:45 13.05.2022
2144 Clouds 25 1021 40 10000 7.2 60 12:54 13.05.2022
2145 Clouds 26 1014 48 10000 3.33 99 12:20 13.05.2022
2146 Clouds 23 1017 58 10000 2.48 77 10:23 13.05.2022
2147 Clouds 21 1023 66 10000 2.57 150 09:29 13.05.2022
2148 Clouds 18 1023 79 10000 2.57 20 07:59 13.05.2022
2149 Clouds 18 1023 79 10000 2.57 20 07:59 13.05.2022
2150 Clouds 18 1023 79 10000 2.57 20 07:30 13.05.2022
2151 Clouds 16 1022 91 10000 2.06 90 05:46 13.05.2022
2152 Clouds 16 1023 88 10000 4.12 20 01:37 13.05.2022
2153 Clouds 18 1024 68 10000 4.12 40 23:34 12.05.2022
2154 Clouds 18 1023 63 10000 4.12 30 22:35 12.05.2022
2155 Clouds 20 1022 60 10000 4.12 70 21:35 12.05.2022
2156 Clouds 21 1021 56 10000 5.14 90 19:55 12.05.2022
2157 Clouds 23 1020 49 10000 5.66 80 18:29 12.05.2022
2158 Clouds 25 1019 46 10000 5.14 70 16:48 12.05.2022
2159 Clouds 26 1019 44 10000 4.63 60 15:30 12.05.2022
2160 Clouds 25 1021 44 10000 3.6 80 13:58 12.05.2022
2161 Clouds 24 1021 54 10000 3.09 50 12:46 12.05.2022
2162 Clouds 22 1023 58 10000 3.09 200 10:34 12.05.2022
2163 Clouds 19 1023 64 10000 3.09 90 08:58 12.05.2022
2164 Clouds 19 1023 66 10000 3.09 90 08:37 12.05.2022
2165 Clouds 18 1023 73 10000 1.54 40 07:36 12.05.2022
2166 Clouds 16 1021 88 10000 2.06 360 04:50 12.05.2022
2167 Clouds 15 1016 89 10000 3.02 46 02:21 12.05.2022
2168 Clouds 19 1022 75 10000 3.09 70 23:55 11.05.2022
2169 Rain 20 1022 73 10000 3.6 60 22:29 11.05.2022
2170 Clouds 20 1021 73 10000 5.14 90 21:29 11.05.2022
2171 Clouds 21 1021 66 10000 5.14 110 20:52 11.05.2022
2172 Clouds 25 1019 44 10000 5.14 60 17:56 11.05.2022
2173 Clouds 26 1018 38 10000 7.72 90 16:49 11.05.2022
2174 Clouds 26 1019 46 10000 5.14 120 14:50 11.05.2022
2175 Clouds 26 1019 46 10000 5.14 120 14:26 11.05.2022
2176 Clouds 25 1019 50 10000 4.12 50 13:44 11.05.2022
2177 Clouds 24 1021 55 10000 3.09 100 11:51 11.05.2022
2178 Clouds 23 1016 64 10000 3.09 96 09:54 11.05.2022
2179 Clouds 19 1017 85 10000 2.07 52 07:53 11.05.2022
2180 Clouds 18 1016 96 10000 2.12 27 04:44 11.05.2022
2181 Rain 18 1015 95 10000 1.93 41 00:41 11.05.2022
2182 Rain 19 1016 91 10000 2.76 82 22:30 10.05.2022
2183 Rain 20 1016 89 10000 2.22 82 21:47 10.05.2022
2184 Rain 18 1016 86 10000 2.51 78 20:52 10.05.2022
2185 Rain 20 1015 85 10000 2.64 70 19:25 10.05.2022
2186 Rain 21 1014 79 10000 2.94 92 17:47 10.05.2022
2187 Rain 22 1012 64 10000 3.69 113 16:49 10.05.2022
2188 Clouds 25 1018 50 10000 3.09 70 14:33 10.05.2022
2189 Clouds 24 1020 59 10000 6.17 150 12:37 10.05.2022
2190 Clouds 24 1021 60 10000 4.12 170 11:49 10.05.2022
2191 Rain 23 1022 64 10000 1.54 130 11:18 10.05.2022
2192 Clouds 20 1023 75 10000 3.09 120 09:59 10.05.2022
2193 Clouds 21 1023 73 10000 2.06 170 09:25 10.05.2022
2194 Clouds 18 1021 88 10000 2.57 70 06:44 10.05.2022
2195 Clouds 16 1021 88 10000 3.09 40 02:59 10.05.2022
2196 Rain 18 1016 91 10000 3.19 40 00:24 10.05.2022
2197 Rain 19 1023 77 10000 4.63 70 22:44 09.05.2022
2198 Clouds 19 1021 82 10000 2.06 80 21:48 09.05.2022
2199 Rain 21 1022 64 10000 4.12 80 20:25 09.05.2022
2200 Clouds 22 1020 56 10000 3.09 130 18:43 09.05.2022
2201 Clouds 24 1019 51 10000 5.14 150 17:40 09.05.2022
2202 Clouds 26 1020 44 10000 6.17 60 16:30 09.05.2022
2203 Clouds 26 1020 44 10000 6.17 60 16:30 09.05.2022
2204 Clouds 26 1020 44 10000 4.63 50 15:51 09.05.2022
2205 Clouds 26 1019 43 10000 3.09 160 14:54 09.05.2022
2206 Rain 22 1012 48 10000 3.32 112 14:22 09.05.2022
2207 Clouds 25 1020 47 10000 3.09 30 13:36 09.05.2022
2208 Rain 23 1013 49 10000 2.88 118 12:18 09.05.2022
2209 Clouds 22 1023 73 10000 3.09 120 10:55 09.05.2022
2210 Clouds 22 1023 73 10000 3.09 120 10:36 09.05.2022
2211 Clouds 19 1023 78 10000 2.06 200 08:36 09.05.2022
2212 Clouds 18 1022 85 10000 2.06 200 07:52 09.05.2022
2213 Clouds 17 1015 94 10000 2.18 21 03:19 09.05.2022
2214 Clouds 19 1022 72 10000 2.57 170 23:34 08.05.2022
2215 Clouds 19 1021 81 10000 1.54 30 22:52 08.05.2022
2216 Rain 20 1021 71 10000 2.06 70 21:55 08.05.2022
2217 Rain 20 1021 71 10000 2.06 70 21:55 08.05.2022
2218 Rain 21 1020 66 10000 3.09 80 20:35 08.05.2022
2219 Clouds 22 1020 62 10000 6.17 90 19:44 08.05.2022
2220 Clouds 22 1019 58 10000 7.72 90 18:54 08.05.2022
2221 Clouds 24 1018 57 10000 7.72 90 17:59 08.05.2022
2222 Clouds 26 1018 47 10000 6.17 90 16:43 08.05.2022
2223 Clouds 26 1018 43 10000 5.14 120 15:31 08.05.2022
2224 Clouds 26 1019 46 10000 5.14 120 14:44 08.05.2022
2225 Clouds 24 1020 52 10000 4.12 150 12:27 08.05.2022
2226 Clouds 22 1022 58 10000 4.12 150 10:32 08.05.2022
2227 Clouds 21 1022 66 10000 6.17 180 09:57 08.05.2022
2228 Clouds 19 1023 78 10000 2.57 200 08:56 08.05.2022
2229 Clouds 17 1021 88 10000 1.54 220 06:58 08.05.2022
2230 Clouds 18 1020 82 10000 0 0 03:40 08.05.2022
2231 Clouds 18 1020 82 10000 0 0 02:45 08.05.2022
2232 Clouds 17 1020 82 10000 1.54 270 00:28 08.05.2022
2233 Clouds 17 1021 82 10000 1.54 250 23:50 07.05.2022
2234 Clouds 19 1021 77 10000 1.54 360 22:46 07.05.2022
2235 Clouds 19 1021 75 10000 1.03 330 21:59 07.05.2022
2236 Clouds 19 1021 75 10000 2.06 30 21:34 07.05.2022
2237 Clouds 20 1021 73 10000 2.06 140 20:34 07.05.2022
2238 Clouds 20 1020 73 10000 2.06 90 19:44 07.05.2022
2239 Clouds 23 1018 57 10000 4.12 160 17:43 07.05.2022
2240 Clouds 25 1018 51 10000 4.12 110 15:47 07.05.2022
2241 Clouds 24 1020 57 10000 3.09 190 13:58 07.05.2022
2242 Clouds 20 1023 77 10000 4.63 190 10:46 07.05.2022
2243 Clouds 18 1024 82 10000 4.63 190 09:20 07.05.2022
2244 Clouds 17 1022 89 10000 3.09 190 07:51 07.05.2022
2245 Clouds 16 1021 91 10000 3.09 170 06:43 07.05.2022
2246 Clouds 17 1021 88 10000 2.57 190 04:56 07.05.2022
2247 Clouds 17 1021 88 10000 2.57 200 01:24 07.05.2022
2248 Clouds 17 1022 88 10000 2.57 190 23:37 06.05.2022
2249 Clouds 18 1022 82 10000 2.06 220 22:28 06.05.2022
2250 Clouds 18 1021 87 10000 4.63 150 21:43 06.05.2022
2251 Clouds 19 1020 83 10000 3.6 150 20:34 06.05.2022
2252 Rain 21 1020 68 10000 4.12 80 19:30 06.05.2022
2253 Clouds 21 1019 71 10000 4.12 80 18:59 06.05.2022
2254 Rain 21 1019 68 10000 1.54 60 18:18 06.05.2022
2255 Clouds 21 1019 64 10000 4.12 180 16:39 06.05.2022
2256 Clouds 22 1019 62 10000 7.72 140 15:39 06.05.2022
2257 Clouds 24 1019 55 10000 4.12 150 14:50 06.05.2022
2258 Clouds 24 1021 55 10000 3.09 150 12:55 06.05.2022
2259 Clouds 24 1021 55 10000 3.09 150 12:36 06.05.2022
2260 Clouds 22 1021 60 10000 4.12 90 11:42 06.05.2022
2261 Clouds 21 1022 69 10000 2.57 150 10:27 06.05.2022
2262 Clouds 20 1023 71 10000 3.09 160 09:45 06.05.2022
2263 Clouds 19 1023 72 10000 2.57 180 08:27 06.05.2022
2264 Clouds 15 1021 97 10000 1.03 0 06:46 06.05.2022
2265 Clouds 16 1021 91 10000 1.54 210 04:53 06.05.2022
2266 Clouds 17 1021 91 10000 1.03 0 02:47 06.05.2022
2267 Clouds 17 1023 88 10000 2.06 170 00:19 06.05.2022
2268 Clouds 18 1022 89 10000 3.09 150 21:56 05.05.2022
2269 Clouds 18 1023 88 10000 0.51 0 21:22 05.05.2022
2270 Clouds 18 1021 94 10000 2.06 240 19:54 05.05.2022
2271 Clouds 18 1021 86 10000 0 0 18:31 05.05.2022
2272 Rain 18 1021 88 10000 2.57 160 16:20 05.05.2022
2273 Rain 21 1021 70 10000 3.6 110 14:50 05.05.2022
2274 Rain 22 1023 64 10000 3.09 160 13:22 05.05.2022
2275 Clouds 22 1022 64 10000 6.17 120 12:49 05.05.2022
2276 Clouds 21 1024 66 10000 4.12 170 10:48 05.05.2022
2277 Clouds 20 1024 77 10000 2.06 150 09:39 05.05.2022
2278 Clouds 17 1023 91 10000 1.54 210 07:35 05.05.2022
2279 Clouds 17 1023 94 10000 3.09 190 04:42 05.05.2022
2280 Clouds 18 1023 91 10000 2.06 240 01:53 05.05.2022
2281 Clouds 17 1023 94 10000 2.06 240 01:26 05.05.2022
2282 Clouds 18 1024 82 10000 1.03 130 23:50 04.05.2022
2283 Clouds 18 1024 82 10000 1.03 200 22:42 04.05.2022
2284 Clouds 18 1022 82 10000 2.57 150 21:50 04.05.2022
2285 Rain 18 1024 82 10000 2.57 150 21:26 04.05.2022
2286 Rain 18 1018 91 10000 2.9 95 20:25 04.05.2022
2287 Clouds 19 1022 75 10000 4.12 90 19:53 04.05.2022
2288 Clouds 20 1021 70 10000 4.12 100 18:56 04.05.2022
2289 Rain 19 1017 87 10000 2.82 92 18:22 04.05.2022
2290 Clouds 22 1020 64 10000 6.17 100 17:42 04.05.2022
2291 Clouds 23 1020 66 10000 3.6 110 15:41 04.05.2022
2292 Rain 23 1014 62 10000 3.97 99 15:23 04.05.2022
2293 Rain 22 1014 63 10000 3.2 108 14:21 04.05.2022
2294 Clouds 23 1021 59 10000 2.57 90 13:35 04.05.2022
2295 Rain 23 1023 56 10000 3.6 140 12:33 04.05.2022
2296 Clouds 20 1023 71 10000 4.12 150 10:41 04.05.2022
2297 Clouds 19 1023 82 10000 1.54 70 09:44 04.05.2022
2298 Haze 18 1024 85 9000 1.54 60 08:47 04.05.2022
2299 Haze 18 1024 85 9000 1.54 60 08:47 04.05.2022
2300 Clouds 16 1023 97 8000 1.54 20 06:47 04.05.2022
2301 Clouds 16 1021 91 10000 1.03 20 02:59 04.05.2022
2302 Clouds 16 1022 94 10000 1.03 290 00:47 04.05.2022
2303 Clouds 17 1023 88 10000 2.57 220 22:40 03.05.2022
2304 Clouds 18 1023 83 10000 2.06 140 21:46 03.05.2022
2305 Clouds 18 1022 87 10000 3.09 150 20:54 03.05.2022
2306 Clouds 18 1021 83 10000 4.63 140 19:59 03.05.2022
2307 Clouds 20 1020 76 10000 6.17 130 18:54 03.05.2022
2308 Rain 19 1016 90 10000 2.04 120 18:21 03.05.2022
2309 Clouds 23 1019 59 10000 4.63 130 16:44 03.05.2022
2310 Clouds 23 1019 59 10000 5.14 110 15:38 03.05.2022
2311 Clouds 22 1021 64 10000 7.72 130 13:28 03.05.2022
2312 Clouds 23 1021 60 10000 3.09 160 12:27 03.05.2022
2313 Clouds 22 1023 68 10000 5.14 150 10:57 03.05.2022
2314 Clouds 20 1023 75 10000 4.12 120 09:46 03.05.2022
2315 Clouds 18 1022 91 10000 1.54 230 07:58 03.05.2022
2316 Clouds 17 1021 94 10000 0 0 06:45 03.05.2022
2317 Clouds 18 1022 88 10000 2.57 40 01:52 03.05.2022
2318 Rain 19 1023 77 10000 3.6 50 22:44 02.05.2022
2319 Rain 19 1023 77 10000 3.09 50 21:55 02.05.2022
2320 Rain 19 1022 82 10000 2.57 40 21:23 02.05.2022
2321 Clouds 22 1019 64 10000 4.63 90 18:57 02.05.2022
2322 Rain 22 1019 64 10000 4.63 80 18:25 02.05.2022
2323 Rain 23 1019 60 10000 5.66 90 17:37 02.05.2022
2324 Rain 25 1019 44 10000 5.14 120 16:24 02.05.2022
2325 Clouds 24 1018 47 10000 4.12 130 15:37 02.05.2022
2326 Clouds 24 1020 46 10000 3.6 110 14:19 02.05.2022
2327 Clouds 23 1021 56 10000 5.14 60 12:45 02.05.2022
2328 Clouds 22 1024 60 10000 3.6 170 11:20 02.05.2022
2329 Clouds 20 1023 73 10000 3.6 180 09:31 02.05.2022
2330 Clouds 18 1023 85 10000 3.09 140 07:57 02.05.2022
2331 Clouds 17 1021 91 10000 2.06 180 05:37 02.05.2022
2332 Clouds 18 1022 82 10000 1.03 0 00:26 02.05.2022
2333 Clouds 19 1023 77 10000 3.09 160 23:52 01.05.2022
2334 Rain 20 1023 77 10000 1.54 50 22:49 01.05.2022
2335 Clouds 20 1022 77 10000 3.09 80 21:41 01.05.2022
2336 Rain 20 1021 77 10000 2.57 70 20:23 01.05.2022
2337 Rain 17 1016 89 10000 3.83 75 19:19 01.05.2022
2338 Rain 22 1020 68 10000 4.12 80 18:50 01.05.2022
2339 Clouds 21 1018 70 10000 3.09 330 17:47 01.05.2022
2340 Rain 25 1019 53 10000 3.6 130 16:26 01.05.2022
2341 Clouds 23 1018 62 10000 2.06 180 15:45 01.05.2022
2342 Clouds 25 1020 50 10000 3.6 150 14:41 01.05.2022
2343 Clouds 23 1023 56 10000 4.12 90 11:53 01.05.2022
2344 Clouds 19 1023 78 10000 3.09 210 09:33 01.05.2022
2345 Clouds 18 1023 88 10000 2.57 180 08:49 01.05.2022
2346 Clouds 17 1021 94 10000 2.57 170 05:42 01.05.2022
2347 Clouds 17 1022 94 10000 1.54 220 01:32 01.05.2022
2348 Rain 18 1017 92 10000 1.91 44 22:18 30.04.2022
2349 Clouds 19 1023 82 10000 2.57 70 21:32 30.04.2022
2350 Clouds 22 1019 60 10000 4.12 90 19:53 30.04.2022
2351 Clouds 23 1018 53 10000 5.14 80 18:52 30.04.2022
2352 Clouds 24 1018 49 10000 5.14 80 17:26 30.04.2022
2353 Clouds 26 1018 47 10000 6.69 100 15:51 30.04.2022
2354 Clouds 25 1019 50 10000 5.14 90 14:58 30.04.2022
2355 Clouds 24 1020 52 10000 5.14 80 13:52 30.04.2022
2356 Clouds 23 1022 60 10000 5.14 50 11:41 30.04.2022
2357 Clouds 21 1023 73 10000 2.57 60 10:56 30.04.2022
2358 Clouds 19 1023 82 10000 2.57 150 09:54 30.04.2022
2359 Clouds 17 1022 97 10000 2.57 200 07:47 30.04.2022
2360 Clouds 17 1020 94 10000 2.06 360 03:58 30.04.2022
2361 Clouds 19 1022 88 10000 2.06 30 23:55 29.04.2022
2362 Clouds 18 1022 85 10000 3.09 40 22:37 29.04.2022
2363 Clouds 19 1021 82 10000 3.6 70 21:56 29.04.2022
2364 Clouds 19 1021 82 10000 3.6 70 21:25 29.04.2022
2365 Rain 19 1017 94 10000 3.53 68 20:18 29.04.2022
2366 Rain 19 1015 91 10000 4.25 76 19:27 29.04.2022
2367 Clouds 23 1018 56 10000 5.66 90 17:34 29.04.2022
2368 Clouds 23 1018 60 10000 6.69 80 16:38 29.04.2022
2369 Clouds 24 1019 55 10000 5.66 120 14:36 29.04.2022
2370 Clouds 24 1019 55 10000 3.6 90 13:36 29.04.2022
2371 Clouds 23 1020 64 10000 2.06 170 12:37 29.04.2022
2372 Clouds 20 1022 75 10000 4.12 160 10:32 29.04.2022
2373 Clouds 17 1021 94 10000 0 0 07:55 29.04.2022
2374 Clouds 17 1022 94 10000 0 0 07:25 29.04.2022
2375 Clouds 16 1020 94 10000 0.51 360 06:30 29.04.2022
2376 Rain 15 1021 100 10000 1.54 300 02:23 29.04.2022
2377 Clouds 17 1021 94 10000 1.03 0 23:58 28.04.2022
2378 Clouds 17 1021 94 10000 2.57 350 23:25 28.04.2022
2379 Clouds 17 1020 85 10000 2.57 330 22:33 28.04.2022
2380 Clouds 17 1020 91 10000 2.57 350 21:43 28.04.2022
2381 Rain 17 1021 94 10000 2.57 60 20:48 28.04.2022
2382 Rain 18 1021 88 10000 4.12 80 19:55 28.04.2022
2383 Rain 19 1020 88 10000 2.06 20 19:24 28.04.2022
2384 Clouds 19 1018 88 10000 2.57 170 18:52 28.04.2022
2385 Clouds 21 1018 66 10000 3.09 20 17:54 28.04.2022
2386 Clouds 21 1017 68 10000 5.14 90 16:58 28.04.2022
2387 Rain 20 1012 87 8193 3.88 75 16:21 28.04.2022
2388 Clouds 21 1018 68 10000 4.12 90 15:49 28.04.2022
2389 Clouds 21 1022 70 10000 4.12 90 14:58 28.04.2022
2390 Clouds 20 1018 77 10000 2.57 150 13:42 28.04.2022
2391 Clouds 20 1019 80 10000 5.14 60 12:30 28.04.2022
2392 Clouds 20 1019 80 10000 5.14 60 12:30 28.04.2022
2393 Clouds 20 1020 77 10000 10.29 150 11:37 28.04.2022
2394 Rain 20 1022 77 10000 3.09 0 10:27 28.04.2022
2395 Clouds 19 1021 83 10000 3.6 190 09:50 28.04.2022
2396 Clouds 18 1021 94 10000 1.54 70 07:42 28.04.2022
2397 Rain 17 1019 94 6000 3.09 60 06:51 28.04.2022
2398 Clouds 18 1020 94 10000 1.03 0 05:53 28.04.2022
2399 Clouds 18 1019 94 10000 1.03 0 04:43 28.04.2022
2400 Rain 18 1019 94 10000 1.54 40 02:45 28.04.2022
2401 Clouds 19 1020 82 10000 3.09 40 23:36 27.04.2022
2402 Clouds 18 1014 94 10000 1.82 31 22:22 27.04.2022
2403 Clouds 21 1020 68 10000 4.12 100 21:46 27.04.2022
2404 Clouds 20 1018 76 10000 4.12 120 20:47 27.04.2022
2405 Clouds 20 1018 76 10000 4.12 120 20:29 27.04.2022
2406 Clouds 21 1018 75 10000 4.12 110 19:36 27.04.2022
2407 Clouds 20 1017 77 10000 2.57 160 18:42 27.04.2022
2408 Rain 22 1017 64 10000 4.12 150 18:21 27.04.2022
2409 Rain 25 1016 50 10000 4.12 90 16:20 27.04.2022
2410 Rain 24 1019 57 10000 3.6 40 13:29 27.04.2022
2411 Clouds 23 1020 61 10000 3.09 170 11:37 27.04.2022
2412 Clouds 22 1020 66 10000 3.09 130 10:51 27.04.2022
2413 Clouds 19 1022 87 10000 2.57 150 08:53 27.04.2022
2414 Rain 18 1019 94 7000 1.03 0 06:44 27.04.2022
2415 Clouds 18 1017 94 10000 2.06 30 03:30 27.04.2022
2416 Clouds 18 1019 94 10000 2.06 20 01:27 27.04.2022
2417 Clouds 18 1020 88 10000 2.57 30 00:35 27.04.2022
2418 Clouds 18 1014 90 10000 2.94 62 23:24 26.04.2022
2419 Clouds 20 1021 75 10000 4.12 340 22:52 26.04.2022
2420 Clouds 19 1021 88 10000 4.12 340 22:32 26.04.2022
2421 Clouds 21 1021 67 10000 3.09 40 21:26 26.04.2022
2422 Clouds 22 1020 60 10000 3.6 50 20:40 26.04.2022
2423 Clouds 22 1020 60 10000 3.6 50 20:40 26.04.2022
2424 Clouds 22 1018 60 10000 5.14 80 19:48 26.04.2022
2425 Rain 20 1013 83 10000 4.24 78 19:26 26.04.2022
2426 Clouds 23 1017 56 10000 5.14 90 18:40 26.04.2022
2427 Clouds 24 1016 55 10000 6.17 90 17:50 26.04.2022
2428 Clouds 24 1009 56 10000 5.56 100 16:19 26.04.2022
2429 Clouds 26 1018 50 10000 4.63 120 13:58 26.04.2022
2430 Clouds 26 1018 50 10000 4.63 120 13:29 26.04.2022
2431 Clouds 23 1020 68 10000 3.09 50 11:32 26.04.2022
2432 Clouds 22 1020 70 10000 4.12 90 10:31 26.04.2022
2433 Clouds 19 1020 91 10000 2.06 70 08:47 26.04.2022
2434 Clouds 16 1018 94 10000 1.03 320 05:46 26.04.2022
2435 Rain 16 1019 94 10000 1.03 320 04:23 26.04.2022
2436 Clear 18 1018 82 10000 1.54 350 00:53 26.04.2022
2437 Clouds 17 1019 88 10000 1.54 350 00:20 26.04.2022
2438 Clear 18 1020 82 10000 2.06 10 22:19 25.04.2022
2439 Clear 19 1019 79 10000 2.06 40 21:33 25.04.2022
2440 Clear 20 1018 73 10000 0 0 20:34 25.04.2022
2441 Clouds 22 1016 64 10000 4.12 80 18:54 25.04.2022
2442 Clouds 23 1016 56 10000 5.66 80 17:41 25.04.2022
2443 Clouds 25 1016 47 10000 6.17 90 16:50 25.04.2022
2444 Rain 24 1017 53 10000 5.66 80 15:23 25.04.2022
2445 Clouds 24 1016 50 10000 5.66 90 14:34 25.04.2022
2446 Clouds 24 1017 50 10000 5.14 60 13:29 25.04.2022
2447 Clouds 22 1020 64 10000 6.17 90 10:58 25.04.2022
2448 Clouds 20 1020 72 10000 3.09 60 09:55 25.04.2022
2449 Clouds 18 1021 88 10000 2.06 20 08:23 25.04.2022
2450 Fog 17 1020 94 600 2.57 60 06:27 25.04.2022
2451 Clouds 15 1013 92 10000 1.46 23 02:20 25.04.2022
2452 Clouds 18 1020 88 10000 2.57 20 23:58 24.04.2022
2453 Clouds 18 1020 88 10000 2.57 20 23:30 24.04.2022
2454 Clouds 19 1021 82 10000 2.57 10 22:40 24.04.2022
2455 Rain 19 1021 82 10000 2.06 10 21:58 24.04.2022
2456 Rain 19 1020 82 10000 3.09 30 21:23 24.04.2022
2457 Clouds 20 1018 77 10000 3.09 40 20:47 24.04.2022
2458 Clouds 20 1018 77 10000 3.09 40 20:47 24.04.2022
2459 Rain 20 1019 77 10000 3.09 50 20:21 24.04.2022
2460 Rain 20 1018 73 10000 4.12 70 18:58 24.04.2022
2461 Rain 22 1017 64 10000 7.2 80 17:55 24.04.2022
2462 Rain 21 1011 82 10000 4.82 77 17:22 24.04.2022
2463 Clouds 23 1016 62 10000 7.72 90 16:58 24.04.2022
2464 Clouds 23 1016 62 10000 7.72 90 16:30 24.04.2022
2465 Clouds 23 1016 60 10000 6.69 70 15:53 24.04.2022
2466 Clouds 23 1016 61 10000 6.69 50 14:55 24.04.2022
2467 Clouds 23 1017 59 10000 6.17 60 13:45 24.04.2022
2468 Clouds 23 1019 60 10000 6.17 70 13:23 24.04.2022
2469 Clouds 21 1020 76 10000 5.14 90 11:53 24.04.2022
2470 Clouds 20 1020 83 10000 5.14 60 10:59 24.04.2022
2471 Clouds 19 1021 88 10000 3.09 90 09:47 24.04.2022
2472 Rain 18 1022 88 10000 2.06 30 08:23 24.04.2022
2473 Clouds 17 1019 94 10000 5.14 30 05:46 24.04.2022
2474 Rain 17 1018 97 10000 5.14 60 02:49 24.04.2022
2475 Clouds 18 1019 88 10000 4.63 20 00:55 24.04.2022
2476 Rain 18 1019 91 10000 2.57 70 23:55 23.04.2022
2477 Rain 18 1019 91 10000 2.57 70 23:25 23.04.2022
2478 Clouds 19 1020 88 10000 4.12 90 22:40 23.04.2022
2479 Clouds 19 1020 88 10000 1.54 90 21:48 23.04.2022
2480 Rain 19 1020 88 10000 1.54 90 21:29 23.04.2022
2481 Clouds 20 1019 83 10000 5.14 60 20:27 23.04.2022
2482 Rain 20 1018 77 10000 3.6 50 19:21 23.04.2022
2483 Clouds 20 1017 72 10000 5.14 60 18:54 23.04.2022
2484 Clouds 20 1017 70 10000 5.66 70 18:32 23.04.2022
2485 Clouds 21 1017 70 10000 5.66 70 18:32 23.04.2022
2486 Clouds 22 1016 66 10000 7.2 70 17:47 23.04.2022
2487 Clouds 24 1017 55 10000 6.17 50 16:46 23.04.2022
2488 Clouds 24 1016 53 10000 7.72 60 15:52 23.04.2022
2489 Clouds 24 1016 53 10000 7.72 60 15:52 23.04.2022
2490 Clouds 24 1018 73 10000 6.17 40 13:33 23.04.2022
2491 Clouds 22 1019 66 10000 5.14 90 11:30 23.04.2022
2492 Clouds 21 1020 74 10000 5.14 100 10:32 23.04.2022
2493 Rain 17 1021 88 10000 1.54 20 08:18 23.04.2022
2494 Rain 17 1019 94 10000 4.12 60 04:18 23.04.2022
2495 Rain 17 1019 94 10000 4.63 80 03:27 23.04.2022
2496 Clouds 18 1020 87 10000 0.51 40 23:37 22.04.2022
2497 Rain 18 1021 88 10000 1.54 30 23:18 22.04.2022
2498 Clouds 19 1019 80 10000 2.57 50 21:58 22.04.2022
2499 Clouds 19 1019 80 10000 1.54 60 21:39 22.04.2022
2500 Clouds 20 1018 77 10000 3.09 30 20:34 22.04.2022
2501 Clouds 21 1018 72 10000 3.09 70 19:26 22.04.2022
2502 Clouds 21 1017 70 10000 5.14 70 18:56 22.04.2022
2503 Clouds 21 1017 72 10000 5.66 80 18:26 22.04.2022
2504 Clouds 23 1016 64 10000 3.6 120 16:57 22.04.2022
2505 Clouds 22 1016 66 10000 2.57 100 15:59 22.04.2022
2506 Clouds 22 1016 66 10000 4.12 70 15:30 22.04.2022
2507 Rain 23 1017 64 10000 8.23 60 14:38 22.04.2022
2508 Clouds 25 1017 53 10000 4.12 90 13:41 22.04.2022
2509 Clouds 25 1019 53 10000 2.57 60 12:47 22.04.2022
2510 Clouds 23 1021 64 10000 1.54 0 11:23 22.04.2022
2511 Clouds 22 1021 69 10000 1.54 0 10:56 22.04.2022
2512 Clouds 22 1022 64 10000 2.06 0 10:34 22.04.2022
2513 Clouds 19 1021 77 10000 3.09 10 09:57 22.04.2022
2514 Clouds 18 1022 82 10000 2.57 340 09:22 22.04.2022
2515 Clouds 17 1021 88 10000 3.09 20 08:48 22.04.2022
2516 Rain 16 1021 94 6000 5.14 10 06:42 22.04.2022
2517 Clouds 18 1014 95 10000 1 108 01:24 22.04.2022
2518 Clouds 18 1020 88 10000 0 0 23:33 21.04.2022
2519 Clouds 18 1020 89 10000 4.63 340 22:47 21.04.2022
2520 Clouds 17 1020 89 10000 3.09 260 21:42 21.04.2022
2521 Clouds 18 1020 88 10000 6.17 250 20:31 21.04.2022
2522 Clouds 19 1019 88 10000 4.12 260 19:24 21.04.2022
2523 Clouds 20 1018 83 10000 4.12 80 18:32 21.04.2022
2524 Rain 21 1011 83 10000 3.35 79 17:20 21.04.2022
2525 Rain 22 1010 79 10000 3.63 85 16:19 21.04.2022
2526 Rain 23 1010 69 7725 4.01 86 15:19 21.04.2022
2527 Clouds 24 1017 53 10000 2.57 50 14:28 21.04.2022
2528 Clouds 24 1018 57 10000 4.63 110 13:21 21.04.2022
2529 Rain 23 1012 67 10000 3.36 82 12:25 21.04.2022
2530 Rain 20 1015 74 10000 2.19 118 09:36 21.04.2022
2531 Rain 19 1015 74 10000 2.19 118 08:47 21.04.2022
2532 Clouds 17 1015 90 10000 1.02 88 06:44 21.04.2022
2533 Rain 17 1019 94 10000 3.6 50 03:42 21.04.2022
2534 Rain 17 1020 94 10000 3.6 70 03:22 21.04.2022
2535 Rain 18 1020 88 10000 4.12 70 02:44 21.04.2022
2536 Rain 18 1020 88 10000 4.12 70 02:44 21.04.2022
2537 Rain 18 1020 88 10000 3.6 200 00:35 21.04.2022
2538 Clouds 18 1020 82 10000 4.63 180 23:40 20.04.2022
2539 Rain 18 1021 88 10000 3.09 200 23:18 20.04.2022
2540 Clouds 19 1020 85 10000 4.12 180 22:41 20.04.2022
2541 Rain 20 1021 77 10000 2.57 120 21:47 20.04.2022
2542 Clouds 20 1019 75 10000 4.63 120 20:45 20.04.2022
2543 Rain 20 1019 77 10000 4.63 100 20:21 20.04.2022
2544 Clouds 21 1018 68 10000 7.72 90 19:46 20.04.2022
2545 Clouds 22 1017 68 10000 7.2 90 18:52 20.04.2022
2546 Clouds 23 1016 59 10000 6.17 90 17:52 20.04.2022
2547 Clouds 25 1016 50 10000 5.14 70 16:39 20.04.2022
2548 Clouds 25 1017 51 10000 5.14 90 15:33 20.04.2022
2549 Clouds 24 1019 53 10000 5.14 90 12:46 20.04.2022
2550 Clouds 23 1020 60 10000 4.63 100 11:42 20.04.2022
2551 Clouds 21 1021 64 10000 1.54 90 10:51 20.04.2022
2552 Clouds 20 1022 71 10000 2.57 20 09:34 20.04.2022
2553 Clouds 18 1022 82 10000 1.54 10 08:51 20.04.2022
2554 Clouds 17 1022 88 10000 2.06 340 08:19 20.04.2022
2555 Rain 15 1021 97 10000 2.06 360 06:26 20.04.2022
2556 Rain 16 1020 100 10000 7.2 50 02:58 20.04.2022
2557 Clouds 19 1021 82 10000 2.06 0 00:22 20.04.2022
2558 Clouds 19 1021 82 10000 1.03 0 23:31 19.04.2022
2559 Clouds 18 1021 91 10000 2.57 270 22:24 19.04.2022
2560 Rain 20 1020 77 10000 3.6 110 21:55 19.04.2022
2561 Rain 19 1020 82 10000 5.14 100 21:18 19.04.2022
2562 Rain 20 1020 74 10000 6.69 90 20:37 19.04.2022
2563 Rain 20 1020 74 10000 6.69 90 20:37 19.04.2022
2564 Clouds 21 1018 64 10000 5.14 100 19:43 19.04.2022
2565 Clouds 23 1016 61 10000 4.12 120 18:46 19.04.2022
2566 Clouds 23 1016 61 10000 4.12 120 18:46 19.04.2022
2567 Rain 24 1017 53 10000 3.09 120 17:27 19.04.2022
2568 Clouds 23 1017 60 10000 5.14 210 16:43 19.04.2022
2569 Rain 23 1017 64 10000 2.06 230 16:21 19.04.2022
2570 Clouds 24 1018 60 10000 5.66 30 14:47 19.04.2022
2571 Clouds 25 1018 52 10000 5.14 60 13:34 19.04.2022
2572 Clouds 25 1019 53 10000 7.72 90 12:50 19.04.2022
2573 Clouds 25 1020 57 10000 4.12 70 11:39 19.04.2022
2574 Clouds 22 1021 66 10000 2.06 0 09:57 19.04.2022
2575 Clouds 19 1021 80 10000 1.03 0 08:54 19.04.2022
2576 Clouds 18 1020 88 10000 1.54 360 04:41 19.04.2022
2577 Clouds 18 1019 88 10000 2.06 30 03:25 19.04.2022
2578 Clouds 18 1021 88 10000 3.6 360 00:27 19.04.2022
2579 Clouds 19 1020 85 10000 4.12 30 23:25 18.04.2022
2580 Rain 19 1021 82 10000 4.63 30 21:29 18.04.2022
2581 Clouds 19 1020 89 10000 4.12 30 20:53 18.04.2022
2582 Clouds 19 1019 89 10000 5.66 30 20:27 18.04.2022
2583 Clouds 19 1018 88 10000 0 0 19:42 18.04.2022
2584 Clouds 18 1018 85 9000 2.57 330 18:54 18.04.2022
2585 Clouds 18 1018 85 9000 4.12 340 17:55 18.04.2022
2586 Clouds 18 1018 88 9000 4.63 320 17:33 18.04.2022
2587 Clouds 18 1018 88 9000 4.63 320 17:33 18.04.2022
2588 Clouds 18 1018 94 8000 5.14 150 16:44 18.04.2022
2589 Clouds 22 1010 50 10000 4.25 112 16:21 18.04.2022
2590 Clouds 23 1008 43 10000 5.5 130 14:43 18.04.2022
2591 Clouds 26 1018 44 10000 4.63 50 13:35 18.04.2022
2592 Clouds 26 1019 47 10000 3.6 120 12:29 18.04.2022
2593 Clouds 24 1020 53 10000 4.12 60 11:34 18.04.2022
2594 Clouds 23 1021 60 10000 3.09 60 10:31 18.04.2022
2595 Clouds 22 1020 62 10000 3.6 70 09:30 18.04.2022
2596 Clouds 19 1020 80 10000 3.09 160 07:42 18.04.2022
2597 Clouds 17 1019 87 10000 4.12 230 05:37 18.04.2022
2598 Clouds 18 1020 88 10000 4.12 190 00:27 18.04.2022
2599 Clouds 19 1021 83 10000 3.6 190 22:41 17.04.2022
2600 Clouds 19 1020 79 10000 3.09 230 21:42 17.04.2022
2601 Rain 18 1015 86 10000 2.94 40 21:22 17.04.2022
2602 Clouds 20 1019 71 10000 3.6 250 20:35 17.04.2022
2603 Clouds 20 1018 69 10000 4.63 300 19:28 17.04.2022
2604 Rain 20 1017 71 10000 4.12 310 17:45 17.04.2022
2605 Clouds 26 1016 44 10000 7.72 130 15:39 17.04.2022
2606 Clouds 26 1016 50 10000 6.69 120 14:55 17.04.2022
2607 Rain 25 1018 57 10000 3.09 300 13:48 17.04.2022
2608 Clouds 26 1019 44 10000 5.14 150 12:58 17.04.2022
2609 Clouds 26 1019 44 10000 5.14 150 12:27 17.04.2022
2610 Clouds 24 1021 52 10000 3.09 200 10:46 17.04.2022
2611 Clouds 24 1021 52 10000 3.09 200 10:28 17.04.2022
2612 Clouds 24 1021 52 10000 3.09 200 10:28 17.04.2022
2613 Clouds 23 1021 55 10000 6.17 210 09:29 17.04.2022
2614 Clouds 21 1021 68 10000 4.63 190 08:51 17.04.2022
2615 Clouds 19 1020 73 10000 4.12 180 07:30 17.04.2022
2616 Clouds 17 1019 77 10000 2.06 240 04:29 17.04.2022
2617 Clouds 18 1021 77 10000 3.09 240 00:55 17.04.2022
2618 Clouds 19 1020 72 10000 2.06 230 23:50 16.04.2022
2619 Rain 20 1021 73 10000 3.09 190 22:35 16.04.2022
2620 Clouds 21 1021 68 10000 3.09 170 21:38 16.04.2022
2621 Clouds 21 1019 66 10000 4.12 170 20:32 16.04.2022
2622 Clouds 23 1017 44 10000 4.12 80 18:59 16.04.2022
2623 Clouds 24 1016 42 10000 1.54 210 17:46 16.04.2022
2624 Clouds 24 1016 48 10000 6.17 180 16:40 16.04.2022
2625 Clouds 27 1016 34 10000 5.14 150 15:45 16.04.2022
2626 Clouds 27 1017 36 10000 4.12 110 14:56 16.04.2022
2627 Clouds 27 1018 35 10000 3.6 100 13:58 16.04.2022
2628 Clouds 27 1007 29 10000 3.15 119 13:32 16.04.2022
2629 Clouds 27 1010 31 10000 2.85 128 12:22 16.04.2022
2630 Clouds 25 1012 36 10000 3.24 133 10:49 16.04.2022
2631 Clouds 24 1013 43 10000 2.93 135 09:56 16.04.2022
2632 Clouds 23 1014 51 10000 1.82 130 08:57 16.04.2022
2633 Clouds 21 1015 62 10000 0.79 67 07:52 16.04.2022
2634 Clouds 17 1015 76 10000 1.03 13 06:58 16.04.2022
2635 Clouds 18 1013 87 10000 1.64 45 02:46 16.04.2022
2636 Clouds 17 1014 83 10000 2.75 66 00:30 16.04.2022
2637 Clouds 20 1015 80 10000 3.25 68 23:21 15.04.2022
2638 Clouds 17 1015 80 10000 3.25 68 22:32 15.04.2022
2639 Clouds 21 1015 73 10000 4.31 84 21:50 15.04.2022
2640 Clouds 21 1014 61 10000 5.02 89 21:18 15.04.2022
2641 Clouds 23 1019 49 10000 3.09 70 20:22 15.04.2022
2642 Clouds 22 1018 51 10000 4.12 90 19:40 15.04.2022
2643 Clouds 24 1017 45 10000 5.14 90 18:54 15.04.2022
2644 Clouds 24 1017 46 10000 5.66 80 18:25 15.04.2022
2645 Clouds 25 1016 39 10000 6.17 80 17:34 15.04.2022
2646 Clouds 26 1017 35 10000 6.17 90 16:48 15.04.2022
2647 Clouds 26 1017 38 10000 5.14 100 16:18 15.04.2022
2648 Clouds 26 1017 40 10000 7.72 90 14:51 15.04.2022
2649 Clouds 26 1018 42 10000 5.14 80 13:40 15.04.2022
2650 Clouds 24 1020 46 10000 4.12 80 12:40 15.04.2022
2651 Clouds 23 1020 56 10000 5.14 60 11:56 15.04.2022
2652 Clouds 23 1020 56 10000 5.14 60 11:34 15.04.2022
2653 Clouds 23 1020 55 10000 6.69 60 10:43 15.04.2022
2654 Clouds 21 1021 68 10000 5.66 90 09:46 15.04.2022
2655 Clouds 21 1021 68 10000 5.14 90 09:21 15.04.2022
2656 Clouds 17 1020 94 10000 3.09 120 07:32 15.04.2022
2657 Clouds 17 1019 94 10000 2.57 90 06:36 15.04.2022
2658 Rain 17 1018 94 10000 1.54 40 02:48 15.04.2022
2659 Clouds 19 1020 88 10000 3.09 90 23:31 14.04.2022
2660 Clouds 20 1019 77 10000 0 0 22:49 14.04.2022
2661 Clouds 20 1019 82 10000 1.54 40 22:30 14.04.2022
2662 Clouds 19 1019 88 10000 1.54 40 21:59 14.04.2022
2663 Clouds 19 1018 74 10000 5.66 70 20:57 14.04.2022
2664 Clouds 22 1017 64 10000 5.14 30 19:23 14.04.2022
2665 Clouds 23 1016 56 10000 4.12 30 18:30 14.04.2022
2666 Clouds 26 1015 47 10000 7.72 90 17:44 14.04.2022
2667 Clouds 26 1015 47 10000 7.72 90 17:44 14.04.2022
2668 Clouds 26 1014 45 10000 7.2 80 16:46 14.04.2022
2669 Clouds 26 1016 41 10000 7.2 90 15:26 14.04.2022
2670 Clouds 26 1016 46 10000 7.2 90 13:47 14.04.2022
2671 Clouds 27 1018 44 10000 7.2 80 12:58 14.04.2022
2672 Rain 28 1018 44 10000 7.2 80 12:31 14.04.2022
2673 Clouds 24 1018 55 10000 5.66 70 11:30 14.04.2022
2674 Clouds 24 1019 57 10000 4.63 60 10:56 14.04.2022
2675 Clouds 23 1019 59 10000 4.63 60 10:27 14.04.2022
2676 Clouds 21 1019 71 10000 4.12 50 09:26 14.04.2022
2677 Clouds 19 1018 85 10000 3.09 90 07:36 14.04.2022
2678 Clouds 18 1017 94 10000 4.12 70 04:35 14.04.2022
2679 Clouds 19 1018 77 10000 4.12 30 23:45 13.04.2022
2680 Clouds 20 1019 68 10000 3.09 50 22:29 13.04.2022
2681 Clouds 20 1018 71 10000 4.12 80 21:42 13.04.2022
2682 Clouds 21 1017 64 10000 4.12 40 20:27 13.04.2022
2683 Clouds 21 1016 63 10000 3.6 60 19:46 13.04.2022
2684 Clouds 21 1015 73 10000 5.14 50 18:36 13.04.2022
2685 Rain 20 1010 65 10000 3.79 0 17:24 13.04.2022
2686 Clouds 27 1014 36 10000 5.14 110 16:44 13.04.2022
2687 Clouds 27 1014 36 10000 4.63 40 15:44 13.04.2022
2688 Clouds 28 1015 34 10000 5.14 70 15:21 13.04.2022
2689 Clouds 27 1015 41 10000 3.6 60 14:34 13.04.2022
2690 Clouds 27 1016 41 10000 5.14 90 13:37 13.04.2022
2691 Clouds 26 1017 46 10000 5.66 40 12:41 13.04.2022
2692 Rain 27 1010 43 10000 4.02 77 11:25 13.04.2022
2693 Clouds 23 1019 62 10000 3.09 60 09:53 13.04.2022
2694 Clouds 21 1020 78 10000 1.54 70 08:44 13.04.2022
2695 Clouds 18 1020 94 10000 2.06 40 07:38 13.04.2022
2696 Clouds 18 1018 87 10000 5.14 60 06:47 13.04.2022
2697 Clouds 17 1018 94 10000 2.57 30 06:23 13.04.2022
2698 Rain 19 1019 77 10000 2.57 320 00:52 13.04.2022
2699 Clouds 20 1020 73 10000 4.12 30 00:19 13.04.2022
2700 Clouds 21 1019 58 10000 3.09 40 22:33 12.04.2022
2701 Clear 21 1018 58 10000 3.09 70 21:47 12.04.2022
2702 Clear 21 1019 60 10000 3.09 80 20:44 12.04.2022
2703 Rain 22 1018 56 10000 4.63 90 20:18 12.04.2022
2704 Clear 23 1016 46 10000 7.72 90 19:39 12.04.2022
2705 Clouds 24 1016 45 10000 5.66 90 18:53 12.04.2022
2706 Clouds 24 1009 40 10000 4.54 80 17:38 12.04.2022
2707 Clouds 25 1008 34 10000 5.66 86 16:38 12.04.2022
2708 Clouds 27 1007 28 10000 5.15 98 15:34 12.04.2022
2709 Clouds 27 1006 26 10000 3.75 111 14:41 12.04.2022
2710 Clouds 27 1007 24 10000 3.04 114 13:45 12.04.2022
2711 Clouds 27 1008 26 10000 3.14 108 13:23 12.04.2022
2712 Clouds 27 1010 29 10000 3.29 106 11:49 12.04.2022
2713 Clouds 26 1012 34 10000 3.34 105 11:28 12.04.2022
2714 Clouds 23 1014 50 10000 2.99 83 09:32 12.04.2022
2715 Clouds 22 1014 50 10000 3 84 08:32 12.04.2022
2716 Clouds 18 1016 73 10000 2.14 34 06:34 12.04.2022
2717 Clouds 17 1016 83 10000 1.83 14 05:38 12.04.2022
2718 Clouds 15 1014 76 10000 2.24 49 01:48 12.04.2022
2719 Clouds 17 1015 69 10000 2.85 54 23:20 11.04.2022
2720 Clouds 18 1015 66 10000 3.4 75 21:51 11.04.2022
2721 Clouds 18 1015 62 10000 3.94 92 21:18 11.04.2022
2722 Clouds 20 1014 55 10000 4.37 102 20:30 11.04.2022
2723 Clouds 21 1013 53 10000 5.08 97 19:58 11.04.2022
2724 Clouds 21 1012 47 10000 5.22 105 19:26 11.04.2022
2725 Clouds 21 1012 47 10000 5.22 105 18:53 11.04.2022
2726 Clouds 21 1011 41 10000 5.4 101 17:58 11.04.2022
2727 Clouds 22 1011 41 10000 5.41 100 17:33 11.04.2022
2728 Clouds 23 1009 28 10000 6.55 99 16:25 11.04.2022
2729 Clouds 24 1008 25 10000 6.38 98 14:40 11.04.2022
2730 Clouds 29 1008 24 10000 5.94 99 13:34 11.04.2022
2731 Clouds 29 1009 25 10000 5.55 95 12:37 11.04.2022
2732 Clouds 25 1021 47 10000 4.63 60 11:54 11.04.2022
2733 Clouds 26 1012 34 10000 4.6 83 10:35 11.04.2022
2734 Clouds 22 1015 52 10000 4.31 77 09:34 11.04.2022
2735 Clouds 18 1021 82 10000 2.06 10 07:24 11.04.2022
2736 Clouds 17 1019 82 10000 2.06 360 03:19 11.04.2022
2737 Clouds 19 1014 69 10000 3.91 72 23:22 10.04.2022
2738 Clouds 19 1015 68 10000 4.05 76 22:26 10.04.2022
2739 Clouds 20 1015 68 10000 4.05 76 21:35 10.04.2022
2740 Clouds 20 1014 65 10000 4.69 81 20:50 10.04.2022
2741 Clouds 21 1014 56 10000 4.76 86 19:53 10.04.2022
2742 Clouds 21 1013 51 10000 4.39 87 19:30 10.04.2022
2743 Clouds 23 1018 46 10000 6.17 100 18:46 10.04.2022
2744 Clouds 24 1018 40 10000 6.69 90 17:58 10.04.2022
2745 Clouds 24 1018 40 10000 6.69 90 17:58 10.04.2022
2746 Clouds 25 1018 44 10000 7.2 90 17:39 10.04.2022
2747 Clouds 25 1018 41 10000 8.23 80 16:44 10.04.2022
2748 Clouds 26 1017 36 10000 7.72 70 15:37 10.04.2022
2749 Clouds 25 1018 47 10000 7.72 100 14:25 10.04.2022
2750 Clouds 28 1009 30 10000 5.91 89 12:40 10.04.2022
2751 Clouds 28 1010 33 10000 5.48 86 12:21 10.04.2022
2752 Clouds 26 1012 37 10000 5.09 82 11:29 10.04.2022
2753 Clouds 26 1012 37 10000 5.09 82 10:56 10.04.2022
2754 Clouds 23 1014 45 10000 4.7 79 10:00 10.04.2022
2755 Clouds 23 1014 45 10000 4.68 79 09:38 10.04.2022
2756 Clouds 20 1016 65 10000 3.96 57 08:23 10.04.2022
2757 Clouds 19 1016 67 10000 4.04 57 07:42 10.04.2022
2758 Clouds 16 1016 81 10000 3.81 56 05:57 10.04.2022
2759 Clouds 18 1014 90 10000 4.27 63 02:34 10.04.2022
2760 Clouds 19 1014 71 10000 4.28 63 00:34 10.04.2022
2761 Clouds 19 1014 71 10000 4.28 63 23:49 09.04.2022
2762 Clear 20 1020 59 10000 3.6 80 22:50 09.04.2022
2763 Clear 20 1019 58 10000 4.63 80 21:46 09.04.2022
2764 Clear 21 1019 50 10000 6.17 100 20:50 09.04.2022
2765 Clear 21 1019 50 10000 6.17 100 20:26 09.04.2022
2766 Clouds 22 1018 47 10000 7.72 80 19:42 09.04.2022
2767 Clouds 23 1019 49 10000 6.17 90 19:18 09.04.2022
2768 Clouds 25 1018 41 10000 7.2 100 18:21 09.04.2022
2769 Clouds 25 1017 39 10000 6.69 90 17:39 09.04.2022
2770 Clouds 26 1016 37 10000 7.2 80 16:53 09.04.2022
2771 Clouds 26 1016 35 10000 7.72 70 15:58 09.04.2022
2772 Clouds 26 1016 36 10000 7.2 90 15:39 09.04.2022
2773 Clouds 26 1017 35 10000 6.17 60 14:44 09.04.2022
2774 Clouds 26 1017 35 10000 6.17 60 14:23 09.04.2022
2775 Clouds 27 1019 41 10000 6.17 90 13:20 09.04.2022
2776 Clouds 26 1018 40 10000 4.63 30 12:50 09.04.2022
2777 Clouds 24 1019 47 10000 6.17 90 11:38 09.04.2022
2778 Clouds 23 1021 51 10000 3.6 60 10:21 09.04.2022
2779 Clouds 22 1021 58 10000 4.12 40 09:47 09.04.2022
2780 Clouds 20 1021 71 10000 4.63 60 08:56 09.04.2022
2781 Clouds 18 1022 88 10000 3.6 50 07:29 09.04.2022
2782 Clouds 19 1020 72 10000 3.6 40 02:53 09.04.2022
2783 Clear 19 1021 68 10000 2.57 30 00:25 09.04.2022
2784 Clouds 21 1021 60 10000 3.6 50 22:57 08.04.2022
2785 Clouds 20 1022 60 10000 3.09 70 21:32 08.04.2022
2786 Clouds 22 1021 53 10000 4.12 90 20:40 08.04.2022
2787 Clouds 23 1019 46 10000 4.63 70 19:32 08.04.2022
2788 Clouds 24 1019 37 10000 6.17 90 18:31 08.04.2022
2789 Clouds 26 1019 32 10000 6.17 100 17:53 08.04.2022
2790 Clouds 26 1019 36 10000 6.17 100 17:26 08.04.2022
2791 Clouds 26 1018 34 10000 6.17 120 16:51 08.04.2022
2792 Clouds 26 1018 35 10000 6.17 90 15:59 08.04.2022
2793 Clouds 27 1018 34 10000 5.66 100 15:27 08.04.2022
2794 Clouds 27 1020 33 10000 7.72 60 14:40 08.04.2022
2795 Clouds 26 1021 37 10000 5.14 80 13:55 08.04.2022
2796 Clouds 26 1021 37 10000 5.14 80 13:29 08.04.2022
2797 Clouds 26 1021 44 10000 8.23 60 12:32 08.04.2022
2798 Clouds 24 1022 53 10000 5.14 60 10:55 08.04.2022
2799 Clouds 22 1024 68 10000 5.14 70 09:41 08.04.2022
2800 Clouds 20 1022 77 10000 5.14 60 08:58 08.04.2022
2801 Clouds 19 1022 82 10000 4.12 90 07:42 08.04.2022
2802 Clouds 18 1021 88 10000 5.14 90 06:44 08.04.2022
2803 Clouds 18 1021 77 10000 3.09 60 02:27 08.04.2022
2804 Clouds 20 1022 68 10000 4.63 70 00:28 08.04.2022
2805 Clouds 21 1022 60 10000 3.6 70 23:38 07.04.2022
2806 Clouds 22 1021 56 10000 5.14 60 22:41 07.04.2022
2807 Clouds 20 1016 69 10000 5.65 68 22:22 07.04.2022
2808 Clouds 22 1021 53 10000 6.17 80 21:56 07.04.2022
2809 Clouds 23 1022 49 10000 5.66 70 21:23 07.04.2022
2810 Clouds 23 1020 49 10000 5.14 90 20:42 07.04.2022
2811 Clouds 24 1019 47 10000 9.26 90 18:58 07.04.2022
2812 Clouds 26 1018 37 10000 10.29 120 17:28 07.04.2022
2813 Clouds 26 1018 36 10000 10.29 120 16:45 07.04.2022
2814 Clouds 26 1018 36 10000 10.29 120 16:25 07.04.2022
2815 Clouds 27 1018 32 10000 6.17 120 15:39 07.04.2022
2816 Clouds 27 1019 35 10000 5.14 60 13:52 07.04.2022
2817 Clouds 26 1010 30 10000 6.34 76 13:23 07.04.2022
2818 Clouds 25 1021 47 10000 6.17 40 11:49 07.04.2022
2819 Clouds 24 1022 57 10000 5.66 60 10:40 07.04.2022
2820 Clouds 20 1023 75 10000 4.63 60 08:43 07.04.2022
2821 Clouds 18 1021 91 10000 3.09 80 06:59 07.04.2022
2822 Clear 17 1021 94 10000 3.6 40 04:36 07.04.2022
2823 Clear 18 1019 70 10000 2.57 50 02:32 07.04.2022
2824 Clouds 20 1020 68 10000 3.6 40 00:42 07.04.2022
2825 Clouds 20 1020 62 10000 4.12 40 23:28 06.04.2022
2826 Clear 20 1020 64 10000 2.57 60 22:44 06.04.2022
2827 Clear 20 1015 73 10000 4.97 66 22:19 06.04.2022
2828 Clear 22 1020 52 10000 3.6 40 20:47 06.04.2022
2829 Clouds 22 1018 49 10000 4.12 40 19:59 06.04.2022
2830 Clouds 21 1013 46 10000 5.99 73 19:20 06.04.2022
2831 Clouds 24 1018 42 10000 5.14 40 18:48 06.04.2022
2832 Clouds 26 1018 34 10000 7.72 50 17:36 06.04.2022
2833 Clouds 27 1018 29 10000 10.8 100 16:56 06.04.2022
2834 Clouds 27 1018 29 10000 10.8 100 16:32 06.04.2022
2835 Clouds 28 1018 28 10000 8.75 60 15:43 06.04.2022
2836 Clouds 27 1019 35 10000 7.72 80 13:48 06.04.2022
2837 Clouds 26 1020 41 10000 7.72 50 12:30 06.04.2022
2838 Clouds 25 1021 49 10000 9.26 80 11:44 06.04.2022
2839 Clouds 24 1022 59 10000 9.77 50 10:33 06.04.2022
2840 Clouds 22 1022 62 10000 6.17 60 09:59 06.04.2022
2841 Clouds 22 1016 61 10000 5.47 66 08:59 06.04.2022
2842 Clouds 20 1017 70 10000 5.06 62 07:59 06.04.2022
2843 Clouds 18 1017 87 10000 3.41 56 05:45 06.04.2022
2844 Clouds 19 1014 78 10000 3.31 49 01:26 06.04.2022
2845 Clear 19 1015 77 10000 3.94 47 23:50 05.04.2022
2846 Clouds 23 1021 49 10000 3.09 90 21:58 05.04.2022
2847 Clouds 22 1021 56 10000 4.12 40 21:18 05.04.2022
2848 Clouds 22 1020 52 10000 4.12 40 20:24 05.04.2022
2849 Clouds 24 1019 43 10000 4.63 50 18:32 05.04.2022
2850 Clouds 24 1010 33 10000 6.89 72 17:22 05.04.2022
2851 Clouds 27 1018 36 10000 6.17 70 16:43 05.04.2022
2852 Clouds 28 1018 39 10000 7.2 100 15:52 05.04.2022
2853 Clouds 28 1018 39 10000 7.2 100 15:31 05.04.2022
2854 Clouds 27 1019 39 10000 5.14 120 13:55 05.04.2022
2855 Clouds 27 1010 28 10000 5.03 77 12:39 05.04.2022
2856 Clouds 25 1021 51 10000 6.17 60 11:43 05.04.2022
2857 Clouds 25 1022 53 10000 6.17 70 11:25 05.04.2022
2858 Clouds 24 1022 57 10000 5.14 60 11:25 05.04.2022
2859 Clouds 22 1022 66 10000 3.6 30 09:40 05.04.2022
2860 Clouds 20 1022 80 10000 2.06 40 08:47 05.04.2022
2861 Clouds 17 1021 94 10000 2.57 50 04:25 05.04.2022
2862 Clouds 20 1021 64 10000 3.09 10 23:48 04.04.2022
2863 Clear 20 1021 64 10000 2.57 30 22:41 04.04.2022
2864 Clouds 19 1021 68 10000 2.57 40 21:51 04.04.2022
2865 Rain 21 1015 74 10000 4.4 70 21:20 04.04.2022
2866 Clouds 21 1020 56 10000 3.6 50 20:48 04.04.2022
2867 Clouds 23 1019 53 10000 5.14 50 19:38 04.04.2022
2868 Clouds 24 1018 49 10000 5.66 80 18:59 04.04.2022
2869 Clouds 25 1018 43 10000 7.72 90 17:39 04.04.2022
2870 Clouds 27 1018 35 10000 6.17 90 16:36 04.04.2022
2871 Clouds 27 1019 41 10000 5.66 90 15:34 04.04.2022
2872 Clouds 28 1019 36 10000 5.66 70 14:49 04.04.2022
2873 Clouds 28 1019 36 10000 5.66 70 14:31 04.04.2022
2874 Clouds 27 1020 39 10000 4.63 50 13:21 04.04.2022
2875 Clouds 25 1022 44 10000 6.69 90 11:48 04.04.2022
2876 Clouds 24 1023 53 10000 4.63 60 11:27 04.04.2022
2877 Clouds 18 1022 85 10000 5.14 30 07:46 04.04.2022
2878 Clouds 18 1022 85 10000 5.14 30 07:46 04.04.2022
2879 Clouds 17 1020 94 10000 4.63 60 03:52 04.04.2022
2880 Clear 17 1020 88 10000 2.57 20 00:25 04.04.2022
2881 Clear 18 1021 82 10000 2.57 10 22:33 03.04.2022
2882 Clouds 19 1020 74 10000 2.57 60 21:38 03.04.2022
2883 Clouds 20 1019 70 10000 2.57 90 20:41 03.04.2022
2884 Clouds 20 1018 66 10000 4.12 90 19:45 03.04.2022
2885 Clouds 22 1018 58 10000 5.14 90 18:31 03.04.2022
2886 Clouds 23 1018 53 10000 6.17 90 17:46 03.04.2022
2887 Clouds 25 1018 50 10000 7.2 60 16:50 03.04.2022
2888 Clouds 25 1018 50 10000 7.2 60 16:31 03.04.2022
2889 Clouds 26 1018 44 10000 10.29 60 14:38 03.04.2022
2890 Clouds 25 1019 44 10000 9.26 70 13:47 03.04.2022
2891 Clouds 25 1020 48 10000 10.29 60 12:41 03.04.2022
2892 Clouds 23 1022 62 10000 5.14 60 10:58 03.04.2022
2893 Rain 21 1023 68 10000 4.63 70 09:36 03.04.2022
2894 Clouds 19 1022 88 10000 4.63 90 08:33 03.04.2022
2895 Clear 15 1020 94 10000 2.06 20 04:42 03.04.2022
2896 Clouds 17 1020 82 10000 2.06 360 01:53 03.04.2022
2897 Clouds 18 1015 76 10000 4.22 53 23:21 02.04.2022
2898 Clouds 18 1015 73 10000 4.05 58 22:18 02.04.2022
2899 Clear 19 1021 77 10000 4.63 30 21:46 02.04.2022
2900 Clouds 18 1015 70 10000 4.92 65 21:18 02.04.2022
2901 Clouds 20 1019 73 10000 4.63 50 19:53 02.04.2022
2902 Clouds 20 1012 59 10000 7.22 79 18:23 02.04.2022
2903 Clouds 20 1012 59 10000 7.25 79 17:53 02.04.2022
2904 Clouds 23 1009 38 10000 8.38 72 16:27 02.04.2022
2905 Clouds 24 1009 38 10000 7.89 76 15:22 02.04.2022
2906 Clouds 24 1009 38 10000 7.89 76 14:49 02.04.2022
2907 Rain 23 1010 49 10000 7.25 72 13:51 02.04.2022
2908 Rain 23 1013 64 10000 6.55 64 13:19 02.04.2022
2909 Rain 22 1022 68 10000 5.66 70 11:33 02.04.2022
2910 Clouds 18 1022 97 10000 5.66 90 09:30 02.04.2022
2911 Clouds 16 1020 100 10000 4.63 60 06:51 02.04.2022
2912 Clouds 17 1020 94 10000 4.12 90 03:55 02.04.2022
2913 Clouds 17 1022 88 10000 3.09 40 00:19 02.04.2022
2914 Clouds 17 1021 88 10000 3.09 50 23:40 01.04.2022
2915 Clouds 18 1021 82 10000 3.09 40 21:55 01.04.2022
2916 Clouds 19 1021 82 10000 6.17 70 20:53 01.04.2022
2917 Clouds 19 1021 82 10000 3.6 60 20:31 01.04.2022
2918 Clouds 19 1020 77 10000 4.12 60 19:38 01.04.2022
2919 Clouds 20 1019 74 10000 3.6 80 18:52 01.04.2022
2920 Clouds 19 1019 82 10000 7.2 50 18:23 01.04.2022
2921 Rain 21 1018 72 10000 7.2 50 17:35 01.04.2022
2922 Rain 21 1018 72 10000 7.2 50 17:35 01.04.2022
2923 Clouds 23 1018 55 10000 5.14 100 15:43 01.04.2022
2924 Clouds 22 1018 64 10000 8.75 90 14:39 01.04.2022
2925 Clouds 22 1018 64 10000 8.75 90 14:39 01.04.2022
2926 Clouds 23 1019 60 10000 11.32 100 13:36 01.04.2022
2927 Clouds 23 1020 58 10000 8.23 90 12:33 01.04.2022
2928 Clouds 22 1021 64 10000 6.17 60 11:45 01.04.2022
2929 Clouds 22 1021 64 10000 6.69 80 10:34 01.04.2022
2930 Rain 20 1022 75 10000 5.14 70 09:30 01.04.2022
2931 Clouds 17 1020 94 10000 5.14 100 06:55 01.04.2022
2932 Clouds 17 1020 94 10000 4.63 70 04:54 01.04.2022
2933 Clouds 17 1020 94 10000 4.63 70 04:36 01.04.2022
2934 Clouds 18 1020 88 10000 3.6 60 02:19 01.04.2022
2935 Clouds 19 1021 72 10000 2.57 60 00:46 01.04.2022
2936 Clouds 19 1016 86 10000 5.84 61 22:20 31.03.2022
2937 Clouds 20 1020 68 10000 3.6 30 21:37 31.03.2022
2938 Clouds 21 1019 61 10000 3.6 80 20:43 31.03.2022
2939 Clouds 21 1019 61 10000 3.6 80 20:25 31.03.2022
2940 Clouds 22 1018 56 10000 5.66 50 18:57 31.03.2022
2941 Clouds 25 1017 44 10000 6.69 70 17:55 31.03.2022
2942 Clouds 25 1017 45 10000 7.72 90 16:45 31.03.2022
2943 Clouds 26 1016 40 10000 8.23 120 15:50 31.03.2022
2944 Clouds 27 1017 39 10000 7.72 70 15:21 31.03.2022
2945 Clouds 26 1017 44 10000 9.26 80 14:44 31.03.2022
2946 Clouds 25 1019 47 10000 6.69 70 12:48 31.03.2022
2947 Clouds 23 1021 60 10000 6.17 60 11:29 31.03.2022
2948 Clouds 23 1022 64 10000 5.66 70 10:19 31.03.2022
2949 Clouds 20 1021 75 10000 4.12 70 08:29 31.03.2022
2950 Clouds 18 1020 88 10000 5.14 60 07:24 31.03.2022
2951 Clouds 18 1020 82 10000 3.6 40 00:46 31.03.2022
2952 Clouds 18 1021 77 10000 2.57 40 23:23 30.03.2022
2953 Clouds 19 1021 72 10000 3.09 30 21:43 30.03.2022
2954 Clouds 19 1021 72 10000 3.09 30 21:25 30.03.2022
2955 Clouds 20 1019 68 10000 4.63 40 20:21 30.03.2022
2956 Rain 21 1019 64 10000 4.63 50 19:38 30.03.2022
2957 Clouds 22 1017 56 10000 6.17 50 18:40 30.03.2022
2958 Clouds 23 1016 49 10000 7.72 30 17:49 30.03.2022
2959 Clouds 25 1016 44 10000 9.77 60 16:58 30.03.2022
2960 Clouds 25 1016 44 10000 9.77 60 16:38 30.03.2022
2961 Clouds 25 1016 46 10000 10.29 60 15:38 30.03.2022
2962 Clouds 24 1018 57 10000 7.2 60 13:57 30.03.2022
2963 Clouds 24 1019 57 10000 7.72 70 13:18 30.03.2022
2964 Clouds 23 1019 62 10000 9.26 60 11:36 30.03.2022
2965 Clouds 21 1020 74 10000 6.69 50 10:37 30.03.2022
2966 Clouds 20 1021 83 10000 6.17 60 09:27 30.03.2022
2967 Clouds 17 1020 91 10000 3.6 90 07:41 30.03.2022
2968 Clouds 17 1018 94 10000 3.6 90 05:41 30.03.2022
2969 Clouds 17 1019 94 10000 3.6 60 04:54 30.03.2022
2970 Clouds 18 1020 94 10000 2.57 10 00:42 30.03.2022
2971 Rain 19 1021 88 10000 1.54 340 22:35 29.03.2022
2972 Rain 18 1020 94 10000 5.14 40 21:46 29.03.2022
2973 Clouds 21 1019 70 10000 5.14 90 20:54 29.03.2022
2974 Rain 22 1018 64 10000 8.75 70 20:20 29.03.2022
2975 Clouds 23 1016 56 10000 5.66 80 18:56 29.03.2022
2976 Clouds 24 1016 52 10000 7.72 80 18:31 29.03.2022
2977 Clouds 25 1015 44 10000 7.72 80 17:37 29.03.2022
2978 Clouds 25 1015 44 10000 6.17 70 16:58 29.03.2022
2979 Clouds 27 1016 44 10000 6.17 60 15:58 29.03.2022
2980 Clouds 27 1017 41 10000 6.17 80 14:53 29.03.2022
2981 Clouds 25 1017 47 10000 6.17 80 14:22 29.03.2022
2982 Clouds 24 1019 57 10000 5.66 120 12:55 29.03.2022
2983 Clouds 23 1020 64 10000 5.66 70 11:44 29.03.2022
2984 Clouds 21 1020 73 10000 5.14 90 10:55 29.03.2022
2985 Clouds 20 1021 77 10000 4.63 30 09:49 29.03.2022
2986 Clouds 18 1020 94 10000 3.6 90 07:57 29.03.2022
2987 Clouds 17 1019 94 10000 1.03 0 04:47 29.03.2022
2988 Clouds 20 1019 73 10000 2.57 40 00:50 29.03.2022
2989 Rain 19 1021 77 10000 2.06 50 23:24 28.03.2022
2990 Clouds 20 1019 73 10000 3.09 50 22:54 28.03.2022
2991 Rain 20 1021 77 10000 2.06 70 22:26 28.03.2022
2992 Clouds 22 1018 60 10000 10.29 60 20:58 28.03.2022
2993 Rain 20 1020 73 10000 4.63 80 20:23 28.03.2022
2994 Clouds 21 1018 66 10000 7.72 90 19:45 28.03.2022
2995 Rain 21 1018 68 10000 2.57 60 19:27 28.03.2022
2996 Clouds 23 1017 60 10000 3.6 70 18:40 28.03.2022
2997 Clouds 25 1017 50 10000 7.72 70 17:39 28.03.2022
2998 Clouds 26 1016 44 10000 6.69 80 16:33 28.03.2022
2999 Clouds 27 1018 50 10000 4.63 70 14:48 28.03.2022
3000 Clouds 26 1010 46 10000 5.44 76 14:21 28.03.2022
3001 Clouds 25 1021 57 10000 4.63 50 12:24 28.03.2022
3002 Clouds 23 1021 60 10000 6.17 90 11:32 28.03.2022
3003 Clouds 21 1023 78 10000 2.57 60 09:43 28.03.2022
3004 Clouds 20 1024 77 10000 2.06 60 09:19 28.03.2022
3005 Clouds 20 1022 75 10000 4.12 90 08:22 28.03.2022
3006 Clouds 18 1023 91 10000 1.54 310 07:34 28.03.2022
3007 Clouds 18 1015 93 10000 2.08 44 04:18 28.03.2022
3008 Clouds 20 1021 77 10000 6.17 90 23:33 27.03.2022
3009 Clouds 21 1021 73 10000 3.09 50 22:24 27.03.2022
3010 Clouds 21 1021 68 10000 3.6 70 21:42 27.03.2022
3011 Clouds 20 1020 77 10000 3.09 40 20:58 27.03.2022
3012 Rain 23 1019 58 10000 6.17 40 19:49 27.03.2022
3013 Rain 23 1019 58 10000 6.17 40 19:26 27.03.2022
3014 Rain 24 1019 50 10000 5.14 40 18:28 27.03.2022
3015 Clouds 26 1018 41 10000 6.17 50 17:39 27.03.2022
3016 Clouds 27 1017 41 10000 5.66 70 16:31 27.03.2022
3017 Clouds 24 1009 40 10000 4.83 86 15:25 27.03.2022
3018 Clouds 25 1019 47 10000 4.63 20 13:56 27.03.2022
3019 Clouds 24 1021 51 10000 3.09 110 12:38 27.03.2022
3020 Rain 23 1013 50 10000 4.54 78 11:20 27.03.2022
3021 Rain 17 1023 91 10000 5.14 90 08:53 27.03.2022
3022 Clouds 18 1021 88 10000 2.57 60 05:56 27.03.2022
3023 Rain 18 1020 88 10000 3.6 360 00:57 27.03.2022
3024 Rain 18 1021 94 10000 5.66 10 23:46 26.03.2022
3025 Clouds 19 1021 88 10000 3.09 30 22:38 26.03.2022
3026 Rain 19 1021 88 10000 2.06 360 21:46 26.03.2022
3027 Rain 19 1021 88 10000 2.06 360 21:25 26.03.2022
3028 Clouds 22 1019 58 10000 5.14 120 19:29 26.03.2022
3029 Clouds 24 1017 48 10000 10.29 90 17:54 26.03.2022
3030 Clouds 24 1017 48 10000 10.29 90 17:33 26.03.2022
3031 Clouds 26 1016 42 10000 7.72 90 16:27 26.03.2022
3032 Clouds 28 1017 39 10000 6.69 80 15:20 26.03.2022
3033 Clouds 27 1017 41 10000 6.17 100 13:53 26.03.2022
3034 Clouds 27 1018 44 10000 5.14 80 13:18 26.03.2022
3035 Clouds 26 1019 50 10000 5.14 60 11:41 26.03.2022
3036 Clouds 26 1019 50 10000 5.14 60 11:41 26.03.2022
3037 Clouds 26 1019 50 10000 5.14 60 11:41 26.03.2022
3038 Clouds 24 1021 57 10000 3.6 20 10:28 26.03.2022
3039 Clouds 21 1021 71 10000 5.14 30 08:44 26.03.2022
3040 Clouds 18 1020 88 10000 1.54 60 06:25 26.03.2022
3041 Clouds 19 1016 92 10000 3.02 48 05:22 26.03.2022
3042 Rain 19 1013 72 10000 4.35 49 00:28 26.03.2022
3043 Clouds 22 1021 56 10000 5.66 40 21:49 25.03.2022
3044 Clouds 22 1020 56 10000 7.2 70 20:46 25.03.2022
3045 Clouds 21 1012 50 10000 4.95 62 20:20 25.03.2022
3046 Clouds 24 1018 43 10000 5.14 90 18:47 25.03.2022
3047 Clouds 25 1017 38 10000 7.72 90 17:47 25.03.2022
3048 Clouds 25 1017 38 10000 7.72 90 17:27 25.03.2022
3049 Clouds 27 1008 28 10000 5.42 75 16:18 25.03.2022
3050 Clouds 30 1016 28 10000 5.14 90 14:26 25.03.2022
3051 Clouds 29 1018 34 10000 3.6 110 12:57 25.03.2022
3052 Clouds 27 1020 43 10000 3.09 30 10:26 25.03.2022
3053 Clouds 26 1021 50 10000 3.6 160 09:28 25.03.2022
3054 Clouds 24 1021 57 10000 3.09 0 08:24 25.03.2022
3055 Clouds 21 1022 73 10000 1.54 0 07:28 25.03.2022
3056 Clouds 19 1022 82 10000 1.54 270 06:24 25.03.2022
3057 Clouds 19 1021 82 10000 2.06 30 01:18 25.03.2022
3058 Clouds 22 1021 47 10000 5.66 80 22:51 24.03.2022
3059 Clouds 23 1020 47 10000 4.12 90 21:52 24.03.2022
3060 Clouds 23 1020 43 10000 5.14 110 20:37 24.03.2022
3061 Clouds 24 1019 42 10000 6.17 110 19:47 24.03.2022
3062 Clouds 26 1018 37 10000 7.72 100 17:48 24.03.2022
3063 Clouds 27 1018 34 10000 7.72 80 17:19 24.03.2022
3064 Clouds 28 1016 30 10000 7.72 80 15:45 24.03.2022
3065 Clouds 28 1017 29 10000 7.72 100 14:50 24.03.2022
3066 Clouds 28 1018 34 10000 5.66 80 14:19 24.03.2022
3067 Clouds 29 1019 32 10000 5.14 60 13:23 24.03.2022
3068 Clouds 26 1021 38 10000 6.17 90 11:47 24.03.2022
3069 Clouds 25 1022 53 10000 5.14 100 09:55 24.03.2022
3070 Clouds 24 1023 57 10000 4.12 90 08:42 24.03.2022
3071 Clouds 19 1022 82 10000 4.12 90 06:49 24.03.2022
3072 Clouds 18 1021 94 10000 4.12 80 03:57 24.03.2022
3073 Clouds 19 1015 61 10000 3.99 62 23:20 23.03.2022
3074 Clouds 22 1023 50 10000 2.57 90 21:40 23.03.2022
3075 Clouds 21 1015 53 10000 4.59 77 21:18 23.03.2022
3076 Clouds 24 1020 37 10000 5.14 60 19:46 23.03.2022
3077 Clouds 25 1019 36 10000 5.14 90 18:55 23.03.2022
3078 Clouds 26 1019 34 10000 7.2 90 17:37 23.03.2022
3079 Clouds 28 1018 28 10000 6.69 80 16:39 23.03.2022
3080 Clouds 29 1018 25 10000 10.29 60 14:51 23.03.2022
3081 Clouds 30 1019 26 10000 5.66 90 14:26 23.03.2022
3082 Clouds 28 1020 28 10000 5.66 30 12:55 23.03.2022
3083 Clouds 24 1023 46 10000 2.57 90 09:45 23.03.2022
3084 Clouds 18 1023 82 10000 2.06 330 06:55 23.03.2022
3085 Clouds 17 1022 88 10000 2.57 40 05:23 23.03.2022
3086 Clear 18 1021 68 10000 4.63 30 00:35 23.03.2022
3087 Clear 19 1021 65 10000 3.09 10 23:41 22.03.2022
3088 Clear 20 1021 52 10000 3.6 90 21:30 22.03.2022
3089 Clouds 21 1021 47 10000 8.75 100 20:49 22.03.2022
3090 Clouds 23 1020 43 10000 4.63 90 19:51 22.03.2022
3091 Clouds 23 1020 40 10000 4.63 100 19:23 22.03.2022
3092 Clouds 24 1018 40 10000 6.17 110 18:38 22.03.2022
3093 Clouds 25 1018 36 10000 7.72 100 17:37 22.03.2022
3094 Clouds 27 1017 29 10000 7.2 100 16:28 22.03.2022
3095 Clouds 28 1018 30 10000 5.66 100 15:23 22.03.2022
3096 Clouds 28 1017 30 10000 9.26 90 14:57 22.03.2022
3097 Clouds 28 1017 31 10000 9.26 90 14:38 22.03.2022
3098 Clouds 28 1017 32 10000 6.17 110 13:36 22.03.2022
3099 Clouds 27 1019 36 10000 6.17 80 11:52 22.03.2022
3100 Clouds 25 1020 44 10000 6.17 60 10:44 22.03.2022
3101 Clouds 23 1014 53 10000 3.6 60 08:38 22.03.2022
3102 Clouds 18 1020 80 10000 4.63 80 06:53 22.03.2022
3103 Clouds 18 1019 82 10000 4.63 80 03:49 22.03.2022
3104 Clouds 20 1020 68 10000 6.69 90 00:29 22.03.2022
3105 Clouds 20 1020 64 10000 5.14 90 22:42 21.03.2022
3106 Clouds 20 1014 63 10000 6.25 83 21:18 21.03.2022
3107 Clouds 23 1019 49 10000 6.17 90 20:41 21.03.2022
3108 Clouds 24 1019 46 10000 10.29 120 19:59 21.03.2022
3109 Clouds 23 1019 46 10000 10.29 120 19:34 21.03.2022
3110 Clouds 24 1018 44 10000 8.23 90 18:36 21.03.2022
3111 Clouds 25 1017 41 10000 8.75 100 17:19 21.03.2022
3112 Clouds 27 1027 36 10000 8.23 90 16:53 21.03.2022
3113 Clouds 28 1017 34 10000 7.72 70 16:24 21.03.2022
3114 Clear 29 1006 21 10000 7.03 87 15:21 21.03.2022
3115 Clear 30 1006 19 10000 6.54 82 14:28 21.03.2022
3116 Clouds 28 1017 30 10000 6.69 80 12:53 21.03.2022
3117 Clouds 27 1018 29 10000 5.66 90 11:54 21.03.2022
3118 Clouds 26 1019 38 10000 5.66 80 10:49 21.03.2022
3119 Clouds 24 1021 53 10000 4.63 50 09:21 21.03.2022
3120 Clouds 20 1021 75 10000 3.09 90 07:22 21.03.2022
3121 Clouds 18 1019 88 10000 2.06 70 04:54 21.03.2022
3122 Clear 19 1012 66 10000 3.59 58 00:36 21.03.2022
3123 Clouds 22 1020 56 10000 10.29 90 22:56 20.03.2022
3124 Clear 21 1021 56 10000 4.12 70 21:57 20.03.2022
3125 Clear 22 1021 53 10000 4.63 80 21:31 20.03.2022
3126 Clear 23 1020 49 10000 5.66 80 20:48 20.03.2022
3127 Clear 23 1020 49 10000 5.66 80 20:25 20.03.2022
3128 Clouds 24 1019 41 10000 5.66 90 19:43 20.03.2022
3129 Clouds 25 1017 34 10000 6.17 90 18:48 20.03.2022
3130 Clouds 27 1016 28 10000 6.17 90 17:38 20.03.2022
3131 Clouds 28 1016 30 10000 10.29 90 16:59 20.03.2022
3132 Clouds 29 1016 26 10000 5.14 70 15:57 20.03.2022
3133 Clouds 29 1016 30 10000 5.14 90 14:37 20.03.2022
3134 Clear 28 1007 20 10000 5.63 94 13:31 20.03.2022
3135 Clear 30 1008 21 10000 5.3 90 11:51 20.03.2022
3136 Clouds 28 1012 27 10000 4.73 81 09:58 20.03.2022
3137 Clouds 25 1014 44 10000 4.32 72 08:19 20.03.2022
3138 Clouds 19 1016 69 10000 3.47 48 05:49 20.03.2022
3139 Clouds 17 1014 77 10000 2.65 51 03:18 20.03.2022
3140 Clouds 19 1014 72 10000 3.32 49 00:53 20.03.2022
3141 Clouds 19 1014 71 10000 3.56 56 23:37 19.03.2022
3142 Clouds 20 1015 64 10000 4.4 74 21:58 19.03.2022
3143 Clouds 21 1015 58 10000 4.82 77 21:25 19.03.2022
3144 Clouds 22 1013 46 10000 5.34 79 19:22 19.03.2022
3145 Clouds 22 1013 50 10000 5.57 77 18:38 19.03.2022
3146 Clouds 23 1012 43 10000 5.88 77 17:48 19.03.2022
3147 Clouds 25 1010 36 10000 5.91 74 16:46 19.03.2022
3148 Clouds 27 1007 25 10000 7.14 88 15:26 19.03.2022
3149 Clouds 28 1007 21 10000 6.23 81 13:45 19.03.2022
3150 Clouds 30 1007 21 10000 5.81 88 12:42 19.03.2022
3151 Clouds 30 1009 22 10000 5.36 85 12:20 19.03.2022
3152 Clouds 30 1009 22 10000 5.36 85 11:45 19.03.2022
3153 Clouds 27 1014 32 10000 4.39 72 09:22 19.03.2022
3154 Clouds 17 1022 82 10000 2.06 40 04:53 19.03.2022
3155 Clouds 18 1021 83 10000 1.54 30 02:33 19.03.2022
3156 Clouds 21 1021 64 10000 5.14 80 23:51 18.03.2022
3157 Clouds 22 1021 60 10000 5.14 90 22:48 18.03.2022
3158 Clouds 19 1016 77 10000 4.2 67 22:21 18.03.2022
3159 Clouds 22 1021 58 10000 6.69 70 20:25 18.03.2022
3160 Clouds 20 1015 45 10000 5.4 75 19:24 18.03.2022
3161 Clouds 23 1019 53 10000 9.26 80 18:43 18.03.2022
3162 Clouds 27 1017 31 10000 6.69 70 16:54 18.03.2022
3163 Clouds 28 1018 26 10000 5.66 70 16:23 18.03.2022
3164 Clouds 27 1018 32 10000 5.14 60 14:27 18.03.2022
3165 Clouds 28 1018 30 10000 5.66 90 13:39 18.03.2022
3166 Clouds 27 1020 32 10000 6.17 90 11:35 18.03.2022
3167 Clouds 25 1022 44 10000 3.6 40 10:21 18.03.2022
3168 Clouds 22 1022 60 10000 3.6 90 08:46 18.03.2022
3169 Clouds 18 1021 88 10000 2.06 190 06:59 18.03.2022
3170 Clouds 15 1019 94 10000 1.54 240 04:55 18.03.2022
3171 Clouds 17 1019 91 10000 1.03 180 01:38 18.03.2022
3172 Clouds 20 1020 77 10000 4.12 70 23:52 17.03.2022
3173 Clouds 20 1020 75 10000 5.14 80 22:45 17.03.2022
3174 Clouds 18 1014 52 10000 4.23 59 22:19 17.03.2022
3175 Clouds 21 1020 68 10000 8.23 90 21:30 17.03.2022
3176 Clouds 23 1019 56 10000 6.69 70 20:53 17.03.2022
3177 Clouds 19 1013 45 10000 5.57 63 20:19 17.03.2022
3178 Clouds 23 1018 52 10000 7.72 60 19:38 17.03.2022
3179 Clouds 24 1017 55 10000 8.23 60 18:52 17.03.2022
3180 Clouds 25 1016 47 10000 8.23 80 17:40 17.03.2022
3181 Clouds 26 1007 29 10000 7.23 48 16:20 17.03.2022
3182 Clouds 29 1014 30 10000 8.75 60 15:43 17.03.2022
3183 Clouds 30 1014 26 10000 6.17 90 14:59 17.03.2022
3184 Clouds 29 1014 28 10000 7.2 80 13:45 17.03.2022
3185 Clouds 29 1016 30 10000 4.63 50 12:47 17.03.2022
3186 Clouds 28 1017 37 10000 3.6 40 11:36 17.03.2022
3187 Clouds 27 1018 39 10000 4.63 60 10:44 17.03.2022
3188 Clouds 26 1019 44 10000 6.17 80 09:37 17.03.2022
3189 Clear 24 1013 43 10000 3.38 58 08:19 17.03.2022
3190 Clouds 18 1018 85 10000 2.06 120 05:51 17.03.2022
3191 Clouds 18 1018 82 10000 0 0 04:40 17.03.2022
3192 Clouds 19 1018 77 10000 3.09 70 00:27 17.03.2022
3193 Clouds 22 1019 68 10000 5.66 70 22:56 16.03.2022
3194 Clouds 22 1019 68 10000 5.66 70 22:36 16.03.2022
3195 Clouds 22 1019 64 10000 5.66 70 21:56 16.03.2022
3196 Clear 23 1018 56 10000 8.23 70 20:40 16.03.2022
3197 Clear 25 1016 41 10000 6.69 50 19:23 16.03.2022
3198 Clouds 25 1015 34 10000 6.69 50 18:42 16.03.2022
3199 Clouds 27 1013 28 10000 6.69 50 17:50 16.03.2022
3200 Clouds 27 1014 28 10000 6.69 50 17:31 16.03.2022
3201 Clouds 28 1013 29 10000 7.72 60 16:35 16.03.2022
3202 Clouds 30 1013 29 10000 7.72 30 14:58 16.03.2022
3203 Clouds 30 1014 27 10000 4.12 60 13:36 16.03.2022
3204 Clouds 29 1015 30 10000 4.12 120 12:56 16.03.2022
3205 Clouds 29 1017 34 10000 5.66 70 11:24 16.03.2022
3206 Clouds 27 1018 39 10000 4.63 40 10:37 16.03.2022
3207 Clouds 26 1019 41 10000 6.17 60 09:57 16.03.2022
3208 Clouds 22 1021 60 10000 3.09 40 08:24 16.03.2022
3209 Clouds 18 1018 68 10000 1.03 350 02:46 16.03.2022
3210 Clear 18 1019 73 10000 4.12 60 22:56 15.03.2022
3211 Clear 18 1019 73 10000 4.12 60 22:36 15.03.2022
3212 Clear 22 1019 49 10000 4.12 30 21:19 15.03.2022
3213 Clear 24 1018 41 10000 5.14 30 19:46 15.03.2022
3214 Clouds 26 1016 34 10000 7.2 50 17:47 15.03.2022
3215 Clouds 28 1015 29 10000 5.66 70 16:42 15.03.2022
3216 Clouds 30 1015 24 10000 6.69 60 15:42 15.03.2022
3217 Clouds 30 1015 23 10000 6.69 50 14:54 15.03.2022
3218 Clouds 30 1016 19 10000 5.14 90 13:57 15.03.2022
3219 Clouds 30 1018 21 10000 4.63 20 13:23 15.03.2022
3220 Clouds 29 1018 26 10000 5.66 50 11:34 15.03.2022
3221 Clouds 27 1019 34 10000 5.66 30 10:55 15.03.2022
3222 Clouds 25 1020 44 10000 4.12 30 09:29 15.03.2022
3223 Clear 23 1021 56 10000 5.14 30 08:27 15.03.2022
3224 Clouds 21 1021 63 10000 3.09 40 07:38 15.03.2022
3225 Clouds 19 1020 68 10000 1.03 0 06:32 15.03.2022
3226 Clouds 17 1020 72 10000 2.57 10 01:57 15.03.2022
3227 Clouds 19 1021 68 10000 4.12 20 23:31 14.03.2022
3228 Clouds 21 1018 56 10000 4.12 60 22:52 14.03.2022
3229 Clouds 22 1021 57 10000 4.63 40 21:55 14.03.2022
3230 Clouds 21 1021 64 10000 4.63 50 21:18 14.03.2022
3231 Rain 21 1021 68 10000 4.12 80 20:30 14.03.2022
3232 Rain 24 1019 49 10000 5.66 60 19:33 14.03.2022
3233 Clouds 26 1018 36 10000 9.26 90 17:59 14.03.2022
3234 Clouds 26 1018 34 10000 8.23 90 17:41 14.03.2022
3235 Clouds 28 1016 30 10000 6.17 90 16:33 14.03.2022
3236 Clouds 31 1016 23 10000 6.17 90 14:52 14.03.2022
3237 Clouds 30 1016 21 10000 6.17 90 13:58 14.03.2022
3238 Clouds 29 1019 32 10000 4.12 70 11:27 14.03.2022
3239 Clouds 25 1021 47 10000 4.63 20 09:58 14.03.2022
3240 Clouds 25 1021 47 10000 4.63 50 09:38 14.03.2022
3241 Clouds 24 1021 50 10000 5.14 90 08:58 14.03.2022
3242 Clear 23 1021 53 10000 3.09 40 08:30 14.03.2022
3243 Clouds 19 1020 61 10000 1.54 30 06:47 14.03.2022
3244 Clear 16 1019 67 10000 1.54 270 03:27 14.03.2022
3245 Clear 19 1018 63 10000 2.57 330 01:42 14.03.2022
3246 Clear 18 1019 59 10000 2.57 360 00:29 14.03.2022
3247 Clear 21 1019 45 10000 3.6 20 21:51 13.03.2022
3248 Clear 22 1020 43 10000 4.12 30 21:22 13.03.2022
3249 Clear 22 1018 43 10000 5.14 50 20:46 13.03.2022
3250 Clouds 21 1012 42 10000 4.83 58 20:22 13.03.2022
3251 Clear 24 1018 38 10000 3.6 40 19:42 13.03.2022
3252 Clear 23 1018 35 10000 4.63 40 19:22 13.03.2022
3253 Clear 25 1016 31 10000 3.09 70 18:45 13.03.2022
3254 Clear 25 1016 31 10000 3.09 70 18:26 13.03.2022
3255 Clouds 26 1016 24 10000 6.69 60 17:38 13.03.2022
3256 Clouds 29 1014 18 10000 7.2 60 16:46 13.03.2022
3257 Clouds 29 1014 18 10000 7.2 60 16:25 13.03.2022
3258 Clouds 30 1014 16 10000 5.14 60 15:42 13.03.2022
3259 Clouds 30 1014 15 10000 7.2 80 14:41 13.03.2022
3260 Clouds 30 1015 20 10000 4.63 80 13:29 13.03.2022
3261 Clouds 29 1016 21 10000 7.2 80 12:23 13.03.2022
3262 Clouds 28 1017 24 10000 5.14 70 11:44 13.03.2022
3263 Clouds 27 1018 25 10000 6.69 50 10:50 13.03.2022
3264 Clouds 27 1018 25 10000 6.69 50 10:29 13.03.2022
3265 Clear 25 1019 36 10000 7.72 30 09:42 13.03.2022
3266 Clear 23 1020 46 10000 4.63 30 08:50 13.03.2022
3267 Clear 22 1020 50 10000 4.12 20 08:30 13.03.2022
3268 Clear 20 1020 64 10000 2.06 350 07:19 13.03.2022
3269 Clouds 15 1018 77 10000 2.06 310 04:58 13.03.2022
3270 Clear 18 1016 63 10000 2.57 10 01:47 13.03.2022
3271 Clear 18 1018 55 10000 3.09 20 23:26 12.03.2022
3272 Clear 19 1019 52 10000 3.09 40 21:39 12.03.2022
3273 Clear 22 1018 37 10000 4.63 40 20:19 12.03.2022
3274 Clear 23 1017 35 10000 5.66 40 19:46 12.03.2022
3275 Clear 24 1017 31 10000 5.66 40 18:40 12.03.2022
3276 Clouds 26 1015 26 10000 6.69 60 17:49 12.03.2022
3277 Clouds 28 1014 23 10000 7.72 70 16:28 12.03.2022
3278 Clouds 30 1015 21 10000 6.69 60 15:50 12.03.2022
3279 Clouds 29 1014 18 10000 7.2 60 15:21 12.03.2022
3280 Clouds 28 1014 21 10000 10.29 90 13:53 12.03.2022
3281 Clouds 30 1015 21 10000 7.72 90 12:28 12.03.2022
3282 Clouds 28 1016 24 10000 6.69 60 11:53 12.03.2022
3283 Clouds 28 1016 24 10000 8.23 60 11:32 12.03.2022
3284 Clouds 27 1018 30 10000 7.72 60 10:24 12.03.2022
3285 Clouds 24 1018 48 10000 6.17 50 09:43 12.03.2022
3286 Clouds 21 1019 69 10000 5.14 30 07:52 12.03.2022
3287 Clouds 19 1019 77 10000 3.6 40 06:30 12.03.2022
3288 Clouds 19 1018 72 10000 4.63 70 00:31 12.03.2022
3289 Clouds 20 1019 68 10000 4.12 60 23:41 11.03.2022
3290 Clouds 20 1019 68 10000 4.12 80 22:32 11.03.2022
3291 Clear 20 1019 49 10000 3.6 70 21:24 11.03.2022
3292 Clear 20 1019 49 10000 3.6 70 21:24 11.03.2022
3293 Clouds 22 1018 46 10000 5.14 60 20:46 11.03.2022
3294 Clear 21 1018 46 10000 3.6 80 20:26 11.03.2022
3295 Clear 23 1018 40 10000 4.12 70 19:32 11.03.2022
3296 Clear 24 1017 35 10000 4.63 40 18:30 11.03.2022
3297 Clouds 27 1016 28 10000 7.72 70 17:24 11.03.2022
3298 Clouds 28 1015 28 10000 6.69 80 15:59 11.03.2022
3299 Clouds 29 1016 24 10000 6.17 60 15:32 11.03.2022
3300 Clouds 29 1016 26 10000 4.12 90 13:42 11.03.2022
3301 Clouds 28 1016 28 10000 5.66 70 12:39 11.03.2022
3302 Clouds 28 1018 34 10000 3.09 0 12:19 11.03.2022
3303 Clouds 26 1018 39 10000 5.14 150 10:44 11.03.2022
3304 Clouds 26 1019 39 10000 7.2 60 09:34 11.03.2022
3305 Clouds 23 1020 48 10000 5.14 30 08:28 11.03.2022
3306 Clouds 21 1020 66 10000 4.12 90 07:48 11.03.2022
3307 Clouds 19 1019 74 10000 3.6 80 06:42 11.03.2022
3308 Clouds 18 1019 82 10000 2.57 20 04:37 11.03.2022
3309 Clouds 19 1021 68 10000 4.12 40 01:29 11.03.2022
3310 Clouds 21 1020 60 10000 6.69 60 22:32 10.03.2022
3311 Clouds 22 1019 56 10000 7.2 60 21:53 10.03.2022
3312 Clouds 22 1019 56 10000 7.2 60 21:25 10.03.2022
3313 Clear 22 1019 50 10000 7.2 60 20:36 10.03.2022
3314 Clear 24 1018 50 10000 7.2 70 19:20 10.03.2022
3315 Clouds 26 1016 31 10000 6.69 70 17:51 10.03.2022
3316 Clouds 28 1016 28 10000 6.69 90 16:53 10.03.2022
3317 Clouds 29 1016 23 10000 3.6 0 15:29 10.03.2022
3318 Clouds 28 1016 26 10000 4.12 60 13:46 10.03.2022
3319 Clouds 28 1017 30 10000 5.14 90 12:41 10.03.2022
3320 Clouds 27 1018 36 10000 5.14 30 11:28 10.03.2022
3321 Clouds 24 1020 48 10000 6.69 30 09:43 10.03.2022
3322 Clouds 22 1020 58 10000 5.14 90 08:23 10.03.2022
3323 Clouds 17 1018 85 10000 3.09 40 05:32 10.03.2022
3324 Clouds 18 1017 79 10000 4.63 80 02:33 10.03.2022
3325 Clear 20 1018 73 10000 6.69 70 23:37 09.03.2022
3326 Clear 19 1019 70 10000 5.66 50 22:28 09.03.2022
3327 Clear 20 1019 64 10000 5.66 60 21:47 09.03.2022
3328 Clouds 22 1018 58 10000 8.23 50 20:44 09.03.2022
3329 Clouds 24 1016 44 10000 6.69 50 18:50 09.03.2022
3330 Clouds 26 1016 37 10000 7.72 50 17:28 09.03.2022
3331 Clouds 27 1015 34 10000 8.23 70 16:39 09.03.2022
3332 Clouds 29 1015 32 10000 7.72 100 15:37 09.03.2022
3333 Clouds 29 1015 32 10000 4.63 0 14:23 09.03.2022
3334 Clouds 28 1015 35 10000 8.23 100 13:25 09.03.2022
3335 Clouds 27 1018 39 10000 4.63 50 12:20 09.03.2022
3336 Clouds 26 1017 44 10000 5.66 80 11:45 09.03.2022
3337 Clouds 24 1018 53 10000 4.63 90 10:50 09.03.2022
3338 Clouds 22 1020 60 10000 3.6 80 09:25 09.03.2022
3339 Clouds 22 1019 60 10000 6.17 90 08:43 09.03.2022
3340 Clear 16 1019 88 10000 2.06 10 05:36 09.03.2022
3341 Clouds 20 1018 68 10000 3.6 30 00:56 09.03.2022
3342 Clouds 20 1018 68 10000 6.17 60 23:37 08.03.2022
3343 Clouds 21 1018 64 10000 7.72 70 22:45 08.03.2022
3344 Clouds 21 1019 64 10000 7.2 70 21:46 08.03.2022
3345 Clouds 19 1013 60 10000 5.42 57 21:19 08.03.2022
3346 Clouds 20 1012 56 10000 5.85 61 20:18 08.03.2022
3347 Clouds 25 1016 40 10000 5.14 60 18:55 08.03.2022
3348 Clouds 26 1015 35 10000 5.66 60 17:58 08.03.2022
3349 Clouds 27 1014 34 10000 7.72 60 16:37 08.03.2022
3350 Clouds 30 1014 32 10000 6.69 90 14:24 08.03.2022
3351 Clouds 27 1005 22 10000 4.86 87 13:22 08.03.2022
3352 Clear 30 1006 24 10000 4.02 92 12:19 08.03.2022
3353 Clouds 28 1016 36 10000 4.12 60 11:41 08.03.2022
3354 Clouds 26 1018 44 10000 6.17 90 10:27 08.03.2022
3355 Clear 23 1019 54 10000 5.14 60 08:30 08.03.2022
3356 Clouds 17 1018 79 10000 1.54 50 05:48 08.03.2022
3357 Clouds 19 1020 82 10000 3.09 60 01:48 08.03.2022
3358 Clear 19 1020 72 10000 4.12 50 22:41 07.03.2022
3359 Clear 20 1020 64 10000 4.12 40 21:36 07.03.2022
3360 Clouds 21 1018 58 10000 4.63 60 20:55 07.03.2022
3361 Clouds 21 1018 58 10000 4.63 60 20:26 07.03.2022
3362 Clear 22 1018 53 10000 5.14 40 19:41 07.03.2022
3363 Clouds 24 1016 50 10000 6.17 50 18:48 07.03.2022
3364 Clouds 23 1016 50 10000 6.17 50 18:25 07.03.2022
3365 Clouds 27 1015 34 10000 7.72 80 16:56 07.03.2022
3366 Clouds 27 1015 34 10000 7.72 80 16:34 07.03.2022
3367 Clouds 29 1015 30 10000 4.63 90 14:40 07.03.2022
3368 Clouds 28 1016 33 10000 5.14 60 12:34 07.03.2022
3369 Clouds 26 1019 41 10000 6.17 60 10:48 07.03.2022
3370 Clouds 26 1019 44 10000 5.14 30 10:25 07.03.2022
3371 Clear 23 1013 46 10000 3.3 48 07:24 07.03.2022
3372 Clear 17 1019 77 10000 3.09 30 00:37 07.03.2022
3373 Clouds 18 1012 65 10000 2.93 40 00:19 07.03.2022
3374 Clouds 18 1013 63 10000 3.72 51 23:18 06.03.2022
3375 Clear 18 1020 72 10000 3.09 20 22:24 06.03.2022
3376 Clear 21 1019 54 10000 4.63 50 20:56 06.03.2022
3377 Clear 21 1019 56 10000 4.63 50 20:28 06.03.2022
3378 Clouds 21 1012 51 10000 5.53 64 19:31 06.03.2022
3379 Clouds 23 1017 49 10000 6.17 50 18:25 06.03.2022
3380 Clouds 22 1008 34 10000 6.36 72 17:22 06.03.2022
3381 Clouds 27 1015 33 10000 5.66 60 16:52 06.03.2022
3382 Clouds 25 1007 26 10000 6.55 78 16:24 06.03.2022
3383 Clouds 29 1006 21 10000 6.51 80 15:19 06.03.2022
3384 Clouds 29 1015 27 10000 7.72 50 14:41 06.03.2022
3385 Clouds 28 1015 26 10000 6.17 70 13:47 06.03.2022
3386 Clouds 28 1016 24 10000 9.26 120 12:36 06.03.2022
3387 Clouds 27 1018 34 10000 7.2 40 11:30 06.03.2022
3388 Clouds 25 1019 41 10000 8.23 60 10:30 06.03.2022
3389 Clouds 21 1020 64 10000 5.14 30 08:51 06.03.2022
3390 Clouds 21 1020 64 10000 5.14 30 08:27 06.03.2022
3391 Clouds 22 1014 45 10000 4.65 52 07:18 06.03.2022
3392 Clear 18 1018 72 10000 2.57 10 01:37 06.03.2022
3393 Clear 17 1019 72 10000 3.09 20 00:34 06.03.2022
3394 Clear 19 1018 63 10000 3.09 40 23:46 05.03.2022
3395 Clouds 18 1013 57 10000 4.31 50 23:18 05.03.2022
3396 Clear 20 1019 56 10000 2.06 50 22:31 05.03.2022
3397 Clear 20 1019 57 10000 3.09 50 21:24 05.03.2022
3398 Clear 23 1018 46 10000 6.69 60 19:56 05.03.2022
3399 Clouds 24 1017 38 10000 6.17 90 18:57 05.03.2022
3400 Clouds 24 1017 38 10000 6.17 90 18:36 05.03.2022
3401 Clouds 27 1015 22 10000 5.14 50 16:58 05.03.2022
3402 Clouds 28 1015 23 10000 6.17 50 15:49 05.03.2022
3403 Clouds 29 1015 22 10000 7.72 110 14:53 05.03.2022
3404 Clouds 29 1015 22 10000 7.72 110 14:34 05.03.2022
3405 Clouds 29 1016 21 10000 7.2 60 13:37 05.03.2022
3406 Clouds 28 1017 26 10000 5.66 50 12:33 05.03.2022
3407 Clouds 28 1010 19 10000 5.32 69 11:20 05.03.2022
3408 Clear 25 1019 41 10000 5.14 40 10:48 05.03.2022
3409 Clear 24 1020 43 10000 5.14 100 09:28 05.03.2022
3410 Clear 21 1020 54 10000 4.12 60 07:59 05.03.2022
3411 Clear 18 1020 65 10000 1.03 0 06:29 05.03.2022
3412 Clear 15 1019 72 10000 2.57 100 04:38 05.03.2022
3413 Clear 18 1021 55 10000 2.57 20 23:59 04.03.2022
3414 Clear 18 1021 55 10000 3.6 30 22:45 04.03.2022
3415 Clear 18 1021 55 10000 3.6 30 22:23 04.03.2022
3416 Clear 19 1021 48 10000 3.6 30 21:39 04.03.2022
3417 Clear 19 1020 48 10000 3.09 30 20:32 04.03.2022
3418 Clear 22 1018 36 10000 5.14 60 19:36 04.03.2022
3419 Clouds 24 1017 31 10000 5.14 70 18:47 04.03.2022
3420 Clear 25 1017 44 10000 6.17 60 18:22 04.03.2022
3421 Clouds 26 1016 25 10000 6.69 70 17:28 04.03.2022
3422 Clouds 28 1015 20 10000 6.69 60 15:31 04.03.2022
3423 Clouds 29 1015 24 10000 6.17 30 14:40 04.03.2022
3424 Clouds 30 1006 18 10000 5.43 79 13:27 04.03.2022
3425 Clouds 27 1018 28 10000 4.63 40 11:57 04.03.2022
3426 Clouds 26 1020 36 10000 4.12 50 11:28 04.03.2022
3427 Clear 27 1012 28 10000 4.69 61 10:23 04.03.2022
3428 Clouds 24 1020 42 10000 6.69 50 09:27 04.03.2022
3429 Clear 20 1021 56 10000 2.57 360 07:47 04.03.2022
3430 Clouds 15 1020 77 10000 3.09 130 05:44 04.03.2022
3431 Clear 20 1022 68 10000 2.57 10 00:43 04.03.2022
3432 Clouds 21 1021 52 10000 2.06 30 23:28 03.03.2022
3433 Clouds 19 1015 55 10000 4.4 50 22:18 03.03.2022
3434 Clouds 23 1021 43 10000 3.6 60 21:36 03.03.2022
3435 Clouds 23 1020 43 10000 5.14 60 20:32 03.03.2022
3436 Clouds 23 1019 42 10000 4.12 80 19:22 03.03.2022
3437 Clouds 23 1018 40 10000 6.17 50 18:25 03.03.2022
3438 Clouds 25 1017 34 10000 6.69 50 17:31 03.03.2022
3439 Clouds 27 1017 32 10000 7.72 100 16:38 03.03.2022
3440 Clouds 26 1008 24 10000 7.27 77 15:43 03.03.2022
3441 Clouds 29 1016 21 10000 6.17 90 14:44 03.03.2022
3442 Clouds 29 1016 20 10000 6.17 90 14:25 03.03.2022
3443 Clouds 28 1018 20 10000 5.66 90 12:32 03.03.2022
3444 Clear 27 1021 32 10000 5.66 70 11:23 03.03.2022
3445 Clear 28 1012 18 10000 5.06 62 10:21 03.03.2022
3446 Clear 22 1022 42 10000 5.66 40 08:42 03.03.2022
3447 Clear 18 1022 48 10000 6.17 30 06:55 03.03.2022
3448 Clear 13 1021 76 10000 2.06 330 05:22 03.03.2022
3449 Clear 20 1020 56 10000 1.03 0 23:57 02.03.2022
3450 Clear 20 1021 56 10000 3.6 40 22:59 02.03.2022
3451 Clear 20 1021 56 10000 3.6 40 22:40 02.03.2022
3452 Clear 19 1021 55 10000 3.6 30 21:22 02.03.2022
3453 Clear 21 1020 50 10000 4.63 40 20:26 02.03.2022
3454 Clear 22 1019 46 10000 5.14 50 19:41 02.03.2022
3455 Clouds 22 1020 46 10000 4.12 50 19:23 02.03.2022
3456 Clouds 23 1018 43 10000 5.66 50 18:35 02.03.2022
3457 Clouds 24 1018 38 10000 7.2 50 17:45 02.03.2022
3458 Clouds 25 1017 34 10000 7.2 40 16:53 02.03.2022
3459 Clouds 24 1009 28 10000 7.56 68 16:18 02.03.2022
3460 Clouds 27 1016 33 10000 9.77 60 14:32 02.03.2022
3461 Clouds 26 1018 36 10000 9.26 70 12:58 02.03.2022
3462 Clouds 26 1018 36 10000 9.26 70 12:35 02.03.2022
3463 Clouds 26 1019 39 10000 10.8 50 11:28 02.03.2022
3464 Clouds 23 1020 49 10000 7.2 60 10:58 02.03.2022
3465 Clouds 23 1021 54 10000 8.23 70 09:40 02.03.2022
3466 Clouds 21 1022 68 10000 6.17 40 08:45 02.03.2022
3467 Clouds 19 1022 82 10000 4.63 50 07:25 02.03.2022
3468 Fog 15 1020 90 10000 4.12 90 05:42 02.03.2022
3469 Clouds 19 1019 68 10000 0 0 00:51 02.03.2022
3470 Clouds 19 1020 68 10000 3.09 40 23:40 01.03.2022
3471 Clouds 19 1021 68 10000 3.6 50 22:42 01.03.2022
3472 Clouds 20 1021 60 10000 3.6 50 21:56 01.03.2022
3473 Clouds 22 1019 52 10000 5.14 70 20:56 01.03.2022
3474 Clouds 22 1020 56 10000 4.63 50 20:24 01.03.2022
3475 Clouds 22 1019 53 10000 5.66 60 19:21 01.03.2022
3476 Clouds 23 1019 49 10000 6.69 60 18:32 01.03.2022
3477 Clouds 25 1018 41 10000 7.72 60 17:55 01.03.2022
3478 Clouds 26 1017 34 10000 7.72 60 16:54 01.03.2022
3479 Clouds 26 1017 36 10000 8.23 70 15:59 01.03.2022
3480 Clouds 27 1018 57 10000 6.17 60 14:55 01.03.2022
3481 Clouds 27 1018 57 10000 6.17 60 14:34 01.03.2022
3482 Clouds 27 1018 57 10000 6.17 50 13:27 01.03.2022
3483 Clouds 27 1019 54 10000 7.2 60 12:58 01.03.2022
3484 Clouds 26 1020 41 10000 6.69 50 12:22 01.03.2022
3485 Clouds 25 1021 50 10000 6.17 50 10:27 01.03.2022
3486 Clouds 21 1023 68 10000 5.14 30 08:41 01.03.2022
3487 Clouds 20 1022 75 10000 5.14 90 07:36 01.03.2022
3488 Clouds 17 1021 88 10000 2.57 50 04:50 01.03.2022
3489 Clouds 18 1018 77 10000 2.57 360 01:43 01.03.2022
3490 Clouds 18 1021 77 10000 2.57 30 23:48 28.02.2022
3491 Clouds 19 1020 70 10000 4.63 40 22:58 28.02.2022
3492 Clouds 20 1022 68 10000 4.12 50 21:59 28.02.2022
3493 Clouds 20 1015 64 10000 5.74 69 21:24 28.02.2022
3494 Clouds 24 1019 46 10000 10.29 90 19:52 28.02.2022
3495 Clouds 24 1020 46 10000 8.75 70 19:27 28.02.2022
3496 Clouds 24 1018 43 10000 10.29 90 18:38 28.02.2022
3497 Clouds 26 1018 38 10000 8.75 60 17:24 28.02.2022
3498 Clouds 27 1017 35 10000 8.23 70 16:33 28.02.2022
3499 Clouds 28 1016 34 10000 7.72 80 15:23 28.02.2022
3500 Clouds 28 1016 33 10000 8.23 60 14:31 28.02.2022
3501 Clouds 28 1017 33 10000 7.72 60 13:34 28.02.2022
3502 Clouds 28 1018 30 10000 9.26 60 12:41 28.02.2022
3503 Clouds 27 1019 32 10000 7.72 90 11:44 28.02.2022
3504 Clouds 26 1020 36 10000 7.72 90 10:48 28.02.2022
3505 Clouds 26 1021 36 10000 6.17 40 10:19 28.02.2022
3506 Clouds 25 1021 44 10000 10.29 90 09:32 28.02.2022
3507 Clouds 23 1021 54 10000 6.17 30 08:29 28.02.2022
3508 Clouds 20 1022 73 10000 1.54 40 07:28 28.02.2022
3509 Clouds 18 1020 82 10000 0.51 40 04:44 28.02.2022
3510 Clouds 17 1020 82 10000 0.51 40 04:23 28.02.2022
3511 Clear 20 1021 61 10000 3.6 80 23:27 27.02.2022
3512 Clear 20 1021 59 10000 2.57 70 22:33 27.02.2022
3513 Clear 21 1021 49 10000 4.12 50 21:51 27.02.2022
3514 Clear 22 1020 40 10000 3.09 60 20:59 27.02.2022
3515 Clear 22 1020 40 10000 3.09 60 20:27 27.02.2022
3516 Clear 22 1020 38 10000 3.09 60 19:57 27.02.2022
3517 Clear 22 1019 38 10000 4.12 40 19:27 27.02.2022
3518 Clouds 25 1018 33 10000 4.12 70 18:47 27.02.2022
3519 Clouds 26 1018 30 10000 5.14 90 17:56 27.02.2022
3520 Clouds 28 1017 25 10000 8.23 90 16:54 27.02.2022
3521 Clouds 29 1017 24 10000 7.2 50 16:21 27.02.2022
3522 Clouds 29 1017 24 10000 14 60 13:25 27.02.2022
3523 Clouds 29 1018 23 10000 7.72 60 12:32 27.02.2022
3524 Clouds 27 1020 28 10000 6.69 70 10:56 27.02.2022
3525 Clouds 26 1012 21 10000 6.42 59 10:20 27.02.2022
3526 Clouds 25 1021 40 10000 5.14 40 09:50 27.02.2022
3527 Clear 24 1022 53 10000 3.09 70 09:20 27.02.2022
3528 Clouds 21 1022 70 10000 5.14 90 07:54 27.02.2022
3529 Clouds 16 1021 91 10000 2.57 320 05:38 27.02.2022
3530 Clouds 16 1015 76 10000 1.8 30 02:21 27.02.2022
3531 Clouds 18 1021 72 10000 3.09 30 23:30 26.02.2022
3532 Clouds 18 1021 72 10000 3.09 30 23:30 26.02.2022
3533 Clouds 19 1022 69 10000 3.6 20 22:31 26.02.2022
3534 Clouds 20 1022 68 10000 3.09 40 21:18 26.02.2022
3535 Clouds 21 1021 60 10000 6.17 50 20:27 26.02.2022
3536 Clouds 22 1020 56 10000 7.72 80 19:52 26.02.2022
3537 Clouds 21 1020 56 10000 7.72 80 19:29 26.02.2022
3538 Clouds 24 1018 41 10000 6.17 80 17:52 26.02.2022
3539 Clouds 24 1019 41 10000 6.17 80 17:29 26.02.2022
3540 Clouds 24 1019 41 10000 6.17 80 17:29 26.02.2022
3541 Clouds 24 1009 30 10000 6.8 85 16:19 26.02.2022
3542 Clouds 27 1018 34 10000 9.26 80 15:25 26.02.2022
3543 Clouds 27 1018 27 10000 6.69 70 14:57 26.02.2022
3544 Clouds 28 1018 26 10000 6.17 90 14:38 26.02.2022
3545 Clouds 28 1018 28 10000 6.17 100 13:40 26.02.2022
3546 Clouds 27 1019 33 10000 4.63 50 12:52 26.02.2022
3547 Clouds 28 1020 34 10000 4.63 50 11:38 26.02.2022
3548 Clouds 26 1021 41 10000 3.09 120 10:56 26.02.2022
3549 Clouds 22 1023 64 10000 2.06 0 09:22 26.02.2022
3550 Clouds 20 1022 73 10000 4.12 40 07:57 26.02.2022
3551 Clouds 17 1016 88 10000 1.43 22 03:21 26.02.2022
3552 Clouds 19 1021 77 10000 3.09 70 23:35 25.02.2022
3553 Clouds 19 1017 84 10000 3.89 44 22:18 25.02.2022
3554 Clouds 19 1021 72 10000 5.14 80 21:29 25.02.2022
3555 Clouds 19 1022 70 10000 2.06 30 20:33 25.02.2022
3556 Clouds 20 1020 68 10000 3.09 100 19:53 25.02.2022
3557 Clouds 22 1019 54 10000 5.66 70 17:48 25.02.2022
3558 Clouds 24 1018 52 10000 6.69 50 16:46 25.02.2022
3559 Clouds 24 1018 52 10000 6.17 60 15:49 25.02.2022
3560 Clouds 24 1018 52 10000 6.17 60 15:23 25.02.2022
3561 Clouds 22 1010 45 10000 6.61 80 15:23 25.02.2022
3562 Clouds 24 1018 51 10000 5.66 50 14:49 25.02.2022
3563 Clouds 24 1019 53 10000 6.17 50 14:18 25.02.2022
3564 Clouds 24 1020 53 10000 6.17 70 13:20 25.02.2022
3565 Clouds 23 1020 53 10000 7.72 80 11:52 25.02.2022
3566 Clouds 24 1021 57 10000 6.17 60 11:18 25.02.2022
3567 Clouds 22 1023 68 10000 4.63 50 10:23 25.02.2022
3568 Clouds 21 1022 70 10000 4.63 60 09:42 25.02.2022
3569 Clouds 21 1022 70 10000 4.63 60 09:42 25.02.2022
3570 Clouds 17 1023 94 10000 4.12 60 07:48 25.02.2022
3571 Clouds 16 1022 94 10000 0 0 06:51 25.02.2022
3572 Mist 14 1021 94 10000 2.57 230 05:40 25.02.2022
3573 Clouds 17 1015 81 10000 1.57 358 01:23 25.02.2022
3574 Clouds 19 1021 85 10000 5.14 60 22:31 24.02.2022
3575 Clouds 19 1024 82 10000 2.57 30 21:43 24.02.2022
3576 Clouds 18 1017 76 10000 3.66 52 21:21 24.02.2022
3577 Clouds 20 1023 77 10000 3.09 40 20:44 24.02.2022
3578 Clouds 20 1021 77 10000 5.14 60 19:31 24.02.2022
3579 Clouds 19 1015 68 10000 5.27 61 18:20 24.02.2022
3580 Clouds 21 1020 71 10000 6.17 60 17:54 24.02.2022
3581 Clouds 20 1013 61 10000 4.99 54 17:19 24.02.2022
3582 Clouds 22 1019 70 10000 5.14 60 16:28 24.02.2022
3583 Clouds 22 1019 68 10000 6.17 60 15:43 24.02.2022
3584 Clouds 22 1019 64 10000 5.66 90 14:45 24.02.2022
3585 Clouds 23 1019 66 10000 5.14 90 13:59 24.02.2022
3586 Clouds 23 1019 64 10000 5.14 90 13:37 24.02.2022
3587 Clouds 22 1021 66 10000 5.66 50 11:38 24.02.2022
3588 Clouds 22 1022 68 10000 5.14 60 10:32 24.02.2022
3589 Clouds 20 1023 83 10000 3.09 40 08:43 24.02.2022
3590 Clouds 20 1017 79 10000 1.95 77 07:22 24.02.2022
3591 Clouds 17 1021 94 10000 2.06 160 05:40 24.02.2022
3592 Clouds 16 1022 94 10000 0 0 00:31 24.02.2022
3593 Rain 17 1022 94 10000 2.06 310 22:22 23.02.2022
3594 Rain 17 1021 94 10000 3.09 160 20:45 23.02.2022
3595 Rain 17 1021 94 10000 3.09 160 20:26 23.02.2022
3596 Rain 17 1021 94 10000 3.6 230 19:35 23.02.2022
3597 Rain 19 1020 85 10000 2.06 280 18:27 23.02.2022
3598 Thunderstorm 19 1018 85 10000 2.57 330 16:33 23.02.2022
3599 Clouds 21 1008 36 10000 3.56 86 14:22 23.02.2022
3600 Clouds 26 1017 50 10000 4.12 70 12:37 23.02.2022
3601 Clouds 25 1020 53 10000 3.6 50 11:23 23.02.2022
3602 Clouds 25 1019 50 10000 2.57 0 10:24 23.02.2022
3603 Clouds 22 1021 60 10000 4.12 20 08:56 23.02.2022
3604 Clouds 20 1021 73 10000 3.6 10 07:56 23.02.2022
3605 Clouds 16 1019 94 10000 2.06 250 03:29 23.02.2022
3606 Clear 17 1018 94 10000 1.54 340 00:19 23.02.2022
3607 Clear 17 1019 94 10000 2.06 300 23:34 22.02.2022
3608 Clouds 17 1020 94 10000 1.54 270 22:28 22.02.2022
3609 Clouds 18 1020 91 10000 0.51 0 21:48 22.02.2022
3610 Rain 17 1021 94 10000 1.03 0 21:24 22.02.2022
3611 Clouds 18 1019 94 10000 0 0 20:47 22.02.2022
3612 Rain 19 1020 88 10000 2.57 200 20:28 22.02.2022
3613 Clouds 18 1019 91 10000 1.54 220 19:34 22.02.2022
3614 Clouds 19 1018 87 10000 3.09 210 18:50 22.02.2022
3615 Clouds 18 1018 87 10000 3.6 250 17:36 22.02.2022
3616 Clouds 18 1018 88 10000 5.14 260 17:18 22.02.2022
3617 Clouds 17 1017 94 10000 5.14 270 16:26 22.02.2022
3618 Clouds 17 1016 94 10000 1.54 210 15:37 22.02.2022
3619 Thunderstorm 17 1016 94 10000 3.6 330 14:42 22.02.2022
3620 Clouds 26 1018 55 10000 3.09 210 11:41 22.02.2022
3621 Clouds 25 1020 61 10000 3.09 200 10:24 22.02.2022
3622 Clouds 21 1020 68 10000 1.54 250 07:43 22.02.2022
3623 Clouds 19 1020 77 10000 3.6 230 07:25 22.02.2022
3624 Clouds 19 1020 77 10000 3.6 230 07:25 22.02.2022
3625 Clouds 18 1018 77 10000 1.54 220 02:51 22.02.2022
3626 Clouds 20 1018 68 10000 1.03 50 00:48 22.02.2022
3627 Clouds 20 1018 69 10000 1.54 20 22:38 21.02.2022
3628 Clouds 21 1019 66 10000 2.57 360 21:25 21.02.2022
3629 Clouds 21 1019 64 10000 4.12 350 20:19 21.02.2022
3630 Clouds 21 1018 62 10000 4.63 320 18:40 21.02.2022
3631 Clouds 21 1016 60 10000 4.63 240 16:47 21.02.2022
3632 Clouds 24 1016 43 10000 1.03 0 14:24 21.02.2022
3633 Clouds 26 1016 44 10000 3.6 60 13:56 21.02.2022
3634 Clouds 27 1017 47 10000 4.63 190 12:58 21.02.2022
3635 Clouds 27 1018 39 10000 1.54 0 12:22 21.02.2022
3636 Clouds 25 1019 44 10000 3.09 210 10:35 21.02.2022
3637 Clouds 23 1021 49 10000 6.69 300 08:31 21.02.2022
3638 Clear 17 1020 88 10000 2.06 240 02:31 21.02.2022
3639 Clouds 19 1020 75 10000 1.03 0 22:45 20.02.2022
3640 Clouds 19 1014 66 10000 3.16 62 22:18 20.02.2022
3641 Clouds 19 1021 82 10000 3.09 90 21:41 20.02.2022
3642 Clouds 22 1020 63 10000 5.14 90 20:51 20.02.2022
3643 Rain 21 1014 65 10000 4.07 52 20:21 20.02.2022
3644 Clouds 23 1019 51 10000 4.12 50 19:21 20.02.2022
3645 Clouds 25 1018 38 10000 2.57 120 18:42 20.02.2022
3646 Clouds 22 1011 46 10000 5.82 58 18:23 20.02.2022
3647 Clouds 26 1016 35 10000 7.72 70 17:30 20.02.2022
3648 Clouds 30 1016 20 10000 7.2 60 15:29 20.02.2022
3649 Clouds 30 1016 21 10000 9.26 90 14:33 20.02.2022
3650 Clouds 30 1007 15 10000 6.87 70 12:51 20.02.2022
3651 Clouds 27 1018 34 10000 9.26 90 11:56 20.02.2022
3652 Clouds 26 1019 41 10000 5.14 40 10:21 20.02.2022
3653 Clouds 25 1019 47 10000 5.66 90 09:52 20.02.2022
3654 Clouds 20 1021 83 10000 1.54 180 06:44 20.02.2022
3655 Clouds 19 1020 77 10000 2.06 270 00:33 20.02.2022
3656 Clouds 19 1020 77 10000 2.06 230 23:42 19.02.2022
3657 Rain 19 1020 75 10000 2.06 280 22:25 19.02.2022
3658 Clouds 19 1018 72 10000 3.09 230 21:54 19.02.2022
3659 Clouds 18 1020 77 10000 2.57 230 20:48 19.02.2022
3660 Clouds 21 1018 58 10000 5.14 210 19:36 19.02.2022
3661 Clouds 22 1018 54 10000 4.12 210 18:41 19.02.2022
3662 Clouds 22 1017 49 10000 5.66 340 18:19 19.02.2022
3663 Clouds 24 1016 47 10000 7.2 20 17:33 19.02.2022
3664 Clouds 28 1014 36 10000 5.66 50 15:59 19.02.2022
3665 Clouds 28 1014 35 10000 6.69 40 14:56 19.02.2022
3666 Clouds 29 1015 37 10000 5.66 60 13:58 19.02.2022
3667 Clouds 27 1018 41 10000 4.63 60 11:59 19.02.2022
3668 Clouds 27 1018 41 10000 3.6 60 11:36 19.02.2022
3669 Clouds 25 1019 55 10000 3.6 70 09:27 19.02.2022
3670 Clouds 20 1019 77 10000 2.57 350 06:51 19.02.2022
3671 Clouds 19 1019 77 10000 0 0 00:55 19.02.2022
3672 Clouds 18 1019 79 10000 2.57 220 22:54 18.02.2022
3673 Rain 18 1020 82 10000 3.6 230 21:28 18.02.2022
3674 Clouds 18 1020 82 10000 3.09 260 20:31 18.02.2022
3675 Thunderstorm 20 1017 70 10000 5.14 180 19:51 18.02.2022
3676 Clouds 22 1016 60 10000 2.57 180 18:39 18.02.2022
3677 Clouds 23 1016 53 10000 2.57 220 18:19 18.02.2022
3678 Clouds 26 1015 41 10000 4.12 110 17:20 18.02.2022
3679 Clouds 28 1014 36 10000 5.14 60 14:39 18.02.2022
3680 Clouds 28 1015 34 10000 3.09 20 13:47 18.02.2022
3681 Clouds 26 1017 41 10000 2.57 330 12:51 18.02.2022
3682 Clouds 26 1018 44 10000 2.57 60 11:58 18.02.2022
3683 Clouds 25 1019 47 10000 5.14 90 10:58 18.02.2022
3684 Clouds 24 1020 60 10000 2.06 30 09:29 18.02.2022
3685 Clouds 18 1019 88 10000 1.03 0 06:50 18.02.2022
3686 Clouds 17 1018 88 10000 0 0 05:36 18.02.2022
3687 Clear 22 1018 58 10000 5.66 60 22:43 17.02.2022
3688 Clear 22 1018 51 10000 6.69 80 21:42 17.02.2022
3689 Clear 22 1017 49 10000 3.09 50 20:52 17.02.2022
3690 Clear 23 1017 46 10000 3.09 50 20:33 17.02.2022
3691 Clouds 23 1016 46 10000 3.6 360 19:43 17.02.2022
3692 Clouds 25 1015 35 10000 4.63 50 18:34 17.02.2022
3693 Clouds 26 1014 33 10000 5.66 50 17:46 17.02.2022
3694 Clouds 29 1013 24 10000 7.2 70 16:20 17.02.2022
3695 Clouds 30 1013 21 10000 7.72 80 14:39 17.02.2022
3696 Clouds 30 1014 17 10000 3.6 100 13:47 17.02.2022
3697 Clouds 28 1016 30 10000 3.09 70 11:57 17.02.2022
3698 Clouds 28 1017 32 10000 3.09 350 11:21 17.02.2022
3699 Clouds 24 1019 50 10000 2.06 110 08:37 17.02.2022
3700 Clear 19 1019 63 10000 2.06 360 00:20 17.02.2022
3701 Clouds 21 1019 56 10000 3.09 30 22:38 16.02.2022
3702 Clear 22 1019 53 10000 3.09 60 20:32 16.02.2022
3703 Clouds 24 1016 41 10000 4.63 60 19:32 16.02.2022
3704 Clouds 24 1016 40 10000 6.17 50 18:35 16.02.2022
3705 Clouds 24 1015 42 10000 5.14 80 17:33 16.02.2022
3706 Clouds 29 1014 24 10000 6.17 70 15:24 16.02.2022
3707 Clouds 29 1015 24 10000 5.66 50 14:46 16.02.2022
3708 Clouds 28 1017 30 10000 4.12 90 12:32 16.02.2022
3709 Clouds 27 1020 34 10000 4.12 100 11:51 16.02.2022
3710 Clouds 26 1020 47 10000 3.6 80 10:37 16.02.2022
3711 Clear 27 1011 31 10000 2.23 66 10:18 16.02.2022
3712 Clear 18 1020 77 10000 2.06 10 06:44 16.02.2022
3713 Clouds 17 1021 88 10000 0 0 03:41 16.02.2022
3714 Clouds 20 1020 64 10000 3.6 30 22:35 15.02.2022
3715 Clouds 21 1020 64 10000 4.12 20 21:59 15.02.2022
3716 Clouds 21 1020 64 10000 3.09 30 21:39 15.02.2022
3717 Clouds 18 1015 62 10000 3 47 21:21 15.02.2022
3718 Clouds 21 1019 68 10000 5.14 60 20:48 15.02.2022
3719 Clouds 22 1018 64 10000 5.14 70 19:48 15.02.2022
3720 Clouds 23 1018 53 10000 5.66 70 18:41 15.02.2022
3721 Clouds 23 1018 49 10000 5.66 80 18:18 15.02.2022
3722 Clouds 24 1017 43 10000 6.69 90 17:46 15.02.2022
3723 Clouds 27 1016 39 10000 7.2 90 16:30 15.02.2022
3724 Clouds 25 1007 25 10000 4.8 65 14:39 15.02.2022
3725 Clouds 24 1007 23 10000 4.02 79 13:26 15.02.2022
3726 Clouds 29 1009 24 10000 3.15 81 11:52 15.02.2022
3727 Clouds 22 1020 56 10000 2.57 120 10:39 15.02.2022
3728 Clouds 20 1022 73 10000 2.57 50 09:25 15.02.2022
3729 Clouds 18 1021 76 10000 2.57 20 06:48 15.02.2022
3730 Clouds 18 1021 68 10000 2.57 50 00:26 15.02.2022
3731 Rain 21 1022 56 10000 3.6 50 21:59 14.02.2022
3732 Rain 21 1021 60 10000 2.57 50 21:24 14.02.2022
3733 Rain 21 1020 56 10000 3.09 40 20:23 14.02.2022
3734 Clouds 22 1019 51 10000 4.12 40 19:30 14.02.2022
3735 Clear 23 1018 49 10000 5.14 40 18:27 14.02.2022
3736 Clouds 25 1017 42 10000 5.66 30 17:43 14.02.2022
3737 Clouds 25 1017 42 10000 5.66 30 17:43 14.02.2022
3738 Clouds 24 1017 42 10000 5.66 30 17:43 14.02.2022
3739 Clouds 25 1016 41 10000 6.69 40 17:23 14.02.2022
3740 Clouds 27 1015 34 10000 6.69 80 15:58 14.02.2022
3741 Clouds 29 1015 30 10000 5.66 120 13:40 14.02.2022
3742 Clouds 28 1016 28 10000 3.09 60 13:22 14.02.2022
3743 Clouds 28 1016 34 10000 3.6 110 12:32 14.02.2022
3744 Clouds 27 1017 35 10000 4.63 20 11:47 14.02.2022
3745 Clouds 25 1018 42 10000 2.57 30 10:31 14.02.2022
3746 Clear 23 1019 53 10000 3.09 0 08:37 14.02.2022
3747 Clouds 20 1019 64 10000 3.6 60 07:27 14.02.2022
3748 Clouds 19 1019 61 10000 6.17 80 23:41 13.02.2022
3749 Clouds 20 1019 58 10000 4.63 40 22:42 13.02.2022
3750 Clear 20 1020 56 10000 4.63 40 22:23 13.02.2022
3751 Clouds 21 1018 54 10000 5.14 40 21:29 13.02.2022
3752 Clear 21 1018 54 10000 5.14 40 20:33 13.02.2022
3753 Clear 22 1017 54 10000 5.14 50 19:29 13.02.2022
3754 Clear 23 1016 51 10000 6.17 50 18:44 13.02.2022
3755 Clouds 24 1015 45 10000 8.23 90 17:57 13.02.2022
3756 Clouds 27 1014 35 10000 7.72 80 15:54 13.02.2022
3757 Clouds 27 1014 35 10000 7.72 80 15:54 13.02.2022
3758 Clouds 29 1015 32 10000 6.17 60 15:20 13.02.2022
3759 Clouds 29 1015 32 10000 2.06 100 14:22 13.02.2022
3760 Clouds 28 1016 34 10000 5.14 60 12:50 13.02.2022
3761 Clouds 28 1017 36 10000 9.26 60 11:35 13.02.2022
3762 Clouds 25 1018 44 10000 5.66 80 10:32 13.02.2022
3763 Clouds 24 1019 55 10000 2.57 0 09:45 13.02.2022
3764 Clouds 20 1020 73 10000 0 0 07:48 13.02.2022
3765 Clouds 18 1020 82 10000 4.12 80 00:35 13.02.2022
3766 Clouds 17 1014 72 10000 2.56 24 23:42 12.02.2022
3767 Clouds 19 1021 63 10000 3.6 20 22:33 12.02.2022
3768 Rain 19 1021 63 10000 3.6 30 21:30 12.02.2022
3769 Clouds 20 1019 58 10000 4.12 40 20:45 12.02.2022
3770 Clouds 22 1018 56 10000 5.14 90 19:30 12.02.2022
3771 Rain 22 1018 56 10000 5.14 40 18:53 12.02.2022
3772 Clouds 22 1018 56 10000 5.14 40 18:35 12.02.2022
3773 Clouds 26 1016 41 10000 7.2 70 17:19 12.02.2022
3774 Clouds 26 1015 41 10000 6.69 70 16:26 12.02.2022
3775 Clouds 27 1015 39 10000 6.69 70 15:51 12.02.2022
3776 Clouds 28 1015 34 10000 5.14 70 14:31 12.02.2022
3777 Clouds 29 1006 23 10000 5.41 75 13:22 12.02.2022
3778 Clouds 26 1009 28 10000 4.58 69 11:18 12.02.2022
3779 Clouds 24 1019 46 10000 4.63 60 09:51 12.02.2022
3780 Clouds 24 1019 46 10000 4.63 60 09:27 12.02.2022
3781 Clouds 23 1020 53 10000 3.6 80 08:45 12.02.2022
3782 Clouds 17 1019 77 10000 3.09 80 05:40 12.02.2022
3783 Clouds 16 1019 82 10000 2.06 20 04:33 12.02.2022
3784 Clouds 16 1014 79 10000 2.05 26 02:18 12.02.2022
3785 Clouds 19 1021 63 10000 4.12 50 22:55 11.02.2022
3786 Clouds 19 1015 73 10000 3.21 53 22:18 11.02.2022
3787 Clear 21 1020 56 10000 4.63 40 20:43 11.02.2022
3788 Clouds 21 1016 56 10000 5.14 60 19:48 11.02.2022
3789 Clouds 21 1019 56 10000 4.12 40 19:27 11.02.2022
3790 Clouds 22 1018 49 10000 5.66 40 18:28 11.02.2022
3791 Clouds 24 1017 43 10000 6.17 40 17:26 11.02.2022
3792 Clouds 26 1016 37 10000 7.2 60 16:26 11.02.2022
3793 Clouds 27 1017 35 10000 6.17 50 14:57 11.02.2022
3794 Clouds 27 1017 35 10000 6.17 50 14:36 11.02.2022
3795 Clouds 22 1007 34 10000 3.22 26 14:18 11.02.2022
3796 Clouds 27 1016 39 10000 5.66 60 13:39 11.02.2022
3797 Clouds 26 1017 41 10000 4.12 50 12:20 11.02.2022
3798 Clouds 24 1020 50 10000 4.63 50 10:29 11.02.2022
3799 Clear 23 1021 100 10000 5.66 40 09:22 11.02.2022
3800 Clouds 22 1020 51 10000 5.14 360 08:28 11.02.2022
3801 Clear 21 1021 64 10000 3.09 20 07:39 11.02.2022
3802 Clear 17 1018 77 10000 2.57 10 02:40 11.02.2022
3803 Clouds 18 1019 68 10000 2.57 30 02:20 11.02.2022
3804 Clear 20 1020 56 10000 1.54 30 23:40 10.02.2022
3805 Clear 19 1021 63 10000 3.09 30 21:55 10.02.2022
3806 Clouds 19 1015 58 10000 4.01 49 21:26 10.02.2022
3807 Clouds 20 1019 54 10000 3.09 20 20:48 10.02.2022
3808 Clouds 22 1018 49 10000 5.14 30 19:49 10.02.2022
3809 Clouds 22 1019 49 10000 5.14 40 19:20 10.02.2022
3810 Clouds 25 1017 41 10000 6.17 60 17:43 10.02.2022
3811 Clouds 25 1017 38 10000 7.2 70 17:20 10.02.2022
3812 Clouds 27 1016 34 10000 6.69 90 16:23 10.02.2022
3813 Clouds 27 1016 32 10000 5.14 70 15:37 10.02.2022
3814 Clouds 27 1016 34 10000 6.17 70 15:18 10.02.2022
3815 Clouds 27 1016 29 10000 4.12 120 14:33 10.02.2022
3816 Clouds 27 1016 29 10000 6.69 90 13:33 10.02.2022
3817 Clouds 27 1017 33 10000 4.63 20 12:53 10.02.2022
3818 Clouds 26 1019 41 10000 3.6 10 11:48 10.02.2022
3819 Clouds 25 1020 41 10000 4.63 70 11:28 10.02.2022
3820 Clear 24 1021 43 10000 4.12 40 10:21 10.02.2022
3821 Clouds 25 1013 28 10000 4.2 55 09:27 10.02.2022
3822 Clear 24 1014 33 10000 4.28 50 08:21 10.02.2022
3823 Clouds 14 1021 82 8000 1.54 320 06:19 10.02.2022
3824 Clear 17 1019 67 10000 1.03 340 02:28 10.02.2022
3825 Clear 17 1020 63 10000 1.03 360 00:51 10.02.2022
3826 Clear 17 1020 63 10000 1.03 360 00:30 10.02.2022
3827 Clear 19 1020 59 10000 2.06 30 23:49 09.02.2022
3828 Clear 19 1021 59 10000 2.06 10 22:51 09.02.2022
3829 Clear 19 1021 59 10000 2.06 10 22:30 09.02.2022
3830 Clear 20 1020 52 10000 2.06 50 21:45 09.02.2022
3831 Clear 20 1020 52 10000 2.06 50 21:24 09.02.2022
3832 Clear 21 1020 49 10000 4.63 40 20:41 09.02.2022
3833 Clear 19 1021 52 10000 3.6 40 20:21 09.02.2022
3834 Clear 19 1021 52 10000 3.6 40 20:21 09.02.2022
3835 Clouds 22 1019 43 10000 5.14 50 19:39 09.02.2022
3836 Clouds 23 1018 34 10000 6.69 90 17:50 09.02.2022
3837 Clouds 25 1017 40 10000 7.72 100 16:54 09.02.2022
3838 Clouds 26 1016 37 10000 5.14 70 15:55 09.02.2022
3839 Clouds 27 1017 29 10000 6.17 80 15:19 09.02.2022
3840 Clouds 25 1018 38 10000 5.14 40 12:42 09.02.2022
3841 Clouds 24 1021 38 10000 7.72 50 11:20 09.02.2022
3842 Clouds 24 1020 40 10000 8.23 40 10:32 09.02.2022
3843 Clouds 22 1021 51 10000 7.2 80 09:45 09.02.2022
3844 Clouds 22 1022 53 10000 6.69 40 09:20 09.02.2022
3845 Clouds 21 1021 58 10000 6.17 50 08:26 09.02.2022
3846 Clouds 16 1020 71 10000 2.57 90 05:37 09.02.2022
3847 Clear 17 1020 67 10000 2.06 360 03:51 09.02.2022
3848 Clear 17 1021 67 10000 2.06 360 01:33 09.02.2022
3849 Clear 17 1021 67 10000 3.6 10 23:39 08.02.2022
3850 Clear 19 1020 63 10000 4.12 40 22:53 08.02.2022
3851 Clear 18 1022 63 10000 3.6 40 22:22 08.02.2022
3852 Clear 18 1022 63 10000 3.6 50 21:58 08.02.2022
3853 Clear 18 1021 63 10000 3.6 40 21:22 08.02.2022
3854 Clear 18 1021 68 10000 3.6 40 20:56 08.02.2022
3855 Clear 20 1021 56 10000 4.12 40 20:23 08.02.2022
3856 Clouds 21 1019 51 10000 5.14 60 18:55 08.02.2022
3857 Clouds 23 1018 43 10000 5.66 60 17:50 08.02.2022
3858 Clouds 25 1018 36 10000 6.17 60 16:42 08.02.2022
3859 Clouds 26 1016 41 10000 6.17 70 15:39 08.02.2022
3860 Clouds 26 1016 43 10000 5.66 70 14:57 08.02.2022
3861 Clouds 26 1018 41 10000 7.72 90 13:30 08.02.2022
3862 Clouds 26 1020 41 10000 6.17 70 12:20 08.02.2022
3863 Clouds 24 1020 55 10000 6.69 50 10:45 08.02.2022
3864 Clouds 22 1021 58 10000 6.17 40 09:46 08.02.2022
3865 Clouds 21 1022 64 10000 7.72 90 08:27 08.02.2022
3866 Clouds 16 1021 85 10000 2.57 50 05:45 08.02.2022
3867 Clouds 17 1020 88 10000 1.54 60 04:40 08.02.2022
3868 Clouds 17 1021 88 10000 1.03 360 04:21 08.02.2022
3869 Clouds 17 1021 88 10000 1.54 350 03:36 08.02.2022
3870 Clouds 16 1021 88 10000 1.54 360 03:18 08.02.2022
3871 Clouds 16 1021 88 10000 1.54 360 03:18 08.02.2022
3872 Clouds 17 1021 88 10000 1.54 350 02:59 08.02.2022
3873 Clouds 17 1021 88 10000 1.54 350 02:36 08.02.2022
3874 Clouds 16 1021 88 10000 2.06 10 02:18 08.02.2022
3875 Clouds 16 1021 88 10000 2.06 10 02:18 08.02.2022
3876 Clouds 17 1021 88 10000 0 0 01:44 08.02.2022
3877 Clouds 18 1021 82 10000 1.54 40 01:24 08.02.2022
3878 Clouds 18 1021 82 10000 1.03 30 00:55 08.02.2022
3879 Clouds 18 1015 80 10000 2.99 33 00:19 08.02.2022
3880 Clouds 18 1022 82 10000 1.54 80 23:42 07.02.2022
3881 Clouds 18 1016 80 10000 3.01 36 23:18 07.02.2022
3882 Clouds 18 1022 82 10000 2.57 140 22:56 07.02.2022
3883 Clouds 18 1023 82 10000 3.09 130 22:18 07.02.2022
3884 Clouds 18 1022 76 10000 3.09 150 21:47 07.02.2022
3885 Clouds 18 1022 76 10000 3.09 150 21:26 07.02.2022
3886 Clouds 18 1022 76 10000 3.09 180 20:41 07.02.2022
3887 Rain 18 1023 82 10000 3.09 200 20:18 07.02.2022
3888 Clouds 18 1021 76 10000 3.09 230 19:45 07.02.2022
3889 Rain 17 1015 79 10000 4.9 69 18:24 07.02.2022
3890 Clouds 22 1019 53 10000 5.14 280 16:53 07.02.2022
3891 Clouds 22 1019 53 10000 5.14 280 16:21 07.02.2022
3892 Clouds 22 1018 51 10000 4.12 270 15:48 07.02.2022
3893 Clouds 26 1010 33 10000 6.33 62 13:39 07.02.2022
3894 Clouds 26 1010 33 10000 6.33 62 13:21 07.02.2022
3895 Clouds 25 1020 47 10000 5.14 60 11:58 07.02.2022
3896 Clouds 25 1020 47 10000 5.14 60 11:38 07.02.2022
3897 Clouds 24 1021 50 10000 3.09 60 10:53 07.02.2022
3898 Clouds 24 1021 50 10000 3.09 60 10:33 07.02.2022
3899 Clouds 23 1022 53 10000 5.14 60 09:53 07.02.2022
3900 Clouds 22 1023 56 10000 4.12 20 09:18 07.02.2022
3901 Clouds 21 1022 60 10000 3.09 60 08:44 07.02.2022
3902 Clouds 20 1022 66 10000 3.6 30 07:30 07.02.2022
3903 Clouds 19 1021 72 10000 0 0 06:34 07.02.2022
3904 Clouds 18 1019 72 10000 0 0 03:49 07.02.2022
3905 Clouds 19 1020 68 10000 2.57 40 00:47 07.02.2022
3906 Clouds 19 1019 68 10000 0 0 23:50 06.02.2022
3907 Clouds 19 1019 68 10000 0 0 23:50 06.02.2022
3908 Clouds 21 1021 60 10000 4.12 40 23:19 06.02.2022
3909 Clouds 21 1015 60 10000 3.3 41 22:34 06.02.2022
3910 Clouds 21 1020 66 10000 0 0 21:36 06.02.2022
3911 Rain 21 1021 64 10000 4.12 330 20:58 06.02.2022
3912 Rain 22 1021 62 10000 4.12 330 20:36 06.02.2022
3913 Clouds 23 1019 56 10000 2.06 30 19:46 06.02.2022
3914 Clouds 23 1018 49 10000 3.09 50 18:50 06.02.2022
3915 Clouds 23 1018 49 10000 5.66 50 18:24 06.02.2022
3916 Clouds 21 1012 53 10000 2.88 70 17:29 06.02.2022
3917 Clouds 26 1016 42 10000 7.2 70 16:50 06.02.2022
3918 Clouds 27 1015 39 10000 7.72 110 15:50 06.02.2022
3919 Clouds 27 1015 39 10000 7.72 110 15:28 06.02.2022
3920 Clouds 28 1015 32 10000 10.8 100 14:52 06.02.2022
3921 Clouds 27 1016 34 10000 7.2 90 13:53 06.02.2022
3922 Clouds 28 1017 34 10000 6.17 60 13:20 06.02.2022
3923 Clouds 26 1018 42 10000 6.17 110 11:44 06.02.2022
3924 Clouds 25 1019 49 10000 2.57 80 10:31 06.02.2022
3925 Clouds 23 1020 57 10000 0 0 09:26 06.02.2022
3926 Clouds 22 1020 62 10000 0 0 08:41 06.02.2022
3927 Clouds 16 1021 94 10000 1.54 240 06:19 06.02.2022
3928 Clouds 16 1019 84 10000 0 0 04:51 06.02.2022
3929 Clouds 16 1019 94 10000 1.54 220 02:25 06.02.2022
3930 Clouds 17 1019 82 10000 0 0 00:30 06.02.2022
3931 Clouds 16 1021 94 10000 1.54 290 23:25 05.02.2022
3932 Rain 16 1022 88 10000 2.06 190 21:38 05.02.2022
3933 Rain 15 1022 94 10000 3.09 150 20:25 05.02.2022
3934 Rain 15 1021 94 10000 10.29 270 19:50 05.02.2022
3935 Rain 20 1020 68 10000 2.57 0 19:27 05.02.2022
3936 Thunderstorm 24 1018 40 10000 4.63 80 18:26 05.02.2022
3937 Clouds 25 1017 33 10000 2.57 50 17:33 05.02.2022
3938 Clouds 28 1016 22 10000 5.66 80 15:43 05.02.2022
3939 Clouds 28 1016 22 10000 5.66 80 15:25 05.02.2022
3940 Clouds 28 1017 24 10000 3.6 50 13:22 05.02.2022
3941 Clouds 23 1017 47 10000 2.57 130 12:42 05.02.2022
3942 Clouds 22 1020 51 10000 4.63 120 10:57 05.02.2022
3943 Clouds 28 1020 26 10000 3.6 0 10:38 05.02.2022
3944 Clouds 22 1020 54 10000 0 0 09:47 05.02.2022
3945 Clouds 22 1021 53 10000 2.06 0 08:21 05.02.2022
3946 Clouds 18 1020 73 10000 4.12 300 06:58 05.02.2022
3947 Clouds 14 1019 91 10000 2.57 300 05:38 05.02.2022
3948 Clouds 17 1020 77 10000 1.54 330 01:40 05.02.2022
3949 Clouds 17 1020 77 10000 1.54 330 01:18 05.02.2022
3950 Clouds 17 1020 77 10000 1.54 340 23:59 04.02.2022
3951 Clouds 17 1020 77 10000 2.06 10 23:33 04.02.2022
3952 Clouds 19 1021 68 10000 1.54 70 22:18 04.02.2022
3953 Clouds 21 1021 64 10000 2.57 50 21:36 04.02.2022
3954 Clouds 20 1021 64 10000 4.63 30 21:18 04.02.2022
3955 Clouds 21 1020 60 10000 5.14 40 20:20 04.02.2022
3956 Clouds 22 1018 52 10000 4.63 70 18:27 04.02.2022
3957 Clouds 26 1016 39 10000 5.66 60 15:55 04.02.2022
3958 Clouds 26 1017 36 10000 6.69 90 14:56 04.02.2022
3959 Clouds 28 1017 36 10000 5.66 70 13:55 04.02.2022
3960 Clouds 26 1018 38 10000 4.12 50 12:43 04.02.2022
3961 Clouds 22 1019 57 10000 5.14 360 11:43 04.02.2022
3962 Clouds 22 1019 58 10000 2.57 80 10:37 04.02.2022
3963 Clouds 20 1021 70 10000 5.14 110 08:49 04.02.2022
3964 Clouds 17 1020 85 10000 2.57 70 06:58 04.02.2022
3965 Clouds 16 1021 82 10000 0 0 02:51 04.02.2022
3966 Clouds 16 1021 87 10000 0 0 01:56 04.02.2022
3967 Clouds 17 1021 82 10000 0 0 23:31 03.02.2022
3968 Clouds 19 1021 77 10000 0 0 22:48 03.02.2022
3969 Clouds 19 1020 77 10000 4.12 60 21:50 03.02.2022
3970 Clouds 19 1019 77 10000 5.14 60 20:43 03.02.2022
3971 Clouds 20 1020 73 10000 4.63 40 20:20 03.02.2022
3972 Clouds 20 1019 77 10000 5.14 80 19:32 03.02.2022
3973 Clouds 21 1019 73 10000 6.69 80 18:44 03.02.2022
3974 Clouds 22 1018 62 10000 6.17 70 17:42 03.02.2022
3975 Clouds 23 1018 58 10000 5.14 90 16:35 03.02.2022
3976 Clouds 24 1018 52 10000 6.17 80 14:52 03.02.2022
3977 Clouds 24 1018 53 10000 5.14 90 12:59 03.02.2022
3978 Clouds 23 1021 60 10000 6.69 50 11:23 03.02.2022
3979 Clouds 19 1022 79 10000 5.14 60 08:38 03.02.2022
3980 Clouds 18 1020 82 10000 3.09 60 05:26 03.02.2022
3981 Clouds 20 1022 73 10000 4.63 70 00:32 03.02.2022
3982 Clouds 20 1022 73 10000 6.17 70 23:44 02.02.2022
3983 Clouds 20 1022 68 10000 0 0 22:32 02.02.2022
3984 Clouds 21 1022 64 10000 7.72 70 21:34 02.02.2022
3985 Clouds 21 1020 60 10000 4.12 360 20:51 02.02.2022
3986 Clouds 22 1020 54 10000 7.72 60 19:59 02.02.2022
3987 Clouds 22 1020 54 10000 7.72 60 19:32 02.02.2022
3988 Rain 23 1018 53 10000 5.66 60 18:50 02.02.2022
3989 Rain 23 1019 49 10000 8.75 60 18:22 02.02.2022
3990 Rain 24 1018 50 10000 8.23 50 17:19 02.02.2022
3991 Clouds 24 1017 47 10000 4.63 70 16:42 02.02.2022
3992 Clouds 26 1017 40 10000 3.09 70 13:57 02.02.2022
3993 Clouds 27 1018 39 10000 5.66 60 12:25 02.02.2022
3994 Clouds 26 1019 42 10000 5.14 60 11:34 02.02.2022
3995 Clouds 25 1020 49 10000 5.14 30 10:38 02.02.2022
3996 Clouds 21 1021 64 10000 2.57 100 07:40 02.02.2022
3997 Clouds 21 1021 64 10000 5.14 60 22:52 01.02.2022
3998 Clouds 21 1019 64 10000 6.17 60 21:52 01.02.2022
3999 Rain 22 1020 56 10000 5.66 50 20:36 01.02.2022
4000 Clouds 25 1016 47 10000 10.29 90 17:59 01.02.2022
4001 Clouds 25 1015 47 10000 2.57 60 16:42 01.02.2022
4002 Clouds 27 1015 40 10000 5.14 30 14:49 01.02.2022
4003 Clouds 26 1016 43 10000 5.14 60 12:47 01.02.2022
4004 Clouds 25 1018 49 10000 3.6 30 11:34 01.02.2022
4005 Clouds 17 1019 77 10000 0 0 05:43 01.02.2022
4006 Clouds 19 1020 68 10000 3.6 40 23:51 31.01.2022
4007 Clouds 19 1020 68 10000 3.6 40 23:28 31.01.2022
4008 Clouds 20 1021 64 10000 3.09 40 22:26 31.01.2022
4009 Clouds 20 1021 60 10000 3.6 30 21:33 31.01.2022
4010 Clouds 21 1021 56 10000 4.63 40 20:33 31.01.2022
4011 Clouds 19 1019 78 10000 0 0 19:46 31.01.2022
4012 Clouds 19 1018 74 10000 0 0 18:29 31.01.2022
4013 Clouds 19 1017 78 10000 0 0 17:46 31.01.2022
4014 Clouds 22 1016 53 10000 5.14 300 16:48 31.01.2022
4015 Clouds 25 1016 36 10000 3.09 90 15:43 31.01.2022
4016 Clouds 26 1016 31 10000 5.14 70 14:25 31.01.2022
4017 Clouds 26 1017 40 10000 5.14 30 12:51 31.01.2022
4018 Clouds 25 1018 40 10000 5.14 30 11:59 31.01.2022
4019 Clouds 24 1019 50 10000 4.12 90 10:52 31.01.2022
4020 Clouds 24 1019 50 10000 4.12 90 10:34 31.01.2022
4021 Clouds 23 1020 58 10000 5.14 60 09:34 31.01.2022
4022 Clouds 21 1020 62 10000 4.12 60 08:52 31.01.2022
4023 Clouds 21 1021 64 10000 3.6 50 08:20 31.01.2022
4024 Clouds 18 1020 72 10000 3.6 40 06:36 31.01.2022
4025 Clouds 17 1020 82 10000 2.57 350 05:20 31.01.2022
4026 Clouds 19 1020 70 10000 3.09 80 23:30 30.01.2022
4027 Clouds 19 1020 68 10000 4.12 70 22:30 30.01.2022
4028 Clouds 20 1020 66 10000 3.6 70 21:44 30.01.2022
4029 Clouds 20 1021 64 10000 5.66 40 21:21 30.01.2022
4030 Clouds 20 1019 62 10000 5.14 60 20:50 30.01.2022
4031 Clouds 20 1020 64 10000 6.17 50 20:30 30.01.2022
4032 Clouds 21 1019 62 10000 5.14 90 19:54 30.01.2022
4033 Clouds 22 1017 53 10000 5.14 60 18:45 30.01.2022
4034 Clouds 20 1012 60 10000 6.36 57 18:21 30.01.2022
4035 Clouds 23 1016 49 10000 5.14 60 17:29 30.01.2022
4036 Clouds 25 1015 41 10000 5.66 90 16:41 30.01.2022
4037 Clouds 25 1015 41 10000 5.66 90 16:22 30.01.2022
4038 Clouds 26 1015 38 10000 6.17 110 15:53 30.01.2022
4039 Clouds 26 1015 38 10000 6.17 110 15:32 30.01.2022
4040 Clouds 26 1015 38 10000 7.2 90 14:47 30.01.2022
4041 Clouds 26 1016 36 10000 5.14 90 13:37 30.01.2022
4042 Clouds 26 1016 36 10000 5.14 80 12:41 30.01.2022
4043 Clouds 24 1019 45 10000 5.14 80 10:38 30.01.2022
4044 Clouds 24 1020 50 10000 5.14 60 09:57 30.01.2022
4045 Clouds 22 1021 60 10000 4.63 10 09:21 30.01.2022
4046 Clouds 19 1021 70 10000 5.14 70 07:56 30.01.2022
4047 Clouds 16 1020 89 10000 0 0 02:43 30.01.2022
4048 Clouds 17 1021 88 10000 0 0 01:50 30.01.2022
4049 Clouds 18 1021 88 10000 0 0 23:45 29.01.2022
4050 Clouds 18 1022 79 10000 3.09 80 22:37 29.01.2022
4051 Clouds 18 1022 82 10000 3.6 30 21:27 29.01.2022
4052 Clouds 18 1021 79 10000 5.66 80 20:48 29.01.2022
4053 Clouds 19 1020 77 10000 4.12 70 19:47 29.01.2022
4054 Clouds 19 1021 72 10000 4.63 50 19:25 29.01.2022
4055 Clouds 20 1019 73 10000 5.14 80 18:32 29.01.2022
4056 Clouds 23 1018 49 10000 9.26 90 17:42 29.01.2022
4057 Clouds 24 1017 46 10000 5.66 90 16:42 29.01.2022
4058 Clouds 24 1009 40 10000 4.75 76 14:52 29.01.2022
4059 Clouds 27 1017 33 10000 2.57 90 13:46 29.01.2022
4060 Clouds 27 1018 34 10000 7.2 70 13:26 29.01.2022
4061 Clouds 27 1019 35 10000 7.72 90 12:40 29.01.2022
4062 Clouds 28 1020 36 10000 6.17 60 11:38 29.01.2022
4063 Clouds 25 1021 50 10000 4.12 50 10:25 29.01.2022
4064 Clouds 20 1021 71 10000 0 0 07:24 29.01.2022
4065 Clouds 18 1020 77 10000 3.6 30 01:37 29.01.2022
4066 Clouds 19 1021 72 10000 3.6 40 00:31 29.01.2022
4067 Clouds 18 1021 72 10000 3.6 40 23:22 28.01.2022
4068 Clouds 19 1022 68 10000 5.14 50 22:42 28.01.2022
4069 Clouds 20 1022 64 10000 2.57 50 22:18 28.01.2022
4070 Clear 20 1020 58 10000 3.6 40 20:40 28.01.2022
4071 Clear 20 1020 58 10000 3.6 40 20:40 28.01.2022
4072 Clear 21 1019 56 10000 3.6 40 19:51 28.01.2022
4073 Clear 23 1018 42 10000 5.14 70 18:49 28.01.2022
4074 Clouds 25 1016 36 10000 6.17 60 17:52 28.01.2022
4075 Clouds 28 1015 32 10000 6.17 100 15:46 28.01.2022
4076 Clouds 29 1016 34 10000 4.63 90 14:20 28.01.2022
4077 Clouds 27 1017 31 10000 5.14 70 12:35 28.01.2022
4078 Clouds 27 1018 34 10000 5.14 40 11:38 28.01.2022
4079 Clouds 27 1018 34 10000 5.14 40 11:38 28.01.2022
4080 Clouds 26 1020 36 10000 3.6 70 10:22 28.01.2022
4081 Clouds 26 1020 36 10000 3.6 70 10:22 28.01.2022
4082 Clouds 26 1020 39 10000 4.12 70 09:45 28.01.2022
4083 Clear 21 1020 62 10000 3.09 20 07:40 28.01.2022
4084 Clouds 15 1020 87 10000 2.06 300 05:30 28.01.2022
4085 Clouds 15 1020 88 10000 2.06 350 03:48 28.01.2022
4086 Clouds 15 1019 88 10000 2.57 10 02:23 28.01.2022
4087 Clouds 16 1021 82 10000 2.57 350 01:35 28.01.2022
4088 Clouds 16 1020 82 10000 2.57 20 23:47 27.01.2022
4089 Clouds 18 1020 72 10000 4.12 60 21:54 27.01.2022
4090 Clouds 17 1021 77 10000 3.6 30 21:32 27.01.2022
4091 Clouds 18 1020 70 10000 4.12 60 20:55 27.01.2022
4092 Clear 19 1019 66 10000 5.14 30 19:35 27.01.2022
4093 Clouds 22 1017 52 10000 6.17 70 17:56 27.01.2022
4094 Clouds 26 1016 37 10000 5.14 100 15:43 27.01.2022
4095 Clouds 27 1016 34 10000 6.17 70 13:39 27.01.2022
4096 Clouds 27 1018 34 10000 6.17 50 12:46 27.01.2022
4097 Clouds 25 1019 44 10000 6.17 30 10:59 27.01.2022
4098 Clear 23 1021 49 10000 4.63 60 09:20 27.01.2022
4099 Clear 21 1021 52 10000 2.57 50 08:38 27.01.2022
4100 Clouds 19 1021 63 10000 4.12 20 07:23 27.01.2022
4101 Clear 15 1020 77 10000 2.57 330 02:59 27.01.2022
4102 Clear 19 1021 68 10000 0 0 23:52 26.01.2022
4103 Clear 20 1020 64 10000 0 0 22:27 26.01.2022
4104 Clear 20 1020 64 10000 3.09 40 21:41 26.01.2022
4105 Clear 21 1019 56 10000 4.63 40 20:41 26.01.2022
4106 Clear 20 1019 59 10000 4.63 40 20:23 26.01.2022
4107 Clear 21 1019 54 10000 5.14 60 19:28 26.01.2022
4108 Clear 22 1018 43 10000 2.57 70 18:46 26.01.2022
4109 Clear 23 1017 38 10000 4.12 80 17:51 26.01.2022
4110 Clear 23 1017 36 10000 4.12 80 17:24 26.01.2022
4111 Clear 25 1016 33 10000 5.66 90 16:40 26.01.2022
4112 Clear 26 1016 32 10000 5.14 90 15:50 26.01.2022
4113 Clear 27 1017 29 10000 6.17 50 14:21 26.01.2022
4114 Clouds 25 1019 38 10000 3.6 90 11:56 26.01.2022
4115 Clouds 24 1020 42 10000 6.69 100 10:43 26.01.2022
4116 Clouds 22 1021 47 10000 5.14 70 09:48 26.01.2022
4117 Clouds 20 1021 54 10000 5.66 80 08:32 26.01.2022
4118 Clouds 13 1020 84 10000 0 0 05:42 26.01.2022
4119 Clouds 19 1021 72 10000 0 0 23:59 25.01.2022
4120 Clouds 18 1020 72 10000 0 0 23:28 25.01.2022
4121 Clouds 19 1020 63 10000 0 0 22:48 25.01.2022
4122 Clouds 18 1020 63 10000 3.09 30 22:18 25.01.2022
4123 Clouds 20 1020 56 10000 3.6 30 21:22 25.01.2022
4124 Clouds 20 1019 60 10000 4.12 70 20:44 25.01.2022
4125 Clouds 20 1018 56 10000 5.14 60 19:53 25.01.2022
4126 Clouds 20 1018 56 10000 5.14 60 19:53 25.01.2022
4127 Clouds 21 1018 56 10000 7.72 60 18:46 25.01.2022
4128 Clouds 22 1017 56 10000 8.23 80 17:45 25.01.2022
4129 Clouds 24 1017 45 10000 5.14 90 16:58 25.01.2022
4130 Clouds 24 1016 42 10000 5.14 90 16:34 25.01.2022
4131 Clouds 25 1016 44 10000 6.69 60 15:39 25.01.2022
4132 Clouds 26 1016 41 10000 4.12 70 14:58 25.01.2022
4133 Clouds 26 1016 40 10000 5.14 40 13:47 25.01.2022
4134 Clouds 24 1019 45 10000 5.14 30 10:59 25.01.2022
4135 Clouds 22 1021 56 10000 6.17 60 09:21 25.01.2022
4136 Clouds 20 1021 64 10000 5.66 40 07:31 25.01.2022
4137 Clouds 18 1020 77 10000 0 0 06:53 25.01.2022
4138 Clouds 16 1019 82 10000 0 0 05:23 25.01.2022
4139 Clouds 18 1020 77 10000 2.06 20 00:20 25.01.2022
4140 Clouds 18 1020 77 10000 3.09 20 23:36 24.01.2022
4141 Clouds 18 1021 77 10000 3.09 20 23:18 24.01.2022
4142 Clouds 18 1021 77 10000 2.57 20 22:42 24.01.2022
4143 Clouds 19 1020 68 10000 2.57 30 21:57 24.01.2022
4144 Clouds 19 1020 68 10000 2.57 30 21:57 24.01.2022
4145 Clouds 19 1020 68 10000 2.57 30 21:32 24.01.2022
4146 Clouds 20 1019 64 10000 4.12 60 20:33 24.01.2022
4147 Clouds 21 1018 64 10000 3.09 60 19:58 24.01.2022
4148 Clouds 21 1018 64 10000 3.09 60 19:37 24.01.2022
4149 Clouds 21 1018 58 10000 5.14 70 18:37 24.01.2022
4150 Clouds 22 1017 53 10000 5.14 70 17:24 24.01.2022
4151 Clouds 23 1016 47 10000 5.14 70 16:55 24.01.2022
4152 Clouds 24 1016 46 10000 5.14 70 16:29 24.01.2022
4153 Clouds 25 1015 44 10000 4.12 70 14:54 24.01.2022
4154 Clouds 26 1016 43 10000 6.17 70 13:38 24.01.2022
4155 Clouds 26 1017 41 10000 6.17 60 12:32 24.01.2022
4156 Clouds 25 1019 41 10000 5.66 50 11:21 24.01.2022
4157 Clouds 24 1019 40 10000 6.17 80 09:50 24.01.2022
4158 Clouds 24 1013 36 10000 4.51 50 09:25 24.01.2022
4159 Clouds 21 1020 60 10000 5.14 60 07:28 24.01.2022
4160 Clouds 17 1019 82 10000 0 0 01:34 24.01.2022
4161 Clouds 17 1020 82 10000 2.06 350 00:47 24.01.2022
4162 Clouds 17 1021 82 10000 3.09 360 00:28 24.01.2022
4163 Clouds 18 1021 77 10000 2.57 30 22:46 23.01.2022
4164 Clouds 18 1021 72 10000 3.09 50 21:51 23.01.2022
4165 Clouds 18 1021 72 10000 3.09 50 21:27 23.01.2022
4166 Clouds 19 1021 68 10000 4.12 30 20:54 23.01.2022
4167 Clouds 19 1021 68 10000 5.14 40 20:21 23.01.2022
4168 Clouds 21 1020 58 10000 5.14 70 18:53 23.01.2022
4169 Clouds 22 1018 51 10000 5.14 80 17:56 23.01.2022
4170 Clouds 23 1018 46 10000 7.72 90 16:55 23.01.2022
4171 Clouds 25 1017 41 10000 5.14 60 15:45 23.01.2022
4172 Clouds 26 1017 36 10000 5.14 90 14:48 23.01.2022
4173 Clouds 25 1018 36 10000 3.6 40 14:18 23.01.2022
4174 Clouds 25 1019 37 10000 6.17 90 12:44 23.01.2022
4175 Clouds 25 1020 36 10000 4.63 50 12:19 23.01.2022
4176 Clouds 24 1020 37 10000 6.17 110 11:25 23.01.2022
4177 Clouds 24 1020 41 10000 5.14 60 10:57 23.01.2022
4178 Clouds 24 1020 41 10000 5.14 60 10:24 23.01.2022
4179 Clouds 23 1021 43 10000 5.14 90 09:26 23.01.2022
4180 Clouds 15 1021 72 10000 2.06 320 06:18 23.01.2022
4181 Clouds 15 1021 77 10000 2.57 350 03:20 23.01.2022
4182 Clouds 17 1020 72 10000 5.14 60 01:36 23.01.2022
4183 Clouds 18 1021 68 10000 2.57 20 00:47 23.01.2022
4184 Clouds 18 1022 72 10000 3.09 20 23:59 22.01.2022
4185 Clouds 18 1021 72 10000 5.14 30 22:49 22.01.2022
4186 Clouds 18 1022 77 10000 4.12 50 22:19 22.01.2022
4187 Clouds 19 1022 72 10000 5.14 50 20:33 22.01.2022
4188 Clouds 20 1020 73 10000 5.14 60 19:46 22.01.2022
4189 Clouds 21 1020 64 10000 6.17 60 18:37 22.01.2022
4190 Clouds 22 1019 60 10000 5.14 60 17:46 22.01.2022
4191 Clouds 22 1019 56 10000 7.72 50 17:24 22.01.2022
4192 Clouds 23 1018 53 10000 5.14 90 16:54 22.01.2022
4193 Clouds 24 1018 50 10000 6.17 60 15:45 22.01.2022
4194 Clouds 25 1017 42 10000 5.14 90 14:52 22.01.2022
4195 Clouds 26 1017 40 10000 5.14 90 13:31 22.01.2022
4196 Clouds 26 1019 38 10000 5.14 50 12:40 22.01.2022
4197 Clouds 26 1019 34 10000 5.14 60 12:20 22.01.2022
4198 Clouds 24 1020 42 10000 5.14 50 10:54 22.01.2022
4199 Clouds 24 1020 42 10000 5.14 50 10:25 22.01.2022
4200 Clouds 23 1021 51 10000 4.12 60 09:25 22.01.2022
4201 Clouds 22 1021 58 10000 4.12 60 08:50 22.01.2022
4202 Clouds 18 1022 88 10000 1.54 300 06:56 22.01.2022
4203 Clouds 16 1021 94 10000 1.54 330 02:40 22.01.2022
4204 Clouds 17 1022 82 10000 1.54 10 23:52 21.01.2022
4205 Clouds 17 1022 82 10000 1.54 350 23:21 21.01.2022
4206 Clouds 18 1022 77 10000 2.06 30 21:45 21.01.2022
4207 Clouds 19 1021 72 10000 4.63 40 19:52 21.01.2022
4208 Clouds 20 1020 68 10000 5.14 40 18:21 21.01.2022
4209 Clouds 21 1018 66 10000 5.14 90 16:54 21.01.2022
4210 Clouds 23 1018 56 10000 6.17 60 15:26 21.01.2022
4211 Clouds 25 1019 44 10000 5.14 50 12:53 21.01.2022
4212 Clouds 23 1020 53 10000 5.14 60 11:42 21.01.2022
4213 Clouds 23 1020 56 10000 5.14 60 11:23 21.01.2022
4214 Clouds 21 1022 72 10000 5.14 120 09:26 21.01.2022
4215 Clouds 21 1016 47 10000 3.74 43 08:21 21.01.2022
4216 Rain 16 1020 94 8000 3.09 270 04:37 21.01.2022
4217 Clouds 19 1021 88 10000 3.6 70 22:53 20.01.2022
4218 Clouds 16 1016 73 10000 2.14 33 21:49 20.01.2022
4219 Clouds 19 1021 82 10000 3.6 50 21:28 20.01.2022
4220 Clear 19 1021 82 10000 5.14 30 20:21 20.01.2022
4221 Clouds 18 1015 72 10000 4.07 47 19:19 20.01.2022
4222 Clouds 23 1017 56 10000 5.14 70 17:46 20.01.2022
4223 Clouds 25 1016 47 10000 6.17 90 16:35 20.01.2022
4224 Clouds 25 1016 47 10000 6.17 90 16:35 20.01.2022
4225 Clouds 23 1011 51 10000 4.89 72 15:40 20.01.2022
4226 Clouds 27 1016 35 10000 5.14 90 14:40 20.01.2022
4227 Clouds 25 1009 29 10000 3.78 81 13:21 20.01.2022
4228 Clouds 27 1018 32 10000 5.14 90 12:31 20.01.2022
4229 Clouds 26 1012 32 10000 3.21 63 11:20 20.01.2022
4230 Clouds 24 1014 36 10000 2.45 35 10:19 20.01.2022
4231 Clouds 23 1016 44 10000 2.53 20 09:29 20.01.2022
4232 Clouds 21 1017 64 10000 2.18 15 07:24 20.01.2022
4233 Clouds 16 1022 88 10000 0 0 00:41 20.01.2022
4234 Clouds 16 1022 91 10000 0 0 22:52 19.01.2022
4235 Clouds 16 1023 88 10000 2.57 300 21:45 19.01.2022
4236 Clouds 16 1023 88 10000 2.57 300 21:22 19.01.2022
4237 Rain 16 1022 89 10000 0 0 20:46 19.01.2022
4238 Rain 17 1017 88 10000 2.37 40 19:27 19.01.2022
4239 Rain 18 1016 86 9248 2.58 40 17:52 19.01.2022
4240 Rain 19 1015 83 9664 3.41 49 17:32 19.01.2022
4241 Rain 20 1013 75 9946 4.28 60 16:27 19.01.2022
4242 Clouds 25 1019 41 10000 6.17 60 13:42 19.01.2022
4243 Rain 26 1021 41 10000 5.14 70 12:24 19.01.2022
4244 Clouds 25 1020 39 10000 7.2 90 11:38 19.01.2022
4245 Clouds 24 1022 43 10000 2.57 20 10:20 19.01.2022
4246 Clouds 23 1022 50 10000 5.14 90 09:33 19.01.2022
4247 Clouds 17 1023 79 10000 2.57 320 06:35 19.01.2022
4248 Clouds 16 1021 91 10000 0 0 01:55 19.01.2022
4249 Clouds 17 1022 94 10000 0.51 0 23:19 18.01.2022
4250 Clouds 17 1023 94 10000 2.06 240 22:18 18.01.2022
4251 Clouds 18 1022 85 10000 0 0 20:55 18.01.2022
4252 Clouds 18 1021 85 10000 0 0 19:54 18.01.2022
4253 Clouds 18 1021 85 10000 0 0 19:36 18.01.2022
4254 Clouds 19 1020 82 10000 0 0 18:36 18.01.2022
4255 Clouds 18 1019 85 10000 0 0 17:57 18.01.2022
4256 Clouds 18 1019 82 10000 5.14 240 16:38 18.01.2022
4257 Clouds 17 1019 84 10000 0 0 15:39 18.01.2022
4258 Rain 21 1011 53 10000 4.49 51 15:19 18.01.2022
4259 Clouds 23 1020 60 10000 2.57 150 11:53 18.01.2022
4260 Clouds 23 1021 60 10000 4.12 40 10:46 18.01.2022
4261 Clouds 19 1023 80 10000 5.14 60 08:49 18.01.2022
4262 Clouds 18 1023 85 10000 4.12 60 07:46 18.01.2022
4263 Clouds 15 1019 91 10000 0 0 02:32 18.01.2022
4264 Rain 17 1022 88 10000 1.54 260 23:22 17.01.2022
4265 Rain 17 1022 88 10000 1.54 210 22:23 17.01.2022
4266 Rain 18 1022 77 10000 1.54 200 21:33 17.01.2022
4267 Clouds 18 1021 85 10000 5.14 320 19:56 17.01.2022
4268 Rain 18 1021 82 10000 2.06 250 18:29 17.01.2022
4269 Clouds 18 1020 82 10000 9.26 300 17:25 17.01.2022
4270 Clouds 19 1019 78 10000 10.29 300 16:35 17.01.2022
4271 Rain 17 1021 82 10000 5.14 270 14:59 17.01.2022
4272 Clouds 17 1012 53 10000 4.02 245 14:33 17.01.2022
4273 Clouds 24 1020 53 10000 4.12 250 13:20 17.01.2022
4274 Clouds 24 1019 53 10000 10.29 270 12:55 17.01.2022
4275 Clouds 24 1020 53 10000 12.86 270 11:48 17.01.2022
4276 Clouds 23 1022 60 10000 3.6 250 10:21 17.01.2022
4277 Clouds 23 1022 62 10000 7.72 270 09:33 17.01.2022
4278 Rain 21 1022 68 10000 2.06 240 07:22 17.01.2022
4279 Rain 17 1015 93 10000 1.25 305 02:54 17.01.2022
4280 Rain 18 1014 91 10000 0.88 353 00:54 17.01.2022
4281 Rain 20 1015 90 10000 0.52 262 21:44 16.01.2022
4282 Rain 20 1021 73 10000 2.57 190 20:34 16.01.2022
4283 Clouds 20 1018 69 10000 2.06 300 18:51 16.01.2022
4284 Clouds 22 1017 60 10000 4.12 300 17:57 16.01.2022
4285 Clouds 25 1016 43 10000 3.09 30 16:59 16.01.2022
4286 Clouds 25 1016 43 10000 3.09 30 16:29 16.01.2022
4287 Rain 29 1016 34 10000 5.14 60 14:30 16.01.2022
4288 Rain 21 1008 47 10000 1.04 45 13:34 16.01.2022
4289 Clouds 27 1017 40 10000 5.14 80 12:44 16.01.2022
4290 Clouds 25 1018 53 10000 0 0 11:40 16.01.2022
4291 Clouds 25 1019 50 10000 5.14 70 10:46 16.01.2022
4292 Clouds 24 1020 54 10000 3.09 30 09:59 16.01.2022
4293 Clouds 24 1020 55 10000 3.09 30 09:40 16.01.2022
4294 Clouds 23 1021 60 10000 2.06 10 09:21 16.01.2022
4295 Clouds 17 1021 100 10000 1.03 0 07:25 16.01.2022
4296 Clouds 16 1014 86 10000 0.21 275 00:38 16.01.2022
4297 Clouds 16 1014 88 10000 1.18 9 23:34 15.01.2022
4298 Clouds 19 1015 91 10000 1.16 29 21:23 15.01.2022
4299 Clouds 17 1020 94 10000 0 0 20:56 15.01.2022
4300 Clouds 17 1020 94 10000 0 0 20:36 15.01.2022
4301 Clouds 20 1015 83 10000 1.6 39 19:28 15.01.2022
4302 Rain 19 1015 86 10000 2.59 44 18:31 15.01.2022
4303 Rain 19 1018 75 10000 3.09 270 16:52 15.01.2022
4304 Thunderstorm 22 1018 64 10000 5.14 340 15:39 15.01.2022
4305 Thunderstorm 22 1018 60 10000 6.17 270 13:35 15.01.2022
4306 Clouds 27 1019 39 10000 3.6 60 11:46 15.01.2022
4307 Clouds 27 1019 39 10000 3.6 60 11:46 15.01.2022
4308 Clouds 27 1012 33 10000 1.64 130 10:24 15.01.2022
4309 Clear 16 1020 79 10000 0 0 05:27 15.01.2022
4310 Clear 18 1022 72 10000 2.06 360 23:44 14.01.2022
4311 Clear 19 1020 63 10000 2.57 60 21:37 14.01.2022
4312 Clear 20 1020 60 10000 5.14 30 20:37 14.01.2022
4313 Clear 21 1020 52 10000 3.6 60 19:57 14.01.2022
4314 Clear 21 1020 43 10000 4.63 40 18:44 14.01.2022
4315 Clouds 25 1018 31 10000 5.14 90 17:54 14.01.2022
4316 Clouds 26 1018 27 10000 5.14 90 16:47 14.01.2022
4317 Clouds 27 1017 25 10000 5.14 100 15:33 14.01.2022
4318 Clouds 27 1017 25 10000 5.14 100 15:33 14.01.2022
4319 Clouds 29 1018 21 10000 6.69 80 14:30 14.01.2022
4320 Clouds 28 1018 22 10000 2.57 80 13:27 14.01.2022
4321 Clouds 28 1009 17 10000 5.91 74 12:20 14.01.2022
4322 Clouds 26 1021 32 10000 4.12 40 10:46 14.01.2022
4323 Clear 23 1022 46 10000 5.14 70 08:54 14.01.2022
4324 Clear 21 1022 58 10000 3.09 40 07:56 14.01.2022
4325 Clear 13 1021 82 10000 0.51 0 03:50 14.01.2022
4326 Clouds 14 1016 85 10000 1.66 12 00:44 14.01.2022
4327 Clear 17 1023 67 10000 2.57 10 21:57 13.01.2022
4328 Clear 17 1023 67 10000 2.57 10 21:30 13.01.2022
4329 Clear 21 1021 52 10000 3.09 60 20:33 13.01.2022
4330 Clear 21 1021 52 10000 3.09 60 19:32 13.01.2022
4331 Clear 22 1020 46 10000 3.09 70 18:51 13.01.2022
4332 Clear 24 1019 35 10000 7.72 70 17:23 13.01.2022
4333 Clouds 23 1011 31 10000 6.89 70 16:18 13.01.2022
4334 Clouds 26 1018 24 10000 10.29 90 15:31 13.01.2022
4335 Clouds 27 1019 25 10000 10.29 80 13:47 13.01.2022
4336 Clear 27 1020 29 10000 7.72 50 12:20 13.01.2022
4337 Clear 25 1022 49 10000 6.17 60 09:38 13.01.2022
4338 Clear 22 1023 45 10000 6.17 60 08:54 13.01.2022
4339 Clear 22 1023 46 10000 6.17 60 08:24 13.01.2022
4340 Clear 19 1023 63 10000 3.6 30 07:21 13.01.2022
4341 Clouds 14 1021 91 10000 0 0 05:57 13.01.2022
4342 Clear 11 1022 93 10000 0 0 05:18 13.01.2022
4343 Clear 17 1020 77 10000 3.09 50 01:49 13.01.2022
4344 Clear 16 1022 77 10000 2.06 340 23:54 12.01.2022
4345 Clear 16 1022 77 10000 2.06 340 23:35 12.01.2022
4346 Clear 16 1022 77 10000 2.06 360 22:57 12.01.2022
4347 Clear 18 1021 68 10000 3.09 60 21:56 12.01.2022
4348 Clouds 16 1022 72 10000 3.09 10 21:21 12.01.2022
4349 Clouds 16 1022 72 10000 3.09 10 20:56 12.01.2022
4350 Clear 20 1021 64 10000 6.17 90 19:35 12.01.2022
4351 Clear 19 1021 59 10000 4.63 40 18:29 12.01.2022
4352 Clouds 23 1019 48 10000 6.17 70 16:59 12.01.2022
4353 Clouds 23 1019 45 10000 6.17 70 16:26 12.01.2022
4354 Clouds 26 1018 37 10000 10.29 60 14:48 12.01.2022
4355 Clouds 26 1020 38 10000 12.86 60 12:58 12.01.2022
4356 Clouds 22 1022 49 10000 5.14 50 09:59 12.01.2022
4357 Clouds 23 1015 36 10000 7.71 54 08:37 12.01.2022
4358 Clouds 21 1017 52 10000 7.12 49 07:34 12.01.2022
4359 Clouds 17 1022 82 10000 3.6 30 06:49 12.01.2022
4360 Clouds 17 1015 86 10000 4.1 51 23:31 11.01.2022
4361 Clouds 18 1021 77 10000 5.14 50 22:49 11.01.2022
4362 Clouds 17 1016 88 10000 4.62 48 22:21 11.01.2022
4363 Clouds 17 1016 89 10000 5.01 53 20:51 11.01.2022
4364 Clouds 18 1016 90 10000 4.57 55 19:48 11.01.2022
4365 Clear 19 1014 77 10000 6.03 60 18:31 11.01.2022
4366 Clouds 20 1013 71 10000 6.84 62 17:24 11.01.2022
4367 Clouds 21 1013 70 10000 6.88 62 16:37 11.01.2022
4368 Clouds 25 1017 30 10000 10.29 90 15:36 11.01.2022
4369 Clouds 26 1017 26 10000 12.86 90 14:42 11.01.2022
4370 Clouds 25 1018 31 10000 5.66 90 13:55 11.01.2022
4371 Clouds 26 1010 30 10000 7.07 66 13:34 11.01.2022
4372 Clouds 26 1010 31 10000 7.06 66 12:43 11.01.2022
4373 Clouds 26 1011 31 10000 6.77 64 11:43 11.01.2022
4374 Clouds 21 1022 64 10000 6.17 50 09:29 11.01.2022
4375 Clear 16 1022 88 10000 3.09 20 06:37 11.01.2022
4376 Clouds 17 1020 88 10000 3.09 10 00:32 11.01.2022
4377 Clouds 18 1021 88 10000 3.09 10 23:43 10.01.2022
4378 Clouds 16 1015 86 10000 3.95 49 23:22 10.01.2022
4379 Clouds 18 1016 87 10000 4.05 50 22:19 10.01.2022
4380 Clouds 18 1021 91 10000 3.6 40 21:54 10.01.2022
4381 Clouds 18 1016 89 10000 4.4 47 21:20 10.01.2022
4382 Clouds 19 1020 79 10000 5.14 50 20:57 10.01.2022
4383 Clouds 19 1021 82 10000 5.66 40 20:28 10.01.2022
4384 Clouds 19 1020 72 10000 5.14 50 19:44 10.01.2022
4385 Clouds 19 1015 92 10000 5.66 59 19:21 10.01.2022
4386 Clouds 20 1020 68 10000 5.66 60 18:49 10.01.2022
4387 Clouds 20 1014 81 10000 6.08 65 17:41 10.01.2022
4388 Clouds 25 1018 44 10000 7.72 80 16:42 10.01.2022
4389 Clouds 27 1017 32 10000 6.69 60 15:49 10.01.2022
4390 Clouds 27 1016 33 10000 8.23 90 14:30 10.01.2022
4391 Clouds 27 1010 30 10000 5.9 69 12:18 10.01.2022
4392 Clouds 27 1019 36 10000 7.2 50 11:25 10.01.2022
4393 Clouds 24 1020 49 10000 4.63 50 09:52 10.01.2022
4394 Clouds 20 1021 68 10000 5.14 60 07:31 10.01.2022
4395 Clouds 16 1020 91 10000 3.6 350 05:49 10.01.2022
4396 Clouds 17 1020 94 10000 3.6 30 01:31 10.01.2022
4397 Clouds 17 1020 94 10000 2.57 30 00:25 10.01.2022
4398 Clouds 15 1015 93 10000 3.14 45 23:43 09.01.2022
4399 Clouds 18 1021 88 10000 2.57 90 22:40 09.01.2022
4400 Clouds 18 1021 88 10000 4.12 70 21:47 09.01.2022
4401 Clouds 18 1021 88 10000 4.12 70 21:24 09.01.2022
4402 Clouds 16 1017 93 10000 4.38 51 21:24 09.01.2022
4403 Clouds 19 1021 82 10000 5.14 80 20:53 09.01.2022
4404 Clouds 18 1022 88 10000 4.63 30 20:34 09.01.2022
4405 Clouds 19 1020 77 10000 5.66 60 19:45 09.01.2022
4406 Clouds 19 1020 77 10000 5.66 60 19:23 09.01.2022
4407 Clear 19 1021 77 10000 5.66 50 18:56 09.01.2022
4408 Clouds 20 1021 73 10000 5.66 50 18:35 09.01.2022
4409 Clouds 22 1019 60 10000 5.14 50 17:48 09.01.2022
4410 Clouds 23 1020 56 10000 6.69 50 17:25 09.01.2022
4411 Clouds 24 1019 53 10000 7.2 70 16:34 09.01.2022
4412 Clouds 25 1018 45 10000 4.63 70 15:37 09.01.2022
4413 Clouds 25 1018 44 10000 7.72 60 14:41 09.01.2022
4414 Clouds 26 1019 40 10000 6.17 100 13:56 09.01.2022
4415 Clouds 26 1019 40 10000 6.17 100 13:36 09.01.2022
4416 Clouds 25 1021 50 10000 5.66 50 11:56 09.01.2022
4417 Clouds 24 1021 53 10000 6.17 40 11:24 09.01.2022
4418 Clouds 26 1013 33 10000 6.21 61 09:53 09.01.2022
4419 Clouds 23 1023 56 10000 6.69 30 08:54 09.01.2022
4420 Clouds 16 1021 88 10000 0 0 05:54 09.01.2022
4421 Clouds 17 1019 88 10000 0 0 01:26 09.01.2022
4422 Clouds 16 1020 94 10000 2.06 10 00:37 09.01.2022
4423 Clouds 18 1022 94 10000 3.09 10 23:27 08.01.2022
4424 Clouds 18 1022 94 10000 3.09 20 22:35 08.01.2022
4425 Clear 18 1022 88 10000 3.09 10 21:27 08.01.2022
4426 Clear 18 1022 88 10000 4.12 30 20:43 08.01.2022
4427 Clear 18 1022 82 10000 4.12 20 20:21 08.01.2022
4428 Clouds 20 1020 68 10000 5.14 70 18:46 08.01.2022
4429 Clouds 22 1019 51 10000 5.14 90 17:25 08.01.2022
4430 Clouds 25 1018 36 10000 5.14 90 16:42 08.01.2022
4431 Clouds 26 1018 38 10000 7.72 90 14:52 08.01.2022
4432 Clouds 26 1018 40 10000 5.14 60 13:56 08.01.2022
4433 Clouds 24 1020 50 10000 5.14 90 11:30 08.01.2022
4434 Clouds 24 1021 52 10000 6.17 60 10:33 08.01.2022
4435 Clouds 23 1021 57 10000 5.14 60 09:57 08.01.2022
4436 Clouds 23 1021 57 10000 5.14 60 09:30 08.01.2022
4437 Clouds 17 1022 87 10000 0 0 05:39 08.01.2022
4438 Clouds 18 1020 88 10000 0 0 01:24 08.01.2022
4439 Clouds 17 1022 94 10000 3.09 30 23:30 07.01.2022
4440 Clouds 19 1022 88 10000 5.66 50 21:47 07.01.2022
4441 Clouds 19 1022 88 10000 5.66 40 20:26 07.01.2022
4442 Clouds 19 1020 77 10000 5.14 60 19:27 07.01.2022
4443 Clouds 21 1020 73 10000 5.14 60 18:49 07.01.2022
4444 Clouds 21 1020 68 10000 6.69 60 18:21 07.01.2022
4445 Clouds 22 1019 62 10000 5.14 60 17:23 07.01.2022
4446 Clouds 26 1018 45 10000 7.72 90 14:55 07.01.2022
4447 Clouds 26 1018 42 10000 5.14 90 13:52 07.01.2022
4448 Clouds 25 1020 47 10000 6.17 90 12:51 07.01.2022
4449 Clouds 24 1024 53 10000 5.14 30 10:21 07.01.2022
4450 Clouds 17 1021 94 10000 2.57 20 04:25 07.01.2022
4451 Clouds 17 1021 94 10000 2.57 10 02:46 07.01.2022
4452 Clouds 18 1020 88 10000 2.57 30 01:48 07.01.2022
4453 Clouds 17 1021 94 10000 3.09 10 01:25 07.01.2022
4454 Clouds 17 1021 94 10000 3.6 20 00:30 07.01.2022
4455 Clouds 18 1022 94 10000 4.63 30 22:33 06.01.2022
4456 Clouds 20 1021 73 10000 4.12 70 20:51 06.01.2022
4457 Clouds 19 1021 82 10000 5.14 40 20:18 06.01.2022
4458 Clouds 20 1020 73 10000 4.12 70 19:36 06.01.2022
4459 Clouds 22 1019 60 10000 5.14 70 17:51 06.01.2022
4460 Clouds 21 1019 62 10000 5.14 70 17:23 06.01.2022
4461 Clouds 24 1018 53 10000 5.66 70 16:38 06.01.2022
4462 Clouds 25 1018 47 10000 7.72 70 15:44 06.01.2022
4463 Clouds 25 1019 47 10000 6.17 70 15:22 06.01.2022
4464 Clouds 26 1019 47 10000 6.17 60 14:20 06.01.2022
4465 Clouds 26 1019 47 10000 5.14 70 13:39 06.01.2022
4466 Clouds 24 1021 53 10000 6.69 60 12:21 06.01.2022
4467 Clouds 25 1021 46 10000 5.14 90 11:30 06.01.2022
4468 Clouds 24 1021 50 10000 9.26 90 10:59 06.01.2022
4469 Clouds 18 1023 85 10000 3.6 80 06:54 06.01.2022
4470 Clouds 17 1022 94 10000 3.09 40 00:34 06.01.2022
4471 Clouds 17 1022 94 10000 3.6 20 23:34 05.01.2022
4472 Clouds 19 1023 82 10000 5.14 50 22:48 05.01.2022
4473 Clouds 18 1023 94 10000 3.09 60 22:28 05.01.2022
4474 Clouds 19 1022 82 10000 7.72 60 21:43 05.01.2022
4475 Clouds 20 1023 73 10000 5.14 50 20:44 05.01.2022
4476 Clouds 20 1021 68 10000 5.14 60 19:46 05.01.2022
4477 Clouds 22 1020 56 10000 4.12 50 18:27 05.01.2022
4478 Clouds 24 1019 43 10000 6.17 90 16:58 05.01.2022
4479 Clouds 25 1020 41 10000 8.23 80 16:21 05.01.2022
4480 Clouds 26 1019 44 10000 7.2 80 15:20 05.01.2022
4481 Clouds 26 1020 41 10000 4.63 100 13:37 05.01.2022
4482 Clouds 26 1020 38 10000 3.09 90 12:46 05.01.2022
4483 Clouds 20 1022 71 10000 3.09 40 08:57 05.01.2022
4484 Clouds 19 1023 74 10000 0 0 07:31 05.01.2022
4485 Clouds 16 1021 88 10000 2.57 10 01:58 05.01.2022
4486 Clouds 19 1022 77 10000 2.57 20 23:50 04.01.2022
4487 Clouds 19 1022 77 10000 2.57 20 23:26 04.01.2022
4488 Clouds 19 1022 77 10000 4.63 40 22:21 04.01.2022
4489 Clouds 19 1021 68 10000 5.14 30 20:50 04.01.2022
4490 Clear 22 1019 40 10000 4.12 90 18:46 04.01.2022
4491 Clouds 24 1019 27 10000 5.14 70 17:37 04.01.2022
4492 Clouds 27 1018 22 10000 7.72 40 16:40 04.01.2022
4493 Clouds 23 1011 40 10000 6.4 74 16:21 04.01.2022
4494 Clouds 25 1010 30 10000 6.73 72 14:51 04.01.2022
4495 Clouds 26 1010 26 10000 6.51 70 14:33 04.01.2022
4496 Clouds 28 1019 23 10000 6.69 50 13:26 04.01.2022
4497 Clouds 25 1021 35 10000 4.63 50 10:40 04.01.2022
4498 Clouds 21 1021 58 10000 5.14 40 08:59 04.01.2022
4499 Clouds 20 1023 68 10000 3.09 20 08:23 04.01.2022
4500 Clouds 16 1015 91 10000 2.65 28 01:19 04.01.2022
4501 Clouds 15 1021 94 10000 2.57 10 00:40 04.01.2022
4502 Clouds 17 1022 88 10000 3.6 40 22:51 03.01.2022
4503 Clouds 18 1022 82 10000 4.12 50 21:42 03.01.2022
4504 Clouds 18 1022 82 10000 4.12 50 21:24 03.01.2022
4505 Clouds 20 1020 64 10000 5.14 30 19:47 03.01.2022
4506 Clouds 21 1018 60 10000 5.14 90 18:33 03.01.2022
4507 Clouds 22 1018 51 10000 5.14 60 17:40 03.01.2022
4508 Clouds 20 1013 60 10000 5.89 65 16:58 03.01.2022
4509 Clouds 24 1010 36 10000 6.87 69 14:55 03.01.2022
4510 Clouds 25 1009 30 10000 6.87 73 14:29 03.01.2022
4511 Clouds 26 1018 30 10000 5.14 90 12:35 03.01.2022
4512 Clouds 25 1019 35 10000 5.14 60 11:34 03.01.2022
4513 Clouds 26 1013 34 10000 5.47 65 10:25 03.01.2022
4514 Clouds 20 1021 64 10000 5.14 30 08:47 03.01.2022
4515 Clouds 19 1021 72 10000 5.14 60 07:32 03.01.2022
4516 Clouds 17 1019 94 10000 3.09 60 23:54 02.01.2022
4517 Clouds 17 1020 94 10000 4.12 40 23:18 02.01.2022
4518 Clouds 18 1020 88 10000 4.12 40 22:43 02.01.2022
4519 Clouds 18 1020 82 10000 5.14 60 21:39 02.01.2022
4520 Clouds 19 1020 72 10000 3.09 30 20:31 02.01.2022
4521 Clouds 20 1019 68 10000 5.14 70 19:53 02.01.2022
4522 Clouds 20 1019 68 10000 5.14 70 19:26 02.01.2022
4523 Clouds 21 1018 52 10000 4.12 70 18:39 02.01.2022
4524 Clouds 21 1018 52 10000 4.12 70 18:39 02.01.2022
4525 Clouds 22 1018 46 10000 5.14 60 17:43 02.01.2022
4526 Clouds 22 1018 49 10000 5.14 70 17:22 02.01.2022
4527 Clouds 24 1017 43 10000 7.2 100 16:53 02.01.2022
4528 Clouds 24 1018 46 10000 6.69 80 16:23 02.01.2022
4529 Clouds 25 1018 47 10000 6.17 90 14:21 02.01.2022
4530 Clouds 25 1019 44 10000 3.6 50 12:39 02.01.2022
4531 Clouds 25 1020 45 10000 5.14 70 11:57 02.01.2022
4532 Clouds 25 1021 47 10000 4.12 50 11:23 02.01.2022
4533 Clouds 24 1020 51 10000 5.14 30 10:44 02.01.2022
4534 Clouds 21 1021 60 10000 4.12 30 08:42 02.01.2022
4535 Clouds 15 1020 94 10000 1.54 360 03:49 02.01.2022
4536 Clouds 18 1021 82 10000 2.06 30 00:58 02.01.2022
4537 Clouds 18 1022 82 10000 3.09 50 23:39 01.01.2022
4538 Clouds 18 1022 82 10000 3.09 50 23:39 01.01.2022
4539 Clouds 18 1021 79 10000 0 0 22:55 01.01.2022
4540 Clouds 18 1022 88 10000 4.63 50 22:21 01.01.2022
4541 Clouds 18 1022 82 10000 3.09 90 21:43 01.01.2022
4542 Clouds 19 1022 74 10000 2.57 90 20:53 01.01.2022
4543 Clouds 19 1021 74 10000 4.12 40 19:57 01.01.2022
4544 Clouds 20 1019 70 10000 5.14 60 18:58 01.01.2022
4545 Clouds 21 1020 61 10000 5.14 90 17:58 01.01.2022
4546 Clouds 24 1019 51 10000 5.66 80 16:37 01.01.2022
4547 Clouds 24 1019 50 10000 5.14 70 16:19 01.01.2022
4548 Clouds 25 1018 44 10000 5.14 70 15:26 01.01.2022
4549 Clouds 26 1019 38 10000 3.6 100 13:46 01.01.2022
4550 Clouds 26 1019 38 10000 3.6 100 13:46 01.01.2022
4551 Clouds 26 1020 41 10000 2.57 360 12:49 01.01.2022
4552 Clouds 25 1021 47 10000 2.57 360 11:51 01.01.2022
4553 Clouds 24 1022 46 10000 3.09 0 11:22 01.01.2022
4554 Clouds 24 1022 46 10000 4.63 80 10:26 01.01.2022
4555 Clouds 23 1022 46 10000 3.6 60 09:45 01.01.2022
4556 Clouds 21 1023 62 10000 2.57 40 08:25 01.01.2022
4557 Clouds 20 1023 70 10000 0 0 07:44 01.01.2022
4558 Clouds 17 1022 82 10000 0 0 06:47 01.01.2022
4559 Clouds 13 1021 94 10000 0 0 05:26 01.01.2022
4560 Clouds 14 1021 93 10000 0 0 04:37 01.01.2022
4561 Clouds 15 1021 100 10000 2.06 20 01:28 01.01.2022
4562 Clouds 16 1022 94 10000 2.57 30 23:35 31.12.2021
4563 Clouds 18 1022 82 10000 2.57 30 21:53 31.12.2021
4564 Clouds 19 1022 77 10000 3.6 60 20:37 31.12.2021
4565 Clouds 19 1021 68 10000 5.14 60 19:30 31.12.2021
4566 Clouds 20 1020 68 10000 5.14 60 18:35 31.12.2021
4567 Clouds 21 1020 58 10000 3.6 70 17:40 31.12.2021
4568 Clouds 21 1020 56 10000 6.69 50 17:18 31.12.2021
4569 Clouds 23 1019 46 10000 6.69 40 16:25 31.12.2021
4570 Clouds 25 1018 42 10000 7.72 80 15:57 31.12.2021
4571 Clouds 25 1018 40 10000 7.72 80 15:28 31.12.2021
4572 Clouds 26 1017 38 10000 7.72 70 14:52 31.12.2021
4573 Clouds 25 1017 38 10000 7.72 70 14:29 31.12.2021
4574 Clouds 25 1018 41 10000 6.69 80 13:36 31.12.2021
4575 Clouds 25 1019 41 10000 5.14 120 12:45 31.12.2021
4576 Clouds 25 1020 43 10000 5.14 90 11:47 31.12.2021
4577 Clouds 24 1021 50 10000 6.69 50 11:29 31.12.2021
4578 Clouds 24 1020 45 10000 7.2 90 10:35 31.12.2021
4579 Clouds 23 1021 48 10000 9.26 60 09:54 31.12.2021
4580 Clouds 23 1022 56 10000 5.66 50 09:32 31.12.2021
4581 Clouds 22 1021 62 10000 5.14 90 08:39 31.12.2021
4582 Clouds 20 1021 72 10000 4.12 20 07:31 31.12.2021
4583 Clouds 17 1020 87 10000 0 0 23:32 30.12.2021
4584 Clouds 18 1020 84 10000 3.09 80 22:33 30.12.2021
4585 Clouds 18 1020 84 10000 5.14 60 21:59 30.12.2021
4586 Clouds 18 1020 84 10000 5.14 60 21:59 30.12.2021
4587 Clouds 18 1021 84 10000 5.14 60 21:37 30.12.2021
4588 Clouds 18 1020 79 10000 5.14 70 20:47 30.12.2021
4589 Clouds 18 1021 82 10000 4.63 30 20:28 30.12.2021
4590 Clouds 19 1020 75 10000 3.09 60 19:48 30.12.2021
4591 Clouds 20 1019 68 10000 3.6 70 18:51 30.12.2021
4592 Clouds 20 1019 56 10000 4.63 60 18:20 30.12.2021
4593 Clouds 23 1017 47 10000 6.17 80 16:27 30.12.2021
4594 Clouds 25 1016 44 10000 7.72 90 15:52 30.12.2021
4595 Clouds 25 1016 44 10000 7.72 90 15:52 30.12.2021
4596 Rain 25 1016 41 10000 6.17 60 14:41 30.12.2021
4597 Rain 25 1017 44 10000 7.2 100 13:57 30.12.2021
4598 Rain 25 1018 46 10000 5.14 90 12:52 30.12.2021
4599 Rain 26 1019 41 10000 5.14 70 11:22 30.12.2021
4600 Clouds 23 1020 55 10000 3.09 60 09:59 30.12.2021
4601 Clouds 23 1021 53 10000 5.14 40 09:23 30.12.2021
4602 Clouds 18 1020 85 10000 5.14 60 06:54 30.12.2021
4603 Clouds 17 1020 94 10000 4.12 10 04:20 30.12.2021
4604 Clouds 17 1019 88 10000 5.14 30 03:39 30.12.2021
4605 Clouds 17 1020 94 10000 3.6 30 00:35 30.12.2021
4606 Clouds 18 1020 88 10000 5.14 30 23:35 29.12.2021
4607 Clouds 18 1022 94 10000 4.63 40 22:30 29.12.2021
4608 Clouds 18 1022 94 10000 4.63 40 21:53 29.12.2021
4609 Rain 19 1022 88 10000 4.63 50 20:56 29.12.2021
4610 Rain 19 1016 95 10000 3.55 45 20:18 29.12.2021
4611 Rain 20 1020 85 10000 5.14 90 19:30 29.12.2021
4612 Rain 20 1020 77 10000 5.14 60 18:30 29.12.2021
4613 Rain 21 1018 61 10000 4.12 90 17:30 29.12.2021
4614 Rain 23 1018 56 10000 6.17 60 16:58 29.12.2021
4615 Rain 24 1018 50 10000 6.17 80 16:19 29.12.2021
4616 Clouds 25 1017 47 10000 5.14 30 14:47 29.12.2021
4617 Clouds 25 1019 45 10000 5.14 90 12:57 29.12.2021
4618 Clouds 25 1019 44 10000 5.14 90 12:30 29.12.2021
4619 Clouds 24 1021 48 10000 5.14 90 10:53 29.12.2021
4620 Clouds 21 1022 58 10000 4.63 45 08:56 29.12.2021
4621 Clouds 18 1022 78 10000 0 0 06:59 29.12.2021
4622 Clouds 19 1017 81 10000 2.1 47 06:30 29.12.2021
4623 Clouds 15 1021 91 10000 0 0 05:52 29.12.2021
4624 Clouds 14 1016 92 10000 1.69 37 03:48 29.12.2021
4625 Clouds 15 1015 92 10000 2.56 33 00:32 29.12.2021
4626 Clouds 15 1015 92 10000 3.2 36 23:58 28.12.2021
4627 Clouds 18 1021 82 10000 0 0 22:56 28.12.2021
4628 Clouds 17 1021 87 10000 0 0 22:25 28.12.2021
4629 Clouds 17 1022 91 10000 2.06 20 21:54 28.12.2021
4630 Clouds 18 1022 91 10000 2.06 20 21:34 28.12.2021
4631 Clouds 18 1021 91 10000 3.09 90 19:53 28.12.2021
4632 Rain 18 1021 91 10000 3.09 70 18:54 28.12.2021
4633 Rain 18 1021 94 10000 4.12 60 18:27 28.12.2021
4634 Rain 21 1020 71 10000 7.2 70 17:34 28.12.2021
4635 Rain 21 1012 70 10000 5.53 63 16:20 28.12.2021
4636 Rain 21 1012 70 10000 5.53 63 15:41 28.12.2021
4637 Clouds 23 1011 61 10000 5.8 63 14:55 28.12.2021
4638 Clouds 23 1011 61 10000 5.8 63 14:37 28.12.2021
4639 Clouds 23 1011 57 10000 6 69 14:18 28.12.2021
4640 Clouds 25 1019 51 10000 3.09 60 13:37 28.12.2021
4641 Rain 24 1019 57 10000 7.2 50 12:56 28.12.2021
4642 Rain 24 1021 57 10000 5.14 60 12:20 28.12.2021
4643 Rain 23 1021 59 10000 5.14 50 10:47 28.12.2021
4644 Rain 21 1017 72 10000 5.1 54 07:38 28.12.2021
4645 Clouds 14 1017 93 10000 2.21 28 03:37 28.12.2021
4646 Clouds 18 1016 93 10000 3.72 45 23:40 27.12.2021
4647 Clouds 18 1023 94 10000 3.6 50 22:27 27.12.2021
4648 Clouds 18 1018 95 10000 4.54 55 21:31 27.12.2021
4649 Clouds 18 1018 95 10000 4.59 56 20:39 27.12.2021
4650 Clouds 18 1022 85 10000 3.6 70 19:55 27.12.2021
4651 Clouds 18 1022 85 10000 3.6 70 19:37 27.12.2021
4652 Clouds 21 1020 68 10000 3.6 60 17:55 27.12.2021
4653 Clouds 20 1020 68 10000 3.6 60 17:29 27.12.2021
4654 Rain 22 1013 76 10000 5.47 76 16:26 27.12.2021
4655 Rain 24 1018 50 10000 7.72 90 15:49 27.12.2021
4656 Rain 24 1012 59 10000 6.77 82 14:26 27.12.2021
4657 Clouds 24 1011 50 10000 7.01 81 13:31 27.12.2021
4658 Clouds 24 1013 47 10000 6.36 72 11:20 27.12.2021
4659 Clouds 23 1014 49 10000 6.24 73 10:27 27.12.2021
4660 Clouds 24 1014 49 10000 6.24 73 09:38 27.12.2021
4661 Clouds 21 1016 62 10000 4.91 66 07:35 27.12.2021
4662 Clouds 19 1017 87 10000 3.03 48 06:30 27.12.2021
4663 Clouds 16 1020 93 10000 0 0 01:59 27.12.2021
4664 Clouds 17 1022 94 10000 3.09 40 23:50 26.12.2021
4665 Clouds 17 1022 94 10000 3.09 40 23:32 26.12.2021
4666 Clouds 17 1022 97 10000 3.09 50 21:48 26.12.2021
4667 Clouds 17 1023 100 10000 5.14 30 20:31 26.12.2021
4668 Rain 18 1021 94 10000 4.12 50 19:27 26.12.2021
4669 Rain 18 1015 93 10000 4.34 69 18:23 26.12.2021
4670 Rain 22 1018 66 10000 5.14 90 15:56 26.12.2021
4671 Rain 23 1018 60 10000 5.14 110 13:52 26.12.2021
4672 Rain 23 1018 60 10000 5.14 110 13:32 26.12.2021
4673 Rain 23 1019 60 10000 4.12 70 12:38 26.12.2021
4674 Rain 23 1020 60 10000 6.17 90 11:58 26.12.2021
4675 Rain 21 1022 68 10000 5.14 30 09:52 26.12.2021
4676 Rain 18 1017 88 10000 3.51 42 09:18 26.12.2021
4677 Rain 19 1022 77 10000 4.12 60 08:40 26.12.2021
4678 Rain 18 1022 87 10000 6.17 90 07:25 26.12.2021
4679 Clouds 17 1021 94 10000 2.57 50 00:59 26.12.2021
4680 Clouds 16 1022 100 10000 1.54 60 23:51 25.12.2021
4681 Clouds 18 1016 97 5908 2.9 51 23:27 25.12.2021
4682 Clouds 16 1021 97 10000 3.09 120 22:23 25.12.2021
4683 Rain 17 1021 97 10000 5.14 90 20:48 25.12.2021
4684 Rain 16 1016 98 6769 3.93 66 19:23 25.12.2021
4685 Rain 20 1019 73 10000 5.14 90 18:54 25.12.2021
4686 Rain 21 1019 70 10000 5.66 110 17:29 25.12.2021
4687 Rain 21 1019 66 10000 4.12 70 16:36 25.12.2021
4688 Rain 22 1018 68 10000 6.17 90 14:46 25.12.2021
4689 Rain 23 1018 58 10000 5.14 90 13:30 25.12.2021
4690 Rain 22 1020 61 10000 4.12 60 11:46 25.12.2021
4691 Rain 20 1021 77 10000 2.06 70 09:51 25.12.2021
4692 Rain 18 1022 88 10000 0 0 08:38 25.12.2021
4693 Rain 17 1021 94 10000 4.63 50 04:34 25.12.2021
4694 Clouds 18 1014 94 10000 3.13 42 01:23 25.12.2021
4695 Clouds 18 1021 94 10000 4.12 50 23:40 24.12.2021
4696 Clouds 19 1020 82 10000 4.12 70 19:45 24.12.2021
4697 Clouds 18 1020 87 10000 4.12 70 19:23 24.12.2021
4698 Rain 21 1018 78 10000 6.17 90 16:57 24.12.2021
4699 Clouds 21 1018 76 10000 6.17 90 16:22 24.12.2021
4700 Rain 22 1018 64 10000 7.2 110 15:48 24.12.2021
4701 Clouds 24 1017 53 10000 7.2 90 14:47 24.12.2021
4702 Clouds 24 1017 53 10000 7.2 90 14:26 24.12.2021
4703 Clouds 24 1018 54 10000 8.23 50 13:41 24.12.2021
4704 Rain 24 1018 55 10000 8.23 90 12:49 24.12.2021
4705 Rain 23 1020 64 10000 7.2 40 12:21 24.12.2021
4706 Rain 23 1019 62 10000 6.17 90 11:30 24.12.2021
4707 Rain 23 1020 60 10000 5.14 70 10:59 24.12.2021
4708 Clouds 23 1020 60 10000 5.14 70 10:31 24.12.2021
4709 Clouds 22 1021 68 10000 5.14 90 08:36 24.12.2021
4710 Clouds 20 1021 75 10000 5.14 90 07:58 24.12.2021
4711 Clouds 18 1021 88 10000 3.09 60 06:18 24.12.2021
4712 Clouds 18 1015 93 10000 3.26 31 00:20 24.12.2021
4713 Rain 17 1020 94 10000 3.09 30 23:33 23.12.2021
4714 Clouds 17 1021 94 10000 3.6 80 22:44 23.12.2021
4715 Clouds 17 1021 94 10000 3.6 80 22:22 23.12.2021
4716 Rain 17 1021 94 10000 4.63 60 21:39 23.12.2021
4717 Rain 17 1022 94 10000 5.66 40 20:22 23.12.2021
4718 Rain 17 1021 94 10000 8.75 70 19:28 23.12.2021
4719 Rain 19 1019 80 10000 6.17 80 17:58 23.12.2021
4720 Rain 21 1019 78 10000 6.69 90 17:18 23.12.2021
4721 Rain 21 1018 68 10000 7.72 90 16:26 23.12.2021
4722 Rain 22 1017 64 10000 9.26 100 15:33 23.12.2021
4723 Rain 23 1017 64 10000 10.8 90 14:59 23.12.2021
4724 Rain 23 1017 64 10000 10.8 90 14:39 23.12.2021
4725 Rain 25 1019 57 10000 7.72 60 13:25 23.12.2021
4726 Rain 24 1020 60 10000 8.23 70 11:27 23.12.2021
4727 Clouds 21 1020 68 10000 6.69 80 09:53 23.12.2021
4728 Clouds 21 1020 68 10000 6.69 80 09:34 23.12.2021
4729 Clouds 19 1022 82 10000 4.63 40 08:28 23.12.2021
4730 Clouds 17 1020 94 10000 4.12 60 05:39 23.12.2021
4731 Rain 16 1020 100 10000 3.09 90 01:31 23.12.2021
4732 Rain 17 1022 97 10000 4.12 70 22:51 22.12.2021
4733 Rain 18 1022 94 10000 3.09 60 21:59 22.12.2021
4734 Rain 18 1022 94 10000 3.09 60 21:36 22.12.2021
4735 Rain 18 1023 94 10000 3.09 40 21:18 22.12.2021
4736 Rain 18 1022 94 10000 3.6 40 20:40 22.12.2021
4737 Rain 18 1021 91 10000 3.09 70 19:54 22.12.2021
4738 Rain 18 1020 91 10000 4.12 90 18:55 22.12.2021
4739 Rain 19 1020 88 10000 4.12 100 17:38 22.12.2021
4740 Clouds 22 1019 73 10000 4.63 70 16:22 22.12.2021
4741 Rain 22 1018 68 10000 5.14 60 14:33 22.12.2021
4742 Clouds 21 1019 71 10000 6.17 70 12:55 22.12.2021
4743 Rain 21 1020 68 10000 9.26 70 11:48 22.12.2021
4744 Rain 20 1021 77 10000 6.17 50 09:52 22.12.2021
4745 Clouds 19 1022 80 10000 5.14 90 08:23 22.12.2021
4746 Clouds 16 1021 94 10000 0 0 05:56 22.12.2021
4747 Clouds 16 1021 94 10000 0 0 05:37 22.12.2021
4748 Clouds 18 1017 96 8852 2.11 52 05:19 22.12.2021
4749 Clouds 15 1021 94 10000 0 0 04:40 22.12.2021
4750 Clouds 18 1016 96 10000 2.23 51 03:52 22.12.2021
4751 Clouds 18 1016 96 10000 2.57 44 03:31 22.12.2021
4752 Clouds 16 1023 94 10000 3.6 40 23:48 21.12.2021
4753 Rain 16 1023 94 10000 5.14 60 22:41 21.12.2021
4754 Drizzle 16 1024 94 10000 3.6 30 21:57 21.12.2021
4755 Drizzle 16 1024 94 10000 3.6 30 21:33 21.12.2021
4756 Rain 17 1024 97 10000 5.14 60 20:42 21.12.2021
4757 Clouds 17 1018 96 10000 4.42 54 20:18 21.12.2021
4758 Rain 17 1023 94 10000 5.14 60 19:34 21.12.2021
4759 Rain 18 1023 94 10000 3.6 80 18:28 21.12.2021
4760 Rain 18 1021 93 10000 5.14 60 17:58 21.12.2021
4761 Rain 18 1021 93 10000 5.14 60 17:39 21.12.2021
4762 Rain 21 1019 78 10000 2.06 90 15:46 21.12.2021
4763 Rain 23 1013 75 10000 5.74 68 14:24 21.12.2021
4764 Rain 21 1020 76 10000 7.72 90 13:42 21.12.2021
4765 Rain 20 1021 82 10000 6.17 90 12:29 21.12.2021
4766 Rain 19 1023 85 10000 7.72 90 10:39 21.12.2021
4767 Rain 18 1023 94 10000 5.14 90 09:56 21.12.2021
4768 Rain 17 1023 91 8000 6.17 70 08:57 21.12.2021
4769 Rain 18 1023 97 10000 5.14 70 07:45 21.12.2021
4770 Rain 18 1019 91 10000 4.37 70 07:23 21.12.2021
4771 Drizzle 16 1022 97 10000 5.14 90 04:26 21.12.2021
4772 Rain 17 1022 100 10000 5.14 60 02:30 21.12.2021
4773 Rain 18 1022 94 10000 5.14 80 23:54 20.12.2021
4774 Clouds 18 1022 94 10000 4.12 70 22:36 20.12.2021
4775 Clouds 18 1022 91 10000 3.09 90 21:59 20.12.2021
4776 Rain 18 1023 94 10000 5.14 60 21:27 20.12.2021
4777 Rain 19 1023 88 10000 6.17 70 20:55 20.12.2021
4778 Clouds 19 1017 96 10000 5.06 60 20:24 20.12.2021
4779 Clouds 19 1022 91 10000 5.14 50 19:38 20.12.2021
4780 Clouds 19 1017 96 10000 4.66 59 19:20 20.12.2021
4781 Rain 20 1022 83 10000 6.69 60 18:33 20.12.2021
4782 Rain 21 1020 72 10000 8.23 90 17:51 20.12.2021
4783 Rain 23 1019 64 10000 7.2 70 16:47 20.12.2021
4784 Rain 23 1019 64 10000 7.2 70 16:25 20.12.2021
4785 Rain 24 1018 57 10000 6.17 90 15:40 20.12.2021
4786 Rain 25 1018 53 10000 6.17 60 14:26 20.12.2021
4787 Rain 26 1020 53 10000 8.23 60 12:40 20.12.2021
4788 Rain 24 1021 53 10000 6.17 70 10:51 20.12.2021
4789 Rain 23 1022 64 10000 5.14 70 09:44 20.12.2021
4790 Clouds 21 1023 73 10000 5.66 50 08:56 20.12.2021
4791 Clouds 21 1023 73 10000 5.66 50 08:38 20.12.2021
4792 Clouds 19 1023 82 10000 5.66 70 07:38 20.12.2021
4793 Clouds 18 1022 94 9000 4.63 60 06:39 20.12.2021
4794 Clouds 18 1020 94 10000 4.63 50 01:33 20.12.2021
4795 Clouds 18 1021 91 10000 5.14 100 23:28 19.12.2021
4796 Clouds 19 1022 91 10000 6.17 90 22:44 19.12.2021
4797 Clouds 19 1022 91 10000 4.63 70 21:44 19.12.2021
4798 Clouds 18 1022 91 10000 4.63 70 21:25 19.12.2021
4799 Clouds 20 1017 95 10000 4.6 57 20:24 19.12.2021
4800 Clouds 19 1021 85 10000 5.14 70 19:42 19.12.2021
4801 Rain 19 1020 77 10000 6.69 70 18:50 19.12.2021
4802 Rain 21 1019 68 10000 7.2 80 17:54 19.12.2021
4803 Rain 22 1019 68 10000 7.2 80 17:35 19.12.2021
4804 Rain 23 1018 60 10000 4.63 60 16:45 19.12.2021
4805 Rain 24 1018 56 10000 8.75 90 15:56 19.12.2021
4806 Rain 24 1018 53 10000 8.75 90 15:25 19.12.2021
4807 Rain 25 1017 51 10000 7.2 80 14:48 19.12.2021
4808 Clouds 25 1018 51 10000 8.23 90 13:38 19.12.2021
4809 Clouds 24 1019 59 10000 7.2 80 12:59 19.12.2021
4810 Clouds 24 1019 57 10000 7.2 80 12:32 19.12.2021
4811 Clouds 23 1020 60 10000 7.72 90 11:38 19.12.2021
4812 Clouds 23 1021 59 10000 4.63 40 10:50 19.12.2021
4813 Clouds 23 1022 64 10000 6.17 50 10:22 19.12.2021
4814 Clouds 21 1022 73 10000 4.12 50 08:55 19.12.2021
4815 Rain 18 1022 94 10000 0 0 06:54 19.12.2021
4816 Rain 17 1021 100 10000 3.09 60 02:30 19.12.2021
4817 Clouds 18 1022 94 10000 3.6 40 00:55 19.12.2021
4818 Clouds 19 1016 97 9243 3.93 46 23:21 18.12.2021
4819 Clouds 19 1022 88 10000 5.14 90 22:29 18.12.2021
4820 Clouds 19 1023 88 10000 3.6 40 21:44 18.12.2021
4821 Clouds 19 1023 88 10000 3.6 40 21:26 18.12.2021
4822 Clouds 19 1023 88 10000 4.12 30 20:43 18.12.2021
4823 Rain 20 1021 83 10000 5.14 60 19:40 18.12.2021
4824 Rain 21 1020 73 10000 5.14 60 18:26 18.12.2021
4825 Rain 21 1019 66 10000 5.14 60 17:49 18.12.2021
4826 Rain 23 1019 60 10000 7.72 60 16:50 18.12.2021
4827 Rain 22 1013 82 10000 4.55 59 16:21 18.12.2021
4828 Rain 24 1012 73 10000 5.68 66 15:25 18.12.2021
4829 Rain 25 1011 68 10000 5.59 68 14:19 18.12.2021
4830 Clouds 24 1011 46 10000 5.75 76 12:21 18.12.2021
4831 Clouds 23 1021 56 10000 5.14 40 10:42 18.12.2021
4832 Clouds 22 1022 62 10000 6.17 60 09:32 18.12.2021
4833 Clouds 21 1022 68 10000 5.14 60 08:37 18.12.2021
4834 Clouds 19 1022 77 10000 4.12 60 07:42 18.12.2021
4835 Clouds 16 1021 94 10000 2.06 10 01:47 18.12.2021
4836 Clouds 15 1015 90 10000 2.84 34 00:23 18.12.2021
4837 Clear 15 1022 100 10000 2.06 10 23:35 17.12.2021
4838 Clear 16 1023 94 10000 2.06 40 21:50 17.12.2021
4839 Clear 17 1023 88 10000 4.12 40 20:49 17.12.2021
4840 Clear 17 1023 88 10000 4.12 40 20:21 17.12.2021
4841 Clear 19 1021 72 10000 4.12 50 18:50 17.12.2021
4842 Clouds 19 1016 93 10000 5.69 58 18:19 17.12.2021
4843 Clouds 19 1015 91 10000 5.69 65 17:20 17.12.2021
4844 Clouds 20 1013 80 10000 6.36 69 16:29 17.12.2021
4845 Clouds 23 1018 56 10000 5.14 70 15:51 17.12.2021
4846 Clouds 24 1018 51 10000 10.29 50 14:43 17.12.2021
4847 Rain 23 1019 55 10000 9.26 60 13:56 17.12.2021
4848 Clouds 24 1019 51 10000 7.72 60 12:38 17.12.2021
4849 Clouds 22 1021 60 10000 5.14 60 10:49 17.12.2021
4850 Clouds 21 1022 60 10000 6.17 60 09:51 17.12.2021
4851 Clouds 20 1023 73 10000 6.17 30 08:43 17.12.2021
4852 Clouds 22 1016 64 10000 5.44 58 08:18 17.12.2021
4853 Clouds 16 1020 94 10000 4.12 70 04:57 17.12.2021
4854 Clouds 16 1020 100 10000 3.09 40 00:58 17.12.2021
4855 Clouds 17 1022 94 10000 4.63 60 22:44 16.12.2021
4856 Clouds 17 1022 94 10000 4.63 60 22:22 16.12.2021
4857 Clouds 18 1022 94 10000 3.09 40 21:43 16.12.2021
4858 Clouds 18 1021 84 10000 4.12 70 20:42 16.12.2021
4859 Clouds 18 1016 92 10000 6.22 58 20:21 16.12.2021
4860 Clouds 19 1021 82 10000 5.14 60 19:30 16.12.2021
4861 Clouds 19 1021 82 10000 6.17 50 18:33 16.12.2021
4862 Clouds 20 1019 75 10000 6.17 70 17:46 16.12.2021
4863 Clouds 21 1012 75 10000 7.08 69 16:24 16.12.2021
4864 Clouds 24 1018 53 10000 7.2 50 15:38 16.12.2021
4865 Clouds 23 1018 56 10000 8.23 70 13:45 16.12.2021
4866 Clouds 23 1019 56 10000 5.14 70 12:26 16.12.2021
4867 Clouds 24 1012 44 10000 6.55 66 11:19 16.12.2021
4868 Clouds 21 1020 73 10000 7.2 90 10:39 16.12.2021
4869 Clouds 20 1021 77 10000 6.17 70 09:43 16.12.2021
4870 Clouds 18 1017 91 10000 3.91 54 06:23 16.12.2021
4871 Clouds 17 1015 96 6876 3.18 58 04:33 16.12.2021
4872 Rain 17 1020 94 10000 2.57 60 23:47 15.12.2021
4873 Clouds 17 1020 88 10000 5.66 70 22:49 15.12.2021
4874 Clouds 18 1015 96 10000 5.34 55 22:21 15.12.2021
4875 Clouds 18 1021 88 10000 6.69 80 21:31 15.12.2021
4876 Clouds 18 1021 88 10000 6.69 80 21:31 15.12.2021
4877 Clouds 18 1021 88 10000 4.12 70 20:41 15.12.2021
4878 Clouds 18 1020 94 10000 5.14 60 19:53 15.12.2021
4879 Clouds 19 1015 97 10000 4.6 57 19:18 15.12.2021
4880 Rain 19 1014 96 10000 4.49 61 18:19 15.12.2021
4881 Rain 20 1018 77 10000 4.63 80 17:45 15.12.2021
4882 Rain 20 1019 73 10000 5.66 70 17:21 15.12.2021
4883 Rain 22 1017 68 10000 8.23 90 15:48 15.12.2021
4884 Rain 22 1017 68 10000 8.23 90 15:29 15.12.2021
4885 Rain 23 1016 64 10000 8.23 50 14:44 15.12.2021
4886 Rain 24 1018 57 10000 7.2 100 13:28 15.12.2021
4887 Rain 21 1019 68 10000 6.69 50 11:41 15.12.2021
4888 Clouds 22 1013 61 10000 5.11 62 10:18 15.12.2021
4889 Clouds 19 1021 82 10000 2.57 50 08:25 15.12.2021
4890 Rain 17 1020 94 8000 2.57 70 05:51 15.12.2021
4891 Clouds 17 1020 94 10000 2.57 60 00:32 15.12.2021
4892 Clouds 18 1015 97 5703 4.05 54 23:21 14.12.2021
4893 Clouds 17 1020 94 10000 4.12 80 22:42 14.12.2021
4894 Clouds 17 1022 94 10000 3.6 30 21:38 14.12.2021
4895 Clouds 19 1016 96 10000 4.31 54 20:21 14.12.2021
4896 Rain 18 1015 96 10000 4.37 54 19:26 14.12.2021
4897 Rain 18 1020 88 10000 4.63 50 18:38 14.12.2021
4898 Rain 19 1019 82 10000 5.14 60 17:53 14.12.2021
4899 Rain 20 1018 73 10000 5.14 90 16:43 14.12.2021
4900 Rain 20 1018 73 10000 5.14 90 16:43 14.12.2021
4901 Rain 19 1012 76 10000 5.09 63 16:18 14.12.2021
4902 Rain 21 1010 63 10000 4.87 73 13:59 14.12.2021
4903 Rain 22 1009 53 10000 5.06 74 12:50 14.12.2021
4904 Clouds 24 1011 51 10000 4.28 72 11:25 14.12.2021
4905 Clouds 25 1011 51 10000 4.27 72 10:59 14.12.2021
4906 Rain 25 1013 57 10000 3.95 66 09:54 14.12.2021
4907 Rain 24 1014 64 10000 3.66 69 08:49 14.12.2021
4908 Clouds 22 1015 70 10000 3.89 66 08:21 14.12.2021
4909 Clouds 21 1016 76 10000 4.05 57 07:23 14.12.2021
4910 Clouds 15 1014 95 10000 3.16 38 23:51 13.12.2021
4911 Clouds 18 1016 94 10000 3.4 43 22:24 13.12.2021
4912 Clouds 18 1016 94 10000 3.4 43 21:39 13.12.2021
4913 Clouds 18 1017 96 10000 3.73 50 20:51 13.12.2021
4914 Clouds 18 1017 96 10000 3.73 50 20:51 13.12.2021
4915 Clouds 18 1017 94 10000 4.26 51 20:21 13.12.2021
4916 Clouds 18 1017 94 10000 4.26 51 19:49 13.12.2021
4917 Clouds 18 1017 94 10000 4.26 51 19:49 13.12.2021
4918 Clouds 20 1014 87 10000 5.41 64 17:27 13.12.2021
4919 Clouds 17 1014 87 10000 5.41 64 16:43 13.12.2021
4920 Clouds 19 1013 73 10000 6.31 69 15:43 13.12.2021
4921 Clouds 21 1011 62 10000 6.69 72 14:42 13.12.2021
4922 Clouds 24 1011 57 10000 6.18 73 13:37 13.12.2021
4923 Clouds 25 1011 51 10000 6.28 77 12:40 13.12.2021
4924 Clouds 25 1011 46 10000 6.06 72 11:52 13.12.2021
4925 Clouds 25 1012 46 10000 5.82 65 11:29 13.12.2021
4926 Clouds 25 1012 46 10000 5.82 65 10:36 13.12.2021
4927 Clouds 22 1015 53 10000 5.89 56 08:44 13.12.2021
4928 Clouds 19 1017 72 10000 4.85 56 06:55 13.12.2021
4929 Clouds 17 1017 92 10000 2.55 58 05:19 13.12.2021
4930 Clouds 17 1015 93 10000 3.65 46 00:27 13.12.2021
4931 Clouds 17 1017 95 10000 4.7 46 21:59 12.12.2021
4932 Clouds 17 1017 95 10000 4.97 53 21:24 12.12.2021
4933 Clouds 18 1017 93 10000 5.44 59 19:36 12.12.2021
4934 Clouds 18 1015 93 10000 5.63 62 18:23 12.12.2021
4935 Clouds 19 1014 86 10000 6.31 65 16:40 12.12.2021
4936 Clouds 22 1013 75 10000 6.74 66 15:58 12.12.2021
4937 Clouds 22 1012 66 10000 6.83 70 15:28 12.12.2021
4938 Clouds 23 1012 66 10000 6.83 70 14:51 12.12.2021
4939 Clouds 23 1011 56 10000 6.68 70 14:19 12.12.2021
4940 Clouds 24 1011 48 10000 6.58 67 12:48 12.12.2021
4941 Clouds 24 1012 46 10000 6.78 70 11:59 12.12.2021
4942 Clouds 25 1013 45 10000 6.68 70 11:32 12.12.2021
4943 Clouds 24 1013 45 10000 6.68 70 10:44 12.12.2021
4944 Clouds 24 1014 47 10000 6.62 67 10:21 12.12.2021
4945 Clouds 22 1015 51 10000 6.59 63 08:48 12.12.2021
4946 Clouds 20 1017 64 10000 5.61 59 07:28 12.12.2021
4947 Clouds 17 1017 80 10000 3.37 58 05:29 12.12.2021
4948 Clouds 17 1017 80 10000 3.37 58 04:51 12.12.2021
4949 Clouds 15 1015 76 10000 4.12 44 01:26 12.12.2021
4950 Clouds 17 1016 78 10000 4.39 49 23:26 11.12.2021
4951 Clouds 15 1022 82 10000 3.09 30 22:21 11.12.2021
4952 Clouds 17 1021 74 10000 2.57 60 21:35 11.12.2021
4953 Clouds 18 1022 68 10000 4.63 40 20:19 11.12.2021
4954 Clouds 18 1021 67 10000 5.14 80 19:21 11.12.2021
4955 Clouds 18 1020 61 10000 3.09 70 18:48 11.12.2021
4956 Clouds 20 1019 47 10000 6.69 70 17:56 11.12.2021
4957 Clouds 22 1018 38 10000 8.23 60 16:39 11.12.2021
4958 Clouds 24 1017 37 10000 10.8 90 15:46 11.12.2021
4959 Clouds 24 1017 41 10000 8.23 100 14:46 11.12.2021
4960 Clouds 25 1018 38 10000 5.14 80 12:41 11.12.2021
4961 Clouds 24 1020 41 10000 8.75 30 11:18 11.12.2021
4962 Clouds 21 1021 58 10000 6.17 80 09:45 11.12.2021
4963 Clouds 16 1021 91 10000 4.12 70 05:36 11.12.2021
4964 Clouds 18 1015 92 10000 3.64 45 00:50 11.12.2021
4965 Clouds 17 1021 82 10000 3.09 50 23:45 10.12.2021
4966 Clouds 18 1016 93 10000 4.02 56 23:18 10.12.2021
4967 Clouds 17 1022 77 10000 2.57 30 21:51 10.12.2021
4968 Clouds 18 1016 90 10000 4.5 55 20:35 10.12.2021
4969 Clouds 18 1016 89 10000 5 56 19:19 10.12.2021
4970 Clouds 21 1019 58 10000 6.17 60 17:54 10.12.2021
4971 Clouds 19 1013 67 10000 6.22 61 16:55 10.12.2021
4972 Clouds 24 1018 45 10000 5.14 60 15:47 10.12.2021
4973 Clouds 25 1018 38 10000 7.72 50 15:29 10.12.2021
4974 Clouds 24 1017 41 10000 7.72 70 14:57 10.12.2021
4975 Clouds 24 1018 42 10000 7.72 50 13:50 10.12.2021
4976 Clouds 24 1010 41 10000 5.8 77 13:20 10.12.2021
4977 Clouds 24 1019 44 10000 7.72 40 12:23 10.12.2021
4978 Clouds 24 1020 45 10000 6.17 40 11:28 10.12.2021
4979 Clouds 21 1021 68 10000 5.14 30 09:54 10.12.2021
4980 Clouds 20 1022 71 10000 5.14 90 08:30 10.12.2021
4981 Clouds 17 1021 94 10000 5.14 120 05:56 10.12.2021
4982 Clouds 17 1020 94 10000 3.09 100 02:48 10.12.2021
4983 Clouds 17 1021 91 10000 0 0 23:46 09.12.2021
4984 Clouds 17 1022 94 10000 4.12 80 22:59 09.12.2021
4985 Clouds 18 1022 94 10000 5.14 80 22:24 09.12.2021
4986 Clouds 18 1023 94 10000 4.63 90 21:49 09.12.2021
4987 Clouds 18 1023 88 10000 4.12 60 20:41 09.12.2021
4988 Rain 18 1023 88 9159 5.66 70 20:20 09.12.2021
4989 Rain 19 1022 88 5633 7.2 80 19:21 09.12.2021
4990 Rain 21 1020 56 10000 5.14 60 18:35 09.12.2021
4991 Rain 22 1020 53 10000 5.14 60 17:51 09.12.2021
4992 Rain 22 1020 56 10000 5.66 70 17:25 09.12.2021
4993 Rain 23 1018 49 10000 5.14 60 16:53 09.12.2021
4994 Clouds 24 1018 49 10000 5.14 60 15:32 09.12.2021
4995 Clouds 25 1019 44 10000 5.66 60 14:46 09.12.2021
4996 Rain 25 1020 47 10000 6.17 70 13:19 09.12.2021
4997 Rain 24 1019 50 10000 4.12 90 12:37 09.12.2021
4998 Rain 24 1022 50 10000 5.14 60 11:21 09.12.2021
4999 Rain 20 1023 78 10000 5.14 60 08:54 09.12.2021
5000 Clouds 18 1023 91 10000 3.09 50 06:44 09.12.2021
5001 Clouds 17 1021 94 10000 2.57 70 03:40 09.12.2021
5002 Rain 18 1022 94 10000 4.12 90 23:43 08.12.2021
5003 Rain 18 1017 97 10000 2.93 48 23:21 08.12.2021
5004 Rain 19 1022 88 10000 6.69 100 22:47 08.12.2021
5005 Rain 18 1023 88 10000 4.12 70 21:40 08.12.2021
5006 Rain 19 1023 88 10000 5.66 80 20:59 08.12.2021
5007 Rain 19 1023 82 10000 7.2 50 19:58 08.12.2021
5008 Rain 20 1022 77 10000 7.2 50 19:34 08.12.2021
5009 Rain 21 1021 73 10000 5.14 60 18:45 08.12.2021
5010 Rain 22 1020 68 10000 7.72 70 17:36 08.12.2021
5011 Rain 22 1020 68 10000 7.72 70 17:36 08.12.2021
5012 Rain 25 1018 49 10000 4.63 50 15:51 08.12.2021
5013 Rain 25 1018 49 10000 4.63 50 15:28 08.12.2021
5014 Clouds 25 1018 48 10000 5.66 90 14:31 08.12.2021
5015 Clouds 26 1013 44 10000 3.91 84 11:19 08.12.2021
5016 Clouds 23 1022 59 10000 5.14 50 10:31 08.12.2021
5017 Clouds 21 1023 70 10000 3.6 90 08:56 08.12.2021
5018 Clouds 18 1023 82 10000 5.14 30 07:25 08.12.2021
5019 Clouds 17 1022 94 10000 4.12 110 04:57 08.12.2021
5020 Clouds 18 1022 91 10000 0 0 23:34 07.12.2021
5021 Clouds 19 1022 82 10000 3.09 60 21:51 07.12.2021
5022 Clouds 19 1022 82 10000 3.09 60 21:23 07.12.2021
5023 Clouds 19 1023 77 10000 4.12 40 20:20 07.12.2021
5024 Clouds 20 1021 62 10000 4.12 70 18:47 07.12.2021
5025 Clouds 21 1020 58 10000 5.14 90 17:53 07.12.2021
5026 Clouds 22 1021 46 10000 5.14 80 17:19 07.12.2021
5027 Clouds 23 1020 51 10000 5.14 80 16:31 07.12.2021
5028 Clouds 24 1019 44 10000 5.14 100 15:34 07.12.2021
5029 Clouds 25 1020 47 10000 4.63 60 14:23 07.12.2021
5030 Clouds 24 1020 50 10000 6.17 60 12:55 07.12.2021
5031 Clouds 25 1022 50 10000 5.66 70 11:29 07.12.2021
5032 Clouds 22 1022 56 10000 5.14 90 10:36 07.12.2021
5033 Clouds 19 1023 78 10000 3.09 90 08:39 07.12.2021
5034 Clouds 17 1024 94 10000 3.6 70 06:20 07.12.2021
5035 Clouds 17 1022 91 10000 3.09 90 05:37 07.12.2021
5036 Clouds 17 1023 88 10000 2.57 10 23:49 06.12.2021
5037 Clouds 17 1023 88 10000 2.57 40 22:58 06.12.2021
5038 Clouds 17 1023 88 10000 4.12 40 22:37 06.12.2021
5039 Clouds 18 1023 76 10000 2.57 40 21:52 06.12.2021
5040 Clouds 18 1024 72 10000 3.09 20 20:40 06.12.2021
5041 Clouds 17 1023 77 10000 3.09 40 20:22 06.12.2021
5042 Clouds 18 1022 72 10000 3.6 40 19:22 06.12.2021
5043 Clouds 21 1021 60 10000 4.12 70 18:29 06.12.2021
5044 Clouds 21 1020 61 10000 5.14 80 17:41 06.12.2021
5045 Clouds 23 1020 52 10000 5.14 80 16:49 06.12.2021
5046 Clouds 24 1019 50 10000 7.72 60 15:41 06.12.2021
5047 Clouds 24 1021 52 10000 5.14 60 13:46 06.12.2021
5048 Clouds 23 1021 56 10000 5.14 110 12:40 06.12.2021
5049 Clouds 22 1021 58 10000 4.12 60 11:48 06.12.2021
5050 Clouds 20 1024 73 10000 4.63 20 09:20 06.12.2021
5051 Clouds 17 1023 87 10000 5.14 90 06:43 06.12.2021
5052 Clouds 17 1017 95 10000 3.19 48 23:44 05.12.2021
5053 Clouds 18 1024 88 10000 3.6 40 21:52 05.12.2021
5054 Clouds 18 1018 96 10000 3.56 53 21:24 05.12.2021
5055 Rain 18 1023 88 10000 3.09 40 20:19 05.12.2021
5056 Rain 18 1022 79 10000 4.12 100 19:36 05.12.2021
5057 Rain 18 1023 82 10000 4.63 90 19:18 05.12.2021
5058 Clouds 19 1021 72 10000 4.12 60 18:20 05.12.2021
5059 Clouds 20 1020 66 10000 4.12 70 17:48 05.12.2021
5060 Clouds 22 1020 58 10000 6.17 70 16:50 05.12.2021
5061 Clouds 22 1020 58 10000 6.17 70 16:27 05.12.2021
5062 Clouds 23 1019 53 10000 7.72 70 15:49 05.12.2021
5063 Clouds 24 1019 74 10000 10.29 90 14:43 05.12.2021
5064 Clouds 24 1019 74 10000 10.29 90 14:25 05.12.2021
5065 Clouds 24 1020 73 10000 6.17 90 13:27 05.12.2021
5066 Rain 22 1021 77 10000 6.17 90 12:40 05.12.2021
5067 Rain 23 1022 56 10000 6.17 50 12:18 05.12.2021
5068 Rain 22 1021 74 10000 6.17 40 11:34 05.12.2021
5069 Rain 21 1023 64 10000 6.69 50 10:18 05.12.2021
5070 Rain 20 1023 83 10000 5.14 90 08:45 05.12.2021
5071 Rain 15 1021 97 10000 4.12 60 04:56 05.12.2021
5072 Clouds 17 1021 94 10000 3.09 50 00:48 05.12.2021
5073 Clouds 18 1023 88 10000 2.06 50 22:18 04.12.2021
5074 Rain 17 1023 88 10000 2.57 10 21:20 04.12.2021
5075 Clouds 18 1022 89 10000 2.57 30 20:27 04.12.2021
5076 Clouds 18 1022 89 10000 4.12 50 19:32 04.12.2021
5077 Clouds 18 1021 89 10000 2.06 70 18:22 04.12.2021
5078 Clouds 19 1021 94 10000 3.09 70 17:42 04.12.2021
5079 Clouds 19 1021 77 10000 6.69 90 17:19 04.12.2021
5080 Clouds 21 1020 79 10000 9.26 90 16:42 04.12.2021
5081 Rain 21 1020 79 10000 9.26 90 16:23 04.12.2021
5082 Rain 22 1021 71 10000 6.69 100 11:55 04.12.2021
5083 Rain 21 1021 83 10000 6.69 100 11:33 04.12.2021
5084 Rain 21 1022 83 10000 6.17 80 10:56 04.12.2021
5085 Rain 17 1023 89 10000 2.57 40 08:52 04.12.2021
5086 Rain 17 1024 88 10000 5.14 80 07:22 04.12.2021
5087 Clouds 16 1021 97 10000 4.12 90 04:42 04.12.2021
5088 Clouds 17 1016 95 10000 3.07 49 00:49 04.12.2021
5089 Clouds 18 1017 93 10000 3.56 55 23:29 03.12.2021
5090 Rain 18 1022 88 10000 0 0 22:50 03.12.2021
5091 Rain 18 1023 88 10000 2.57 20 21:50 03.12.2021
5092 Rain 18 1023 94 10000 3.09 20 20:56 03.12.2021
5093 Rain 18 1023 94 10000 3.09 20 20:27 03.12.2021
5094 Rain 18 1022 88 10000 2.06 20 19:20 03.12.2021
5095 Rain 19 1022 82 10000 1.54 50 18:22 03.12.2021
5096 Rain 19 1020 87 10000 0 0 17:30 03.12.2021
5097 Rain 21 1020 75 10000 5.14 90 13:35 03.12.2021
5098 Rain 24 1022 53 10000 3.6 80 12:21 03.12.2021
5099 Rain 20 1023 68 10000 3.09 70 11:19 03.12.2021
5100 Rain 16 1023 97 10000 5.14 120 08:40 03.12.2021
5101 Rain 17 1023 97 10000 5.14 130 07:44 03.12.2021
5102 Rain 16 1022 97 8000 5.14 120 06:41 03.12.2021
5103 Clouds 15 1020 100 10000 2.57 60 00:49 03.12.2021
5104 Clouds 16 1021 94 10000 1.54 20 23:48 02.12.2021
5105 Clouds 16 1021 94 10000 2.06 340 22:54 02.12.2021
5106 Rain 16 1022 94 10000 2.57 10 21:41 02.12.2021
5107 Rain 16 1022 100 10000 2.57 330 20:46 02.12.2021
5108 Rain 16 1022 100 10000 2.57 330 20:23 02.12.2021
5109 Rain 17 1021 94 10000 0 0 19:22 02.12.2021
5110 Rain 20 1018 79 10000 0 0 16:53 02.12.2021
5111 Rain 20 1018 75 10000 2.57 60 15:41 02.12.2021
5112 Rain 20 1018 73 10000 5.14 60 14:53 02.12.2021
5113 Rain 20 1018 77 10000 2.57 130 13:39 02.12.2021
5114 Rain 18 1019 85 10000 5.14 90 12:46 02.12.2021
5115 Rain 17 1021 94 10000 2.57 340 11:45 02.12.2021
5116 Rain 18 1021 94 8000 0 0 09:27 02.12.2021
5117 Clouds 21 1016 71 10000 3.98 58 08:19 02.12.2021
5118 Clouds 17 1020 88 10000 2.57 50 01:38 02.12.2021
5119 Clouds 17 1020 94 10000 3.09 20 00:50 02.12.2021
5120 Clouds 18 1016 93 10000 3.58 46 22:33 01.12.2021
5121 Clouds 19 1021 82 10000 5.14 30 21:54 01.12.2021
5122 Clouds 19 1022 77 10000 4.12 40 20:35 01.12.2021
5123 Clouds 19 1020 75 10000 3.09 40 19:47 01.12.2021
5124 Clouds 20 1019 72 10000 4.12 60 18:55 01.12.2021
5125 Clouds 21 1018 66 10000 4.12 60 17:39 01.12.2021
5126 Clouds 23 1018 58 10000 6.17 70 16:38 01.12.2021
5127 Clouds 25 1017 55 10000 7.72 110 14:48 01.12.2021
5128 Clouds 26 1018 36 10000 7.2 50 13:38 01.12.2021
5129 Clouds 25 1020 41 10000 6.69 60 11:34 01.12.2021
5130 Clouds 24 1020 47 10000 5.14 60 10:41 01.12.2021
5131 Clouds 20 1022 73 10000 2.57 60 08:54 01.12.2021
5132 Clouds 19 1023 82 10000 3.6 30 08:26 01.12.2021
5133 Clouds 19 1022 79 10000 5.14 90 07:32 01.12.2021
5134 Clouds 18 1015 93 10000 3.6 44 04:20 01.12.2021
5135 Clouds 18 1015 93 10000 3.57 44 03:38 01.12.2021
5136 Clouds 17 1021 94 10000 3.23 44 00:48 01.12.2021
5137 Clouds 16 1021 94 10000 2.06 360 23:37 30.11.2021
5138 Clouds 17 1022 88 10000 3.09 40 22:42 30.11.2021
5139 Clouds 17 1022 79 10000 3.09 90 20:59 30.11.2021
5140 Clouds 17 1022 79 10000 3.09 90 20:34 30.11.2021
5141 Clouds 18 1021 77 10000 3.09 70 19:53 30.11.2021
5142 Clouds 18 1021 77 10000 3.09 70 19:27 30.11.2021
5143 Clouds 19 1020 70 10000 5.14 80 18:33 30.11.2021
5144 Clouds 21 1019 64 10000 5.14 60 16:34 30.11.2021
5145 Rain 22 1018 64 10000 6.17 60 14:35 30.11.2021
5146 Clouds 23 1019 59 10000 5.14 90 13:52 30.11.2021
5147 Clouds 23 1011 57 10000 6.38 70 13:24 30.11.2021
5148 Clouds 22 1019 60 10000 5.14 90 12:45 30.11.2021
5149 Clouds 22 1020 60 10000 7.2 90 11:27 30.11.2021
5150 Clouds 21 1021 66 10000 7.2 60 10:53 30.11.2021
5151 Clouds 21 1021 66 10000 7.2 60 10:30 30.11.2021
5152 Clouds 18 1022 85 10000 0 0 08:51 30.11.2021
5153 Rain 17 1023 94 10000 4.12 70 08:20 30.11.2021
5154 Rain 17 1022 94 8000 3.6 50 07:40 30.11.2021
5155 Rain 16 1019 100 10000 4.12 30 01:58 30.11.2021
5156 Rain 16 1019 100 10000 4.12 30 01:38 30.11.2021
5157 Clouds 18 1020 93 10000 0 0 23:57 29.11.2021
5158 Clouds 18 1021 94 10000 1.03 10 23:23 29.11.2021
5159 Clouds 17 1020 97 10000 0 0 22:52 29.11.2021
5160 Clouds 17 1020 97 10000 0 0 22:32 29.11.2021
5161 Clouds 17 1020 94 10000 0 0 21:23 29.11.2021
5162 Clouds 18 1021 87 10000 2.06 70 20:57 29.11.2021
5163 Rain 18 1021 87 10000 2.06 70 20:29 29.11.2021
5164 Rain 18 1020 87 10000 2.57 60 19:55 29.11.2021
5165 Rain 19 1020 85 10000 2.57 60 19:34 29.11.2021
5166 Rain 19 1016 92 10000 3.5 49 18:51 29.11.2021
5167 Rain 17 1015 89 10000 4.03 51 17:49 29.11.2021
5168 Rain 18 1014 85 10000 4.52 61 17:18 29.11.2021
5169 Rain 20 1012 73 10000 5.15 68 16:29 29.11.2021
5170 Rain 20 1012 73 10000 5.15 68 15:45 29.11.2021
5171 Rain 21 1011 65 10000 5.58 69 14:42 29.11.2021
5172 Rain 23 1010 56 10000 5.42 78 13:32 29.11.2021
5173 Clouds 26 1010 41 10000 5.58 85 12:28 29.11.2021
5174 Clouds 26 1010 41 10000 5.58 85 11:36 29.11.2021
5175 Clouds 25 1012 43 10000 4.88 80 10:41 29.11.2021
5176 Clouds 20 1021 73 10000 3.6 60 09:25 29.11.2021
5177 Clouds 17 1023 94 10000 3.6 80 06:20 29.11.2021
5178 Clouds 17 1020 94 10000 5.14 40 01:43 29.11.2021
5179 Clouds 17 1020 94 10000 3.6 20 00:40 29.11.2021
5180 Clouds 17 1021 94 10000 3.6 30 23:44 28.11.2021
5181 Clouds 17 1022 88 10000 2.57 20 22:49 28.11.2021
5182 Rain 19 1021 77 10000 4.12 60 21:49 28.11.2021
5183 Clouds 17 1022 94 10000 5.14 70 21:23 28.11.2021
5184 Clouds 18 1023 77 10000 5.66 60 20:33 28.11.2021
5185 Clouds 21 1020 64 10000 3.09 60 18:53 28.11.2021
5186 Clouds 21 1020 64 10000 3.09 60 18:32 28.11.2021
5187 Clouds 22 1019 60 10000 4.12 60 17:54 28.11.2021
5188 Clouds 22 1019 60 10000 4.12 60 17:31 28.11.2021
5189 Clouds 23 1018 53 10000 5.14 70 16:37 28.11.2021
5190 Clouds 23 1018 53 10000 5.66 70 16:18 28.11.2021
5191 Clouds 23 1017 53 10000 5.14 70 15:31 28.11.2021
5192 Clouds 24 1018 60 10000 6.17 40 14:44 28.11.2021
5193 Clouds 24 1019 50 10000 5.14 60 13:18 28.11.2021
5194 Clouds 24 1018 57 10000 5.14 60 12:46 28.11.2021
5195 Clouds 22 1021 60 10000 4.12 30 10:58 28.11.2021
5196 Rain 22 1021 60 10000 4.12 30 10:21 28.11.2021
5197 Rain 21 1021 68 10000 5.14 360 09:37 28.11.2021
5198 Rain 15 1019 96 2316 4.6 60 07:49 28.11.2021
5199 Clouds 18 1021 82 10000 3.09 40 23:58 27.11.2021
5200 Rain 19 1022 77 10000 4.63 80 20:57 27.11.2021
5201 Rain 17 1016 91 10000 3.38 59 19:23 27.11.2021
5202 Rain 21 1019 68 10000 3.09 130 17:27 27.11.2021
5203 Rain 24 1018 50 10000 0 0 15:58 27.11.2021
5204 Rain 24 1019 53 10000 3.09 0 13:58 27.11.2021
5205 Rain 23 1020 56 10000 3.09 50 12:57 27.11.2021
5206 Rain 19 1022 77 10000 3.09 60 10:52 27.11.2021
5207 Rain 18 1023 88 10000 0 0 09:53 27.11.2021
5208 Rain 21 1016 66 10000 2.97 93 08:44 27.11.2021
5209 Rain 17 1023 88 10000 3.09 10 06:34 27.11.2021
5210 Clouds 17 1021 94 10000 5.66 30 01:58 27.11.2021
5211 Clouds 19 1021 77 10000 0 0 23:39 26.11.2021
5212 Clouds 19 1022 77 10000 0 0 22:25 26.11.2021
5213 Clouds 20 1022 73 10000 2.06 40 21:38 26.11.2021
5214 Clouds 16 1018 92 10000 2.99 28 21:18 26.11.2021
5215 Clouds 20 1022 73 10000 6.69 50 20:30 26.11.2021
5216 Clouds 21 1021 64 10000 8.23 60 19:54 26.11.2021
5217 Clouds 21 1021 68 10000 6.69 70 18:43 26.11.2021
5218 Clouds 23 1019 53 10000 6.17 60 17:24 26.11.2021
5219 Clouds 23 1019 53 10000 6.17 60 17:24 26.11.2021
5220 Clouds 24 1018 46 10000 5.66 70 16:29 26.11.2021
5221 Clouds 26 1017 41 10000 7.72 100 14:25 26.11.2021
5222 Clouds 27 1018 34 10000 8.23 120 13:31 26.11.2021
5223 Clouds 26 1020 44 10000 8.23 60 10:43 26.11.2021
5224 Rain 24 1021 57 10000 2.57 30 09:41 26.11.2021
5225 Rain 23 1022 64 10000 5.14 130 08:49 26.11.2021
5226 Rain 16 1019 91 10000 2.73 117 08:19 26.11.2021
5227 Rain 18 1021 94 10000 0 0 06:30 26.11.2021
5228 Rain 18 1021 94 10000 0 0 06:30 26.11.2021
5229 Rain 17 1021 91 10000 0 0 04:52 26.11.2021
5230 Rain 17 1020 85 10000 0 0 03:34 26.11.2021
5231 Rain 18 1021 82 10000 2.06 30 23:30 25.11.2021
5232 Rain 18 1015 88 10000 4.75 55 22:19 25.11.2021
5233 Rain 20 1021 64 10000 4.63 50 20:41 25.11.2021
5234 Rain 19 1014 87 10000 5.46 56 19:21 25.11.2021
5235 Rain 22 1018 57 10000 5.14 90 18:25 25.11.2021
5236 Rain 23 1017 56 10000 7.72 70 17:27 25.11.2021
5237 Rain 25 1015 47 10000 10.29 90 16:44 25.11.2021
5238 Rain 27 1015 41 10000 9.77 80 15:58 25.11.2021
5239 Rain 28 1015 34 10000 5.14 60 14:30 25.11.2021
5240 Clouds 28 1016 34 10000 7.72 90 12:55 25.11.2021
5241 Clouds 27 1017 39 10000 5.14 90 11:56 25.11.2021
5242 Clouds 27 1018 41 10000 5.14 60 10:43 25.11.2021
5243 Clouds 23 1013 45 10000 4.76 59 08:21 25.11.2021
5244 Clouds 18 1018 77 10000 3.6 360 02:58 25.11.2021
5245 Clouds 19 1018 75 10000 4.12 60 01:26 25.11.2021
5246 Clouds 20 1018 66 10000 2.57 30 22:33 24.11.2021
5247 Clouds 19 1019 72 10000 1.03 350 21:48 24.11.2021
5248 Clouds 20 1019 68 10000 1.03 230 21:22 24.11.2021
5249 Clouds 19 1019 72 10000 2.57 300 20:27 24.11.2021
5250 Clouds 20 1018 66 10000 2.57 270 19:40 24.11.2021
5251 Clouds 25 1017 41 10000 4.12 50 18:19 24.11.2021
5252 Clouds 26 1016 40 10000 3.09 60 16:48 24.11.2021
5253 Clouds 28 1016 36 10000 6.69 50 15:21 24.11.2021
5254 Clouds 28 1015 35 10000 5.14 70 14:30 24.11.2021
5255 Clouds 28 1016 33 10000 5.14 60 13:43 24.11.2021
5256 Clouds 27 1018 38 10000 3.09 90 11:36 24.11.2021
5257 Clouds 26 1020 41 10000 4.12 20 11:18 24.11.2021
5258 Clouds 26 1020 46 10000 4.12 60 10:36 24.11.2021
5259 Clouds 24 1021 53 10000 5.14 120 09:35 24.11.2021
5260 Clouds 22 1021 64 10000 5.14 60 07:41 24.11.2021
5261 Clouds 20 1022 68 10000 2.06 20 06:20 24.11.2021
5262 Clouds 17 1020 77 10000 2.06 10 03:44 24.11.2021
5263 Clouds 19 1021 72 10000 2.06 360 23:36 23.11.2021
5264 Clouds 18 1022 72 10000 2.57 360 22:39 23.11.2021
5265 Clear 20 1021 70 10000 0 0 21:46 23.11.2021
5266 Clear 20 1021 64 10000 0 0 20:36 23.11.2021
5267 Clear 21 1020 60 10000 0 0 19:36 23.11.2021
5268 Clear 22 1020 50 10000 0 0 18:35 23.11.2021
5269 Clouds 23 1019 46 10000 4.12 90 17:57 23.11.2021
5270 Clouds 24 1018 41 10000 6.17 70 16:54 23.11.2021
5271 Clouds 25 1018 43 10000 6.17 60 15:41 23.11.2021
5272 Clouds 26 1018 38 10000 6.69 50 15:19 23.11.2021
5273 Clouds 27 1018 32 10000 6.17 70 13:33 23.11.2021
5274 Clouds 27 1011 18 10000 4.52 75 10:41 23.11.2021
5275 Clouds 27 1013 22 10000 3.72 68 09:57 23.11.2021
5276 Clouds 25 1014 31 10000 3.37 58 08:43 23.11.2021
5277 Clouds 16 1022 94 10000 1.54 10 05:57 23.11.2021
5278 Clouds 16 1021 82 10000 2.57 40 03:39 23.11.2021
5279 Clouds 17 1014 77 10000 3.28 39 00:28 23.11.2021
5280 Clouds 17 1015 76 10000 3.63 43 23:20 22.11.2021
5281 Clouds 17 1015 76 10000 3.63 43 22:32 22.11.2021
5282 Clouds 18 1015 75 10000 3.93 44 21:45 22.11.2021
5283 Clouds 18 1016 72 10000 4.25 43 21:26 22.11.2021
5284 Clouds 18 1016 72 10000 4.25 43 20:49 22.11.2021
5285 Clouds 18 1016 72 10000 4.25 43 20:49 22.11.2021
5286 Clouds 21 1016 64 10000 5.08 40 19:26 22.11.2021
5287 Clouds 20 1016 64 10000 5.08 40 18:50 22.11.2021
5288 Clouds 21 1015 67 10000 4.92 42 18:31 22.11.2021
5289 Clouds 21 1013 52 10000 4.6 57 16:50 22.11.2021
5290 Clouds 22 1011 44 10000 5.1 67 15:42 22.11.2021
5291 Clouds 24 1010 31 10000 4.87 77 12:56 22.11.2021
5292 Clouds 25 1011 33 10000 5.03 75 11:39 22.11.2021
5293 Clouds 23 1021 55 10000 5.14 60 10:36 22.11.2021
5294 Clouds 20 1022 73 10000 3.09 60 08:46 22.11.2021
5295 Clouds 20 1022 73 10000 3.09 60 08:25 22.11.2021
5296 Clouds 16 1020 94 10000 0 0 04:32 22.11.2021
5297 Clouds 18 1021 82 10000 6.17 50 23:23 21.11.2021
5298 Clouds 18 1020 82 10000 4.12 60 22:46 21.11.2021
5299 Clouds 18 1020 77 10000 3.6 70 21:40 21.11.2021
5300 Rain 20 1020 64 10000 3.6 50 20:41 21.11.2021
5301 Rain 20 1020 62 10000 4.63 110 19:45 21.11.2021
5302 Rain 21 1018 49 10000 2.06 70 17:59 21.11.2021
5303 Rain 21 1018 50 10000 2.06 70 17:37 21.11.2021
5304 Rain 21 1018 50 10000 2.06 70 17:37 21.11.2021
5305 Clouds 25 1017 50 10000 9.26 50 15:22 21.11.2021
5306 Clouds 26 1016 41 10000 9.77 40 14:43 21.11.2021
5307 Clouds 27 1016 34 10000 8.23 100 13:40 21.11.2021
5308 Clouds 26 1017 38 10000 7.2 50 12:32 21.11.2021
5309 Rain 26 1018 42 10000 6.17 90 11:42 21.11.2021
5310 Rain 26 1020 41 10000 3.6 90 10:20 21.11.2021
5311 Rain 25 1020 48 10000 4.12 120 09:59 21.11.2021
5312 Rain 22 1021 62 10000 2.57 60 08:35 21.11.2021
5313 Rain 21 1020 70 10000 5.14 120 07:57 21.11.2021
5314 Rain 21 1020 70 10000 5.14 120 07:39 21.11.2021
5315 Clouds 17 1019 91 10000 2.57 60 05:48 21.11.2021
5316 Clouds 17 1019 94 10000 2.06 30 04:37 21.11.2021
5317 Clouds 17 1019 94 10000 4.12 20 03:18 21.11.2021
5318 Clouds 17 1019 94 10000 4.63 20 02:48 21.11.2021
5319 Clouds 18 1012 86 10000 1.36 55 00:53 21.11.2021
5320 Clouds 17 1019 94 10000 3.6 30 23:41 20.11.2021
5321 Rain 19 1020 72 10000 2.57 150 21:39 20.11.2021
5322 Rain 20 1020 68 10000 3.09 180 20:50 20.11.2021
5323 Rain 19 1018 71 10000 0 0 18:46 20.11.2021
5324 Rain 19 1018 77 10000 0 0 18:26 20.11.2021
5325 Rain 20 1018 73 10000 2.06 50 17:26 20.11.2021
5326 Rain 19 1016 80 10000 0 0 16:42 20.11.2021
5327 Thunderstorm 18 1016 88 10000 7.72 150 14:43 20.11.2021
5328 Rain 22 1017 60 10000 9.26 170 14:23 20.11.2021
5329 Rain 27 1018 43 10000 5.14 30 11:57 20.11.2021
5330 Rain 25 1019 49 10000 4.12 50 10:35 20.11.2021
5331 Rain 24 1020 51 10000 3.6 70 09:29 20.11.2021
5332 Clouds 20 1021 75 10000 3.09 360 07:28 20.11.2021
5333 Clouds 18 1020 77 10000 0 0 05:27 20.11.2021
5334 Clouds 16 1020 82 10000 2.06 360 04:50 20.11.2021
5335 Clear 17 1019 77 10000 3.09 30 01:55 20.11.2021
5336 Clouds 16 1013 86 10000 2.08 31 00:40 20.11.2021
5337 Clear 18 1021 72 10000 2.57 20 22:58 19.11.2021
5338 Rain 20 1021 66 10000 2.57 30 21:58 19.11.2021
5339 Rain 20 1020 64 10000 4.12 60 20:58 19.11.2021
5340 Rain 21 1020 62 10000 4.12 60 20:36 19.11.2021
5341 Rain 21 1019 58 10000 4.12 40 19:55 19.11.2021
5342 Rain 23 1019 52 10000 4.12 40 18:54 19.11.2021
5343 Rain 23 1018 50 10000 4.12 40 18:23 19.11.2021
5344 Rain 18 1014 75 10000 1.71 4 17:31 19.11.2021
5345 Rain 27 1016 36 10000 5.14 60 15:51 19.11.2021
5346 Rain 28 1017 32 10000 9.26 100 13:55 19.11.2021
5347 Rain 25 1021 50 10000 5.14 360 10:27 19.11.2021
5348 Rain 25 1021 50 10000 5.14 360 10:27 19.11.2021
5349 Rain 25 1021 51 10000 5.14 90 09:37 19.11.2021
5350 Clouds 22 1022 62 10000 2.57 330 08:24 19.11.2021
5351 Clouds 17 1020 87 10000 2.57 60 04:53 19.11.2021
5352 Rain 18 1020 88 10000 3.6 70 02:35 19.11.2021
5353 Rain 19 1021 68 10000 3.09 20 23:51 18.11.2021
5354 Clouds 20 1022 64 10000 3.09 20 22:21 18.11.2021
5355 Clouds 20 1022 64 10000 4.63 30 20:50 18.11.2021
5356 Clouds 20 1022 64 10000 4.63 30 20:31 18.11.2021
5357 Clouds 22 1021 58 10000 7.72 40 19:55 18.11.2021
5358 Clouds 22 1020 56 10000 7.72 40 19:34 18.11.2021
5359 Clouds 22 1020 56 10000 4.12 70 18:34 18.11.2021
5360 Clouds 24 1019 43 10000 5.14 60 17:51 18.11.2021
5361 Clouds 26 1018 38 10000 6.17 40 16:45 18.11.2021
5362 Clouds 27 1018 31 10000 4.12 70 15:49 18.11.2021
5363 Clouds 27 1018 34 10000 10.29 90 13:59 18.11.2021
5364 Clouds 26 1019 41 10000 7.72 90 12:34 18.11.2021
5365 Clouds 26 1021 40 10000 6.17 90 11:43 18.11.2021
5366 Clouds 26 1021 41 10000 6.17 90 11:24 18.11.2021
5367 Clouds 24 1022 50 10000 5.14 90 09:59 18.11.2021
5368 Clouds 19 1023 77 10000 7.72 60 07:38 18.11.2021
5369 Clouds 18 1021 87 10000 3.09 70 05:59 18.11.2021
5370 Clouds 17 1021 87 10000 3.09 70 05:39 18.11.2021
5371 Clouds 17 1020 79 10000 3.09 80 01:24 18.11.2021
5372 Clouds 18 1020 76 10000 6.69 90 23:25 17.11.2021
5373 Clouds 19 1021 72 10000 5.14 60 22:34 17.11.2021
5374 Clouds 20 1021 66 10000 3.09 70 21:55 17.11.2021
5375 Clouds 20 1021 66 10000 3.09 70 21:35 17.11.2021
5376 Clouds 20 1020 56 10000 3.6 80 19:27 17.11.2021
5377 Clouds 22 1018 51 10000 4.63 90 17:31 17.11.2021
5378 Clouds 26 1016 33 10000 7.2 70 15:23 17.11.2021
5379 Clouds 26 1018 40 10000 6.69 60 12:56 17.11.2021
5380 Clouds 26 1018 40 10000 6.69 60 12:36 17.11.2021
5381 Clouds 24 1019 49 10000 5.66 70 10:51 17.11.2021
5382 Clouds 22 1020 60 10000 6.17 110 09:29 17.11.2021
5383 Clouds 19 1020 79 10000 4.12 70 07:46 17.11.2021
5384 Clouds 19 1020 87 10000 2.06 90 06:53 17.11.2021
5385 Clouds 18 1018 82 10000 3.09 70 02:47 17.11.2021
5386 Clouds 17 1019 88 10000 2.06 20 23:46 16.11.2021
5387 Clouds 18 1020 88 10000 3.09 10 22:20 16.11.2021
5388 Clouds 20 1020 64 10000 2.57 20 20:19 16.11.2021
5389 Clouds 20 1020 64 10000 2.57 20 20:18 16.11.2021
5390 Clouds 21 1019 61 10000 3.09 40 18:53 16.11.2021
5391 Clear 20 1019 68 10000 2.57 40 18:34 16.11.2021
5392 Clouds 22 1018 54 10000 4.12 60 17:38 16.11.2021
5393 Clouds 20 1012 60 10000 4.71 56 16:37 16.11.2021
5394 Rain 21 1011 52 10000 4.91 55 15:50 16.11.2021
5395 Clouds 22 1009 44 10000 5.41 70 15:26 16.11.2021
5396 Clouds 23 1011 45 10000 3.87 83 11:29 16.11.2021
5397 Clouds 22 1013 51 10000 3.62 81 09:46 16.11.2021
5398 Clouds 20 1014 59 10000 3.58 75 08:45 16.11.2021
5399 Clouds 20 1021 77 10000 4.12 100 07:32 16.11.2021
5400 Clouds 17 1019 94 10000 3.6 70 02:20 16.11.2021
5401 Clouds 19 1020 77 10000 5.14 70 23:22 15.11.2021
5402 Clouds 19 1020 82 10000 3.09 50 22:33 15.11.2021
5403 Clouds 19 1020 70 10000 0 0 21:53 15.11.2021
5404 Clouds 20 1020 68 10000 0 0 21:29 15.11.2021
5405 Clouds 21 1020 58 10000 4.12 60 19:49 15.11.2021
5406 Rain 22 1019 58 10000 3.09 60 18:48 15.11.2021
5407 Rain 25 1018 45 10000 4.12 80 16:55 15.11.2021
5408 Rain 25 1018 44 10000 5.14 60 15:42 15.11.2021
5409 Rain 26 1018 44 10000 4.63 50 15:24 15.11.2021
5410 Rain 26 1018 41 10000 5.14 90 13:32 15.11.2021
5411 Clouds 25 1020 50 10000 6.17 40 11:53 15.11.2021
5412 Rain 22 1022 60 10000 5.14 100 09:29 15.11.2021
5413 Clouds 19 1023 79 10000 4.12 80 07:55 15.11.2021
5414 Clouds 18 1017 87 10000 3.22 65 05:24 15.11.2021
5415 Clouds 17 1022 82 10000 3.09 50 00:18 15.11.2021
5416 Clear 19 1021 72 10000 2.57 70 22:38 14.11.2021
5417 Clear 18 1022 74 10000 0 0 20:32 14.11.2021
5418 Rain 20 1022 64 10000 4.12 50 19:18 14.11.2021
5419 Rain 21 1021 64 10000 4.12 70 18:54 14.11.2021
5420 Rain 20 1021 64 10000 4.12 70 18:36 14.11.2021
5421 Clouds 21 1021 64 10000 6.17 50 18:18 14.11.2021
5422 Clouds 21 1020 64 10000 6.17 80 17:57 14.11.2021
5423 Clouds 21 1020 57 10000 6.17 80 17:39 14.11.2021
5424 Rain 24 1020 43 10000 7.72 80 17:21 14.11.2021
5425 Rain 24 1019 50 10000 8.23 70 16:49 14.11.2021
5426 Rain 24 1020 46 10000 6.69 70 16:21 14.11.2021
5427 Rain 24 1019 46 10000 6.69 70 15:51 14.11.2021
5428 Rain 20 1013 70 10000 5.08 79 15:19 14.11.2021
5429 Rain 26 1018 36 10000 5.66 30 14:33 14.11.2021
5430 Rain 27 1019 36 10000 5.66 80 13:59 14.11.2021
5431 Rain 27 1019 38 10000 5.66 80 13:40 14.11.2021
5432 Rain 26 1020 37 10000 7.72 30 12:45 14.11.2021
5433 Rain 26 1021 38 10000 5.66 80 12:18 14.11.2021
5434 Rain 23 1021 53 10000 4.63 120 10:52 14.11.2021
5435 Rain 23 1021 53 10000 4.63 120 10:27 14.11.2021
5436 Clouds 21 1023 67 10000 8.23 90 08:58 14.11.2021
5437 Clouds 20 1024 73 10000 4.63 60 08:23 14.11.2021
5438 Clouds 18 1014 85 10000 3.95 63 02:20 14.11.2021
5439 Clouds 19 1021 66 10000 5.14 110 22:27 13.11.2021
5440 Clouds 20 1021 64 10000 5.14 90 21:58 13.11.2021
5441 Clouds 21 1021 62 10000 5.14 90 21:27 13.11.2021
5442 Clouds 21 1022 56 10000 6.69 80 20:24 13.11.2021
5443 Clouds 22 1020 49 10000 3.09 60 18:48 13.11.2021
5444 Clouds 23 1020 46 10000 5.14 50 18:26 13.11.2021
5445 Clouds 23 1019 44 10000 6.17 60 17:23 13.11.2021
5446 Clouds 26 1018 36 10000 7.2 70 15:42 13.11.2021
5447 Clouds 26 1017 37 10000 9.26 90 14:36 13.11.2021
5448 Clouds 27 1018 38 10000 6.17 90 13:46 13.11.2021
5449 Clouds 26 1019 41 10000 8.23 90 12:40 13.11.2021
5450 Clouds 25 1020 46 10000 5.14 110 11:45 13.11.2021
5451 Clouds 24 1021 50 10000 6.17 90 10:48 13.11.2021
5452 Clouds 24 1021 50 10000 6.17 90 10:29 13.11.2021
5453 Clouds 23 1021 62 10000 6.17 50 09:42 13.11.2021
5454 Clouds 23 1021 62 10000 6.17 50 09:42 13.11.2021
5455 Clouds 23 1023 60 10000 6.17 30 09:18 13.11.2021
5456 Clouds 22 1022 62 10000 4.12 70 08:40 13.11.2021
5457 Clouds 20 1022 71 10000 3.09 90 07:25 13.11.2021
5458 Clouds 18 1020 85 10000 5.14 70 04:36 13.11.2021
5459 Clouds 18 1014 92 10000 3.63 63 02:27 13.11.2021
5460 Clouds 20 1020 64 10000 4.12 60 23:27 12.11.2021
5461 Clouds 20 1020 60 10000 6.17 90 21:52 12.11.2021
5462 Rain 21 1020 55 10000 4.12 90 20:35 12.11.2021
5463 Clouds 22 1019 53 10000 5.14 110 19:31 12.11.2021
5464 Clouds 23 1019 46 10000 5.66 100 18:54 12.11.2021
5465 Clouds 24 1018 45 10000 4.12 90 17:36 12.11.2021
5466 Clouds 26 1016 33 10000 4.12 90 15:54 12.11.2021
5467 Clouds 28 1017 32 10000 5.66 70 13:26 12.11.2021
5468 Clouds 25 1020 47 10000 6.17 70 11:24 12.11.2021
5469 Clouds 25 1020 47 10000 6.17 70 11:24 12.11.2021
5470 Clouds 24 1021 52 10000 3.09 70 09:55 12.11.2021
5471 Clouds 22 1022 60 10000 4.12 90 08:50 12.11.2021
5472 Clouds 18 1021 77 10000 5.14 90 06:35 12.11.2021
5473 Clouds 17 1020 67 10000 3.09 20 23:55 11.11.2021
5474 Clouds 19 1020 61 10000 0 0 22:49 11.11.2021
5475 Clouds 18 1021 63 10000 3.09 50 21:57 11.11.2021
5476 Clouds 19 1021 59 10000 3.09 50 20:52 11.11.2021
5477 Clouds 21 1020 52 10000 5.14 90 19:48 11.11.2021
5478 Clouds 23 1019 40 10000 5.66 90 18:27 11.11.2021
5479 Clouds 23 1019 44 10000 5.14 90 18:27 11.11.2021
5480 Clouds 24 1018 40 10000 5.14 60 17:41 11.11.2021
5481 Clouds 26 1017 36 10000 7.72 90 15:29 11.11.2021
5482 Clouds 27 1017 34 10000 5.14 90 14:39 11.11.2021
5483 Clouds 27 1018 34 10000 4.63 60 14:20 11.11.2021
5484 Clouds 27 1017 36 10000 5.14 90 13:35 11.11.2021
5485 Clouds 26 1018 41 10000 5.14 30 12:27 11.11.2021
5486 Clouds 22 1022 60 10000 5.14 50 09:58 11.11.2021
5487 Clouds 23 1022 56 10000 4.63 50 09:22 11.11.2021
5488 Clouds 19 1021 81 10000 4.12 110 06:55 11.11.2021
5489 Clouds 16 1014 82 10000 3.74 48 00:38 11.11.2021
5490 Clouds 19 1021 68 10000 2.06 70 22:46 10.11.2021
5491 Clouds 19 1021 66 10000 2.06 50 21:54 10.11.2021
5492 Clouds 19 1022 63 10000 2.06 80 20:56 10.11.2021
5493 Clouds 19 1022 68 10000 1.54 50 20:18 10.11.2021
5494 Clouds 20 1021 66 10000 4.12 60 19:39 10.11.2021
5495 Clouds 22 1020 54 10000 5.14 100 17:28 10.11.2021
5496 Rain 26 1019 41 10000 4.12 90 15:47 10.11.2021
5497 Clouds 25 1019 50 10000 3.09 70 14:25 10.11.2021
5498 Clouds 23 1020 55 10000 4.12 90 13:37 10.11.2021
5499 Rain 24 1021 58 10000 8.23 70 12:31 10.11.2021
5500 Rain 25 1023 47 10000 6.17 70 09:29 10.11.2021
5501 Rain 23 1023 56 10000 8.23 90 08:42 10.11.2021
5502 Rain 23 1023 56 10000 8.23 90 08:42 10.11.2021
5503 Clouds 19 1023 75 10000 5.66 90 06:50 10.11.2021
5504 Clouds 18 1023 82 10000 4.12 70 05:58 10.11.2021
5505 Clouds 18 1022 88 10000 4.12 90 04:58 10.11.2021
5506 Clouds 21 1021 60 10000 7.72 100 22:41 09.11.2021
5507 Clouds 23 1021 51 10000 7.2 90 20:51 09.11.2021
5508 Clouds 23 1021 49 10000 6.17 70 19:37 09.11.2021
5509 Clouds 24 1020 46 10000 6.17 80 18:58 09.11.2021
5510 Clouds 25 1019 41 10000 8.75 90 17:22 09.11.2021
5511 Clouds 27 1018 33 10000 7.72 90 15:37 09.11.2021
5512 Clouds 28 1018 29 10000 6.69 60 13:53 09.11.2021
5513 Clouds 27 1019 33 10000 8.75 90 12:49 09.11.2021
5514 Clouds 27 1020 34 10000 6.69 90 11:33 09.11.2021
5515 Clouds 26 1021 39 10000 6.17 50 10:30 09.11.2021
5516 Clouds 23 1023 49 10000 2.57 40 09:22 09.11.2021
5517 Clouds 20 1022 66 10000 3.09 50 07:55 09.11.2021
5518 Clear 16 1020 72 10000 2.06 60 03:45 09.11.2021
5519 Clear 18 1019 59 10000 2.57 50 01:58 09.11.2021
5520 Clear 18 1019 59 10000 2.57 50 01:36 09.11.2021
5521 Clear 18 1021 55 10000 3.09 30 23:34 08.11.2021
5522 Clear 19 1020 52 10000 3.09 70 22:47 08.11.2021
5523 Clear 21 1020 46 10000 3.09 90 21:46 08.11.2021
5524 Clear 21 1021 43 10000 4.63 70 20:36 08.11.2021
5525 Clear 22 1019 41 10000 3.09 90 19:46 08.11.2021
5526 Clouds 25 1017 32 10000 4.12 90 17:48 08.11.2021
5527 Clouds 27 1016 28 10000 5.14 50 15:58 08.11.2021
5528 Clouds 28 1016 24 10000 5.14 70 14:57 08.11.2021
5529 Clouds 28 1016 24 10000 5.14 70 14:34 08.11.2021
5530 Clouds 28 1016 25 10000 3.09 70 13:22 08.11.2021
5531 Clouds 28 1019 30 10000 5.14 60 11:56 08.11.2021
5532 Clouds 26 1019 34 10000 4.12 50 10:50 08.11.2021
5533 Clouds 26 1019 34 10000 4.12 50 10:50 08.11.2021
5534 Clouds 24 1020 42 10000 5.14 110 09:37 08.11.2021
5535 Clouds 24 1020 42 10000 5.14 110 09:37 08.11.2021
5536 Clouds 23 1020 44 10000 6.17 70 08:52 08.11.2021
5537 Clouds 21 1020 60 10000 4.12 50 07:28 08.11.2021
5538 Clouds 16 1019 72 10000 2.06 30 03:42 08.11.2021
5539 Clouds 15 1018 72 10000 2.57 10 03:22 08.11.2021
5540 Clear 18 1019 59 10000 3.6 40 23:43 07.11.2021
5541 Clear 20 1019 45 10000 3.09 50 21:42 07.11.2021
5542 Clouds 19 1020 45 10000 3.6 30 20:51 07.11.2021
5543 Clear 22 1018 34 10000 5.14 120 19:25 07.11.2021
5544 Clouds 25 1017 27 10000 7.2 90 17:49 07.11.2021
5545 Clouds 26 1016 23 10000 5.14 110 16:49 07.11.2021
5546 Clouds 28 1015 21 10000 7.2 90 15:44 07.11.2021
5547 Clouds 29 1015 20 10000 6.17 140 14:28 07.11.2021
5548 Clouds 28 1017 28 10000 6.17 170 12:58 07.11.2021
5549 Clouds 26 1018 38 10000 2.06 140 11:42 07.11.2021
5550 Clouds 24 1021 46 10000 4.63 110 09:26 07.11.2021
5551 Clouds 19 1021 77 10000 0 0 06:46 07.11.2021
5552 Clouds 16 1019 94 10000 1.54 20 02:34 07.11.2021
5553 Clouds 18 1014 73 10000 3.73 80 23:22 06.11.2021
5554 Clouds 20 1020 59 10000 3.09 90 22:42 06.11.2021
5555 Clouds 21 1021 56 10000 4.12 70 21:32 06.11.2021
5556 Clouds 21 1020 54 10000 4.12 110 20:50 06.11.2021
5557 Clouds 21 1019 54 10000 2.06 50 18:56 06.11.2021
5558 Rain 21 1018 63 10000 3.09 220 16:44 06.11.2021
5559 Rain 22 1018 60 10000 8.23 170 14:38 06.11.2021
5560 Clouds 27 1017 33 10000 5.14 140 13:38 06.11.2021
5561 Clouds 28 1017 33 10000 5.14 140 13:38 06.11.2021
5562 Clouds 27 1019 35 10000 6.17 50 11:46 06.11.2021
5563 Clouds 25 1021 51 10000 5.14 70 09:23 06.11.2021
5564 Clouds 17 1021 87 10000 2.57 40 04:57 06.11.2021
5565 Clouds 19 1020 72 10000 3.09 40 01:27 06.11.2021
5566 Clouds 19 1021 68 10000 2.57 60 23:34 05.11.2021
5567 Rain 19 1021 66 10000 3.6 70 22:34 05.11.2021
5568 Clear 21 1021 56 10000 3.09 90 20:51 05.11.2021
5569 Rain 21 1022 56 10000 4.12 90 20:20 05.11.2021
5570 Rain 22 1020 53 10000 4.63 100 19:40 05.11.2021
5571 Rain 23 1019 43 10000 2.06 70 18:39 05.11.2021
5572 Rain 23 1018 43 10000 4.12 90 17:26 05.11.2021
5573 Rain 27 1018 34 10000 8.75 90 15:34 05.11.2021
5574 Rain 28 1019 32 10000 5.66 50 13:35 05.11.2021
5575 Rain 26 1013 47 10000 4.24 77 11:22 05.11.2021
5576 Rain 24 1016 52 10000 4.2 81 08:40 05.11.2021
5577 Clouds 21 1017 64 10000 3.68 66 07:26 05.11.2021
5578 Clouds 18 1017 87 10000 2.76 52 04:44 05.11.2021
5579 Clouds 18 1015 90 10000 3.11 50 02:25 05.11.2021
5580 Clouds 16 1015 88 10000 2.93 47 00:51 05.11.2021
5581 Clouds 18 1015 82 10000 3.47 54 23:18 04.11.2021
5582 Clouds 19 1016 79 10000 3.67 60 22:19 04.11.2021
5583 Clouds 19 1016 76 10000 3.99 61 21:32 04.11.2021
5584 Rain 19 1017 74 10000 4.1 58 20:41 04.11.2021
5585 Rain 20 1017 74 10000 4.08 58 20:21 04.11.2021
5586 Rain 20 1017 74 10000 4.1 58 19:44 04.11.2021
5587 Rain 21 1016 72 10000 4.3 71 18:44 04.11.2021
5588 Rain 21 1015 69 10000 4.48 74 17:48 04.11.2021
5589 Rain 20 1014 63 10000 4.72 79 16:47 04.11.2021
5590 Rain 23 1012 52 10000 4.52 82 14:38 04.11.2021
5591 Clouds 27 1009 32 10000 6.42 88 12:32 04.11.2021
5592 Clouds 26 1015 43 10000 4.58 67 09:31 04.11.2021
5593 Clouds 24 1015 43 10000 4.58 67 08:30 04.11.2021
5594 Clouds 22 1016 56 10000 4.58 58 07:34 04.11.2021
5595 Clouds 16 1016 87 10000 2.47 50 02:37 04.11.2021
5596 Clouds 17 1016 81 10000 3.67 50 22:50 03.11.2021
5597 Clouds 17 1016 80 10000 4.26 53 21:49 03.11.2021
5598 Clouds 19 1017 78 10000 4.88 57 21:30 03.11.2021
5599 Clear 19 1016 71 10000 5.2 60 20:35 03.11.2021
5600 Clear 19 1016 71 10000 5.2 60 19:58 03.11.2021
5601 Clouds 19 1015 65 10000 5.88 66 18:56 03.11.2021
5602 Rain 20 1014 61 10000 6.44 73 18:21 03.11.2021
5603 Rain 21 1014 61 10000 6.44 73 17:35 03.11.2021
5604 Clouds 22 1012 48 10000 5.48 52 16:26 03.11.2021
5605 Clouds 23 1012 48 10000 5.46 52 15:43 03.11.2021
5606 Clouds 26 1009 32 10000 6.78 81 13:55 03.11.2021
5607 Clouds 26 1010 30 10000 5.85 70 11:54 03.11.2021
5608 Clouds 27 1012 34 10000 5.19 70 11:25 03.11.2021
5609 Clouds 26 1012 34 10000 5.19 70 10:41 03.11.2021
5610 Clouds 26 1016 53 10000 4.66 58 09:30 03.11.2021
5611 Clouds 24 1017 62 10000 4.48 51 08:22 03.11.2021
5612 Clouds 22 1018 70 10000 4.4 49 07:39 03.11.2021
5613 Clouds 17 1017 84 10000 3.62 46 04:45 03.11.2021
5614 Clouds 16 1015 87 10000 3.33 41 02:28 03.11.2021
5615 Clouds 18 1015 80 10000 4.16 57 23:51 02.11.2021
5616 Clouds 19 1015 75 10000 4.81 59 22:46 02.11.2021
5617 Clouds 19 1015 68 10000 5.03 44 21:29 02.11.2021
5618 Clouds 19 1015 68 10000 5.08 44 20:33 02.11.2021
5619 Clouds 19 1016 70 10000 5.29 39 19:53 02.11.2021
5620 Clouds 20 1015 65 10000 5.32 39 18:59 02.11.2021
5621 Clouds 20 1015 64 10000 5.95 37 18:26 02.11.2021
5622 Clouds 20 1014 64 10000 5.97 38 17:42 02.11.2021
5623 Clouds 21 1011 49 10000 6.9 68 16:31 02.11.2021
5624 Clouds 21 1011 49 10000 6.9 68 15:32 02.11.2021
5625 Clouds 22 1009 39 10000 6.66 65 14:28 02.11.2021
5626 Clouds 23 1009 36 10000 5.52 75 13:27 02.11.2021
5627 Clouds 24 1009 36 10000 5.52 75 12:41 02.11.2021
5628 Clouds 27 1010 36 10000 5.29 81 11:34 02.11.2021
5629 Clouds 26 1012 40 10000 5.11 75 10:53 02.11.2021
5630 Clouds 25 1013 44 10000 5.14 65 10:27 02.11.2021
5631 Clouds 24 1015 48 10000 5.44 57 08:44 02.11.2021
5632 Clouds 18 1021 74 10000 4.12 70 06:57 02.11.2021
5633 Clouds 18 1020 77 10000 3.6 10 03:49 02.11.2021
5634 Clouds 18 1014 72 10000 3.57 43 02:24 02.11.2021
5635 Clear 20 1020 68 10000 3.09 70 22:55 01.11.2021
5636 Clouds 20 1022 64 10000 3.6 30 21:23 01.11.2021
5637 Clouds 21 1021 60 10000 3.09 50 20:38 01.11.2021
5638 Clouds 21 1020 58 10000 6.17 60 19:55 01.11.2021
5639 Clouds 22 1020 56 10000 6.17 60 19:29 01.11.2021
5640 Clouds 22 1020 56 10000 5.66 50 18:21 01.11.2021
5641 Clouds 23 1018 51 10000 3.6 70 17:35 01.11.2021
5642 Clouds 25 1018 44 10000 5.66 60 16:50 01.11.2021
5643 Clouds 26 1017 34 10000 5.14 90 15:47 01.11.2021
5644 Clouds 27 1018 36 10000 7.2 40 15:21 01.11.2021
5645 Clouds 27 1017 36 10000 7.72 80 14:42 01.11.2021
5646 Clouds 27 1018 36 10000 6.69 50 14:22 01.11.2021
5647 Clouds 27 1018 36 10000 8.23 100 13:25 01.11.2021
5648 Clouds 26 1019 38 10000 5.66 60 12:27 01.11.2021
5649 Clouds 25 1021 45 10000 4.12 90 10:33 01.11.2021
5650 Clouds 24 1021 46 10000 9.26 60 09:25 01.11.2021
5651 Clouds 21 1022 60 10000 9.26 60 07:49 01.11.2021
5652 Clouds 18 1022 77 10000 3.6 40 05:57 01.11.2021
5653 Clouds 17 1016 77 10000 3.77 48 03:44 01.11.2021
5654 Clouds 18 1014 67 10000 4.74 46 00:37 01.11.2021
5655 Clouds 18 1015 64 10000 4.95 54 22:24 31.10.2021
5656 Clouds 20 1021 68 10000 5.14 40 20:46 31.10.2021
5657 Clouds 23 1020 46 10000 5.14 60 18:57 31.10.2021
5658 Clouds 23 1020 46 10000 5.14 60 18:35 31.10.2021
5659 Clouds 24 1018 41 10000 5.14 60 16:53 31.10.2021
5660 Clouds 26 1018 36 10000 8.23 60 15:41 31.10.2021
5661 Clouds 27 1018 36 10000 6.17 60 13:56 31.10.2021
5662 Clouds 27 1019 39 10000 6.17 60 12:44 31.10.2021
5663 Clouds 26 1021 43 10000 8.23 60 11:38 31.10.2021
5664 Clouds 25 1022 50 10000 5.14 60 10:41 31.10.2021
5665 Clouds 24 1016 52 10000 5.88 55 09:20 31.10.2021
5666 Clouds 21 1018 76 10000 5.33 62 07:20 31.10.2021
5667 Clouds 18 1022 77 10000 2.57 50 00:54 31.10.2021
5668 Rain 18 1022 82 10000 2.06 50 22:36 30.10.2021
5669 Rain 19 1021 72 10000 1.54 70 21:34 30.10.2021
5670 Rain 19 1015 75 10000 4.89 51 20:21 30.10.2021
5671 Rain 21 1019 64 10000 5.14 20 18:43 30.10.2021
5672 Clouds 25 1018 46 10000 5.14 70 16:53 30.10.2021
5673 Clouds 25 1018 46 10000 5.14 70 16:53 30.10.2021
5674 Clouds 25 1018 50 10000 7.72 70 14:43 30.10.2021
5675 Clouds 23 1019 58 10000 6.17 120 13:39 30.10.2021
5676 Clouds 22 1013 60 10000 5.12 52 13:21 30.10.2021
5677 Clouds 21 1021 75 10000 4.12 70 11:52 30.10.2021
5678 Clouds 21 1021 75 10000 4.12 70 11:32 30.10.2021
5679 Rain 19 1022 82 10000 2.57 60 10:32 30.10.2021
5680 Rain 18 1022 91 10000 5.14 90 08:52 30.10.2021
5681 Rain 17 1021 97 10000 5.14 130 06:26 30.10.2021
5682 Rain 17 1020 91 10000 4.12 90 05:39 30.10.2021
5683 Rain 19 1019 72 10000 5.14 120 00:43 30.10.2021
5684 Rain 21 1021 64 10000 5.66 80 22:39 29.10.2021
5685 Rain 19 1015 84 10000 5.36 56 22:20 29.10.2021
5686 Rain 22 1020 56 10000 5.14 90 20:45 29.10.2021
5687 Clouds 23 1019 49 10000 7.72 90 19:50 29.10.2021
5688 Clouds 24 1019 46 10000 5.66 50 18:32 29.10.2021
5689 Clouds 27 1017 37 10000 5.14 30 16:51 29.10.2021
5690 Clouds 27 1017 34 10000 5.14 90 14:33 29.10.2021
5691 Clouds 24 1020 43 10000 5.14 60 11:44 29.10.2021
5692 Clouds 23 1021 49 10000 5.14 90 10:35 29.10.2021
5693 Clouds 20 1022 58 10000 3.09 110 08:35 29.10.2021
5694 Clear 18 1020 68 10000 3.09 50 00:37 29.10.2021
5695 Clouds 18 1015 60 10000 3.49 75 23:19 28.10.2021
5696 Clear 19 1020 59 10000 0 0 21:56 28.10.2021
5697 Clear 20 1020 52 10000 0 0 20:32 28.10.2021
5698 Clouds 22 1019 36 10000 4.12 110 19:50 28.10.2021
5699 Clouds 24 1019 32 10000 4.12 80 18:23 28.10.2021
5700 Clouds 26 1018 34 10000 4.63 70 16:58 28.10.2021
5701 Clouds 25 1009 24 10000 4.64 91 15:24 28.10.2021
5702 Clouds 25 1009 23 10000 3.2 107 14:23 28.10.2021
5703 Clouds 27 1019 39 10000 4.63 130 13:24 28.10.2021
5704 Clouds 26 1020 38 10000 3.09 140 12:41 28.10.2021
5705 Clouds 24 1022 42 10000 3.09 90 10:57 28.10.2021
5706 Clouds 22 1023 49 10000 2.57 80 09:39 28.10.2021
5707 Clouds 20 1023 57 10000 0 0 08:59 28.10.2021
5708 Clouds 20 1023 57 10000 0 0 08:34 28.10.2021
5709 Clouds 19 1018 64 10000 2.16 70 07:20 28.10.2021
5710 Rain 17 1016 77 10000 3.1 83 00:20 28.10.2021
5711 Clouds 18 1024 82 10000 2.57 130 22:31 27.10.2021
5712 Clouds 18 1024 82 10000 3.6 130 21:33 27.10.2021
5713 Rain 18 1022 85 10000 10.29 120 20:53 27.10.2021
5714 Rain 18 1022 85 10000 10.29 120 20:33 27.10.2021
5715 Thunderstorm 19 1021 82 10000 6.17 90 19:41 27.10.2021
5716 Rain 19 1020 80 10000 2.57 300 18:53 27.10.2021
5717 Clouds 25 1019 49 10000 4.12 210 16:32 27.10.2021
5718 Clouds 26 1019 40 10000 5.14 90 15:34 27.10.2021
5719 Clouds 25 1020 47 10000 2.57 110 14:42 27.10.2021
5720 Clouds 25 1021 41 10000 5.14 120 12:33 27.10.2021
5721 Clouds 23 1023 49 10000 6.17 120 10:58 27.10.2021
5722 Clouds 22 1024 56 10000 3.09 20 09:51 27.10.2021
5723 Clouds 19 1024 70 10000 5.14 60 08:47 27.10.2021
5724 Clouds 17 1024 77 10000 5.14 30 07:32 27.10.2021
5725 Clouds 17 1022 83 10000 4.12 150 02:39 27.10.2021
5726 Clouds 19 1023 77 10000 2.57 70 00:57 27.10.2021
5727 Clouds 19 1023 77 10000 2.57 70 00:30 27.10.2021
5728 Clouds 19 1023 77 10000 5.14 120 23:50 26.10.2021
5729 Clouds 20 1024 73 10000 6.69 80 22:39 26.10.2021
5730 Clouds 22 1023 53 10000 5.14 100 21:59 26.10.2021
5731 Clouds 22 1022 51 10000 10.29 90 20:51 26.10.2021
5732 Clouds 23 1021 46 10000 7.72 120 19:33 26.10.2021
5733 Clouds 25 1021 41 10000 7.2 80 18:52 26.10.2021
5734 Clouds 27 1019 32 10000 7.72 90 16:57 26.10.2021
5735 Clouds 27 1020 34 10000 6.17 60 14:56 26.10.2021
5736 Clouds 25 1022 41 10000 4.12 60 11:49 26.10.2021
5737 Clouds 23 1023 49 10000 6.17 70 10:42 26.10.2021
5738 Clouds 20 1019 64 10000 3.69 74 07:51 26.10.2021
5739 Clouds 20 1019 71 10000 3.74 72 07:21 26.10.2021
5740 Clouds 18 1016 74 10000 4.84 75 23:51 25.10.2021
5741 Clouds 18 1017 69 10000 5.01 78 22:55 25.10.2021
5742 Clouds 19 1017 65 10000 5.7 83 22:21 25.10.2021
5743 Clouds 19 1017 65 10000 5.65 83 21:39 25.10.2021
5744 Clouds 20 1016 49 10000 6.66 87 20:19 25.10.2021
5745 Clouds 20 1016 49 10000 6.66 87 19:42 25.10.2021
5746 Clouds 21 1015 40 10000 6.29 87 19:20 25.10.2021
5747 Clouds 21 1013 34 10000 6.25 86 18:22 25.10.2021
5748 Clouds 23 1011 27 10000 6.14 88 16:27 25.10.2021
5749 Clouds 28 1019 28 10000 5.14 60 14:36 25.10.2021
5750 Clouds 27 1021 34 10000 6.17 120 12:31 25.10.2021
5751 Clouds 24 1023 52 10000 7.72 80 10:25 25.10.2021
5752 Clouds 20 1023 71 10000 4.12 30 08:37 25.10.2021
5753 Clouds 17 1022 85 10000 3.6 60 06:26 25.10.2021
5754 Clouds 17 1020 84 10000 5.66 90 02:42 25.10.2021
5755 Clouds 20 1021 66 10000 4.12 110 00:47 25.10.2021
5756 Clouds 21 1021 62 10000 5.14 90 23:47 24.10.2021
5757 Clouds 19 1016 67 10000 4.96 68 23:19 24.10.2021
5758 Clouds 21 1021 60 10000 8.75 90 22:37 24.10.2021
5759 Clouds 19 1016 65 10000 5.71 68 22:18 24.10.2021
5760 Clouds 21 1021 60 10000 3.09 60 20:46 24.10.2021
5761 Clouds 21 1021 60 10000 3.09 60 20:27 24.10.2021
5762 Clouds 22 1020 56 10000 6.17 80 19:22 24.10.2021
5763 Clouds 23 1020 53 10000 7.2 70 18:27 24.10.2021
5764 Clouds 25 1019 42 10000 7.72 90 17:29 24.10.2021
5765 Clouds 29 1018 30 10000 6.17 90 15:49 24.10.2021
5766 Clouds 28 1020 36 10000 7.2 60 13:58 24.10.2021
5767 Clouds 27 1021 35 10000 5.66 30 12:41 24.10.2021
5768 Clouds 26 1022 39 10000 5.14 50 11:43 24.10.2021
5769 Clouds 25 1023 46 10000 5.14 70 10:47 24.10.2021
5770 Clouds 24 1023 52 10000 4.12 60 09:54 24.10.2021
5771 Clouds 16 1021 79 10000 0 0 05:35 24.10.2021
5772 Clouds 19 1023 72 10000 3.09 20 00:53 24.10.2021
5773 Clouds 20 1024 68 10000 3.6 50 23:34 23.10.2021
5774 Clouds 21 1023 58 10000 2.57 20 21:56 23.10.2021
5775 Clouds 22 1021 52 10000 3.09 60 19:53 23.10.2021
5776 Clouds 24 1020 49 10000 5.14 70 18:59 23.10.2021
5777 Clouds 21 1014 51 10000 5.52 36 18:21 23.10.2021
5778 Clouds 25 1019 44 10000 6.17 70 17:43 23.10.2021
5779 Clouds 26 1011 36 10000 6.3 66 16:21 23.10.2021
5780 Clouds 28 1021 34 10000 4.12 110 13:58 23.10.2021
5781 Clouds 17 1017 79 10000 3.18 50 03:33 23.10.2021
5782 Clouds 19 1017 65 10000 4.99 75 23:59 22.10.2021
5783 Clouds 19 1017 59 10000 5.37 73 22:49 22.10.2021
5784 Clouds 22 1021 56 10000 0 0 19:51 22.10.2021
5785 Clouds 25 1019 38 10000 7.72 90 18:40 22.10.2021
5786 Clouds 26 1019 36 10000 5.14 60 17:40 22.10.2021
5787 Clouds 23 1012 42 10000 0.92 64 15:25 22.10.2021
5788 Clouds 27 1019 37 10000 3.09 30 13:35 22.10.2021
5789 Clouds 25 1014 42 10000 3.43 94 11:18 22.10.2021
5790 Clouds 23 1023 49 10000 5.14 20 10:38 22.10.2021
5791 Clouds 20 1024 64 10000 2.57 60 09:44 22.10.2021
5792 Clouds 18 1024 77 10000 3.09 60 08:31 22.10.2021
5793 Clouds 19 1018 72 10000 3.03 46 07:22 22.10.2021
5794 Clouds 18 1022 77 10000 4.12 90 02:56 22.10.2021
5795 Clouds 19 1022 66 10000 3.6 80 23:54 21.10.2021
5796 Clouds 18 1016 71 10000 4.46 77 23:21 21.10.2021
5797 Clouds 20 1022 60 10000 3.09 70 21:39 21.10.2021
5798 Clouds 21 1021 62 10000 4.12 40 20:27 21.10.2021
5799 Clouds 21 1021 58 10000 3.09 40 19:57 21.10.2021
5800 Clouds 21 1021 60 10000 4.63 40 19:28 21.10.2021
5801 Clouds 22 1020 49 10000 2.57 80 18:43 21.10.2021
5802 Clouds 23 1019 43 10000 6.17 90 17:54 21.10.2021
5803 Clouds 23 1019 43 10000 6.17 90 17:32 21.10.2021
5804 Rain 23 1019 45 10000 2.57 80 15:34 21.10.2021
5805 Clouds 23 1020 47 10000 4.12 50 14:57 21.10.2021
5806 Clouds 23 1020 47 10000 4.12 50 14:37 21.10.2021
5807 Clouds 23 1020 47 10000 4.12 50 14:37 21.10.2021
5808 Clouds 23 1021 56 10000 6.17 90 12:44 21.10.2021
5809 Clouds 22 1024 60 10000 0 0 09:58 21.10.2021
5810 Clouds 17 1018 62 10000 3.69 71 08:21 21.10.2021
5811 Clouds 17 1019 72 10000 2.76 52 07:23 21.10.2021
5812 Clouds 18 1022 80 10000 3.09 60 00:58 21.10.2021
5813 Clouds 17 1018 78 10000 4.62 91 23:20 20.10.2021
5814 Clouds 19 1023 72 10000 3.09 90 21:51 20.10.2021
5815 Clouds 19 1023 72 10000 3.09 90 21:27 20.10.2021
5816 Clouds 19 1022 68 10000 4.12 70 20:46 20.10.2021
5817 Clouds 19 1016 64 10000 5.76 91 20:26 20.10.2021
5818 Clouds 20 1021 70 10000 0 0 19:28 20.10.2021
5819 Clouds 21 1020 62 10000 3.6 60 18:49 20.10.2021
5820 Clouds 22 1019 58 10000 3.09 40 17:39 20.10.2021
5821 Clouds 21 1011 39 10000 5.29 95 15:26 20.10.2021
5822 Rain 20 1023 73 10000 0 0 10:23 20.10.2021
5823 Clouds 17 1023 94 10000 5.14 140 07:43 20.10.2021
5824 Rain 17 1022 87 10000 0 0 02:41 20.10.2021
5825 Rain 17 1022 87 10000 0 0 00:35 20.10.2021
5826 Rain 18 1023 88 10000 3.09 360 23:32 19.10.2021
5827 Rain 20 1022 57 10000 5.14 90 21:40 19.10.2021
5828 Rain 21 1021 52 10000 7.72 90 20:45 19.10.2021
5829 Rain 21 1021 52 10000 7.72 90 20:22 19.10.2021
5830 Clouds 22 1020 47 10000 5.14 110 19:39 19.10.2021
5831 Clouds 23 1019 43 10000 5.14 100 18:47 19.10.2021
5832 Clouds 25 1018 45 10000 7.72 90 17:56 19.10.2021
5833 Clouds 26 1018 40 10000 5.14 60 15:31 19.10.2021
5834 Clouds 27 1019 37 10000 6.69 80 14:46 19.10.2021
5835 Clouds 27 1019 37 10000 6.69 80 14:46 19.10.2021
5836 Clouds 26 1019 38 10000 6.69 90 13:57 19.10.2021
5837 Clouds 25 1020 44 10000 6.17 80 12:24 19.10.2021
5838 Clouds 24 1021 53 10000 5.14 60 11:31 19.10.2021
5839 Clouds 19 1023 72 10000 5.14 80 09:55 19.10.2021
5840 Clouds 18 1023 80 10000 3.6 90 08:57 19.10.2021
5841 Clouds 17 1019 88 10000 3.09 90 04:25 19.10.2021
5842 Clouds 19 1021 68 10000 6.17 70 00:22 19.10.2021
5843 Clouds 20 1021 68 10000 5.14 80 23:49 18.10.2021
5844 Clouds 19 1014 66 10000 5.15 86 23:18 18.10.2021
5845 Clouds 21 1020 62 10000 7.2 100 22:31 18.10.2021
5846 Clouds 21 1020 62 10000 7.2 100 22:31 18.10.2021
5847 Clouds 22 1019 56 10000 5.14 90 20:57 18.10.2021
5848 Clouds 22 1019 56 10000 5.14 90 20:33 18.10.2021
5849 Clouds 23 1018 48 10000 5.14 100 19:49 18.10.2021
5850 Clouds 23 1018 48 10000 5.14 100 19:28 18.10.2021
5851 Clouds 25 1017 41 10000 5.14 60 18:50 18.10.2021
5852 Clouds 28 1017 34 10000 6.69 80 14:59 18.10.2021
5853 Clouds 26 1019 43 10000 3.09 20 12:53 18.10.2021
5854 Clouds 22 1021 60 10000 3.09 80 10:35 18.10.2021
5855 Clouds 20 1022 68 10000 2.57 90 09:27 18.10.2021
5856 Clouds 18 1018 77 10000 0 0 02:28 18.10.2021
5857 Clear 18 1020 74 10000 0 0 23:30 17.10.2021
5858 Clouds 19 1021 82 10000 2.57 320 21:52 17.10.2021
5859 Rain 18 1020 82 10000 0 0 20:59 17.10.2021
5860 Rain 18 1020 82 10000 0 0 20:35 17.10.2021
5861 Rain 19 1019 77 10000 0 0 19:39 17.10.2021
5862 Clouds 21 1012 45 10000 6.12 87 18:57 17.10.2021
5863 Clouds 21 1009 39 10000 4.42 93 17:32 17.10.2021
5864 Clouds 22 1007 32 10000 4.31 89 15:19 17.10.2021
5865 Clouds 24 1007 28 10000 3.39 91 14:24 17.10.2021
5866 Clouds 28 1016 35 10000 6.17 90 13:42 17.10.2021
5867 Clouds 25 1019 57 10000 4.12 60 11:57 17.10.2021
5868 Clouds 25 1020 57 10000 4.12 90 10:34 17.10.2021
5869 Clouds 22 1021 60 10000 4.12 60 09:30 17.10.2021
5870 Clouds 22 1016 64 10000 1.81 49 07:19 17.10.2021
5871 Clouds 19 1019 67 10000 5.66 50 00:53 17.10.2021
5872 Clouds 18 1013 66 10000 3.21 54 00:22 17.10.2021
5873 Clouds 21 1019 54 10000 5.14 90 21:49 16.10.2021
5874 Clouds 22 1019 53 10000 4.12 80 20:32 16.10.2021
5875 Clouds 22 1018 49 10000 5.66 90 19:46 16.10.2021
5876 Clouds 21 1012 44 10000 4.43 74 19:23 16.10.2021
5877 Clouds 24 1017 43 10000 4.63 110 18:56 16.10.2021
5878 Clouds 21 1012 44 10000 4.43 74 18:37 16.10.2021
5879 Clouds 22 1011 40 10000 4.29 86 18:18 16.10.2021
5880 Clouds 26 1017 39 10000 7.72 100 17:25 16.10.2021
5881 Clouds 26 1008 33 10000 5.67 119 15:25 16.10.2021
5882 Clouds 26 1010 34 10000 3.93 92 11:55 16.10.2021
5883 Clouds 23 1021 52 10000 5.14 60 10:47 16.10.2021
5884 Clouds 22 1016 63 10000 4.02 69 08:23 16.10.2021
5885 Clouds 18 1020 82 10000 4.12 50 01:25 16.10.2021
5886 Clouds 18 1014 83 10000 3.65 61 01:25 16.10.2021
5887 Clouds 19 1020 76 10000 6.17 50 23:57 15.10.2021
5888 Clouds 18 1020 76 10000 6.17 50 23:24 15.10.2021
5889 Clouds 19 1015 70 10000 5.47 84 22:19 15.10.2021
5890 Clear 20 1021 64 10000 5.66 80 21:29 15.10.2021
5891 Clear 22 1020 52 10000 6.17 90 20:49 15.10.2021
5892 Clouds 23 1019 44 10000 6.17 90 19:37 15.10.2021
5893 Clouds 25 1018 40 10000 5.14 110 18:41 15.10.2021
5894 Clouds 27 1017 33 10000 6.17 110 16:43 15.10.2021
5895 Clouds 27 1017 32 10000 5.14 60 15:36 15.10.2021
5896 Clouds 26 1019 36 10000 5.14 70 13:34 15.10.2021
5897 Clouds 24 1021 47 10000 6.17 70 11:40 15.10.2021
5898 Clouds 23 1022 52 10000 5.14 50 10:58 15.10.2021
5899 Clouds 22 1023 57 10000 4.12 20 09:59 15.10.2021
5900 Clouds 17 1022 88 10000 3.09 70 06:47 15.10.2021
5901 Clouds 18 1021 77 10000 4.63 40 01:48 15.10.2021
5902 Clouds 17 1015 76 10000 4.37 87 00:22 15.10.2021
5903 Clouds 21 1022 54 10000 7.2 110 22:52 14.10.2021
5904 Clouds 22 1022 49 10000 6.69 80 21:45 14.10.2021
5905 Clouds 23 1021 43 10000 7.2 90 20:50 14.10.2021
5906 Clouds 23 1021 43 10000 7.2 90 20:50 14.10.2021
5907 Clouds 20 1015 48 10000 5.1 83 20:19 14.10.2021
5908 Clouds 23 1021 40 10000 6.17 90 19:40 14.10.2021
5909 Clouds 25 1018 38 10000 5.14 70 17:39 14.10.2021
5910 Clouds 26 1018 36 10000 6.17 90 16:56 14.10.2021
5911 Clouds 19 1012 51 10000 4.38 119 16:21 14.10.2021
5912 Clouds 27 1018 33 10000 7.2 70 14:43 14.10.2021
5913 Clouds 27 1018 33 10000 7.2 70 14:24 14.10.2021
5914 Clouds 25 1021 47 10000 5.14 90 11:50 14.10.2021
5915 Clouds 25 1014 45 10000 3.99 81 10:43 14.10.2021
5916 Clouds 21 1018 68 10000 3.17 58 07:37 14.10.2021
5917 Clouds 17 1016 84 10000 2.42 74 03:51 14.10.2021
5918 Clouds 17 1016 74 10000 4.15 79 00:31 14.10.2021
5919 Clouds 19 1022 70 10000 5.14 70 22:32 13.10.2021
5920 Rain 19 1022 66 10000 4.12 80 21:34 13.10.2021
5921 Clouds 18 1016 64 10000 4.91 76 20:23 13.10.2021
5922 Clouds 19 1015 64 10000 5.15 76 19:19 13.10.2021
5923 Clouds 21 1021 56 10000 5.66 90 18:37 13.10.2021
5924 Clouds 22 1019 53 10000 5.14 80 15:53 13.10.2021
5925 Clouds 22 1019 51 10000 0 0 14:46 13.10.2021
5926 Clouds 22 1019 51 10000 0 0 14:46 13.10.2021
5927 Clouds 23 1011 46 10000 4.68 91 14:23 13.10.2021
5928 Clouds 22 1020 51 10000 4.63 100 12:24 13.10.2021
5929 Clouds 21 1021 56 10000 5.14 90 11:35 13.10.2021
5930 Clouds 21 1021 56 10000 5.14 90 11:35 13.10.2021
5931 Clouds 22 1017 58 10000 2.39 118 09:26 13.10.2021
5932 Clouds 17 1018 68 10000 2.19 98 07:48 13.10.2021
5933 Clouds 16 1016 80 10000 2.67 41 02:51 13.10.2021
5934 Clouds 16 1015 80 10000 3.13 48 02:19 13.10.2021
5935 Clouds 17 1016 67 10000 4.03 94 23:31 12.10.2021
5936 Clouds 18 1016 67 10000 4.02 94 22:48 12.10.2021
5937 Clouds 18 1016 59 10000 5.51 98 22:23 12.10.2021
5938 Clouds 19 1014 47 10000 6.36 98 20:48 12.10.2021
5939 Clouds 22 1013 42 10000 5.32 90 20:19 12.10.2021
5940 Clouds 23 1019 38 10000 0 0 18:57 12.10.2021
5941 Clouds 23 1019 39 10000 0 0 18:23 12.10.2021
5942 Clouds 25 1018 33 10000 0 0 16:47 12.10.2021
5943 Clouds 24 1010 36 10000 1.61 62 16:18 12.10.2021
5944 Clouds 26 1018 31 10000 2.57 130 14:51 12.10.2021
5945 Clouds 26 1019 32 10000 3.6 150 13:45 12.10.2021
5946 Clouds 25 1020 39 10000 2.57 80 12:40 12.10.2021
5947 Clouds 23 1022 39 10000 4.63 140 10:38 12.10.2021
5948 Clouds 19 1023 54 10000 0 0 08:49 12.10.2021
5949 Clouds 19 1018 63 10000 2.28 127 08:00 12.10.2021
5950 Clouds 16 1023 77 10000 1.54 230 06:42 12.10.2021
5951 Clear 14 1022 88 10000 2.57 220 04:35 12.10.2021
5952 Clear 17 1021 72 10000 3.09 200 01:30 12.10.2021
5953 Clear 17 1021 72 10000 0 0 23:42 11.10.2021
5954 Clouds 18 1016 61 10000 4.86 90 23:19 11.10.2021
5955 Clouds 19 1022 59 10000 3.6 90 22:30 11.10.2021
5956 Clouds 18 1015 54 10000 3.59 93 21:20 11.10.2021
5957 Clouds 21 1020 53 10000 0 0 19:46 11.10.2021
5958 Clouds 19 1013 56 10000 4.2 93 19:22 11.10.2021
5959 Clouds 21 1012 52 10000 4.46 101 18:20 11.10.2021
5960 Clouds 24 1018 48 10000 4.12 160 16:40 11.10.2021
5961 Clouds 22 1011 49 10000 4.33 133 16:19 11.10.2021
5962 Clouds 25 1018 44 10000 6.17 140 15:40 11.10.2021
5963 Clouds 25 1018 44 10000 5.14 160 14:53 11.10.2021
5964 Clouds 25 1019 47 10000 5.14 150 13:51 11.10.2021
5965 Clouds 23 1014 49 10000 3.15 109 12:20 11.10.2021
5966 Clouds 21 1023 66 10000 5.14 160 10:49 11.10.2021
5967 Clouds 19 1023 72 10000 2.06 170 09:45 11.10.2021
5968 Clouds 17 1022 85 10000 3.09 150 07:56 11.10.2021
5969 Clouds 17 1021 82 10000 3.6 60 01:42 11.10.2021
5970 Clouds 19 1021 77 10000 3.09 10 00:53 11.10.2021
5971 Clouds 19 1021 77 10000 3.09 10 00:31 11.10.2021
5972 Clouds 19 1015 61 10000 4.49 84 22:22 10.10.2021
5973 Clear 18 1022 82 10000 1.03 0 21:35 10.10.2021
5974 Clouds 19 1021 72 10000 3.09 90 20:48 10.10.2021
5975 Clouds 19 1014 54 10000 6.02 104 20:22 10.10.2021
5976 Clouds 20 1020 68 10000 4.12 110 20:00 10.10.2021
5977 Clouds 20 1020 68 10000 4.12 110 19:38 10.10.2021
5978 Clouds 21 1019 62 10000 4.12 90 18:41 10.10.2021
5979 Clouds 23 1018 58 10000 8.23 90 17:50 10.10.2021
5980 Clouds 27 1017 47 10000 5.14 50 15:47 10.10.2021
5981 Clouds 27 1018 44 10000 4.12 70 14:44 10.10.2021
5982 Clouds 27 1018 44 10000 4.12 90 13:34 10.10.2021
5983 Clouds 26 1021 50 10000 3.09 0 12:41 10.10.2021
5984 Clouds 23 1022 60 10000 5.14 90 11:29 10.10.2021
5985 Clouds 23 1022 60 10000 5.14 90 11:29 10.10.2021
5986 Clouds 21 1022 68 10000 3.09 40 09:51 10.10.2021
5987 Clouds 19 1023 77 10000 0 0 08:54 10.10.2021
5988 Clouds 19 1022 87 10000 2.57 70 07:56 10.10.2021
5989 Clouds 17 1022 94 10000 0 0 03:47 10.10.2021
5990 Clouds 18 1022 88 10000 0 0 01:39 10.10.2021
5991 Clouds 18 1022 88 10000 0 0 00:37 10.10.2021
5992 Clouds 18 1016 80 10000 3.6 81 23:22 09.10.2021
5993 Clouds 18 1021 77 10000 0 0 21:52 09.10.2021
5994 Clouds 19 1016 71 10000 4.68 87 21:29 09.10.2021
5995 Clouds 20 1020 72 10000 5.14 90 19:49 09.10.2021
5996 Clouds 20 1020 72 10000 5.14 90 19:31 09.10.2021
5997 Clouds 21 1019 68 10000 4.12 90 18:34 09.10.2021
5998 Clouds 22 1018 62 10000 4.63 70 17:43 09.10.2021
5999 Clouds 22 1010 46 10000 4.42 79 16:19 09.10.2021
6000 Clouds 24 1020 57 10000 3.09 40 13:47 09.10.2021
6001 Clouds 23 1012 47 10000 2.73 123 13:24 09.10.2021
6002 Clouds 20 1021 68 10000 2.57 60 11:58 09.10.2021
6003 Clouds 23 1015 60 10000 2.64 121 10:43 09.10.2021
6004 Clouds 18 1023 94 10000 3.09 60 09:54 09.10.2021
6005 Clouds 21 1016 66 10000 3 77 08:33 09.10.2021
6006 Clouds 17 1021 88 10000 0 0 07:49 09.10.2021
6007 Clouds 17 1021 88 10000 0 0 07:49 09.10.2021
6008 Clouds 16 1016 83 10000 2.17 78 05:55 09.10.2021
6009 Clouds 17 1014 86 10000 3.52 78 04:18 09.10.2021
6010 Clouds 17 1019 85 10000 3.09 80 02:43 09.10.2021
6011 Clouds 18 1014 76 10000 3.98 79 23:55 08.10.2021
6012 Clouds 19 1014 76 10000 3.98 79 23:31 08.10.2021
6013 Clouds 19 1014 73 10000 4.43 77 23:31 08.10.2021
6014 Clouds 19 1014 73 10000 4.43 77 22:42 08.10.2021
6015 Clouds 20 1015 72 10000 3.8 65 21:39 08.10.2021
6016 Rain 21 1014 66 10000 3.43 54 19:44 08.10.2021
6017 Rain 21 1012 60 10000 3.11 55 17:36 08.10.2021
6018 Rain 21 1017 68 10000 3.6 340 16:53 08.10.2021
6019 Rain 21 1017 68 10000 3.6 340 16:53 08.10.2021
6020 Clouds 22 1009 45 10000 3.7 67 16:24 08.10.2021
6021 Clouds 22 1008 31 10000 1.06 128 14:20 08.10.2021
6022 Clouds 21 1008 31 10000 1.06 128 13:41 08.10.2021
6023 Clouds 24 1011 35 10000 2.1 161 11:41 08.10.2021
6024 Clouds 24 1013 41 10000 1.49 136 10:42 08.10.2021
6025 Clouds 22 1015 50 10000 1.13 81 09:46 08.10.2021
6026 Clouds 18 1014 75 10000 2.36 47 03:36 08.10.2021
6027 Clouds 19 1015 65 10000 4.28 94 23:22 07.10.2021
6028 Clouds 20 1014 54 10000 6.02 95 21:47 07.10.2021
6029 Clouds 21 1013 48 10000 4.06 72 21:28 07.10.2021
6030 Clouds 22 1013 41 10000 3.77 77 20:28 07.10.2021
6031 Clouds 22 1012 40 10000 3.21 57 19:31 07.10.2021
6032 Clouds 22 1011 37 10000 3.59 58 18:27 07.10.2021
6033 Clouds 23 1010 37 10000 2.79 67 17:27 07.10.2021
6034 Clouds 23 1018 53 10000 3.09 360 15:58 07.10.2021
6035 Clouds 23 1009 36 10000 1.33 164 14:48 07.10.2021
6036 Clouds 24 1010 35 10000 1.16 228 13:43 07.10.2021
6037 Clouds 23 1010 34 10000 2.37 204 12:49 07.10.2021
6038 Clouds 25 1022 47 10000 5.14 150 10:57 07.10.2021
6039 Clouds 23 1015 41 10000 2.92 183 10:22 07.10.2021
6040 Clouds 23 1022 54 10000 5.14 240 09:34 07.10.2021
6041 Clouds 23 1022 54 10000 5.14 240 09:34 07.10.2021
6042 Clouds 20 1022 64 10000 3.09 150 08:52 07.10.2021
6043 Clouds 20 1022 65 10000 0 0 07:57 07.10.2021
6044 Clouds 20 1022 65 10000 0 0 07:37 07.10.2021
6045 Clouds 17 1015 76 10000 1.51 59 04:24 07.10.2021
6046 Clouds 17 1021 72 10000 3.09 40 00:29 07.10.2021
6047 Clouds 19 1014 52 10000 4.06 79 22:55 06.10.2021
6048 Clouds 19 1014 51 10000 3.6 85 22:24 06.10.2021
6049 Clouds 20 1019 62 10000 0 0 20:51 06.10.2021
6050 Clouds 20 1019 62 10000 0 0 20:26 06.10.2021
6051 Clouds 19 1019 77 10000 5.66 140 18:43 06.10.2021
6052 Clouds 28 1016 39 10000 5.14 120 16:58 06.10.2021
6053 Clouds 28 1016 34 10000 3.09 90 15:33 06.10.2021
6054 Clouds 27 1017 41 10000 2.57 60 14:34 06.10.2021
6055 Clouds 27 1018 39 10000 5.14 150 13:24 06.10.2021
6056 Clouds 26 1019 44 10000 0 0 12:45 06.10.2021
6057 Clouds 26 1011 35 10000 3.04 172 12:23 06.10.2021
6058 Clouds 24 1022 43 10000 2.57 0 10:36 06.10.2021
6059 Clouds 24 1014 42 10000 2.55 168 09:39 06.10.2021
6060 Clouds 20 1022 60 10000 0 0 08:57 06.10.2021
6061 Clouds 19 1016 53 10000 0.96 161 07:54 06.10.2021
6062 Clouds 14 1016 68 10000 0.8 33 05:37 06.10.2021
6063 Clear 16 1020 67 10000 2.57 40 01:37 06.10.2021
6064 Clouds 17 1015 63 10000 4.42 76 00:20 06.10.2021
6065 Clear 19 1021 63 10000 0 0 23:50 05.10.2021
6066 Clear 19 1021 63 10000 0 0 23:29 05.10.2021
6067 Clouds 18 1015 52 10000 4.93 78 22:30 05.10.2021
6068 Clear 19 1020 56 10000 0 0 21:51 05.10.2021
6069 Clouds 19 1014 49 10000 5.23 86 20:51 05.10.2021
6070 Clouds 19 1014 46 10000 5.77 93 20:25 05.10.2021
6071 Clouds 22 1018 45 10000 5.14 90 19:50 05.10.2021
6072 Clouds 21 1012 44 10000 5.03 101 19:22 05.10.2021
6073 Clouds 21 1011 39 10000 4.94 88 17:40 05.10.2021
6074 Clouds 23 1008 27 10000 2.56 144 15:27 05.10.2021
6075 Clouds 28 1009 28 10000 2.92 143 13:44 05.10.2021
6076 Clouds 27 1010 30 10000 3.14 141 13:18 05.10.2021
6077 Clouds 28 1010 30 10000 3.14 142 12:33 05.10.2021
6078 Clouds 25 1013 37 10000 2.71 126 11:22 05.10.2021
6079 Clouds 24 1021 53 10000 2.57 100 10:34 05.10.2021
6080 Clouds 14 1021 91 10000 0 0 06:59 05.10.2021
6081 Clear 18 1020 80 10000 0 0 00:58 05.10.2021
6082 Clouds 20 1021 72 10000 2.06 40 22:51 04.10.2021
6083 Clouds 19 1020 78 10000 2.06 280 20:51 04.10.2021
6084 Clouds 21 1019 64 10000 0 0 18:48 04.10.2021
6085 Clouds 22 1017 60 10000 0 0 16:55 04.10.2021
6086 Clouds 23 1011 53 10000 5.24 150 15:32 04.10.2021
6087 Clouds 28 1017 32 10000 3.09 80 14:45 04.10.2021
6088 Clouds 28 1018 32 10000 0 0 13:59 04.10.2021
6089 Clouds 28 1018 32 10000 0 0 13:31 04.10.2021
6090 Clouds 28 1019 36 10000 0 0 12:38 04.10.2021
6091 Rain 27 1020 41 10000 0 0 11:33 04.10.2021
6092 Rain 26 1021 46 10000 3.09 40 10:45 04.10.2021
6093 Clouds 24 1022 50 10000 5.14 120 09:35 04.10.2021
6094 Clouds 17 1021 78 10000 0 0 07:53 04.10.2021
6095 Clouds 15 1021 88 10000 2.57 290 06:42 04.10.2021
6096 Clouds 18 1021 83 10000 0 0 22:51 03.10.2021
6097 Rain 18 1021 80 10000 0 0 21:54 03.10.2021
6098 Rain 19 1021 82 10000 0 0 21:29 03.10.2021
6099 Rain 19 1016 82 10000 0.92 356 20:45 03.10.2021
6100 Clouds 18 1020 82 10000 3.09 280 19:46 03.10.2021
6101 Rain 20 1019 66 10000 3.6 210 18:29 03.10.2021
6102 Rain 20 1019 66 10000 3.6 210 18:29 03.10.2021
6103 Rain 24 1018 50 10000 9.26 210 17:37 03.10.2021
6104 Rain 28 1016 32 10000 6.17 80 15:29 03.10.2021
6105 Rain 30 1017 28 10000 5.14 40 14:30 03.10.2021
6106 Clouds 29 1018 30 10000 6.17 110 13:35 03.10.2021
6107 Clouds 28 1019 34 10000 5.14 110 12:45 03.10.2021
6108 Clouds 25 1013 41 10000 2.87 109 11:19 03.10.2021
6109 Clear 22 1022 55 10000 0 0 09:57 03.10.2021
6110 Clouds 14 1019 82 10000 0 0 05:38 03.10.2021
6111 Clouds 19 1021 55 10000 3.6 40 22:52 02.10.2021
6112 Clouds 21 1020 49 10000 4.63 90 21:51 02.10.2021
6113 Clouds 22 1019 43 10000 5.14 90 20:30 02.10.2021
6114 Clouds 24 1018 38 10000 6.17 90 18:56 02.10.2021
6115 Clouds 24 1018 38 10000 6.17 90 18:56 02.10.2021
6116 Clouds 19 1011 43 10000 3.69 78 18:20 02.10.2021
6117 Clouds 26 1016 35 10000 5.14 90 17:37 02.10.2021
6118 Clouds 27 1016 31 10000 5.14 120 16:28 02.10.2021
6119 Clouds 14 1020 94 10000 0 0 06:47 02.10.2021
6120 Clouds 27 1017 33 10000 4.63 150 15:37 30.09.2021
6121 Clouds 27 1018 37 10000 3.09 200 13:54 30.09.2021
6122 Clouds 24 1021 49 10000 3.09 80 11:53 30.09.2021
6123 Clouds 22 1022 62 10000 2.57 350 10:53 30.09.2021
6124 Clouds 22 1022 62 10000 2.57 350 10:22 30.09.2021
6125 Clouds 20 1022 71 10000 2.06 160 08:31 30.09.2021
6126 Clouds 18 1022 85 10000 4.12 140 07:35 30.09.2021
6127 Clouds 17 1016 83 10000 2.3 68 05:23 30.09.2021
6128 Clouds 17 1021 88 10000 1.54 40 01:41 30.09.2021
6129 Clouds 17 1021 94 10000 2.57 20 00:30 30.09.2021
6130 Clear 20 1021 70 10000 4.12 70 22:39 29.09.2021
6131 Clear 20 1021 64 10000 4.63 80 21:27 29.09.2021
6132 Clouds 22 1020 53 10000 5.14 90 20:28 29.09.2021
6133 Clouds 24 1019 42 10000 6.17 100 19:55 29.09.2021
6134 Clouds 25 1018 41 10000 8.23 100 18:52 29.09.2021
6135 Clouds 26 1016 34 10000 5.14 110 17:55 29.09.2021
6136 Clouds 28 1017 29 10000 5.14 70 16:55 29.09.2021
6137 Clouds 26 1008 24 10000 4.36 110 16:21 29.09.2021
6138 Clouds 29 1017 26 10000 4.12 120 14:39 29.09.2021
6139 Clouds 29 1018 26 10000 4.12 110 13:58 29.09.2021
6140 Clouds 29 1018 26 10000 4.12 110 13:27 29.09.2021
6141 Clouds 28 1019 31 10000 5.14 80 12:36 29.09.2021
6142 Clear 24 1022 50 10000 2.06 0 10:50 29.09.2021
6143 Clear 22 1023 55 10000 4.12 180 09:58 29.09.2021
6144 Clear 22 1023 55 10000 4.12 180 09:35 29.09.2021
6145 Clouds 16 1022 76 10000 3.09 210 07:39 29.09.2021
6146 Clear 12 1020 88 10000 2.06 240 04:39 29.09.2021
6147 Clouds 18 1021 65 10000 2.57 50 23:29 28.09.2021
6148 Clouds 18 1021 63 10000 3.09 90 22:24 28.09.2021
6149 Clouds 19 1022 59 10000 1.03 0 21:45 28.09.2021
6150 Clouds 21 1021 52 10000 4.12 80 20:43 28.09.2021
6151 Clouds 23 1019 48 10000 5.14 130 19:46 28.09.2021
6152 Clouds 24 1018 41 10000 6.17 120 18:51 28.09.2021
6153 Clouds 22 1012 35 10000 6.22 107 18:18 28.09.2021
6154 Clouds 27 1018 32 10000 6.17 90 16:41 28.09.2021
6155 Clouds 27 1018 32 10000 4.12 130 14:37 28.09.2021
6156 Clouds 27 1011 27 10000 2.43 99 13:19 28.09.2021
6157 Clouds 27 1012 30 10000 3.01 104 12:21 28.09.2021
6158 Clouds 25 1021 44 10000 5.14 50 11:47 28.09.2021
6159 Clouds 26 1014 34 10000 3.15 113 11:23 28.09.2021
6160 Clouds 26 1015 39 10000 3.08 115 10:21 28.09.2021
6161 Clouds 26 1015 39 10000 3.08 115 10:21 28.09.2021
6162 Clouds 26 1015 39 10000 3.08 115 10:21 28.09.2021
6163 Clouds 21 1023 60 10000 5.14 150 09:22 28.09.2021
6164 Clouds 19 1023 64 10000 0 0 08:39 28.09.2021
6165 Clear 15 1022 75 10000 0 0 07:49 28.09.2021
6166 Clear 11 1021 82 10000 3.09 230 05:41 28.09.2021
6167 Clear 18 1020 77 10000 0 0 01:26 28.09.2021
6168 Clear 18 1020 68 10000 0 0 00:26 28.09.2021
6169 Clear 20 1020 60 10000 3.09 40 23:42 27.09.2021
6170 Clouds 18 1015 55 10000 5.12 90 23:23 27.09.2021
6171 Clouds 18 1015 48 10000 4.42 83 22:19 27.09.2021
6172 Clouds 22 1019 46 10000 2.57 120 20:45 27.09.2021
6173 Clouds 22 1019 46 10000 2.57 120 20:23 27.09.2021
6174 Clouds 23 1019 40 10000 4.12 90 19:30 27.09.2021
6175 Clouds 25 1018 33 10000 5.14 100 18:52 27.09.2021
6176 Clouds 26 1017 36 10000 5.14 110 17:33 27.09.2021
6177 Clouds 27 1018 32 10000 9.26 90 16:51 27.09.2021
6178 Clouds 28 1018 34 10000 7.2 110 15:46 27.09.2021
6179 Clouds 28 1018 34 10000 7.2 110 15:27 27.09.2021
6180 Clouds 26 1019 35 10000 2.57 130 13:35 27.09.2021
6181 Clouds 24 1014 40 10000 2.78 108 12:20 27.09.2021
6182 Clouds 23 1023 53 10000 5.14 90 10:42 27.09.2021
6183 Clouds 21 1023 56 10000 2.57 90 09:31 27.09.2021
6184 Clouds 15 1022 85 10000 0 0 06:37 27.09.2021
6185 Clouds 15 1021 87 10000 2.06 180 03:31 27.09.2021
6186 Clouds 19 1022 55 10000 0 0 23:41 26.09.2021
6187 Clouds 20 1022 58 10000 2.06 90 21:55 26.09.2021
6188 Clear 20 1022 56 10000 5.66 80 21:26 26.09.2021
6189 Clouds 19 1015 55 10000 3.39 60 20:24 26.09.2021
6190 Clouds 21 1021 51 10000 5.14 80 19:54 26.09.2021
6191 Clouds 21 1021 51 10000 5.14 80 19:25 26.09.2021
6192 Clouds 19 1014 55 10000 3.13 38 19:25 26.09.2021
6193 Clouds 23 1020 46 10000 7.72 90 18:34 26.09.2021
6194 Clouds 23 1019 45 10000 5.14 60 17:37 26.09.2021
6195 Clouds 20 1012 46 10000 2.04 24 17:18 26.09.2021
6196 Clouds 22 1012 43 10000 1.71 124 16:22 26.09.2021
6197 Clouds 25 1019 44 10000 3.09 120 15:22 26.09.2021
6198 Clouds 23 1012 35 10000 3.91 126 14:20 26.09.2021
6199 Clouds 24 1021 54 10000 7.2 80 13:42 26.09.2021
6200 Clouds 25 1021 47 10000 2.57 110 12:26 26.09.2021
6201 Clouds 23 1015 41 10000 3.38 117 11:53 26.09.2021
6202 Clouds 22 1016 46 10000 3.38 108 10:59 26.09.2021
6203 Clouds 21 1018 54 10000 2.81 90 09:38 26.09.2021
6204 Clouds 18 1019 63 10000 2.27 72 08:41 26.09.2021
6205 Clouds 17 1017 75 10000 3.3 83 00:29 26.09.2021
6206 Clouds 17 1017 75 10000 3.3 83 23:43 25.09.2021
6207 Clouds 17 1017 68 10000 3.5 88 22:39 25.09.2021
6208 Clouds 17 1017 64 10000 3.66 90 22:18 25.09.2021
6209 Clouds 17 1017 64 10000 3.66 90 22:18 25.09.2021
6210 Clouds 18 1017 64 10000 3.65 90 21:45 25.09.2021
6211 Clouds 18 1017 62 10000 3.96 97 20:52 25.09.2021
6212 Clouds 21 1021 52 10000 5.14 120 19:40 25.09.2021
6213 Clouds 22 1021 49 10000 6.17 100 18:28 25.09.2021
6214 Clouds 21 1013 52 10000 3.98 109 17:23 25.09.2021
6215 Clouds 24 1020 41 10000 5.14 120 14:38 25.09.2021
6216 Clouds 24 1021 44 10000 5.14 120 13:55 25.09.2021
6217 Clouds 23 1023 45 10000 5.14 140 12:45 25.09.2021
6218 Clouds 22 1016 41 10000 3.38 126 11:27 25.09.2021
6219 Clouds 21 1018 47 10000 3.3 124 10:18 25.09.2021
6220 Clouds 19 1019 54 10000 3 117 09:21 25.09.2021
6221 Clouds 16 1024 80 10000 0 0 07:47 25.09.2021
6222 Clouds 17 1017 76 10000 1.87 128 00:52 25.09.2021
6223 Clouds 18 1018 70 10000 3.3 113 22:18 24.09.2021
6224 Clouds 19 1022 64 10000 4.12 120 21:34 24.09.2021
6225 Rain 20 1022 59 10000 5.14 120 20:32 24.09.2021
6226 Rain 21 1021 55 10000 5.14 120 19:31 24.09.2021
6227 Rain 19 1015 67 10000 3.9 122 18:20 24.09.2021
6228 Rain 23 1019 46 10000 5.14 150 17:50 24.09.2021
6229 Rain 23 1019 46 10000 5.14 150 17:31 24.09.2021
6230 Clouds 24 1019 42 10000 5.14 120 15:50 24.09.2021
6231 Clouds 24 1020 43 10000 5.14 180 13:27 24.09.2021
6232 Clouds 22 1022 53 10000 5.14 90 12:43 24.09.2021
6233 Clouds 22 1022 53 10000 5.14 90 12:25 24.09.2021
6234 Clouds 22 1022 53 10000 5.14 90 12:25 24.09.2021
6235 Clouds 20 1023 60 10000 3.09 90 10:56 24.09.2021
6236 Clouds 18 1024 70 10000 3.09 180 09:55 24.09.2021
6237 Clouds 18 1019 72 10000 1.99 68 08:21 24.09.2021
6238 Clouds 15 1022 85 10000 4.63 170 06:59 24.09.2021
6239 Clouds 15 1021 88 10000 0 0 05:57 24.09.2021
6240 Clouds 15 1021 88 10000 0 0 05:57 24.09.2021
6241 Clouds 15 1021 88 10000 2.06 210 04:51 24.09.2021
6242 Clouds 17 1021 75 10000 0 0 22:38 23.09.2021
6243 Clouds 19 1022 68 10000 4.12 90 21:59 23.09.2021
6244 Clouds 18 1017 66 10000 4.4 96 21:20 23.09.2021
6245 Clouds 18 1017 66 10000 4.39 96 21:20 23.09.2021
6246 Clouds 19 1021 61 10000 6.17 90 20:32 23.09.2021
6247 Clouds 22 1019 49 10000 6.17 80 18:36 23.09.2021
6248 Clouds 24 1018 43 10000 5.14 70 16:39 23.09.2021
6249 Clouds 22 1012 40 10000 1.8 68 15:19 23.09.2021
6250 Clouds 24 1019 43 10000 5.14 80 14:52 23.09.2021
6251 Clouds 23 1013 44 10000 2.58 100 13:27 23.09.2021
6252 Clouds 22 1021 55 10000 2.57 40 12:57 23.09.2021
6253 Clouds 22 1021 55 10000 2.57 40 12:37 23.09.2021
6254 Clouds 23 1015 49 10000 3.09 90 12:18 23.09.2021
6255 Clouds 20 1023 64 10000 3.09 120 10:31 23.09.2021
6256 Clouds 19 1023 67 10000 6.69 150 09:57 23.09.2021
6257 Clouds 19 1023 67 10000 6.69 150 09:38 23.09.2021
6258 Clouds 15 1019 80 10000 3.09 62 06:24 23.09.2021
6259 Clouds 17 1022 76 10000 3.09 170 00:25 23.09.2021
6260 Clouds 18 1022 73 10000 2.57 160 22:54 22.09.2021
6261 Clouds 18 1017 63 10000 6.05 100 22:20 22.09.2021
6262 Clouds 19 1021 60 10000 3.09 150 21:44 22.09.2021
6263 Clouds 20 1021 56 10000 3.09 140 20:58 22.09.2021
6264 Clouds 21 1020 52 10000 4.12 100 19:53 22.09.2021
6265 Clouds 21 1020 52 10000 4.12 100 19:27 22.09.2021
6266 Clouds 23 1019 43 10000 5.14 120 18:35 22.09.2021
6267 Clouds 21 1013 41 10000 6.05 109 17:33 22.09.2021
6268 Clouds 23 1010 37 10000 5.21 108 15:52 22.09.2021
6269 Clouds 26 1020 37 10000 5.14 110 14:29 22.09.2021
6270 Clouds 25 1021 40 10000 3.09 60 13:24 22.09.2021
6271 Clouds 23 1016 45 10000 3.03 103 11:20 22.09.2021
6272 Clouds 20 1026 66 10000 3.6 120 09:35 22.09.2021
6273 Clouds 18 1025 74 10000 2.57 110 08:51 22.09.2021
6274 Clouds 16 1024 85 10000 3.09 180 07:41 22.09.2021
6275 Clouds 16 1023 85 10000 4.12 150 06:54 22.09.2021
6276 Clouds 16 1023 85 10000 2.57 140 05:49 22.09.2021
6277 Clouds 16 1018 81 10000 1.63 71 05:18 22.09.2021
6278 Clouds 16 1022 85 10000 0 0 03:33 22.09.2021
6279 Rain 17 1017 84 10000 2.81 89 00:19 22.09.2021
6280 Clouds 19 1023 70 10000 3.09 70 22:28 21.09.2021
6281 Clouds 19 1022 68 10000 4.12 90 21:31 21.09.2021
6282 Clouds 19 1016 65 10000 6.23 105 19:38 21.09.2021
6283 Clouds 19 1015 58 10000 5.69 102 19:20 21.09.2021
6284 Clouds 24 1019 46 10000 5.14 90 16:59 21.09.2021
6285 Clouds 24 1019 46 10000 5.14 90 16:27 21.09.2021
6286 Clouds 24 1019 46 10000 2.57 80 15:25 21.09.2021
6287 Clouds 24 1019 48 10000 5.14 90 14:49 21.09.2021
6288 Clouds 23 1021 53 10000 1.54 0 13:40 21.09.2021
6289 Clouds 22 1021 52 10000 3.6 70 12:58 21.09.2021
6290 Clouds 24 1015 45 10000 3.33 102 11:19 21.09.2021
6291 Clouds 17 1024 77 10000 2.57 210 09:54 21.09.2021
6292 Clouds 16 1023 82 10000 0 0 07:51 21.09.2021
6293 Clear 15 1018 85 10000 1.02 88 06:18 21.09.2021
6294 Clear 17 1023 77 10000 1.54 360 23:58 20.09.2021
6295 Clouds 20 1023 60 10000 10 70 21:58 20.09.2021
6296 Clouds 20 1023 60 10000 10 70 21:32 20.09.2021
6297 Clouds 21 1021 52 10000 5.14 90 20:27 20.09.2021
6298 Clouds 22 1021 49 10000 4.12 90 19:28 20.09.2021
6299 Clouds 24 1018 43 10000 5.14 90 17:39 20.09.2021
6300 Clouds 25 1018 43 10000 5.14 120 16:33 20.09.2021
6301 Clouds 26 1018 38 10000 5.14 130 15:47 20.09.2021
6302 Clouds 23 1009 28 10000 2.86 85 15:22 20.09.2021
6303 Clouds 25 1019 43 10000 5.14 180 13:43 20.09.2021
6304 Clouds 25 1021 42 10000 5.14 150 12:35 20.09.2021
6305 Clear 23 1015 32 10000 2.72 142 11:19 20.09.2021
6306 Clouds 20 1023 60 10000 0 0 09:57 20.09.2021
6307 Clouds 20 1023 60 10000 0 0 09:36 20.09.2021
6308 Clouds 17 1023 72 10000 0 0 08:58 20.09.2021
6309 Clouds 13 1022 85 10000 0 0 06:51 20.09.2021
6310 Clear 17 1023 65 10000 0 0 23:45 19.09.2021
6311 Clouds 18 1016 43 10000 4.13 84 22:21 19.09.2021
6312 Clear 19 1022 44 10000 3.09 80 21:39 19.09.2021
6313 Clear 20 1021 39 10000 2.57 70 20:34 19.09.2021
6314 Clouds 21 1014 48 10000 2.96 48 19:22 19.09.2021
6315 Clouds 21 1013 45 10000 2.35 43 18:26 19.09.2021
6316 Clouds 26 1018 22 10000 4.12 140 17:22 19.09.2021
6317 Clouds 28 1018 24 10000 3.6 150 15:55 19.09.2021
6318 Clouds 28 1018 24 10000 3.6 150 15:29 19.09.2021
6319 Clouds 28 1019 21 10000 3.09 160 14:46 19.09.2021
6320 Clouds 24 1012 33 10000 2.31 186 13:21 19.09.2021
6321 Clouds 27 1021 27 10000 4.63 260 12:50 19.09.2021
6322 Clouds 26 1022 32 10000 9.77 200 11:27 19.09.2021
6323 Clouds 24 1023 38 10000 8.23 210 10:35 19.09.2021
6324 Clouds 22 1024 53 10000 4.63 270 09:39 19.09.2021
6325 Clouds 20 1023 62 10000 3.6 240 08:31 19.09.2021
6326 Clouds 14 1023 79 10000 0 0 06:41 19.09.2021
6327 Clouds 18 1024 67 10000 0 0 23:38 18.09.2021
6328 Clouds 20 1023 58 10000 2.57 70 21:59 18.09.2021
6329 Clouds 20 1022 60 10000 5.14 90 20:52 18.09.2021
6330 Clouds 18 1015 57 10000 5.15 84 20:32 18.09.2021
6331 Rain 21 1021 60 10000 5.14 120 19:39 18.09.2021
6332 Rain 17 1014 56 10000 4.55 87 19:20 18.09.2021
6333 Rain 22 1020 60 10000 6.17 90 18:32 18.09.2021
6334 Rain 23 1019 60 10000 6.17 70 17:31 18.09.2021
6335 Rain 22 1011 55 10000 3.38 72 16:18 18.09.2021
6336 Rain 27 1019 41 10000 3.09 170 13:49 18.09.2021
6337 Rain 27 1019 41 10000 3.09 170 13:29 18.09.2021
6338 Rain 25 1021 47 10000 5.14 120 12:49 18.09.2021
6339 Rain 25 1021 47 10000 5.14 120 12:49 18.09.2021
6340 Rain 24 1022 52 10000 3.09 30 11:40 18.09.2021
6341 Clouds 23 1023 55 10000 4.12 90 10:32 18.09.2021
6342 Clouds 21 1023 60 10000 4.12 90 09:27 18.09.2021
6343 Clouds 19 1023 68 10000 0 0 08:57 18.09.2021
6344 Clouds 17 1015 79 10000 1.79 31 03:51 18.09.2021
6345 Clouds 18 1014 74 10000 2.14 63 00:41 18.09.2021
6346 Clouds 18 1014 70 10000 2.53 54 23:48 17.09.2021
6347 Clouds 19 1014 70 10000 2.81 51 22:37 17.09.2021
6348 Rain 19 1014 68 10000 2.77 59 22:18 17.09.2021
6349 Rain 23 1019 53 10000 4.63 100 20:47 17.09.2021
6350 Rain 19 1012 67 10000 1.91 45 19:22 17.09.2021
6351 Rain 22 1011 58 10000 2.63 75 17:20 17.09.2021
6352 Clouds 23 1009 49 10000 1.39 134 16:24 17.09.2021
6353 Rain 27 1019 40 10000 4.12 150 12:37 17.09.2021
6354 Rain 22 1022 60 10000 2.06 90 10:42 17.09.2021
6355 Clouds 15 1023 100 10000 1.54 270 08:45 17.09.2021
6356 Clouds 14 1016 94 5000 1.54 200 06:50 17.09.2021
6357 Clouds 15 1021 82 10000 2.57 350 00:59 17.09.2021
6358 Clouds 18 1022 70 10000 2.06 60 22:54 16.09.2021
6359 Rain 18 1015 72 10000 2.89 64 22:25 16.09.2021
6360 Rain 19 1022 66 10000 4.12 70 21:41 16.09.2021
6361 Rain 18 1015 72 10000 2.43 61 21:20 16.09.2021
6362 Rain 18 1015 72 10000 3.15 72 20:18 16.09.2021
6363 Rain 20 1012 57 10000 3.56 98 18:20 16.09.2021
6364 Clouds 24 1018 50 10000 4.12 60 17:32 16.09.2021
6365 Clouds 25 1019 45 10000 4.12 100 14:55 16.09.2021
6366 Clouds 25 1020 47 10000 5.14 90 13:55 16.09.2021
6367 Clouds 21 1021 58 10000 3.6 180 12:48 16.09.2021
6368 Clouds 25 1012 41 10000 2.8 111 12:28 16.09.2021
6369 Clouds 22 1023 56 10000 2.06 210 11:25 16.09.2021
6370 Clouds 20 1023 62 10000 2.57 90 10:31 16.09.2021
6371 Clouds 19 1023 66 10000 0 0 09:53 16.09.2021
6372 Clouds 18 1023 77 10000 0 0 08:42 16.09.2021
6373 Clouds 19 1018 79 10000 1.82 57 07:22 16.09.2021
6374 Clouds 17 1022 85 10000 0 0 06:43 16.09.2021
6375 Clouds 16 1021 94 10000 0 0 04:55 16.09.2021
6376 Clear 17 1021 88 10000 0 0 01:27 16.09.2021
6377 Clear 18 1021 77 10000 0 0 23:45 15.09.2021
6378 Clouds 18 1021 70 10000 0 0 22:47 15.09.2021
6379 Rain 20 1021 64 10000 3.6 90 21:44 15.09.2021
6380 Rain 20 1021 68 10000 3.6 90 21:25 15.09.2021
6381 Rain 22 1020 56 10000 6.69 80 19:53 15.09.2021
6382 Rain 20 1016 78 10000 1.93 28 19:21 15.09.2021
6383 Rain 25 1019 44 10000 7.2 80 17:57 15.09.2021
6384 Rain 26 1018 41 10000 5.14 140 16:55 15.09.2021
6385 Clouds 26 1018 41 10000 5.14 80 15:34 15.09.2021
6386 Clouds 26 1018 41 10000 5.14 110 14:44 15.09.2021
6387 Clouds 26 1019 41 10000 6.17 120 13:51 15.09.2021
6388 Clouds 26 1019 41 10000 6.17 120 13:30 15.09.2021
6389 Clouds 25 1021 46 10000 4.12 80 12:44 15.09.2021
6390 Clouds 25 1023 45 10000 0 0 11:52 15.09.2021
6391 Clouds 23 1017 59 10000 1.38 102 11:21 15.09.2021
6392 Clouds 22 1023 58 10000 2.57 180 10:55 15.09.2021
6393 Clouds 21 1019 66 10000 1.74 69 09:28 15.09.2021
6394 Clouds 16 1024 80 10000 2.57 210 07:43 15.09.2021
6395 Clouds 15 1023 88 10000 1 0 04:24 15.09.2021
6396 Clear 17 1023 70 10000 2.06 50 22:59 14.09.2021
6397 Clear 18 1022 61 10000 3.6 80 21:41 14.09.2021
6398 Clouds 20 1021 54 10000 4.12 90 20:39 14.09.2021
6399 Clouds 21 1021 52 10000 7.72 100 19:41 14.09.2021
6400 Clouds 24 1019 43 10000 8.23 100 17:40 14.09.2021
6401 Clouds 24 1019 43 10000 8.23 100 17:40 14.09.2021
6402 Clouds 24 1019 46 10000 3.6 90 16:58 14.09.2021
6403 Clouds 25 1018 38 10000 6.17 110 15:30 14.09.2021
6404 Clouds 26 1019 41 10000 5.14 180 14:31 14.09.2021
6405 Clouds 22 1023 55 10000 2.06 250 11:52 14.09.2021
6406 Clouds 19 1024 65 10000 3.6 110 10:54 14.09.2021
6407 Clouds 18 1024 72 10000 3.09 170 09:50 14.09.2021
6408 Clouds 17 1023 78 10000 0 0 08:39 14.09.2021
6409 Clouds 14 1022 85 10000 0 0 06:24 14.09.2021
6410 Clouds 17 1018 77 10000 2.83 59 23:57 13.09.2021
6411 Clouds 18 1023 63 10000 2.57 60 22:46 13.09.2021
6412 Clouds 17 1018 66 10000 2.54 96 22:23 13.09.2021
6413 Clouds 18 1023 63 10000 2.06 60 22:23 13.09.2021
6414 Clouds 18 1023 63 10000 3.6 60 21:45 13.09.2021
6415 Clouds 20 1021 56 10000 2.57 70 20:50 13.09.2021
6416 Clouds 22 1020 52 10000 5.14 90 18:46 13.09.2021
6417 Clouds 24 1019 43 10000 5.14 150 17:42 13.09.2021
6418 Clouds 25 1019 42 10000 5.14 120 16:50 13.09.2021
6419 Clouds 24 1019 43 10000 7.72 120 15:22 13.09.2021
6420 Clouds 22 1023 53 10000 2.57 120 11:55 13.09.2021
6421 Clouds 21 1023 56 10000 5.14 180 10:58 13.09.2021
6422 Clouds 20 1023 60 10000 5.14 180 09:35 13.09.2021
6423 Clouds 15 1023 88 10000 1.54 230 04:57 13.09.2021
6424 Clouds 15 1023 85 10000 0 0 23:32 12.09.2021
6425 Clouds 17 1023 72 10000 1.54 110 22:25 12.09.2021
6426 Clouds 18 1023 63 10000 2.57 100 21:36 12.09.2021
6427 Clouds 18 1022 59 10000 0 0 20:28 12.09.2021
6428 Clouds 21 1021 49 10000 3.09 120 19:50 12.09.2021
6429 Clouds 19 1016 57 10000 4.23 111 19:19 12.09.2021
6430 Clouds 19 1015 47 10000 3.83 120 18:20 12.09.2021
6431 Clouds 24 1020 41 10000 4.12 150 16:30 12.09.2021
6432 Clouds 24 1020 41 10000 4.12 150 16:30 12.09.2021
6433 Clouds 24 1020 41 10000 4.12 150 16:30 12.09.2021
6434 Clouds 23 1021 40 10000 5.14 120 14:50 12.09.2021
6435 Clouds 23 1022 45 10000 5.14 120 12:48 12.09.2021
6436 Clouds 21 1025 52 10000 1.54 80 10:44 12.09.2021
6437 Clouds 16 1025 75 10000 2.57 150 08:59 12.09.2021
6438 Clouds 16 1025 75 10000 2.57 150 08:36 12.09.2021
6439 Clouds 16 1023 77 10000 0 0 01:49 12.09.2021
6440 Clouds 16 1019 70 10000 3.17 95 23:19 11.09.2021
6441 Clouds 18 1022 59 10000 0 0 21:41 11.09.2021
6442 Clouds 17 1017 53 10000 4.85 98 20:18 11.09.2021
6443 Clouds 20 1021 52 10000 3.09 60 18:35 11.09.2021
6444 Clouds 21 1021 47 10000 4.12 90 17:29 11.09.2021
6445 Clouds 21 1021 46 10000 6.17 110 15:39 11.09.2021
6446 Clouds 21 1023 47 10000 4.12 180 13:30 11.09.2021
6447 Clouds 19 1024 55 10000 3.09 180 12:30 11.09.2021
6448 Clouds 21 1018 48 10000 3.53 95 11:18 11.09.2021
6449 Clouds 15 1026 82 10000 5.14 90 09:35 11.09.2021
6450 Clouds 14 1026 80 10000 0 0 07:44 11.09.2021
6451 Clouds 14 1025 82 10000 0 0 06:47 11.09.2021
6452 Clear 16 1024 70 10000 3.09 160 22:48 10.09.2021
6453 Clear 16 1024 70 10000 3.09 160 22:23 10.09.2021
6454 Clear 17 1024 65 10000 2.57 160 21:48 10.09.2021
6455 Clouds 19 1023 58 10000 3.09 110 19:49 10.09.2021
6456 Clouds 17 1018 55 10000 3.4 108 18:20 10.09.2021
6457 Clouds 22 1022 49 10000 4.63 100 16:48 10.09.2021
6458 Clouds 21 1023 52 10000 2.57 90 13:55 10.09.2021
6459 Clouds 21 1025 54 10000 6.17 160 11:54 10.09.2021
6460 Clouds 16 1026 80 10000 5.14 150 08:36 10.09.2021
6461 Rain 15 1025 89 10000 6.17 160 07:48 10.09.2021
6462 Clouds 17 1024 82 10000 3.6 160 00:42 10.09.2021
6463 Clouds 17 1024 78 10000 3.6 100 22:31 09.09.2021
6464 Clouds 17 1023 78 10000 2.57 150 21:45 09.09.2021
6465 Clouds 17 1023 88 10000 0 0 20:46 09.09.2021
6466 Clouds 17 1022 88 10000 0 0 19:33 09.09.2021
6467 Clouds 17 1022 88 10000 2.57 150 18:26 09.09.2021
6468 Rain 21 1021 64 8000 2.06 150 16:40 09.09.2021
6469 Rain 23 1021 49 10000 3.09 150 15:27 09.09.2021
6470 Rain 19 1015 49 10000 3.37 143 12:48 09.09.2021
6471 Rain 19 1016 54 10000 3.23 142 11:41 09.09.2021
6472 Clouds 21 1020 66 10000 2.79 131 09:50 09.09.2021
6473 Clouds 21 1020 71 10000 2.41 123 08:47 09.09.2021
6474 Clouds 16 1019 82 10000 1.99 89 06:25 09.09.2021
6475 Clouds 15 1016 84 10000 2.15 133 02:19 09.09.2021
6476 Clouds 17 1017 69 10000 2.24 112 22:40 08.09.2021
6477 Clouds 19 1016 63 10000 4.14 101 21:23 08.09.2021
6478 Clouds 19 1016 61 10000 3.98 95 19:56 08.09.2021
6479 Rain 19 1015 67 10000 3.05 92 18:58 08.09.2021
6480 Rain 19 1015 64 10000 2.76 95 18:29 08.09.2021
6481 Rain 20 1015 64 10000 2.76 95 17:55 08.09.2021
6482 Clouds 22 1013 51 10000 1.82 35 16:28 08.09.2021
6483 Clouds 25 1019 41 10000 6.17 90 14:25 08.09.2021
6484 Clouds 23 1022 50 10000 2.57 270 12:46 08.09.2021
6485 Rain 23 1022 50 10000 2.57 270 12:26 08.09.2021
6486 Clouds 21 1023 58 10000 4.12 220 11:29 08.09.2021
6487 Clouds 20 1024 64 10000 3.09 180 10:33 08.09.2021
6488 Clouds 18 1024 72 10000 3.09 130 09:59 08.09.2021
6489 Clouds 17 1025 77 10000 3.6 200 08:31 08.09.2021
6490 Clouds 15 1023 85 10000 3.6 160 07:32 08.09.2021
6491 Clouds 14 1017 86 10000 1.52 140 04:19 08.09.2021
6492 Clouds 15 1023 77 10000 2.06 260 22:43 07.09.2021
6493 Clouds 17 1023 72 10000 1.03 0 21:52 07.09.2021
6494 Clouds 20 1021 63 10000 4.12 120 19:47 07.09.2021
6495 Clouds 21 1020 56 10000 0 0 18:40 07.09.2021
6496 Clouds 22 1020 51 10000 2.57 60 17:49 07.09.2021
6497 Clouds 22 1020 56 10000 2.57 110 16:33 07.09.2021
6498 Clouds 22 1020 52 10000 3.6 120 15:35 07.09.2021
6499 Clouds 21 1021 60 10000 2.57 70 14:41 07.09.2021
6500 Clouds 17 1023 85 10000 2.57 330 12:38 07.09.2021
6501 Drizzle 16 1023 91 900 0 0 11:36 07.09.2021
6502 Rain 15 1024 97 800 0 0 10:40 07.09.2021
6503 Rain 14 1024 100 10000 2.57 110 08:25 07.09.2021
6504 Clouds 14 1023 94 10000 0 0 06:45 07.09.2021
6505 Clouds 14 1022 88 10000 0 0 05:24 07.09.2021
6506 Clouds 15 1021 88 10000 3.6 170 02:32 07.09.2021
6507 Clouds 16 1023 82 10000 0 0 00:40 07.09.2021
6508 Clouds 16 1023 82 10000 2.57 180 23:31 06.09.2021
6509 Clouds 17 1023 75 10000 0 0 22:53 06.09.2021
6510 Clouds 17 1023 75 10000 0 0 22:32 06.09.2021
6511 Clouds 18 1023 68 10000 4.63 160 20:55 06.09.2021
6512 Clouds 19 1017 65 10000 5.45 98 19:22 06.09.2021
6513 Clouds 21 1021 56 10000 2.06 130 18:46 06.09.2021
6514 Clouds 21 1021 56 10000 2.06 130 18:23 06.09.2021
6515 Clouds 22 1020 53 10000 4.12 120 17:36 06.09.2021
6516 Clouds 23 1020 51 10000 4.12 110 15:49 06.09.2021
6517 Clouds 22 1022 56 10000 2.57 100 13:48 06.09.2021
6518 Clouds 21 1023 60 10000 3.09 130 12:47 06.09.2021
6519 Clouds 19 1024 66 10000 0 0 10:45 06.09.2021
6520 Clouds 15 1023 91 10000 4.12 170 07:59 06.09.2021
6521 Clouds 15 1023 88 10000 1.03 0 04:48 06.09.2021
6522 Clear 14 1023 82 10000 1.03 0 23:35 05.09.2021
6523 Clouds 18 1023 67 10000 3.09 180 22:48 05.09.2021
6524 Clouds 18 1023 61 10000 3.09 170 21:58 05.09.2021
6525 Clouds 18 1023 61 10000 3.09 170 21:31 05.09.2021
6526 Clouds 18 1023 61 10000 3.09 170 21:30 05.09.2021
6527 Clouds 18 1021 59 10000 0 0 19:56 05.09.2021
6528 Clouds 20 1020 53 10000 3.09 120 18:42 05.09.2021
6529 Clouds 22 1020 48 10000 7.72 150 17:31 05.09.2021
6530 Clouds 22 1020 48 10000 7.72 150 17:30 05.09.2021
6531 Clouds 23 1020 49 10000 4.12 90 15:27 05.09.2021
6532 Clouds 23 1013 42 10000 3.24 124 14:19 05.09.2021
6533 Clouds 21 1024 56 10000 2.57 0 12:29 05.09.2021
6534 Clouds 18 1024 70 10000 0 0 10:48 05.09.2021
6535 Clouds 20 1018 52 10000 2.56 119 10:23 05.09.2021
6536 Clouds 18 1019 59 10000 2.56 113 09:21 05.09.2021
6537 Clouds 15 1023 85 10000 0 0 07:48 05.09.2021
6538 Clouds 15 1022 82 10000 2.57 240 00:51 05.09.2021
6539 Clouds 15 1022 82 10000 2.57 240 00:22 05.09.2021
6540 Clouds 13 1021 82 10000 1.03 0 23:35 04.09.2021
6541 Clouds 16 1023 77 10000 1.54 40 22:35 04.09.2021
6542 Clouds 16 1023 77 10000 1.54 40 22:35 04.09.2021
6543 Clouds 18 1022 70 10000 2.57 30 21:55 04.09.2021
6544 Clouds 19 1020 66 10000 2.57 60 19:41 04.09.2021
6545 Clouds 19 1020 64 10000 2.57 60 18:39 04.09.2021
6546 Clouds 21 1012 45 10000 3.67 127 16:22 04.09.2021
6547 Clouds 22 1014 47 10000 2.13 120 13:18 04.09.2021
6548 Clouds 18 1017 53 10000 1.64 130 11:19 04.09.2021
6549 Clouds 17 1018 62 10000 2.27 131 09:19 04.09.2021
6550 Clouds 15 1021 91 10000 0 0 05:50 04.09.2021
6551 Clouds 17 1016 80 10000 2.31 86 00:25 04.09.2021
6552 Clouds 17 1022 82 10000 2.57 150 23:31 03.09.2021
6553 Clouds 18 1021 72 10000 2.57 160 21:59 03.09.2021
6554 Clouds 18 1021 72 10000 2.57 160 21:34 03.09.2021
6555 Clouds 18 1020 71 10000 3.09 130 20:42 03.09.2021
6556 Clouds 19 1020 65 10000 0 0 19:50 03.09.2021
6557 Clouds 19 1020 63 10000 3.6 130 18:59 03.09.2021
6558 Clouds 21 1019 54 10000 5.14 120 17:42 03.09.2021
6559 Clouds 21 1019 51 10000 4.12 130 16:34 03.09.2021
6560 Clouds 21 1020 56 10000 5.14 140 14:53 03.09.2021
6561 Clouds 19 1022 63 10000 2.57 180 11:59 03.09.2021
6562 Clouds 19 1023 68 10000 2.57 150 10:27 03.09.2021
6563 Clouds 16 1023 87 10000 2.57 160 08:44 03.09.2021
6564 Clouds 15 1022 89 10000 0 0 07:43 03.09.2021
6565 Clear 16 1021 82 10000 0 0 01:39 03.09.2021
6566 Clear 17 1021 72 10000 3.6 160 22:57 02.09.2021
6567 Clear 18 1021 68 10000 2.57 150 21:31 02.09.2021
6568 Clouds 20 1020 60 10000 3.6 160 19:55 02.09.2021
6569 Rain 22 1019 53 10000 6.17 110 17:32 02.09.2021
6570 Clouds 23 1018 47 10000 7.72 120 15:50 02.09.2021
6571 Clouds 22 1020 53 10000 3.6 90 13:57 02.09.2021
6572 Clouds 21 1021 57 10000 6.17 170 12:42 02.09.2021
6573 Clouds 21 1022 56 10000 5.14 110 11:34 02.09.2021
6574 Clouds 18 1023 70 10000 2.57 100 09:40 02.09.2021
6575 Clouds 16 1022 82 10000 0 0 07:47 02.09.2021
6576 Clouds 16 1022 80 10000 2.57 180 06:58 02.09.2021
6577 Clouds 17 1020 77 10000 0 0 02:51 02.09.2021
6578 Clouds 17 1021 77 10000 6.69 130 01:55 02.09.2021
6579 Clouds 17 1016 76 10000 3.75 76 01:23 02.09.2021
6580 Clouds 17 1015 70 10000 4.39 90 23:37 01.09.2021
6581 Clouds 18 1022 70 10000 5.14 90 22:34 01.09.2021
6582 Clouds 19 1023 63 10000 4.12 90 21:35 01.09.2021
6583 Clouds 20 1021 62 10000 4.12 90 20:28 01.09.2021
6584 Clouds 22 1019 48 10000 4.12 90 18:29 01.09.2021
6585 Clouds 22 1019 48 10000 5.14 100 17:37 01.09.2021
6586 Clouds 23 1019 48 10000 4.12 60 16:46 01.09.2021
6587 Rain 21 1011 48 10000 4.72 106 15:25 01.09.2021
6588 Clouds 21 1021 56 10000 3.6 160 11:50 01.09.2021
6589 Clouds 21 1023 60 10000 3.6 120 10:55 01.09.2021
6590 Clouds 17 1023 72 10000 2.57 150 08:46 01.09.2021
6591 Clouds 16 1022 80 10000 2.06 150 07:51 01.09.2021
6592 Clouds 17 1014 80 10000 1.6 85 01:48 01.09.2021
6593 Clouds 19 1021 68 10000 2.57 120 22:33 31.08.2021
6594 Rain 20 1021 60 10000 3.09 80 21:22 31.08.2021
6595 Rain 22 1018 58 10000 3.09 80 19:45 31.08.2021
6596 Rain 23 1018 47 10000 5.14 90 18:27 31.08.2021
6597 Rain 24 1017 44 10000 3.09 70 17:36 31.08.2021
6598 Rain 24 1017 43 10000 1.54 120 16:52 31.08.2021
6599 Rain 19 1012 65 10000 2.47 85 16:24 31.08.2021
6600 Rain 23 1020 53 10000 5.14 150 12:57 31.08.2021
6601 Rain 20 1013 49 10000 1.38 196 11:27 31.08.2021
6602 Rain 21 1021 60 10000 0 0 10:52 31.08.2021
6603 Clouds 19 1021 70 10000 0 0 09:44 31.08.2021
6604 Clouds 17 1021 80 10000 0 0 08:37 31.08.2021
6605 Clear 15 1019 85 10000 0 0 05:58 31.08.2021
6606 Clear 17 1019 71 10000 0 0 01:36 31.08.2021
6607 Clear 18 1020 63 10000 3.09 90 23:35 30.08.2021
6608 Rain 20 1019 63 10000 0 0 21:43 30.08.2021
6609 Rain 20 1019 77 10000 0 0 20:42 30.08.2021
6610 Rain 21 1014 69 10000 3.96 32 20:19 30.08.2021
6611 Rain 20 1018 73 10000 0 0 19:29 30.08.2021
6612 Clouds 20 1018 80 10000 0 0 18:30 30.08.2021
6613 Clouds 20 1017 77 10000 2.06 310 17:44 30.08.2021
6614 Clouds 22 1010 44 10000 4.04 54 16:19 30.08.2021
6615 Clouds 25 1016 41 10000 3.6 140 14:51 30.08.2021
6616 Clouds 26 1017 38 10000 2.57 120 13:28 30.08.2021
6617 Clouds 25 1018 41 10000 7.72 170 12:24 30.08.2021
6618 Clouds 21 1015 50 10000 1.31 188 08:27 30.08.2021
6619 Clear 20 1019 57 10000 5.14 90 22:27 29.08.2021
6620 Clear 21 1019 53 10000 5.14 80 21:32 29.08.2021
6621 Clear 21 1019 53 10000 5.14 80 21:32 29.08.2021
6622 Clouds 23 1016 45 10000 3.6 60 19:59 29.08.2021
6623 Clouds 21 1010 36 10000 2.13 54 19:18 29.08.2021
6624 Clouds 28 1015 23 10000 0 0 17:42 29.08.2021
6625 Clouds 30 1015 20 10000 4.12 220 15:47 29.08.2021
6626 Clouds 28 1007 19 10000 3.97 219 14:18 29.08.2021
6627 Clouds 30 1017 18 10000 6.69 220 13:28 29.08.2021
6628 Clouds 29 1018 20 10000 7.72 240 12:31 29.08.2021
6629 Clouds 25 1018 36 10000 9.26 210 11:45 29.08.2021
6630 Clouds 23 1019 45 10000 2.57 240 10:52 29.08.2021
6631 Clear 26 1020 31 10000 2.57 0 10:32 29.08.2021
6632 Clouds 21 1020 56 10000 0 0 09:50 29.08.2021
6633 Clouds 10 1020 87 10000 1.03 210 06:41 29.08.2021
6634 Clouds 18 1014 49 10000 2.2 60 00:20 29.08.2021
6635 Clouds 22 1018 37 10000 2.57 360 20:55 28.08.2021
6636 Clouds 22 1017 40 10000 3.09 300 19:53 28.08.2021
6637 Clouds 23 1017 37 10000 2.57 250 18:27 28.08.2021
6638 Clouds 26 1017 31 10000 4.12 240 17:47 28.08.2021
6639 Clouds 27 1017 32 10000 6.17 240 16:58 28.08.2021
6640 Clouds 27 1017 28 10000 10.29 250 15:28 28.08.2021
6641 Clouds 25 1009 22 10000 3.88 228 14:18 28.08.2021
6642 Clouds 28 1019 26 10000 6.17 180 13:42 28.08.2021
6643 Clouds 27 1020 29 10000 9.26 180 12:41 28.08.2021
6644 Clouds 26 1021